# Wetter Temperatur Luftdruck Luftfeuchtigkeit Sichtweite Windgeschwindigkeit Windrichtung Zeit
1 Clouds 6 1001 49 10000 2.06 360 13:46 22.04.2021
2 Clouds 6 1001 49 10000 2.06 360 13:24 22.04.2021
3 Clear 6 1001 49 10000 1.54 360 12:55 22.04.2021
4 Clear 6 1000 49 10000 2.06 20 12:37 22.04.2021
5 Clear 5 1000 52 10000 2.57 20 12:18 22.04.2021
6 Clear 5 1000 48 10000 2.06 350 11:42 22.04.2021
7 Clear 4 1000 52 10000 2.57 360 11:19 22.04.2021
8 Clear 4 1000 52 10000 2.57 350 10:41 22.04.2021
9 Clear 3 1000 56 10000 2.06 320 10:20 22.04.2021
10 Clear 3 1000 56 10000 2.57 340 09:38 22.04.2021
11 Clear 1 1000 64 10000 3.6 340 08:55 22.04.2021
12 Clear 1 999 64 10000 3.6 340 08:36 22.04.2021
13 Clear 0 999 69 10000 3.6 340 08:18 22.04.2021
14 Clear 0 999 64 10000 4.12 350 07:31 22.04.2021
15 Clear 0 999 64 10000 4.12 350 07:31 22.04.2021
16 Clear 0 999 64 10000 4.12 340 06:57 22.04.2021
17 Clear 0 999 64 10000 4.63 350 06:19 22.04.2021
18 Rain 1 999 55 10000 5.14 340 05:23 22.04.2021
19 Clear 3 999 44 10000 3.09 20 02:28 22.04.2021
20 Clear 4 1000 45 10000 2.06 60 00:23 22.04.2021
21 Clear 4 1001 45 10000 1.54 60 23:41 21.04.2021
22 Clear 4 1001 41 10000 1.54 60 23:20 21.04.2021
23 Clear 4 1001 45 10000 1.54 70 22:40 21.04.2021
24 Clear 5 1001 38 10000 1.54 80 22:20 21.04.2021
25 Clear 6 1001 39 10000 1.54 70 21:41 21.04.2021
26 Clear 6 1001 39 10000 1.54 70 21:22 21.04.2021
27 Clear 7 1002 31 10000 1.54 90 20:32 21.04.2021
28 Clear 7 1002 31 10000 1.54 90 20:32 21.04.2021
29 Clear 9 1003 27 10000 2.06 120 19:51 21.04.2021
30 Clear 9 1003 27 10000 2.06 120 19:29 21.04.2021
31 Clear 9 1003 27 10000 2.57 120 18:57 21.04.2021
32 Clear 9 1003 29 10000 2.57 120 18:39 21.04.2021
33 Clear 9 1003 29 10000 2.57 130 18:19 21.04.2021
34 Clear 9 1003 31 10000 3.09 130 17:43 21.04.2021
35 Clear 9 1003 31 10000 3.09 130 17:22 21.04.2021
36 Clear 9 1003 31 10000 3.6 130 16:40 21.04.2021
37 Clear 9 1003 31 10000 3.6 160 15:52 21.04.2021
38 Clear 9 1004 31 10000 4.12 170 15:26 21.04.2021
39 Clear 9 1004 31 10000 5.14 160 14:46 21.04.2021
40 Clear 9 1005 31 10000 5.14 160 14:27 21.04.2021
41 Clear 9 1005 31 10000 5.66 180 13:50 21.04.2021
42 Clear 9 1005 31 10000 5.66 180 13:22 21.04.2021
43 Clear 8 1005 34 10000 5.66 170 12:48 21.04.2021
44 Clear 8 1005 34 10000 5.66 170 12:23 21.04.2021
45 Clear 8 1006 34 10000 5.66 160 11:46 21.04.2021
46 Clear 8 1006 34 10000 5.66 160 11:23 21.04.2021
47 Clear 7 1006 36 10000 6.69 150 10:40 21.04.2021
48 Clear 7 1006 36 10000 5.66 160 09:57 21.04.2021
49 Clear 5 1007 42 10000 4.12 150 09:26 21.04.2021
50 Clear 4 1007 45 10000 5.14 150 08:50 21.04.2021
51 Clear 4 1007 45 10000 5.14 150 08:24 21.04.2021
52 Clear 4 1007 45 10000 4.63 150 07:54 21.04.2021
53 Clear 3 1007 48 10000 4.12 140 07:28 21.04.2021
54 Clear 1 1008 55 10000 3.09 130 06:22 21.04.2021
55 Clear 2 1010 48 10000 2.57 130 02:28 21.04.2021
56 Clear 5 1012 38 10000 3.6 180 00:20 21.04.2021
57 Clear 5 1012 38 10000 3.6 170 23:40 20.04.2021
58 Clear 5 1013 42 10000 3.6 160 22:49 20.04.2021
59 Clear 5 1013 42 10000 3.6 160 22:24 20.04.2021
60 Clear 6 1013 39 10000 4.12 160 21:57 20.04.2021
61 Clear 7 1013 36 10000 4.12 160 21:39 20.04.2021
62 Clear 7 1013 39 10000 3.6 150 21:21 20.04.2021
63 Clear 8 1014 36 10000 3.09 140 20:38 20.04.2021
64 Clear 9 1014 34 10000 3.6 160 20:20 20.04.2021
65 Clear 9 1014 34 10000 3.6 160 19:47 20.04.2021
66 Clear 9 1014 34 10000 3.6 160 19:28 20.04.2021
67 Clear 11 1014 32 10000 5.14 160 18:46 20.04.2021
68 Clear 11 1015 32 10000 5.14 170 18:28 20.04.2021
69 Clear 11 1015 35 10000 6.17 170 17:41 20.04.2021
70 Clear 12 1016 32 10000 5.66 170 16:51 20.04.2021
71 Clear 12 1016 32 10000 5.66 170 16:28 20.04.2021
72 Clear 12 1017 35 10000 6.69 190 15:36 20.04.2021
73 Clear 12 1017 35 10000 5.66 190 15:18 20.04.2021
74 Clear 12 1017 35 10000 5.66 180 14:39 20.04.2021
75 Clear 11 1018 37 10000 5.66 190 14:20 20.04.2021
76 Clear 11 1018 37 10000 5.66 200 13:27 20.04.2021
77 Clear 11 1019 37 10000 6.17 200 12:53 20.04.2021
78 Clear 11 1019 37 10000 7.2 190 12:23 20.04.2021
79 Clear 11 1020 40 10000 4.63 160 11:46 20.04.2021
80 Clear 11 1020 40 10000 4.63 160 11:46 20.04.2021
81 Clear 11 1020 40 10000 4.63 160 11:25 20.04.2021
82 Clear 10 1020 40 10000 4.63 160 10:47 20.04.2021
83 Clear 10 1020 40 10000 4.63 160 10:24 20.04.2021
84 Clear 9 1021 37 10000 3.09 170 09:45 20.04.2021
85 Clear 7 1021 42 10000 3.09 180 08:59 20.04.2021
86 Clear 6 1021 45 10000 3.09 180 08:34 20.04.2021
87 Clear 5 1022 48 10000 3.09 180 07:52 20.04.2021
88 Clear 4 1022 52 10000 3.6 200 07:21 20.04.2021
89 Clear 3 1022 56 10000 3.6 180 05:41 20.04.2021
90 Clear 3 1023 52 10000 2.57 190 04:42 20.04.2021
91 Clear 4 1023 48 10000 2.57 180 02:47 20.04.2021
92 Clear 4 1024 48 10000 3.09 170 00:49 20.04.2021
93 Clear 6 1024 42 10000 3.09 190 23:47 19.04.2021
94 Clear 6 1024 42 10000 3.09 190 23:27 19.04.2021
95 Clear 6 1025 39 10000 3.6 200 22:36 19.04.2021
96 Clear 7 1025 39 10000 2.57 200 21:54 19.04.2021
97 Clear 7 1025 42 10000 3.6 210 21:35 19.04.2021
98 Clear 7 1025 42 10000 2.57 210 20:56 19.04.2021
99 Clear 8 1025 39 10000 2.57 230 20:38 19.04.2021
100 Clear 9 1025 40 10000 2.57 220 20:20 19.04.2021
101 Clear 9 1025 37 10000 3.6 220 19:42 19.04.2021
102 Clear 9 1025 37 10000 3.6 220 19:24 19.04.2021
103 Clear 9 1026 40 10000 3.6 220 18:47 19.04.2021
104 Clear 10 1026 37 10000 4.12 230 18:23 19.04.2021
105 Clear 10 1026 37 10000 4.12 230 17:55 19.04.2021
106 Clear 10 1026 34 10000 5.14 230 17:29 19.04.2021
107 Clear 11 1026 30 10000 6.17 220 16:57 19.04.2021
108 Clear 11 1026 32 10000 5.14 210 16:57 19.04.2021
109 Clear 11 1026 32 10000 5.14 210 16:38 19.04.2021
110 Clear 12 1026 28 10000 5.14 210 16:20 19.04.2021
111 Clear 11 1026 32 10000 5.66 210 15:33 19.04.2021
112 Clear 12 1026 32 10000 5.14 200 14:56 19.04.2021
113 Clear 11 1027 35 10000 4.63 210 14:37 19.04.2021
114 Clear 11 1027 35 10000 4.12 230 14:18 19.04.2021
115 Clear 11 1027 32 10000 3.6 220 13:36 19.04.2021
116 Clear 11 1027 35 10000 4.12 200 13:18 19.04.2021
117 Clear 11 1027 35 10000 4.12 210 12:40 19.04.2021
118 Clear 10 1028 37 10000 4.12 210 12:20 19.04.2021
119 Clear 10 1028 37 10000 4.12 190 11:52 19.04.2021
120 Clear 9 1028 40 10000 4.12 210 11:21 19.04.2021
121 Clear 9 1028 43 10000 3.09 210 10:45 19.04.2021
122 Clear 8 1028 46 10000 3.09 200 10:20 19.04.2021
123 Clear 8 1028 42 10000 3.09 200 09:48 19.04.2021
124 Clear 8 1028 42 10000 3.09 200 09:27 19.04.2021
125 Clear 7 1028 45 10000 2.57 180 08:55 19.04.2021
126 Clear 6 1028 49 10000 2.57 190 08:24 19.04.2021
127 Clear 4 1029 52 10000 2.57 190 07:45 19.04.2021
128 Clear 3 1029 60 10000 2.06 210 07:18 19.04.2021
129 Clear 1 1029 64 10000 2.06 210 05:43 19.04.2021
130 Clear 3 1029 56 10000 3.09 210 02:34 19.04.2021
131 Clear 5 1030 52 10000 3.09 220 00:45 19.04.2021
132 Clear 6 1030 49 10000 2.57 210 23:22 18.04.2021
133 Clear 6 1030 49 10000 2.57 190 22:58 18.04.2021
134 Clear 6 1030 49 10000 2.57 200 22:40 18.04.2021
135 Clear 7 1030 49 10000 2.57 220 22:22 18.04.2021
136 Clear 8 1030 42 10000 2.06 220 21:29 18.04.2021
137 Clear 9 1030 40 10000 1.54 230 20:55 18.04.2021
138 Clear 9 1030 40 10000 1.54 230 20:55 18.04.2021
139 Clear 9 1030 40 10000 2.57 220 20:37 18.04.2021
140 Clear 10 1030 37 10000 2.06 190 20:19 18.04.2021
141 Clear 10 1030 37 10000 2.57 200 19:41 18.04.2021
142 Clear 11 1029 35 10000 2.57 220 19:21 18.04.2021
143 Clear 11 1030 35 10000 2.57 220 18:45 18.04.2021
144 Clear 11 1030 35 10000 2.57 220 18:26 18.04.2021
145 Clear 11 1030 35 10000 3.09 220 17:47 18.04.2021
146 Clear 11 1030 35 10000 3.09 220 17:28 18.04.2021
147 Clear 12 1030 32 10000 3.6 230 16:52 18.04.2021
148 Clear 11 1030 35 10000 3.6 220 16:34 18.04.2021
149 Clear 11 1030 37 10000 3.6 210 15:49 18.04.2021
150 Clear 11 1030 37 10000 3.6 210 15:28 18.04.2021
151 Clear 11 1030 35 10000 3.6 210 14:53 18.04.2021
152 Clear 10 1031 37 10000 3.09 210 14:28 18.04.2021
153 Clear 11 1031 35 10000 3.09 200 13:56 18.04.2021
154 Clear 11 1031 35 10000 3.09 200 13:38 18.04.2021
155 Clear 10 1031 37 10000 2.06 200 13:18 18.04.2021
156 Clear 9 1031 40 10000 2.57 210 12:32 18.04.2021
157 Clear 9 1032 43 10000 2.57 210 11:45 18.04.2021
158 Clear 9 1032 43 10000 2.57 210 11:22 18.04.2021
159 Clear 7 1032 49 10000 2.06 220 10:48 18.04.2021
160 Clear 7 1032 49 10000 2.06 220 10:23 18.04.2021
161 Clear 6 1032 49 10000 3.09 220 09:53 18.04.2021
162 Clear 6 1032 49 10000 3.09 220 09:35 18.04.2021
163 Clear 4 1032 60 10000 3.6 210 08:57 18.04.2021
164 Clear 4 1032 60 10000 3.6 210 08:35 18.04.2021
165 Clear 3 1032 65 10000 3.09 210 07:59 18.04.2021
166 Clear 3 1032 65 10000 3.09 220 07:38 18.04.2021
167 Clear 2 1032 69 10000 2.57 220 05:43 18.04.2021
168 Clear 2 1032 69 10000 2.57 220 05:24 18.04.2021
169 Clear 1 1032 75 10000 1.03 100 02:56 18.04.2021
170 Clear 3 1032 65 10000 2.06 200 02:22 18.04.2021
171 Clear 2 1032 69 10000 1.54 210 00:38 18.04.2021
172 Clear 2 1032 69 10000 1.54 230 23:38 17.04.2021
173 Clear 3 1032 65 10000 2.06 240 22:51 17.04.2021
174 Clear 3 1032 65 10000 2.06 240 22:31 17.04.2021
175 Clear 5 1032 60 10000 2.57 230 21:50 17.04.2021
176 Clear 5 1032 60 10000 2.57 230 21:30 17.04.2021
177 Clear 7 1032 53 10000 3.09 230 20:48 17.04.2021
178 Clear 8 1032 49 10000 3.09 220 20:27 17.04.2021
179 Clear 8 1032 49 10000 3.6 220 19:45 17.04.2021
180 Clear 8 1032 49 10000 4.12 220 19:21 17.04.2021
181 Clear 8 1032 49 10000 4.12 220 18:55 17.04.2021
182 Clear 9 1031 46 10000 4.63 220 18:35 17.04.2021
183 Clear 9 1031 46 10000 4.63 220 17:56 17.04.2021
184 Clear 9 1031 46 10000 4.63 210 17:38 17.04.2021
185 Clear 10 1031 40 10000 4.63 210 16:52 17.04.2021
186 Clear 11 1032 35 10000 3.09 230 16:27 17.04.2021
187 Clear 11 1032 35 10000 2.57 270 15:39 17.04.2021
188 Clear 10 1032 37 10000 4.12 240 14:50 17.04.2021
189 Clear 10 1032 37 10000 4.12 240 14:29 17.04.2021
190 Clear 11 1032 35 10000 3.6 280 13:46 17.04.2021
191 Clear 10 1033 40 10000 3.09 280 13:19 17.04.2021
192 Clear 10 1033 37 10000 4.63 270 12:36 17.04.2021
193 Clear 10 1033 37 10000 5.14 270 11:59 17.04.2021
194 Clear 9 1033 43 10000 3.09 250 11:39 17.04.2021
195 Clear 9 1033 43 10000 3.09 250 11:39 17.04.2021
196 Clear 8 1033 49 10000 3.6 210 11:20 17.04.2021
197 Clear 7 1033 49 10000 3.6 220 10:41 17.04.2021
198 Clear 6 1033 56 10000 3.09 220 10:18 17.04.2021
199 Clear 4 1033 65 10000 2.57 240 09:19 17.04.2021
200 Clear 3 1033 65 10000 2.06 240 08:33 17.04.2021
201 Clear 2 1033 69 10000 2.57 230 07:59 17.04.2021
202 Clear 0 1033 74 10000 2.06 230 06:41 17.04.2021
203 Clear 0 1033 74 10000 2.57 240 03:49 17.04.2021
204 Clear 1 1033 75 10000 2.06 250 02:26 17.04.2021
205 Clear 3 1033 65 10000 1.54 240 00:42 17.04.2021
206 Clear 2 1033 69 10000 2.57 240 00:20 17.04.2021
207 Clear 4 1033 60 10000 3.09 240 23:43 16.04.2021
208 Clear 4 1033 60 10000 2.57 250 22:52 16.04.2021
209 Clear 4 1033 60 10000 2.57 250 22:25 16.04.2021
210 Clear 5 1033 52 10000 2.57 230 21:58 16.04.2021
211 Clear 5 1033 52 10000 4.12 210 21:40 16.04.2021
212 Clear 7 1033 42 10000 2.06 230 21:21 16.04.2021
213 Clear 7 1033 45 10000 1.54 230 20:45 16.04.2021
214 Clear 8 1033 39 10000 1.54 240 20:18 16.04.2021
215 Clear 8 1033 39 10000 1.54 240 19:47 16.04.2021
216 Clear 9 1033 37 10000 2.06 260 19:20 16.04.2021
217 Clear 9 1033 37 10000 2.57 250 18:28 16.04.2021
218 Clear 9 1033 37 10000 3.09 270 17:51 16.04.2021
219 Clear 10 1033 34 10000 3.09 280 17:20 16.04.2021
220 Clear 10 1033 34 10000 3.09 300 16:45 16.04.2021
221 Clear 10 1033 34 10000 3.09 300 16:26 16.04.2021
222 Clear 10 1033 32 10000 3.09 280 15:56 16.04.2021
223 Clear 9 1033 37 10000 3.09 260 15:36 16.04.2021
224 Clear 9 1034 37 10000 3.6 270 14:46 16.04.2021
225 Clear 9 1034 37 10000 3.6 270 14:28 16.04.2021
226 Clear 9 1034 37 10000 1.54 300 13:56 16.04.2021
227 Clear 8 1034 39 10000 4.12 240 13:23 16.04.2021
228 Clear 8 1034 42 10000 3.09 260 12:54 16.04.2021
229 Clear 8 1034 42 10000 2.57 270 12:36 16.04.2021
230 Clear 8 1034 42 10000 3.09 260 11:59 16.04.2021
231 Clear 7 1034 49 10000 2.06 240 11:41 16.04.2021
232 Clear 6 1034 52 10000 2.57 220 11:20 16.04.2021
233 Clear 6 1034 52 10000 2.06 240 10:41 16.04.2021
234 Clear 5 1033 60 10000 2.06 230 10:20 16.04.2021
235 Clear 4 1033 65 10000 2.06 230 09:44 16.04.2021
236 Clear 2 1033 75 10000 1.54 220 09:21 16.04.2021
237 Clear 2 1033 69 10000 1.03 0 08:44 16.04.2021
238 Clear 1 1033 75 10000 1.54 240 08:19 16.04.2021
239 Clear 0 1033 74 10000 0.51 280 07:42 16.04.2021
240 Clear -1 1032 86 10000 1.54 250 07:18 16.04.2021
241 Clear 0 1032 80 10000 1.54 270 06:35 16.04.2021
242 Clear -1 1032 86 10000 2.57 270 05:31 16.04.2021
243 Clear 0 1030 80 10000 2.06 250 01:40 16.04.2021
244 Clear 0 1029 80 10000 2.06 260 00:44 16.04.2021
245 Clear 1 1029 75 10000 2.06 240 00:20 16.04.2021
246 Clear 2 1029 75 10000 2.06 240 23:51 15.04.2021
247 Clear 2 1029 75 10000 2.06 240 23:27 15.04.2021
248 Clear 3 1028 70 10000 3.09 210 22:47 15.04.2021
249 Clear 3 1028 70 10000 3.09 210 22:23 15.04.2021
250 Clear 3 1028 70 10000 3.09 210 22:23 15.04.2021
251 Clear 3 1028 70 10000 3.09 230 21:43 15.04.2021
252 Clear 3 1028 70 10000 3.09 230 21:24 15.04.2021
253 Clear 4 1027 65 10000 3.6 220 20:47 15.04.2021
254 Clear 4 1027 65 10000 3.6 220 20:25 15.04.2021
255 Clear 5 1027 60 10000 3.6 220 19:47 15.04.2021
256 Clear 5 1027 60 10000 3.6 220 19:28 15.04.2021
257 Clear 6 1027 56 10000 4.63 220 18:46 15.04.2021
258 Clear 6 1027 56 10000 4.63 220 18:22 15.04.2021
259 Clear 6 1027 52 10000 4.12 230 17:58 15.04.2021
260 Clear 6 1026 52 10000 5.66 210 17:39 15.04.2021
261 Clear 7 1026 49 10000 4.63 220 17:21 15.04.2021
262 Clear 7 1026 49 10000 6.17 220 16:43 15.04.2021
263 Clear 6 1026 52 10000 7.2 210 16:23 15.04.2021
264 Clouds 7 1026 45 10000 5.66 220 15:46 15.04.2021
265 Clouds 7 1026 45 10000 5.66 220 15:26 15.04.2021
266 Clear 7 1026 45 10000 5.66 230 14:41 15.04.2021
267 Clear 7 1026 45 10000 6.17 230 14:23 15.04.2021
268 Clear 6 1025 49 10000 5.14 240 13:46 15.04.2021
269 Clear 6 1025 49 10000 5.14 240 13:46 15.04.2021
270 Clear 6 1025 49 10000 4.63 230 13:19 15.04.2021
271 Clear 5 1025 52 10000 5.14 220 12:46 15.04.2021
272 Clear 5 1025 52 10000 5.14 220 12:24 15.04.2021
273 Clear 4 1025 52 10000 6.17 230 11:47 15.04.2021
274 Clear 4 1025 52 10000 6.17 230 11:25 15.04.2021
275 Clear 3 1025 56 10000 6.69 230 10:55 15.04.2021
276 Clear 3 1024 52 10000 5.14 230 10:28 15.04.2021
277 Clear 1 1024 60 10000 5.14 230 09:50 15.04.2021
278 Clear 1 1024 60 10000 5.14 230 09:28 15.04.2021
279 Clouds -1 1023 64 10000 6.69 240 08:49 15.04.2021
280 Clouds -1 1023 64 10000 6.69 240 08:23 15.04.2021
281 Clear -2 1023 64 10000 6.17 220 07:25 15.04.2021
282 Clear -4 1023 74 10000 5.14 220 06:49 15.04.2021
283 Clear -4 1023 74 10000 5.14 220 06:30 15.04.2021
284 Clear -4 1022 68 10000 4.12 220 04:52 15.04.2021
285 Clear -3 1022 63 10000 3.6 230 01:58 15.04.2021
286 Clear -1 1022 55 10000 2.57 270 23:43 14.04.2021
287 Clear -1 1022 55 10000 2.57 270 23:43 14.04.2021
288 Clear -1 1022 55 10000 2.57 270 23:25 14.04.2021
289 Clear 0 1021 51 10000 3.09 260 22:47 14.04.2021
290 Clear 0 1021 51 10000 3.09 260 22:26 14.04.2021
291 Clear 0 1020 51 10000 3.09 260 21:51 14.04.2021
292 Clear 0 1020 51 10000 3.09 260 21:32 14.04.2021
293 Clear 1 1020 44 10000 2.57 260 20:58 14.04.2021
294 Clear 1 1020 44 10000 1.54 260 20:34 14.04.2021
295 Clear 2 1019 41 10000 2.06 270 19:55 14.04.2021
296 Clear 3 1018 35 10000 3.6 300 19:21 14.04.2021
297 Clear 3 1018 35 10000 3.6 300 18:57 14.04.2021
298 Clear 3 1018 38 10000 4.12 300 18:36 14.04.2021
299 Clear 3 1018 35 10000 3.6 300 18:18 14.04.2021
300 Clear 4 1017 33 10000 4.63 300 17:28 14.04.2021
301 Clear 4 1017 33 10000 5.66 310 16:54 14.04.2021
302 Clear 4 1016 33 10000 6.17 280 16:28 14.04.2021
303 Clear 4 1015 38 10000 5.66 270 15:47 14.04.2021
304 Clear 4 1015 38 10000 5.66 270 15:28 14.04.2021
305 Clouds 4 1015 38 10000 5.14 280 14:56 14.04.2021
306 Clouds 4 1014 45 10000 5.14 300 14:37 14.04.2021
307 Clouds 3 1014 48 10000 6.69 290 14:18 14.04.2021
308 Clouds 3 1013 48 10000 5.66 290 13:44 14.04.2021
309 Clouds 2 1013 60 10000 4.63 290 12:41 14.04.2021
310 Clouds 1 1012 60 10000 5.14 270 12:18 14.04.2021
311 Clouds 1 1012 64 10000 6.17 240 11:39 14.04.2021
312 Clouds 1 1012 64 10000 6.17 240 11:39 14.04.2021
313 Clouds 0 1012 69 10000 5.66 240 11:19 14.04.2021
314 Clear -1 1011 74 10000 5.66 230 10:33 14.04.2021
315 Clear -1 1011 74 10000 4.63 240 09:43 14.04.2021
316 Clear -1 1011 74 10000 4.63 240 09:23 14.04.2021
317 Clear -3 1011 86 10000 4.12 230 08:48 14.04.2021
318 Clear -3 1011 86 10000 4.12 230 08:23 14.04.2021
319 Clear -4 1010 93 10000 4.12 230 07:27 14.04.2021
320 Clear -4 1010 86 10000 3.09 240 06:27 14.04.2021
321 Clouds -3 1010 86 10000 2.57 260 05:23 14.04.2021
322 Snow -1 1009 100 6000 3.6 240 01:54 14.04.2021
323 Snow -1 1009 100 6000 4.63 230 00:49 14.04.2021
324 Snow -1 1009 100 6000 4.63 230 00:25 14.04.2021
325 Snow -1 1009 100 7000 5.66 220 23:31 13.04.2021
326 Snow 0 1009 93 8000 6.17 220 22:44 13.04.2021
327 Snow 0 1010 93 10000 6.17 220 22:20 13.04.2021
328 Snow 0 1010 93 10000 5.66 220 21:48 13.04.2021
329 Snow 0 1010 93 10000 5.66 220 21:29 13.04.2021
330 Snow 0 1010 93 4800 6.69 220 20:48 13.04.2021
331 Snow 0 1010 93 4800 6.69 220 20:24 13.04.2021
332 Clouds 0 1010 93 10000 7.72 220 19:56 13.04.2021
333 Clouds 0 1010 93 10000 8.23 210 19:25 13.04.2021
334 Clouds 0 1010 93 10000 8.23 220 18:46 13.04.2021
335 Snow 0 1010 93 10000 8.23 220 18:28 13.04.2021
336 Snow 0 1010 100 5000 6.17 200 17:40 13.04.2021
337 Snow 0 1010 100 2100 6.17 200 17:18 13.04.2021
338 Snow 1 1010 93 2100 4.12 190 16:45 13.04.2021
339 Snow 1 1010 93 2100 4.12 190 16:25 13.04.2021
340 Snow 1 1010 100 2100 2.06 170 15:53 13.04.2021
341 Snow 1 1011 93 4000 1.54 110 15:34 13.04.2021
342 Snow 1 1011 93 8000 2.57 60 14:50 13.04.2021
343 Snow 1 1011 93 8000 2.57 60 14:22 13.04.2021
344 Snow 0 1011 100 3500 3.09 60 13:45 13.04.2021
345 Snow 0 1011 100 3500 3.09 60 13:26 13.04.2021
346 Snow 0 1011 100 3000 3.6 30 12:58 13.04.2021
347 Snow 0 1011 100 3000 4.63 40 12:31 13.04.2021
348 Snow 0 1011 100 3000 5.14 40 11:59 13.04.2021
349 Snow 0 1011 93 3000 6.17 40 11:31 13.04.2021
350 Snow 0 1011 93 4000 6.17 40 10:56 13.04.2021
351 Snow 0 1011 93 2500 5.66 40 10:24 13.04.2021
352 Snow 0 1011 93 2000 5.14 40 09:59 13.04.2021
353 Snow 0 1011 93 5000 5.66 40 09:40 13.04.2021
354 Snow 0 1011 93 3000 6.17 40 09:18 13.04.2021
355 Snow 0 1011 93 4000 6.17 30 08:41 13.04.2021
356 Snow 0 1011 93 4000 6.17 30 08:41 13.04.2021
357 Snow -1 1011 100 2500 6.69 30 08:20 13.04.2021
358 Snow -1 1012 100 2000 6.69 30 07:36 13.04.2021
359 Snow -1 1012 100 2000 6.17 30 06:31 13.04.2021
360 Snow 0 1013 93 4200 7.72 30 04:50 13.04.2021
361 Snow 0 1014 93 4100 6.17 40 02:37 13.04.2021
362 Snow 0 1016 93 5000 6.17 40 00:33 13.04.2021
363 Snow 0 1017 93 5000 5.14 50 23:49 12.04.2021
364 Snow 0 1017 93 5000 5.14 50 23:26 12.04.2021
365 Snow 0 1017 93 4300 4.12 70 22:39 12.04.2021
366 Snow 0 1018 93 10000 3.09 70 22:18 12.04.2021
367 Snow 0 1018 93 10000 3.09 90 21:45 12.04.2021
368 Clear 0 1018 93 10000 2.57 100 21:19 12.04.2021
369 Snow 0 1018 86 10000 2.57 100 20:38 12.04.2021
370 Snow 1 1018 80 10000 2.57 130 20:20 12.04.2021
371 Snow 1 1018 80 10000 2.57 140 19:43 12.04.2021
372 Snow 1 1018 80 10000 2.57 140 19:23 12.04.2021
373 Rain 2 1018 69 10000 2.57 150 18:59 12.04.2021
374 Rain 2 1018 69 10000 3.6 160 18:40 12.04.2021
375 Clear 3 1018 60 10000 3.09 130 18:22 12.04.2021
376 Clear 3 1018 56 10000 2.06 120 17:43 12.04.2021
377 Clear 3 1018 56 10000 2.06 120 17:43 12.04.2021
378 Clear 3 1018 56 10000 2.06 120 17:22 12.04.2021
379 Clear 3 1019 60 10000 2.06 110 16:46 12.04.2021
380 Clear 3 1019 60 10000 2.06 110 16:46 12.04.2021
381 Clear 3 1019 60 10000 2.06 110 16:27 12.04.2021
382 Clear 3 1019 56 10000 2.57 120 15:48 12.04.2021
383 Clear 3 1019 56 10000 2.57 120 15:25 12.04.2021
384 Clear 4 1020 48 10000 2.57 120 14:50 12.04.2021
385 Clear 4 1020 48 10000 2.57 120 14:29 12.04.2021
386 Clear 4 1020 48 10000 1.03 0 13:46 12.04.2021
387 Clear 4 1020 48 10000 1.03 0 13:26 12.04.2021
388 Clear 3 1020 52 10000 2.06 210 12:45 12.04.2021
389 Clear 3 1020 52 10000 2.06 210 12:24 12.04.2021
390 Clear 3 1020 52 10000 2.06 210 12:24 12.04.2021
391 Clear 3 1021 52 10000 2.06 210 11:56 12.04.2021
392 Clear 1 1021 60 10000 2.57 210 11:18 12.04.2021
393 Clear 1 1021 64 10000 3.09 210 10:41 12.04.2021
394 Clear 1 1021 64 10000 3.09 210 10:22 12.04.2021
395 Clear -1 1021 74 10000 3.09 200 09:40 12.04.2021
396 Clear -1 1021 74 10000 3.6 210 09:18 12.04.2021
397 Clear -2 1021 80 10000 4.12 220 08:35 12.04.2021
398 Clear -3 1021 80 10000 4.12 220 07:38 12.04.2021
399 Clear -3 1021 80 10000 3.09 210 07:19 12.04.2021
400 Clear -4 1020 86 10000 3.09 220 05:51 12.04.2021
401 Clear -3 1020 80 10000 3.6 220 04:28 12.04.2021
402 Clear -1 1019 80 10000 2.57 230 00:52 12.04.2021
403 Clear -1 1019 80 10000 2.57 230 00:24 12.04.2021
404 Clear -1 1019 80 10000 2.57 230 00:24 12.04.2021
405 Clear 0 1018 80 10000 3.09 230 23:46 11.04.2021
406 Clear 0 1018 80 10000 3.09 230 23:23 11.04.2021
407 Clear 1 1018 75 10000 3.6 230 22:45 11.04.2021
408 Clear 1 1018 75 10000 3.6 230 22:22 11.04.2021
409 Clear 2 1016 69 10000 2.57 250 21:46 11.04.2021
410 Clear 2 1016 69 10000 2.57 250 21:27 11.04.2021
411 Clear 2 1016 64 10000 3.6 230 20:52 11.04.2021
412 Clear 3 1015 60 10000 3.6 230 20:28 11.04.2021
413 Clear 4 1014 45 10000 4.63 260 19:54 11.04.2021
414 Clear 4 1014 45 10000 4.63 260 19:36 11.04.2021
415 Clear 5 1013 45 10000 4.63 260 19:18 11.04.2021
416 Clear 5 1013 45 10000 4.63 260 19:18 11.04.2021
417 Clear 5 1013 45 10000 5.66 260 18:42 11.04.2021
418 Clear 5 1013 45 10000 5.66 260 18:23 11.04.2021
419 Clear 6 1012 45 10000 6.17 260 17:45 11.04.2021
420 Clear 6 1012 45 10000 6.17 260 17:26 11.04.2021
421 Clouds 4 1010 75 10000 5.14 230 16:47 11.04.2021
422 Clouds 4 1010 75 10000 5.14 230 16:23 11.04.2021
423 Clear 3 1009 81 10000 5.66 230 15:51 11.04.2021
424 Clear 3 1009 81 10000 5.66 230 15:27 11.04.2021
425 Clear 2 1008 87 10000 6.17 220 14:55 11.04.2021
426 Clear 2 1008 87 10000 6.17 220 14:31 11.04.2021
427 Clear 2 1007 80 10000 6.69 220 13:51 11.04.2021
428 Clear 2 1007 80 10000 6.69 220 13:31 11.04.2021
429 Clouds 1 1005 80 10000 5.66 220 12:49 11.04.2021
430 Clouds 0 1005 86 10000 6.69 220 12:21 11.04.2021
431 Rain 0 1004 80 10000 6.17 220 11:50 11.04.2021
432 Snow -1 1004 86 10000 7.2 220 11:23 11.04.2021
433 Snow -2 1003 86 10000 7.2 220 10:48 11.04.2021
434 Snow -2 1003 86 10000 7.2 220 10:30 11.04.2021
435 Snow -2 1003 86 10000 6.69 230 09:56 11.04.2021
436 Snow -3 1002 86 10000 7.72 220 09:33 11.04.2021
437 Snow -4 1001 86 10000 6.17 220 08:51 11.04.2021
438 Snow -4 1001 86 10000 6.17 220 08:24 11.04.2021
439 Snow -5 1000 86 10000 6.17 220 07:22 11.04.2021
440 Snow -6 1000 93 10000 6.69 220 06:50 11.04.2021
441 Clear -5 1000 93 10000 5.66 220 05:41 11.04.2021
442 Clear -5 999 93 10000 6.17 220 05:19 11.04.2021
443 Clouds -5 999 93 10000 5.14 220 04:34 11.04.2021
444 Clouds -3 999 100 6000 5.14 220 01:45 11.04.2021
445 Clouds -3 999 100 10000 4.63 220 00:33 11.04.2021
446 Clouds -2 998 93 10000 4.63 230 23:47 10.04.2021
447 Clouds -2 998 93 10000 4.63 230 23:47 10.04.2021
448 Snow -2 998 93 10000 4.63 230 23:24 10.04.2021
449 Snow -2 998 100 10000 4.12 220 22:43 10.04.2021
450 Snow -2 998 100 8000 4.12 220 22:20 10.04.2021
451 Snow -2 998 100 8000 4.12 220 22:20 10.04.2021
452 Snow -2 998 100 9000 4.12 220 21:40 10.04.2021
453 Snow -2 998 100 8000 4.63 220 21:20 10.04.2021
454 Snow -2 997 100 10000 5.14 210 20:42 10.04.2021
455 Snow -2 997 100 10000 5.14 210 20:23 10.04.2021
456 Snow -2 997 100 7000 4.12 220 19:44 10.04.2021
457 Snow -2 997 100 7000 4.12 220 19:25 10.04.2021
458 Snow -2 997 100 7000 4.12 220 19:25 10.04.2021
459 Snow -2 996 100 3500 4.12 230 18:50 10.04.2021
460 Snow -2 996 100 3500 4.12 230 18:28 10.04.2021
461 Snow -2 995 100 2600 5.14 220 17:37 10.04.2021
462 Snow -2 994 100 3800 5.66 210 16:57 10.04.2021
463 Snow -2 994 100 3000 4.63 230 16:27 10.04.2021
464 Snow -2 993 93 3600 5.66 230 15:53 10.04.2021
465 Snow -2 992 93 4000 7.72 220 15:19 10.04.2021
466 Snow -2 992 93 1100 6.17 240 14:41 10.04.2021
467 Snow -2 991 93 1000 7.2 230 14:18 10.04.2021
468 Snow -2 990 93 1100 6.69 230 13:40 10.04.2021
469 Snow -1 989 93 10000 7.2 220 12:49 10.04.2021
470 Snow -1 989 93 10000 7.2 220 12:26 10.04.2021
471 Snow -1 987 93 10000 7.72 220 11:47 10.04.2021
472 Snow -1 987 93 10000 7.72 220 11:25 10.04.2021
473 Snow -1 986 93 9000 8.75 220 10:52 10.04.2021
474 Snow -1 985 100 2600 8.75 210 10:31 10.04.2021
475 Snow -1 984 100 2200 9.26 200 09:45 10.04.2021
476 Snow -1 983 100 3400 7.2 200 09:19 10.04.2021
477 Snow -1 982 100 3000 6.69 190 08:46 10.04.2021
478 Snow -1 982 100 3000 6.69 190 08:28 10.04.2021
479 Snow -1 982 93 2400 5.66 170 07:29 10.04.2021
480 Snow -1 981 100 3600 5.66 170 06:49 10.04.2021
481 Snow -1 981 100 2100 5.66 160 05:54 10.04.2021
482 Snow 0 981 100 3900 6.17 190 03:46 10.04.2021
483 Snow 0 981 100 10000 6.17 150 02:50 10.04.2021
484 Snow 0 981 100 10000 5.14 140 02:18 10.04.2021
485 Snow 0 982 100 5000 4.63 140 00:40 10.04.2021
486 Snow 0 982 100 7000 4.63 140 23:59 09.04.2021
487 Snow 0 982 100 6000 4.63 140 23:36 09.04.2021
488 Snow 0 983 100 3500 4.12 130 22:57 09.04.2021
489 Snow 0 983 93 10000 4.12 130 22:37 09.04.2021
490 Snow -1 983 100 6000 4.63 120 21:44 09.04.2021
491 Snow -1 983 100 6000 4.63 120 21:23 09.04.2021
492 Snow -1 984 93 3600 5.14 120 20:59 09.04.2021
493 Snow -1 984 93 2300 6.17 100 20:40 09.04.2021
494 Snow -1 984 93 2400 6.17 100 20:21 09.04.2021
495 Snow -1 985 93 2600 6.17 90 19:43 09.04.2021
496 Snow -1 985 93 2600 6.17 90 19:23 09.04.2021
497 Snow -1 986 93 1100 6.69 90 18:44 09.04.2021
498 Snow -1 986 93 1100 6.69 90 18:25 09.04.2021
499 Snow -1 987 93 2000 5.66 100 17:49 09.04.2021
500 Snow -1 987 93 2000 5.66 100 17:31 09.04.2021
501 Snow -1 988 86 2000 6.69 110 16:55 09.04.2021
502 Snow -1 989 86 1500 6.69 130 16:30 09.04.2021
503 Snow 1 989 51 10000 7.2 130 15:47 09.04.2021
504 Snow 1 989 51 10000 7.2 130 15:24 09.04.2021
505 Clear 2 990 41 10000 5.66 130 14:47 09.04.2021
506 Clear 2 990 41 10000 5.66 130 14:29 09.04.2021
507 Clouds 1 992 47 10000 5.66 160 13:47 09.04.2021
508 Clouds 1 992 47 10000 5.66 160 13:22 09.04.2021
509 Clouds 1 992 47 10000 5.14 170 12:47 09.04.2021
510 Clouds 1 992 47 10000 5.14 170 12:47 09.04.2021
511 Clouds 1 992 47 10000 5.14 170 12:24 09.04.2021
512 Clouds 1 993 47 10000 4.12 170 11:43 09.04.2021
513 Clear 0 993 55 10000 3.09 150 11:20 09.04.2021
514 Clear 0 993 51 10000 2.57 160 10:38 09.04.2021
515 Clear -1 993 59 10000 3.6 170 09:59 09.04.2021
516 Clear -3 993 68 10000 3.09 190 09:28 09.04.2021
517 Clear -3 993 68 10000 3.09 180 08:56 09.04.2021
518 Clear -4 993 74 10000 2.57 200 08:33 09.04.2021
519 Fog -7 993 93 10000 2.06 210 07:32 09.04.2021
520 Fog -7 994 93 10000 2.06 230 06:30 09.04.2021
521 Fog -7 994 93 10000 2.06 230 06:30 09.04.2021
522 Clear -7 994 93 10000 2.57 230 05:36 09.04.2021
523 Clear -5 994 68 10000 2.06 210 03:43 09.04.2021
524 Clear -4 995 68 10000 2.06 220 00:39 09.04.2021
525 Clear -4 995 68 10000 1.03 250 00:21 09.04.2021
526 Clear -4 995 63 10000 1.54 250 23:38 08.04.2021
527 Clear -1 995 47 10000 1.54 270 22:56 08.04.2021
528 Clear -1 995 55 10000 1.54 250 22:31 08.04.2021
529 Clear -2 995 64 10000 1.54 230 21:59 08.04.2021
530 Clear -1 995 59 10000 1.03 260 21:41 08.04.2021
531 Clear -1 995 59 10000 1.03 260 21:22 08.04.2021
532 Clear -1 995 55 10000 1.03 0 20:58 08.04.2021
533 Clear -2 995 69 10000 1.03 280 20:39 08.04.2021
534 Clear -1 995 64 10000 1.54 330 19:59 08.04.2021
535 Clear -1 995 64 10000 2.06 10 19:29 08.04.2021
536 Clear 0 995 59 10000 2.57 360 18:58 08.04.2021
537 Clear 2 996 48 10000 4.12 320 18:39 08.04.2021
538 Clear 2 996 44 10000 3.6 280 18:19 08.04.2021
539 Clear 2 996 48 10000 3.09 270 17:41 08.04.2021
540 Clear 2 996 44 10000 2.57 300 17:19 08.04.2021
541 Clear 3 996 41 10000 4.12 320 16:44 08.04.2021
542 Clear 3 996 41 10000 4.12 320 16:22 08.04.2021
543 Clear 3 996 41 10000 2.57 350 15:45 08.04.2021
544 Clear 3 996 41 10000 2.57 350 15:25 08.04.2021
545 Clear 2 996 48 10000 3.09 270 14:42 08.04.2021
546 Clouds 2 996 51 10000 3.09 340 14:21 08.04.2021
547 Clouds 2 996 51 10000 2.06 0 13:48 08.04.2021
548 Clouds 2 996 51 10000 2.06 0 13:24 08.04.2021
549 Clouds 2 996 51 10000 2.06 0 13:24 08.04.2021
550 Clouds 2 996 55 10000 0.51 260 12:57 08.04.2021
551 Clouds 1 996 60 10000 2.06 280 12:33 08.04.2021
552 Clouds 1 996 64 10000 1.54 310 11:57 08.04.2021
553 Clouds 1 996 64 10000 2.06 10 11:26 08.04.2021
554 Clouds 0 996 74 10000 1.54 80 10:55 08.04.2021
555 Clouds -1 996 80 10000 1.54 80 10:25 08.04.2021
556 Clouds -1 996 80 10000 1.54 80 10:25 08.04.2021
557 Clouds -2 996 80 10000 1.54 40 09:44 08.04.2021
558 Clouds -2 996 80 10000 1.54 40 09:25 08.04.2021
559 Clouds -3 996 86 10000 0.51 0 08:40 08.04.2021
560 Clouds -3 997 86 10000 1.03 0 08:22 08.04.2021
561 Clouds -4 996 93 10000 2.06 30 07:43 08.04.2021
562 Clouds -5 996 93 10000 1.54 250 05:45 08.04.2021
563 Clear -3 995 80 10000 1.54 230 01:25 08.04.2021
564 Clear -3 995 80 10000 2.57 220 00:31 08.04.2021
565 Clear -2 995 74 10000 3.09 210 23:48 07.04.2021
566 Clear -2 995 74 10000 3.09 210 23:25 07.04.2021
567 Clear -1 995 69 10000 2.06 230 22:56 07.04.2021
568 Clear -1 994 69 10000 2.06 220 22:38 07.04.2021
569 Clouds 0 994 64 10000 2.06 220 22:19 07.04.2021
570 Clear 0 994 69 10000 3.09 190 21:34 07.04.2021
571 Clouds 0 994 69 10000 2.57 200 20:52 07.04.2021
572 Snow 0 994 74 10000 1.54 180 20:28 07.04.2021
573 Clear 1 993 75 10000 3.09 190 19:50 07.04.2021
574 Clear 1 993 75 10000 3.09 190 19:31 07.04.2021
575 Clear 2 993 64 10000 3.6 210 18:56 07.04.2021
576 Clear 2 992 64 10000 3.6 200 18:23 07.04.2021
577 Clouds 2 992 69 10000 4.63 180 18:01 07.04.2021
578 Clouds 2 992 75 10000 5.14 190 17:41 07.04.2021
579 Clouds 2 991 75 10000 5.14 190 16:59 07.04.2021
580 Clouds 3 991 65 10000 5.66 200 16:40 07.04.2021
581 Clouds 3 990 56 10000 5.14 190 16:21 07.04.2021
582 Clouds 2 990 64 10000 5.66 210 15:51 07.04.2021
583 Clouds 2 990 64 10000 5.66 210 15:25 07.04.2021
584 Clouds 2 989 64 10000 5.14 200 14:37 07.04.2021
585 Clouds 2 989 64 10000 4.63 200 14:18 07.04.2021
586 Clouds 2 988 64 10000 5.14 210 13:37 07.04.2021
587 Clouds 1 988 69 10000 4.63 210 13:19 07.04.2021
588 Clouds 1 988 69 10000 5.66 200 12:39 07.04.2021
589 Clouds 1 987 75 10000 5.66 210 12:18 07.04.2021
590 Clouds 0 986 80 10000 5.14 210 11:39 07.04.2021
591 Clouds 0 986 80 10000 4.63 220 11:20 07.04.2021
592 Clouds -1 985 93 10000 5.66 210 10:33 07.04.2021
593 Snow -1 984 93 10000 4.63 220 09:46 07.04.2021
594 Snow -1 984 93 10000 4.63 220 09:28 07.04.2021
595 Snow -1 983 93 6000 5.66 220 08:48 07.04.2021
596 Snow -1 983 93 6000 5.66 220 08:26 07.04.2021
597 Snow -2 983 100 2800 5.14 190 07:46 07.04.2021
598 Snow -2 983 100 2800 5.14 190 07:26 07.04.2021
599 Snow -2 982 93 4500 5.14 200 06:36 07.04.2021
600 Snow -2 981 100 3500 4.12 190 04:24 07.04.2021
601 Clouds -2 980 93 10000 3.09 190 00:45 07.04.2021
602 Clouds -2 980 93 10000 3.09 190 23:47 06.04.2021
603 Clouds -2 980 93 10000 3.09 190 23:22 06.04.2021
604 Snow -1 980 86 10000 4.12 190 22:48 06.04.2021
605 Clouds -2 979 100 10000 3.09 170 22:20 06.04.2021
606 Snow -1 979 93 10000 4.12 170 21:43 06.04.2021
607 Snow -1 979 93 10000 4.12 170 21:23 06.04.2021
608 Clouds -1 979 93 10000 4.12 170 20:54 06.04.2021
609 Clouds -2 979 100 10000 3.6 180 20:25 06.04.2021
610 Clouds -1 979 86 10000 4.12 180 19:58 06.04.2021
611 Snow -1 978 93 10000 4.12 180 19:35 06.04.2021
612 Snow -1 978 100 1500 4.12 180 18:58 06.04.2021
613 Snow 0 978 93 10000 4.63 140 18:40 06.04.2021
614 Snow 0 978 86 10000 5.66 150 18:19 06.04.2021
615 Snow 0 978 86 1800 6.17 170 17:43 06.04.2021
616 Snow 1 977 75 10000 5.14 150 17:19 06.04.2021
617 Snow 1 977 75 10000 6.17 140 16:46 06.04.2021
618 Snow 1 977 75 10000 5.14 140 16:26 06.04.2021
619 Rain 0 977 80 10000 4.12 150 15:26 06.04.2021
620 Snow 0 977 80 10000 6.17 150 14:45 06.04.2021
621 Snow 0 977 80 10000 6.17 150 14:45 06.04.2021
622 Snow 0 977 80 10000 6.17 150 14:24 06.04.2021
623 Snow 0 976 80 10000 5.66 150 13:47 06.04.2021
624 Snow 0 976 80 10000 5.66 150 13:26 06.04.2021
625 Snow -1 976 86 10000 6.17 150 12:47 06.04.2021
626 Snow -1 976 86 10000 6.17 150 12:28 06.04.2021
627 Snow -1 976 86 10000 7.72 160 11:59 06.04.2021
628 Snow -1 975 80 10000 6.17 160 11:40 06.04.2021
629 Snow -1 975 86 10000 6.69 170 11:19 06.04.2021
630 Snow -2 975 93 10000 6.17 170 10:42 06.04.2021
631 Snow -2 975 93 10000 6.17 170 10:21 06.04.2021
632 Snow -2 974 93 7000 5.66 170 09:44 06.04.2021
633 Snow -2 974 93 10000 5.66 180 09:20 06.04.2021
634 Snow -2 973 93 6000 6.17 170 08:19 06.04.2021
635 Snow -2 973 93 5000 4.63 170 07:22 06.04.2021
636 Snow -2 972 93 4000 6.69 180 06:47 06.04.2021
637 Snow -1 970 86 10000 8.23 190 03:54 06.04.2021
638 Snow -1 967 93 5000 9.77 190 00:49 06.04.2021
639 Snow -1 967 93 5000 9.77 190 00:22 06.04.2021
640 Snow -1 966 93 5000 9.77 200 23:50 05.04.2021
641 Snow -1 966 93 5000 9.77 200 23:28 05.04.2021
642 Snow -1 965 100 3900 6.17 180 22:54 05.04.2021
643 Snow -1 965 100 4200 6.17 160 22:35 05.04.2021
644 Snow 0 964 100 10000 5.66 140 21:48 05.04.2021
645 Snow 0 964 100 10000 5.66 140 21:27 05.04.2021
646 Snow 0 965 100 5000 4.63 140 20:49 05.04.2021
647 Snow 0 965 100 5000 4.63 140 20:30 05.04.2021
648 Snow 0 965 100 2100 5.14 140 19:45 05.04.2021
649 Snow 0 965 100 2100 3.09 130 19:26 05.04.2021
650 Snow 0 965 100 2100 3.09 130 19:26 05.04.2021
651 Snow 0 965 100 2100 3.09 130 18:58 05.04.2021
652 Rain 1 965 93 10000 4.12 150 18:39 05.04.2021
653 Rain 1 965 93 10000 4.63 170 18:19 05.04.2021
654 Clouds 2 965 93 10000 4.63 130 17:46 05.04.2021
655 Rain 2 965 93 10000 5.66 120 17:21 05.04.2021
656 Clouds 2 965 93 10000 5.14 130 16:45 05.04.2021
657 Clouds 2 965 93 10000 5.14 130 16:22 05.04.2021
658 Snow 1 965 100 10000 4.63 130 15:56 05.04.2021
659 Snow 1 966 100 10000 4.12 140 15:32 05.04.2021
660 Rain 1 966 100 10000 4.12 130 14:58 05.04.2021
661 Snow 1 966 93 10000 4.63 120 14:35 05.04.2021
662 Rain 1 966 93 4200 4.63 0 13:41 05.04.2021
663 Rain 1 966 93 4200 4.63 0 13:22 05.04.2021
664 Snow 1 967 93 3700 4.12 130 12:45 05.04.2021
665 Snow 0 967 100 1800 3.6 130 12:23 05.04.2021
666 Snow 1 967 93 9000 4.12 130 11:46 05.04.2021
667 Snow 1 967 93 9000 4.12 130 11:27 05.04.2021
668 Snow 1 967 93 10000 4.12 130 10:46 05.04.2021
669 Snow 1 967 93 10000 4.12 130 10:28 05.04.2021
670 Snow 1 967 93 10000 4.12 140 09:48 05.04.2021
671 Snow 1 967 93 10000 4.12 140 09:25 05.04.2021
672 Snow 0 968 100 10000 3.6 140 08:45 05.04.2021
673 Snow 0 968 100 10000 3.6 140 08:26 05.04.2021
674 Snow 0 969 100 5000 3.6 130 07:38 05.04.2021
675 Snow 0 969 100 3500 3.6 130 06:40 05.04.2021
676 Snow 1 972 93 10000 5.14 190 02:32 05.04.2021
677 Snow 1 973 93 10000 4.63 190 00:52 05.04.2021
678 Clouds 1 974 86 10000 6.17 200 23:52 04.04.2021
679 Clouds 1 974 86 10000 5.14 190 23:29 04.04.2021
680 Clear 1 975 80 10000 5.66 190 22:53 04.04.2021
681 Clouds 1 975 86 10000 5.66 200 22:30 04.04.2021
682 Clouds 2 976 80 10000 5.66 210 21:43 04.04.2021
683 Clouds 2 976 80 10000 4.63 200 21:19 04.04.2021
684 Clouds 2 976 80 10000 6.17 190 20:30 04.04.2021
685 Clouds 2 976 80 10000 6.17 190 20:30 04.04.2021
686 Clouds 2 977 80 10000 4.63 180 19:58 04.04.2021
687 Clouds 2 977 80 10000 4.12 190 19:38 04.04.2021
688 Clouds 2 977 80 10000 4.12 180 19:18 04.04.2021
689 Clear 2 978 80 10000 4.63 180 18:44 04.04.2021
690 Clear 2 978 80 10000 4.63 180 18:24 04.04.2021
691 Clouds 3 979 81 10000 6.69 190 17:45 04.04.2021
692 Clouds 2 979 87 10000 7.72 200 17:24 04.04.2021
693 Clouds 3 980 81 10000 5.66 190 16:47 04.04.2021
694 Clouds 2 980 87 10000 7.2 190 16:20 04.04.2021
695 Rain 2 981 87 10000 7.2 190 15:36 04.04.2021
696 Clouds 3 982 81 10000 7.72 200 14:50 04.04.2021
697 Clouds 3 982 81 10000 7.72 200 14:28 04.04.2021
698 Clouds 4 982 75 10000 6.69 190 13:52 04.04.2021
699 Clouds 3 983 81 10000 7.2 200 13:25 04.04.2021
700 Clouds 2 984 87 10000 6.17 210 12:44 04.04.2021
701 Clouds 2 984 87 10000 6.17 210 12:25 04.04.2021
702 Rain 3 985 75 10000 6.69 210 11:42 04.04.2021
703 Rain 3 985 75 10000 6.69 210 11:24 04.04.2021
704 Clear 3 986 70 10000 5.66 200 10:46 04.04.2021
705 Clear 1 987 86 10000 6.17 210 09:57 04.04.2021
706 Clear 0 988 86 10000 5.66 210 09:26 04.04.2021
707 Clear 0 988 86 10000 5.66 210 09:26 04.04.2021
708 Clear 0 988 86 10000 5.66 210 08:55 04.04.2021
709 Clear 0 988 86 10000 4.63 220 08:37 04.04.2021
710 Clear -1 989 93 10000 3.6 220 08:18 04.04.2021
711 Clear -1 990 100 10000 3.09 220 06:38 04.04.2021
712 Clear -1 991 93 10000 3.6 230 05:33 04.04.2021
713 Snow -1 994 93 10000 5.14 200 01:30 04.04.2021
714 Snow -1 995 86 10000 5.14 200 00:22 04.04.2021
715 Clear -1 996 86 10000 6.17 200 23:50 03.04.2021
716 Snow -1 996 86 10000 6.17 200 23:31 03.04.2021
717 Clear -1 997 80 10000 6.69 200 22:52 03.04.2021
718 Clear -1 997 80 10000 5.14 210 22:22 03.04.2021
719 Clear -1 998 74 10000 5.66 210 21:54 03.04.2021
720 Clear -1 998 74 10000 6.69 200 21:25 03.04.2021
721 Clear 0 999 69 10000 6.17 200 20:54 03.04.2021
722 Clear 0 1000 69 10000 5.66 210 20:28 03.04.2021
723 Clear 1 1001 64 10000 5.66 220 19:51 03.04.2021
724 Clear 1 1001 64 10000 5.66 220 19:29 03.04.2021
725 Clear 2 1000 51 10000 5.14 220 18:53 03.04.2021
726 Clear 2 1001 51 10000 4.12 230 18:34 03.04.2021
727 Clear 2 1001 51 10000 4.12 230 18:34 03.04.2021
728 Clear 3 1001 44 10000 4.63 230 17:55 03.04.2021
729 Clear 3 1002 44 10000 4.63 240 17:26 03.04.2021
730 Clear 3 1002 41 10000 5.66 240 16:54 03.04.2021
731 Clear 3 1002 44 10000 5.66 230 16:25 03.04.2021
732 Clear 4 1003 41 10000 5.14 250 15:52 03.04.2021
733 Clear 3 1003 44 10000 5.14 240 15:31 03.04.2021
734 Clouds 3 1004 48 10000 5.14 240 14:49 03.04.2021
735 Clouds 3 1004 48 10000 5.14 240 14:25 03.04.2021
736 Clear 3 1004 52 10000 5.66 230 13:54 03.04.2021
737 Clouds 3 1004 56 10000 4.12 240 13:34 03.04.2021
738 Clouds 3 1004 56 10000 5.66 230 12:58 03.04.2021
739 Clouds 2 1005 60 10000 4.63 230 12:33 03.04.2021
740 Clouds 2 1005 64 10000 3.6 230 11:42 03.04.2021
741 Clouds 1 1006 75 10000 2.57 260 11:20 03.04.2021
742 Clear 1 1006 69 10000 2.57 250 10:45 03.04.2021
743 Clear 1 1006 69 10000 2.57 250 10:26 03.04.2021
744 Clear 0 1006 74 10000 2.06 350 09:36 03.04.2021
745 Clouds -1 1006 80 10000 2.57 330 09:18 03.04.2021
746 Clouds -3 1006 86 10000 1.03 0 08:35 03.04.2021
747 Clear -2 1007 86 10000 2.06 290 07:31 03.04.2021
748 Clear -4 1007 93 10000 1.03 250 06:56 03.04.2021
749 Clear -3 1007 86 10000 2.57 320 03:54 03.04.2021
750 Clear -3 1007 86 10000 1.54 270 02:55 03.04.2021
751 Clear -3 1007 86 10000 2.57 310 02:28 03.04.2021
752 Clear -2 1007 86 10000 2.57 310 00:32 03.04.2021
753 Clear -2 1007 86 10000 2.06 330 23:59 02.04.2021
754 Clear -1 1007 80 10000 2.57 330 23:30 02.04.2021
755 Clear -1 1007 80 10000 2.06 320 22:56 02.04.2021
756 Clear 0 1007 80 10000 2.57 330 22:38 02.04.2021
757 Clear 0 1007 80 10000 3.09 330 21:59 02.04.2021
758 Clear 0 1007 80 10000 2.57 330 21:40 02.04.2021
759 Clear 0 1007 80 10000 3.09 330 21:18 02.04.2021
760 Clear 1 1007 75 10000 2.57 320 20:39 02.04.2021
761 Clear 1 1006 75 10000 3.6 330 20:20 02.04.2021
762 Clear 2 1006 75 10000 3.6 330 19:41 02.04.2021
763 Clear 2 1006 75 10000 3.6 330 19:22 02.04.2021
764 Clear 3 1006 70 10000 3.09 330 18:46 02.04.2021
765 Clear 3 1006 70 10000 3.09 330 18:28 02.04.2021
766 Clear 3 1005 70 10000 3.6 330 17:54 02.04.2021
767 Clear 3 1005 70 10000 3.6 330 17:24 02.04.2021
768 Clear 3 1005 70 10000 3.6 330 16:24 02.04.2021
769 Clouds 3 1005 65 10000 3.09 330 15:43 02.04.2021
770 Clouds 3 1005 65 10000 3.09 340 15:19 02.04.2021
771 Clouds 3 1004 65 10000 2.06 340 14:33 02.04.2021
772 Clouds 3 1004 65 10000 2.06 340 14:33 02.04.2021
773 Clouds 2 1004 80 10000 2.57 320 13:50 02.04.2021
774 Clouds 2 1004 80 10000 2.57 320 13:27 02.04.2021
775 Clear 2 1004 75 10000 1.54 60 12:55 02.04.2021
776 Clouds 2 1004 80 10000 2.06 10 12:21 02.04.2021
777 Clouds 2 1004 80 10000 2.06 10 11:59 02.04.2021
778 Snow 1 1004 93 10000 1.54 20 11:38 02.04.2021
779 Snow 0 1003 100 6000 1.03 0 11:18 02.04.2021
780 Snow 0 1003 93 2200 1.03 20 10:42 02.04.2021
781 Snow 0 1003 80 10000 1.54 50 10:20 02.04.2021
782 Snow 0 1002 80 10000 1.54 50 09:39 02.04.2021
783 Clouds 0 1002 74 10000 1.03 70 09:20 02.04.2021
784 Rain -1 1002 74 10000 0.51 0 08:44 02.04.2021
785 Rain -1 1002 74 10000 0.51 0 08:22 02.04.2021
786 Clouds -2 1001 80 10000 1.03 70 07:19 02.04.2021
787 Snow -3 1001 86 10000 2.06 40 06:31 02.04.2021
788 Clear -1 1001 69 10000 1.03 150 03:24 02.04.2021
789 Clear 0 1002 64 10000 1.03 240 00:56 02.04.2021
790 Clear 0 1002 64 10000 1.03 240 00:36 02.04.2021
791 Clouds -1 1002 69 10000 1.03 250 23:42 01.04.2021
792 Clouds -1 1002 69 10000 1.03 250 23:24 01.04.2021
793 Clouds 0 1002 59 10000 1.03 300 22:22 01.04.2021
794 Clear 0 1002 59 10000 0.51 0 21:52 01.04.2021
795 Clouds 1 1002 60 10000 1.54 250 21:29 01.04.2021
796 Clouds 1 1002 60 10000 1.54 250 21:00 01.04.2021
797 Clouds 1 1003 60 10000 1.03 290 20:33 01.04.2021
798 Clear 2 1003 55 10000 1.03 0 19:57 01.04.2021
799 Clear 2 1003 55 10000 1.03 0 19:39 01.04.2021
800 Clear 2 1003 60 10000 1.54 230 18:51 01.04.2021
801 Clear 3 1003 52 10000 1.03 0 18:19 01.04.2021
802 Clear 3 1003 52 10000 1.03 0 17:58 01.04.2021
803 Clear 4 1003 48 10000 2.06 300 17:38 01.04.2021
804 Clear 4 1003 48 10000 3.09 300 17:19 01.04.2021
805 Clear 4 1004 48 10000 3.09 310 16:41 01.04.2021
806 Clear 4 1004 52 10000 3.6 300 15:49 01.04.2021
807 Clouds 4 1004 52 10000 4.12 300 15:21 01.04.2021
808 Clear 4 1004 52 10000 4.63 290 14:51 01.04.2021
809 Clear 4 1004 52 10000 4.63 290 14:28 01.04.2021
810 Clouds 4 1004 52 10000 5.66 320 13:58 01.04.2021
811 Clouds 4 1004 56 10000 4.12 300 13:31 01.04.2021
812 Clouds 3 1004 56 10000 4.12 300 12:56 01.04.2021
813 Clouds 3 1004 60 10000 4.12 300 12:34 01.04.2021
814 Clouds 3 1004 60 10000 3.6 320 11:58 01.04.2021
815 Clouds 3 1004 60 10000 4.63 340 11:40 01.04.2021
816 Clouds 2 1004 64 10000 4.12 340 11:18 01.04.2021
817 Clouds 2 1004 64 10000 5.14 330 10:45 01.04.2021
818 Clear 1 1004 64 10000 5.14 340 10:24 01.04.2021
819 Clouds 1 1004 64 10000 5.14 340 09:32 01.04.2021
820 Clouds 1 1004 64 10000 6.17 330 08:54 01.04.2021
821 Clouds 1 1004 64 10000 5.14 330 08:28 01.04.2021
822 Clear -1 1004 74 10000 4.63 320 07:21 01.04.2021
823 Clear -1 1004 74 10000 4.63 320 06:56 01.04.2021
824 Clear -1 1003 74 10000 4.63 320 05:33 01.04.2021
825 Clouds 0 1003 74 10000 6.17 320 03:20 01.04.2021
826 Clear 2 1003 69 10000 3.6 310 23:55 31.03.2021
827 Clouds 2 1003 69 10000 4.63 310 23:37 31.03.2021
828 Clouds 2 1002 69 10000 6.17 320 22:44 31.03.2021
829 Clouds 2 1002 69 10000 6.17 320 22:23 31.03.2021
830 Clouds 2 1002 69 10000 5.14 320 21:54 31.03.2021
831 Clouds 2 1002 69 10000 4.63 310 21:36 31.03.2021
832 Clouds 3 1002 65 10000 6.17 330 21:18 31.03.2021
833 Clouds 3 1001 70 10000 3.6 300 20:40 31.03.2021
834 Clouds 3 1001 70 10000 3.6 290 20:20 31.03.2021
835 Clouds 3 1001 70 10000 4.63 300 19:42 31.03.2021
836 Clear 3 1001 65 10000 4.12 300 19:20 31.03.2021
837 Clear 3 1001 65 10000 4.12 300 18:54 31.03.2021
838 Clear 4 1001 60 10000 5.14 310 18:35 31.03.2021
839 Clouds 5 1001 56 10000 6.69 320 17:41 31.03.2021
840 Clouds 4 1001 60 10000 7.2 320 17:19 31.03.2021
841 Clouds 4 1001 60 10000 7.2 320 16:53 31.03.2021
842 Clouds 5 1001 56 10000 5.14 290 16:34 31.03.2021
843 Clear 6 1001 49 10000 5.66 300 15:53 31.03.2021
844 Clouds 4 1001 60 10000 5.66 310 15:22 31.03.2021
845 Clouds 5 1001 52 10000 6.17 320 14:50 31.03.2021
846 Clouds 5 1003 52 10000 6.17 320 14:25 31.03.2021
847 Clouds 5 1001 56 10000 6.69 300 13:55 31.03.2021
848 Clouds 5 1001 56 10000 7.2 310 13:23 31.03.2021
849 Clouds 4 1001 65 10000 5.14 300 12:41 31.03.2021
850 Clouds 4 1001 65 10000 5.14 310 12:18 31.03.2021
851 Clouds 4 1000 60 10000 6.69 310 11:23 31.03.2021
852 Clouds 4 1000 65 10000 4.63 300 10:50 31.03.2021
853 Clouds 4 1000 65 10000 4.63 300 10:28 31.03.2021
854 Clouds 3 1000 70 10000 4.63 300 09:56 31.03.2021
855 Clouds 3 1000 70 10000 4.63 290 09:31 31.03.2021
856 Clear 2 1000 75 10000 3.6 290 08:46 31.03.2021
857 Clear 2 1000 75 10000 3.6 290 08:26 31.03.2021
858 Clear 0 1000 86 10000 4.12 290 07:37 31.03.2021
859 Clear 0 999 80 10000 2.57 290 05:21 31.03.2021
860 Clear 1 999 80 10000 3.09 290 02:37 31.03.2021
861 Clear 1 999 80 10000 3.09 290 00:54 31.03.2021
862 Clear 1 999 80 10000 2.06 280 00:25 31.03.2021
863 Clear 1 999 80 10000 2.57 280 23:57 30.03.2021
864 Clear 1 998 80 10000 2.57 270 23:25 30.03.2021
865 Clear 1 998 80 10000 3.09 270 22:50 30.03.2021
866 Clear 1 998 80 10000 3.09 270 22:30 30.03.2021
867 Clear 1 998 86 10000 3.6 270 21:57 30.03.2021
868 Clear 2 998 80 10000 3.09 260 21:29 30.03.2021
869 Clear 1 998 86 10000 3.6 270 20:59 30.03.2021
870 Clear 2 997 80 10000 3.09 260 20:38 30.03.2021
871 Clear 2 997 80 10000 3.09 260 20:19 30.03.2021
872 Clear 2 997 87 10000 3.6 270 19:41 30.03.2021
873 Clear 3 997 81 10000 4.12 270 18:57 30.03.2021
874 Clear 3 996 81 10000 3.6 270 18:27 30.03.2021
875 Clouds 2 996 93 10000 4.63 280 17:47 30.03.2021
876 Clouds 2 996 93 10000 4.63 280 17:29 30.03.2021
877 Clouds 2 995 93 10000 5.14 280 16:47 30.03.2021
878 Clouds 2 995 93 10000 5.14 280 16:27 30.03.2021
879 Snow 1 994 93 4300 4.63 280 15:38 30.03.2021
880 Rain 1 993 93 8000 5.14 280 15:19 30.03.2021
881 Clouds 3 992 75 10000 7.72 280 14:45 30.03.2021
882 Clouds 4 991 60 10000 5.14 250 14:20 30.03.2021
883 Clouds 4 991 60 10000 6.17 250 13:49 30.03.2021
884 Clouds 4 991 60 10000 6.17 250 13:24 30.03.2021
885 Clouds 3 991 81 10000 6.69 230 12:41 30.03.2021
886 Clouds 3 991 81 10000 6.69 230 12:41 30.03.2021
887 Clouds 2 991 87 10000 6.69 230 12:21 30.03.2021
888 Clouds 2 991 87 10000 6.17 230 11:43 30.03.2021
889 Clouds 2 991 87 10000 7.2 220 11:19 30.03.2021
890 Clouds 2 991 87 10000 7.72 220 10:41 30.03.2021
891 Clouds 2 990 87 10000 6.17 220 10:19 30.03.2021
892 Clouds 1 991 100 10000 6.17 240 09:41 30.03.2021
893 Clouds 1 991 100 10000 6.17 240 09:41 30.03.2021
894 Clouds 1 991 93 10000 5.66 230 09:21 30.03.2021
895 Clouds 1 991 93 10000 5.66 230 08:42 30.03.2021
896 Rain 1 991 93 10000 6.17 230 07:56 30.03.2021
897 Clouds 0 991 100 10000 5.66 230 07:31 30.03.2021
898 Clouds 0 991 100 200 4.63 220 06:30 30.03.2021
899 Fog 1 992 100 500 4.63 230 05:25 30.03.2021
900 Snow 0 993 100 500 5.14 210 01:47 30.03.2021
901 Rain 0 994 100 2100 4.63 200 23:54 29.03.2021
902 Snow 0 995 100 5000 5.66 190 23:21 29.03.2021
903 Snow 0 995 100 3500 6.17 190 22:43 29.03.2021
904 Snow 0 996 100 3900 5.66 190 21:55 29.03.2021
905 Snow 0 996 100 3800 4.12 180 21:34 29.03.2021
906 Snow 0 997 100 3200 4.12 150 20:51 29.03.2021
907 Snow 0 997 100 3200 4.12 150 20:30 29.03.2021
908 Snow 0 997 100 2900 4.63 160 19:56 29.03.2021
909 Snow 0 998 100 5000 5.66 160 19:28 29.03.2021
910 Snow 0 998 100 6000 5.14 160 18:56 29.03.2021
911 Snow 0 999 100 7000 5.66 160 18:37 29.03.2021
912 Snow 1 999 93 9000 5.66 170 18:18 29.03.2021
913 Snow 0 1000 100 6000 5.14 160 17:35 29.03.2021
914 Snow 0 1001 100 3900 4.12 160 16:53 29.03.2021
915 Snow 0 1002 100 4700 4.12 170 16:30 29.03.2021
916 Snow 1 1003 86 10000 7.2 200 15:43 29.03.2021
917 Snow 1 1003 86 10000 7.2 200 15:24 29.03.2021
918 Rain 1 1003 93 10000 6.17 190 14:48 29.03.2021
919 Snow 1 1004 93 7000 7.2 190 14:21 29.03.2021
920 Snow 1 1004 93 10000 6.17 190 13:40 29.03.2021
921 Snow 1 1004 93 10000 6.17 190 13:18 29.03.2021
922 Snow 1 1004 93 10000 5.14 180 12:49 29.03.2021
923 Snow 1 1005 93 6000 4.63 170 11:48 29.03.2021
924 Snow 1 1005 93 6000 4.63 170 11:28 29.03.2021
925 Snow 0 1005 100 5000 4.12 150 10:49 29.03.2021
926 Snow 0 1005 100 5000 4.12 150 10:23 29.03.2021
927 Snow 0 1006 93 9000 5.14 150 09:33 29.03.2021
928 Snow 0 1006 93 10000 4.12 140 08:43 29.03.2021
929 Clouds 0 1006 93 10000 4.12 140 08:25 29.03.2021
930 Snow 0 1008 93 10000 4.12 140 07:20 29.03.2021
931 Clouds 0 1008 93 10000 4.63 140 06:25 29.03.2021
932 Clouds 1 1011 100 7000 3.09 170 02:58 29.03.2021
933 Mist 2 1011 93 3200 4.12 220 00:45 29.03.2021
934 Clouds 2 1011 93 5000 4.12 210 00:18 29.03.2021
935 Clouds 2 1011 93 6000 3.6 190 23:25 28.03.2021
936 Fog 2 1011 100 300 2.57 140 22:48 28.03.2021
937 Fog 2 1011 100 300 2.57 140 22:30 28.03.2021
938 Fog 2 1011 100 2100 2.57 140 21:48 28.03.2021
939 Fog 2 1011 100 2100 2.57 140 21:26 28.03.2021
940 Fog 2 1011 100 2100 2.57 140 20:58 28.03.2021
941 Mist 2 1011 100 3100 3.09 150 20:40 28.03.2021
942 Mist 2 1011 100 3100 3.09 150 20:40 28.03.2021
943 Clouds 3 1011 93 5000 3.09 150 20:19 28.03.2021
944 Mist 3 1011 93 3400 3.09 160 19:42 28.03.2021
945 Clouds 2 1011 100 2600 2.57 160 19:21 28.03.2021
946 Clouds 3 1011 93 3400 2.57 160 18:51 28.03.2021
947 Clouds 3 1011 93 3400 2.57 160 18:24 28.03.2021
948 Clouds 2 1012 100 5000 3.6 190 17:42 28.03.2021
949 Clouds 3 1012 93 6000 4.12 180 17:20 28.03.2021
950 Clouds 3 1012 93 5000 3.09 180 16:41 28.03.2021
951 Clouds 3 1012 93 5000 3.09 180 16:21 28.03.2021
952 Fog 2 1012 100 400 3.6 190 15:25 28.03.2021
953 Fog 2 1012 100 550 5.66 200 14:50 28.03.2021
954 Fog 2 1012 100 550 5.66 200 14:26 28.03.2021
955 Fog 2 1011 100 800 4.63 200 13:38 28.03.2021
956 Mist 2 1011 100 1600 4.63 210 12:59 28.03.2021
957 Mist 2 1011 100 2300 4.12 210 12:35 28.03.2021
958 Mist 2 1011 100 1100 4.63 210 11:59 28.03.2021
959 Mist 2 1011 100 1400 4.12 210 11:38 28.03.2021
960 Mist 2 1011 100 4400 5.14 210 10:55 28.03.2021
961 Mist 2 1011 100 4400 5.14 210 10:32 28.03.2021
962 Clouds 2 1010 93 5000 5.14 210 09:56 28.03.2021
963 Clouds 2 1010 93 7000 5.14 200 09:28 28.03.2021
964 Clouds 2 1012 93 7000 4.63 200 08:56 28.03.2021
965 Clouds 2 1010 93 8000 5.14 200 08:35 28.03.2021
966 Snow 1 1010 100 8000 5.66 200 07:43 28.03.2021
967 Clouds 2 1009 93 10000 5.14 190 06:22 28.03.2021
968 Clouds 3 1010 87 10000 6.17 180 03:50 28.03.2021
969 Clouds 3 1010 93 10000 6.17 180 00:45 28.03.2021
970 Clouds 3 1010 93 10000 6.17 190 23:59 27.03.2021
971 Rain 3 1010 93 10000 5.14 180 23:36 27.03.2021
972 Rain 3 1010 93 10000 5.66 190 22:49 27.03.2021
973 Clouds 3 1010 93 10000 5.66 190 22:30 27.03.2021
974 Rain 4 1010 81 10000 5.66 180 21:45 27.03.2021
975 Rain 4 1010 81 10000 5.14 170 21:21 27.03.2021
976 Rain 4 1011 75 10000 5.14 170 20:59 27.03.2021
977 Clouds 3 1010 87 10000 4.63 160 20:37 27.03.2021
978 Clouds 3 1010 87 10000 4.63 170 19:57 27.03.2021
979 Clouds 3 1010 87 10000 4.63 180 19:38 27.03.2021
980 Clouds 3 1010 87 10000 5.14 190 19:20 27.03.2021
981 Clouds 3 1010 87 10000 6.69 200 18:46 27.03.2021
982 Clouds 4 1010 81 10000 6.69 200 18:22 27.03.2021
983 Clouds 4 1010 81 10000 5.66 210 17:36 27.03.2021
984 Clouds 4 1010 81 10000 6.17 190 17:18 27.03.2021
985 Clouds 4 1010 81 10000 6.69 200 16:43 27.03.2021
986 Clouds 4 1010 81 10000 6.69 200 16:23 27.03.2021
987 Clouds 4 1010 81 10000 6.17 200 15:45 27.03.2021
988 Clouds 4 1010 81 10000 6.69 190 14:59 27.03.2021
989 Clouds 3 1009 87 10000 6.69 190 14:38 27.03.2021
990 Clouds 3 1009 87 10000 7.72 190 13:39 27.03.2021
991 Clouds 3 1009 87 10000 7.72 190 13:19 27.03.2021
992 Clouds 3 1009 87 10000 8.23 200 12:41 27.03.2021
993 Clouds 3 1009 81 10000 7.72 180 11:49 27.03.2021
994 Clouds 3 1009 81 10000 7.72 180 11:31 27.03.2021
995 Clouds 3 1009 81 10000 5.14 190 10:49 27.03.2021
996 Clouds 3 1009 81 10000 5.14 190 10:30 27.03.2021
997 Clouds 2 1009 87 10000 6.17 180 09:44 27.03.2021
998 Clouds 2 1009 87 10000 4.63 180 09:18 27.03.2021
999 Clouds 2 1009 87 10000 4.63 170 08:38 27.03.2021
1000 Clouds 1 1009 86 10000 5.66 180 07:48 27.03.2021
1001 Clouds 1 1009 86 10000 5.14 180 06:59 27.03.2021
1002 Clouds 1 1009 86 10000 5.14 180 06:59 27.03.2021
1003 Clouds 0 1009 86 10000 5.66 160 06:39 27.03.2021
1004 Clouds -1 1009 86 10000 4.63 170 04:41 27.03.2021
1005 Clear -1 1010 74 10000 4.63 130 01:36 27.03.2021
1006 Clear 0 1010 69 10000 4.12 140 00:32 27.03.2021
1007 Clear 0 1010 69 10000 4.12 140 23:59 26.03.2021
1008 Clear 1 1010 64 10000 4.12 160 23:24 26.03.2021
1009 Clear 1 1010 64 10000 4.63 140 22:39 26.03.2021
1010 Clear 1 1011 64 10000 4.12 150 21:42 26.03.2021
1011 Clear 1 1011 64 10000 4.12 150 21:22 26.03.2021
1012 Clear 2 1011 64 10000 4.12 160 20:49 26.03.2021
1013 Clear 2 1011 64 10000 4.12 160 20:31 26.03.2021
1014 Clear 3 1011 65 10000 4.12 160 19:51 26.03.2021
1015 Clear 3 1011 65 10000 4.12 160 19:32 26.03.2021
1016 Clear 4 1011 60 10000 3.09 160 18:49 26.03.2021
1017 Clear 4 1011 60 10000 3.09 160 18:30 26.03.2021
1018 Clear 5 1011 56 10000 2.57 170 17:50 26.03.2021
1019 Clear 5 1011 56 10000 2.57 170 17:50 26.03.2021
1020 Clear 5 1011 56 10000 2.57 170 17:22 26.03.2021
1021 Clear 5 1011 56 10000 4.12 190 16:34 26.03.2021
1022 Clear 5 1011 56 10000 4.63 200 15:59 26.03.2021
1023 Clear 5 1011 56 10000 5.14 210 15:26 26.03.2021
1024 Clear 5 1011 56 10000 4.12 210 14:43 26.03.2021
1025 Clouds 5 1011 56 10000 3.6 210 13:46 26.03.2021
1026 Clouds 5 1011 56 10000 3.6 210 13:46 26.03.2021
1027 Clouds 5 1011 56 10000 3.6 210 13:22 26.03.2021
1028 Clear 4 1011 60 10000 3.09 210 12:35 26.03.2021
1029 Clear 3 1011 56 10000 1.54 140 11:47 26.03.2021
1030 Clear 3 1011 56 10000 1.54 140 11:27 26.03.2021
1031 Clear 2 1010 60 10000 2.06 100 10:42 26.03.2021
1032 Clear 1 1010 60 10000 2.57 100 10:19 26.03.2021
1033 Clear -1 1010 69 10000 2.57 110 09:40 26.03.2021
1034 Clear -2 1010 74 10000 2.57 100 08:46 26.03.2021
1035 Clear -2 1010 74 10000 2.57 100 08:25 26.03.2021
1036 Clear -4 1009 80 10000 2.57 90 07:42 26.03.2021
1037 Clear -6 1009 86 10000 2.06 80 07:21 26.03.2021
1038 Clear -7 1009 86 10000 2.57 70 06:55 26.03.2021
1039 Clear -5 1008 86 10000 2.57 90 05:31 26.03.2021
1040 Clear -3 1007 74 10000 1.54 120 02:32 26.03.2021
1041 Clear -4 1006 74 10000 2.57 60 00:33 26.03.2021
1042 Clear -2 1005 64 10000 2.57 80 23:46 25.03.2021
1043 Clear 0 1005 55 10000 1.54 130 23:21 25.03.2021
1044 Clear 0 1005 55 10000 1.03 110 22:39 25.03.2021
1045 Clear -2 1005 64 10000 1.03 90 21:53 25.03.2021
1046 Clear -2 1004 69 10000 0.51 40 21:35 25.03.2021
1047 Clear -1 1003 64 10000 3.09 10 20:47 25.03.2021
1048 Clear -1 1003 64 10000 3.09 10 20:28 25.03.2021
1049 Clear 0 1003 64 10000 2.06 350 19:51 25.03.2021
1050 Clear 0 1003 64 10000 2.06 350 19:31 25.03.2021
1051 Clear 0 1003 64 10000 2.06 350 19:31 25.03.2021
1052 Clear 0 1002 64 10000 2.06 360 18:57 25.03.2021
1053 Clear 2 1002 51 10000 2.06 350 18:39 25.03.2021
1054 Clear 3 1001 48 10000 2.57 350 18:18 25.03.2021
1055 Clear 4 1001 45 10000 2.57 270 17:37 25.03.2021
1056 Clear 5 1001 42 10000 3.6 260 16:56 25.03.2021
1057 Clear 5 1000 42 10000 3.6 260 16:33 25.03.2021
1058 Clear 5 1000 42 10000 5.14 260 15:49 25.03.2021
1059 Clear 5 1000 42 10000 5.14 260 15:25 25.03.2021
1060 Clear 6 999 39 10000 4.63 260 14:49 25.03.2021
1061 Clear 6 999 39 10000 4.63 260 14:29 25.03.2021
1062 Clear 6 998 36 10000 5.66 270 13:26 25.03.2021
1063 Clear 5 997 42 10000 5.66 290 12:46 25.03.2021
1064 Clear 5 997 45 10000 6.69 280 12:22 25.03.2021
1065 Clear 5 997 45 10000 6.69 280 11:54 25.03.2021
1066 Clear 5 996 42 10000 5.66 260 11:33 25.03.2021
1067 Clear 5 996 45 10000 6.17 270 10:58 25.03.2021
1068 Clear 4 996 48 10000 5.14 250 10:39 25.03.2021
1069 Clear 3 995 52 10000 7.2 250 10:19 25.03.2021
1070 Clear 3 995 52 10000 7.2 250 09:43 25.03.2021
1071 Clear 3 994 52 10000 7.2 260 09:21 25.03.2021
1072 Clear 2 994 55 10000 8.23 250 08:30 25.03.2021
1073 Clear 1 993 60 10000 8.23 240 07:26 25.03.2021
1074 Clear 1 992 60 10000 7.2 240 06:42 25.03.2021
1075 Clear 1 992 60 10000 7.2 240 06:22 25.03.2021
1076 Clear 0 990 69 10000 6.69 230 04:42 25.03.2021
1077 Clear 2 989 64 10000 8.23 230 00:46 25.03.2021
1078 Clear 2 989 64 10000 7.2 230 00:18 25.03.2021
1079 Clear 2 989 64 10000 7.72 230 23:39 24.03.2021
1080 Clear 2 989 64 10000 7.72 230 22:58 24.03.2021
1081 Clear 2 989 64 10000 7.72 230 22:38 24.03.2021
1082 Clear 2 989 64 10000 7.2 220 21:50 24.03.2021
1083 Clear 2 989 64 10000 7.2 220 21:31 24.03.2021
1084 Clear 2 989 64 10000 7.2 220 20:55 24.03.2021
1085 Clear 2 989 69 10000 6.17 220 20:37 24.03.2021
1086 Clear 2 989 69 10000 6.17 220 20:18 24.03.2021
1087 Clear 2 989 75 10000 6.69 220 19:31 24.03.2021
1088 Clear 2 989 80 10000 6.17 230 18:52 24.03.2021
1089 Clear 3 989 75 10000 7.2 220 18:24 24.03.2021
1090 Clear 3 990 81 10000 7.72 220 17:53 24.03.2021
1091 Clear 3 990 81 10000 7.72 220 17:32 24.03.2021
1092 Clear 3 990 81 10000 7.72 220 17:32 24.03.2021
1093 Clear 3 990 81 10000 7.2 220 16:54 24.03.2021
1094 Clear 3 990 81 10000 7.2 220 16:32 24.03.2021
1095 Clear 3 990 81 10000 6.69 220 15:58 24.03.2021
1096 Clear 3 990 81 10000 7.72 210 15:33 24.03.2021
1097 Clear 3 990 81 10000 6.69 200 14:59 24.03.2021
1098 Clear 3 990 81 10000 7.72 200 14:29 24.03.2021
1099 Clear 5 990 70 10000 7.72 200 13:58 24.03.2021
1100 Clear 5 990 70 10000 7.72 200 13:58 24.03.2021
1101 Clear 5 990 70 10000 7.72 200 13:28 24.03.2021
1102 Clear 5 990 70 10000 6.69 220 12:49 24.03.2021
1103 Clear 5 990 70 10000 6.69 220 12:27 24.03.2021
1104 Clear 5 991 70 10000 7.72 210 11:54 24.03.2021
1105 Clear 5 991 70 10000 7.72 210 11:35 24.03.2021
1106 Clear 5 991 70 10000 7.72 210 11:35 24.03.2021
1107 Clear 5 991 70 10000 6.69 210 10:46 24.03.2021
1108 Clear 5 991 70 10000 6.69 210 10:26 24.03.2021
1109 Clear 4 992 75 10000 6.69 220 09:54 24.03.2021
1110 Clear 4 992 75 10000 6.17 200 09:25 24.03.2021
1111 Clear 4 992 75 10000 5.66 220 08:57 24.03.2021
1112 Clear 3 992 81 10000 6.69 220 08:32 24.03.2021
1113 Clear 3 992 81 10000 6.69 220 07:42 24.03.2021
1114 Clear 3 992 81 10000 4.63 220 06:58 24.03.2021
1115 Clear 2 993 87 10000 5.66 220 06:34 24.03.2021
1116 Clear 0 995 74 10000 4.63 220 01:20 24.03.2021
1117 Clear 0 995 69 10000 4.12 230 00:32 24.03.2021
1118 Clear -1 996 69 10000 4.12 230 23:23 23.03.2021
1119 Clear 1 996 60 10000 5.14 230 22:58 23.03.2021
1120 Clear 1 996 60 10000 4.63 230 22:40 23.03.2021
1121 Clear 1 997 55 10000 4.12 230 21:59 23.03.2021
1122 Clear 2 997 51 10000 5.14 240 21:40 23.03.2021
1123 Clear 2 997 51 10000 4.63 240 21:19 23.03.2021
1124 Clear 2 997 55 10000 4.63 240 20:40 23.03.2021
1125 Clear 2 997 55 10000 4.63 240 20:22 23.03.2021
1126 Clear 4 996 45 10000 5.14 250 19:44 23.03.2021
1127 Clear 4 996 45 10000 5.14 250 19:23 23.03.2021
1128 Clear 5 996 45 10000 6.69 250 18:43 23.03.2021
1129 Clear 6 996 45 10000 6.17 260 18:21 23.03.2021
1130 Clear 6 995 45 10000 5.14 260 17:44 23.03.2021
1131 Clear 7 995 42 10000 6.17 260 17:21 23.03.2021
1132 Clear 7 995 42 10000 7.72 260 16:26 23.03.2021
1133 Clear 7 995 42 10000 7.72 260 15:55 23.03.2021
1134 Clear 8 995 39 10000 8.75 260 15:36 23.03.2021
1135 Clear 7 994 49 10000 6.69 250 14:50 23.03.2021
1136 Clouds 7 994 49 10000 9.26 240 14:21 23.03.2021
1137 Clouds 8 994 46 10000 7.2 260 13:49 23.03.2021
1138 Clouds 8 994 46 10000 7.2 260 13:25 23.03.2021
1139 Clouds 5 994 70 10000 6.69 230 12:46 23.03.2021
1140 Clouds 5 994 70 10000 6.69 230 12:26 23.03.2021
1141 Clouds 3 994 81 10000 7.2 230 11:49 23.03.2021
1142 Clouds 3 994 81 10000 7.2 230 11:30 23.03.2021
1143 Clouds 1 994 93 10000 7.72 230 10:43 23.03.2021
1144 Clouds 0 994 100 10000 7.2 220 10:21 23.03.2021
1145 Clouds 0 997 100 10000 7.2 220 09:54 23.03.2021
1146 Clouds -1 994 100 10000 7.2 220 09:25 23.03.2021
1147 Mist -1 994 100 2000 7.2 220 08:56 23.03.2021
1148 Fog -2 994 100 500 8.23 210 08:38 23.03.2021
1149 Fog -2 994 100 400 6.69 210 08:19 23.03.2021
1150 Fog -2 995 93 600 6.17 220 07:28 23.03.2021
1151 Fog -3 995 100 900 6.17 200 06:54 23.03.2021
1152 Clouds -4 995 100 1200 7.72 210 04:58 23.03.2021
1153 Clouds -5 997 100 900 7.72 200 03:20 23.03.2021
1154 Clear -5 999 80 10000 7.2 200 23:57 22.03.2021
1155 Clear -5 1000 74 10000 5.66 190 23:21 22.03.2021
1156 Clear -5 1000 74 10000 4.63 190 22:44 22.03.2021
1157 Clear -5 1000 74 10000 4.63 190 22:44 22.03.2021
1158 Clear -5 1001 74 10000 5.14 220 22:21 22.03.2021
1159 Clear -5 1001 74 10000 5.66 210 21:51 22.03.2021
1160 Clear -5 1001 74 10000 5.66 210 21:27 22.03.2021
1161 Clear -5 1001 74 10000 6.17 220 20:49 22.03.2021
1162 Clear -5 1001 74 10000 6.17 220 20:29 22.03.2021
1163 Clear -4 1001 63 10000 6.17 210 19:58 22.03.2021
1164 Clear -4 1001 58 10000 5.14 220 19:39 22.03.2021
1165 Clear -5 1002 58 10000 4.63 220 19:20 22.03.2021
1166 Clear -4 1002 46 10000 4.63 220 18:41 22.03.2021
1167 Clear -4 1002 46 10000 4.63 220 18:22 22.03.2021
1168 Clear -3 1002 46 10000 3.09 220 17:49 22.03.2021
1169 Clear -3 1002 46 10000 3.09 220 17:22 22.03.2021
1170 Clear -3 1002 46 10000 3.09 230 16:55 22.03.2021
1171 Clear -1 1001 40 10000 3.6 240 16:36 22.03.2021
1172 Clear -1 1001 40 10000 3.6 260 15:43 22.03.2021
1173 Clear -1 1001 40 10000 3.6 260 15:23 22.03.2021
1174 Clear -1 1001 43 10000 3.09 270 14:57 22.03.2021
1175 Clear -1 1002 40 10000 4.63 250 14:34 22.03.2021
1176 Clouds -2 1002 43 10000 4.12 270 13:50 22.03.2021
1177 Clouds -2 1002 43 10000 4.12 270 13:29 22.03.2021
1178 Clear -3 1001 50 10000 2.57 250 12:58 22.03.2021
1179 Clear -3 1001 50 10000 2.57 250 12:26 22.03.2021
1180 Clear -4 1001 54 10000 2.57 280 11:51 22.03.2021
1181 Clear -4 1001 54 10000 2.57 280 11:30 22.03.2021
1182 Clear -5 1001 58 10000 2.57 290 10:57 22.03.2021
1183 Clear -5 1001 58 10000 2.57 290 10:37 22.03.2021
1184 Clear -5 1001 58 10000 3.09 310 10:18 22.03.2021
1185 Clear -6 1001 58 10000 3.6 320 09:34 22.03.2021
1186 Clear -6 1001 63 10000 3.09 320 08:55 22.03.2021
1187 Clear -7 1000 63 10000 3.6 330 08:37 22.03.2021
1188 Clear -8 1000 67 10000 4.12 330 08:19 22.03.2021
1189 Clear -9 1000 67 10000 4.12 320 07:41 22.03.2021
1190 Clear -11 999 79 10000 4.12 330 06:52 22.03.2021
1191 Clear -11 998 79 10000 4.12 320 03:24 22.03.2021
1192 Clear -9 997 73 10000 4.12 330 00:53 22.03.2021
1193 Clear -8 996 67 10000 4.12 320 00:19 22.03.2021
1194 Clear -8 996 67 10000 3.6 320 23:40 21.03.2021
1195 Clear -8 996 67 10000 3.6 320 23:18 21.03.2021
1196 Clear -8 996 67 10000 3.6 320 22:53 21.03.2021
1197 Clear -6 995 63 10000 4.63 320 21:43 21.03.2021
1198 Clear -6 995 63 10000 4.63 320 21:25 21.03.2021
1199 Clear -6 995 58 10000 4.63 320 20:57 21.03.2021
1200 Clear -5 995 54 10000 5.14 320 20:39 21.03.2021
1201 Clear -5 994 54 10000 4.12 320 20:21 21.03.2021
1202 Clear -4 994 50 10000 5.14 320 19:46 21.03.2021
1203 Clear -4 994 50 10000 3.6 320 19:20 21.03.2021
1204 Clear -4 993 46 10000 3.6 330 18:41 21.03.2021
1205 Clear -3 993 46 10000 5.14 330 18:18 21.03.2021
1206 Clouds -3 993 46 10000 4.63 340 17:42 21.03.2021
1207 Clouds -2 992 46 10000 7.72 330 17:18 21.03.2021
1208 Clouds -2 992 46 10000 7.72 330 17:18 21.03.2021
1209 Snow -2 992 46 10000 6.17 330 16:50 21.03.2021
1210 Snow -2 992 46 10000 6.17 330 16:26 21.03.2021
1211 Clouds -1 991 47 10000 7.72 330 15:48 21.03.2021
1212 Clouds -1 991 47 10000 7.72 330 15:22 21.03.2021
1213 Snow -1 990 51 10000 8.23 340 14:48 21.03.2021
1214 Snow -1 990 51 10000 8.23 340 14:27 21.03.2021
1215 Snow -1 990 51 10000 6.69 340 13:59 21.03.2021
1216 Clouds -1 989 51 10000 8.75 340 13:40 21.03.2021
1217 Snow -2 989 59 10000 6.69 340 12:44 21.03.2021
1218 Snow -2 989 59 10000 6.69 340 12:25 21.03.2021
1219 Snow -2 988 69 10000 7.72 340 11:42 21.03.2021
1220 Snow -2 988 69 10000 7.72 340 11:24 21.03.2021
1221 Snow -2 987 74 10000 6.69 340 10:45 21.03.2021
1222 Snow -2 987 74 10000 6.69 340 10:27 21.03.2021
1223 Snow -2 986 80 10000 7.2 340 09:50 21.03.2021
1224 Snow -2 986 80 10000 7.2 340 09:32 21.03.2021
1225 Snow -2 985 86 10000 7.2 350 08:57 21.03.2021
1226 Snow -2 985 86 10000 6.69 350 08:31 21.03.2021
1227 Snow -2 983 86 10000 6.17 350 07:51 21.03.2021
1228 Snow -2 983 86 10000 6.17 350 07:28 21.03.2021
1229 Snow -2 982 93 9000 6.17 360 06:21 21.03.2021
1230 Snow -2 978 100 3600 5.66 360 03:41 21.03.2021
1231 Snow -1 976 100 1800 1.54 50 00:57 21.03.2021
1232 Snow -1 976 100 600 2.06 30 00:37 21.03.2021
1233 Fog -1 976 100 700 1.03 50 00:19 21.03.2021
1234 Fog -1 976 100 900 0.51 0 23:42 20.03.2021
1235 Clouds -1 976 100 1300 2.06 110 23:18 20.03.2021
1236 Snow -1 977 100 5000 1.54 130 22:24 20.03.2021
1237 Snow -1 978 93 4000 3.09 130 21:48 20.03.2021
1238 Snow -1 978 93 4000 3.09 130 21:26 20.03.2021
1239 Snow -1 979 93 3200 3.6 130 20:49 20.03.2021
1240 Snow -1 979 93 3200 3.6 130 20:24 20.03.2021
1241 Snow -1 980 93 3700 3.6 140 19:52 20.03.2021
1242 Snow -1 981 93 5000 4.12 150 19:29 20.03.2021
1243 Snow -1 982 93 3800 4.12 150 18:52 20.03.2021
1244 Snow -1 983 93 3600 4.12 170 18:29 20.03.2021
1245 Snow 0 983 74 10000 4.12 170 17:58 20.03.2021
1246 Snow 1 984 69 10000 4.12 160 17:40 20.03.2021
1247 Snow 1 985 69 10000 3.09 160 17:21 20.03.2021
1248 Clear 1 986 69 10000 3.6 180 16:40 20.03.2021
1249 Clear 1 987 69 10000 3.6 180 16:18 20.03.2021
1250 Clear 1 988 69 10000 3.09 190 15:42 20.03.2021
1251 Clear 1 988 69 10000 3.09 190 15:24 20.03.2021
1252 Clear 1 989 75 10000 4.12 210 14:40 20.03.2021
1253 Clear 1 990 75 10000 3.6 210 14:19 20.03.2021
1254 Clear 1 991 75 10000 3.6 220 13:31 20.03.2021
1255 Clouds 1 992 75 10000 3.6 220 12:41 20.03.2021
1256 Clear 0 992 74 10000 3.09 230 12:23 20.03.2021
1257 Clear 0 992 74 10000 3.09 230 12:23 20.03.2021
1258 Clouds 0 993 74 10000 3.09 230 11:43 20.03.2021
1259 Clouds -2 994 93 10000 3.09 240 11:22 20.03.2021
1260 Clouds -3 994 93 10000 3.6 230 10:46 20.03.2021
1261 Clouds -5 994 100 10000 3.6 210 10:24 20.03.2021
1262 Clear -6 994 100 10000 2.06 200 09:48 20.03.2021
1263 Clear -6 994 100 10000 2.06 200 09:22 20.03.2021
1264 Clouds -6 995 93 10000 3.09 220 08:53 20.03.2021
1265 Fog -6 995 93 550 4.63 210 08:19 20.03.2021
1266 Clouds -7 995 93 1000 4.12 230 07:48 20.03.2021
1267 Clouds -7 995 93 1000 4.12 230 07:29 20.03.2021
1268 Fog -7 996 93 700 4.12 230 06:40 20.03.2021
1269 Fog -7 996 100 1100 4.63 230 05:29 20.03.2021
1270 Snow -6 997 93 10000 5.14 230 03:45 20.03.2021
1271 Snow -6 999 93 5000 8.23 220 01:43 20.03.2021
1272 Snow -6 1001 86 2800 8.75 200 23:48 19.03.2021
1273 Snow -6 1002 86 2300 8.75 210 23:20 19.03.2021
1274 Snow -7 1003 93 10000 8.75 210 22:43 19.03.2021
1275 Snow -7 1003 93 10000 8.75 210 22:24 19.03.2021
1276 Snow -7 1005 79 10000 9.26 210 21:51 19.03.2021
1277 Snow -7 1006 79 10000 9.26 210 21:21 19.03.2021
1278 Snow -7 1006 79 10000 9.77 210 20:46 19.03.2021
1279 Clouds -7 1006 79 10000 9.77 210 20:26 19.03.2021
1280 Snow -7 1008 73 9000 10.29 210 19:50 19.03.2021
1281 Snow -7 1008 73 9000 10.29 210 19:24 19.03.2021
1282 Snow -7 1009 73 10000 10.8 210 18:50 19.03.2021
1283 Snow -7 1009 73 10000 10.8 210 18:30 19.03.2021
1284 Snow -8 1010 79 10000 9.26 210 17:58 19.03.2021
1285 Clouds -8 1011 79 10000 9.77 200 17:39 19.03.2021
1286 Clouds -8 1012 73 10000 8.75 200 17:18 19.03.2021
1287 Clear -7 1013 68 10000 9.77 200 16:44 19.03.2021
1288 Clear -7 1013 68 10000 9.26 210 16:25 19.03.2021
1289 Clear -7 1015 68 10000 8.23 210 15:34 19.03.2021
1290 Clear -7 1015 63 10000 9.77 210 14:53 19.03.2021
1291 Clear -7 1016 63 10000 10.29 210 14:34 19.03.2021
1292 Clear -7 1017 58 10000 8.75 210 13:53 19.03.2021
1293 Clear -6 1019 58 10000 7.2 210 13:19 19.03.2021
1294 Clear -7 1020 63 10000 5.66 220 12:47 19.03.2021
1295 Clear -7 1021 63 10000 7.2 210 12:18 19.03.2021
1296 Clear -7 1021 63 10000 5.14 210 11:33 19.03.2021
1297 Clear -9 1022 73 10000 5.14 210 10:52 19.03.2021
1298 Clear -9 1023 73 10000 4.63 220 10:23 19.03.2021
1299 Clear -11 1024 85 10000 3.6 210 09:44 19.03.2021
1300 Clear -11 1024 85 10000 3.6 210 09:26 19.03.2021
1301 Clear -11 1024 85 10000 2.57 180 08:52 19.03.2021
1302 Clear -12 1024 85 10000 2.06 180 08:29 19.03.2021
1303 Clear -12 1025 92 10000 1.03 260 07:50 19.03.2021
1304 Clear -12 1025 92 10000 1.03 260 07:50 19.03.2021
1305 Clear -12 1025 92 10000 1.03 260 07:31 19.03.2021
1306 Snow -14 1026 92 10000 2.06 300 05:29 19.03.2021
1307 Clear -12 1027 92 10000 4.12 30 02:20 19.03.2021
1308 Clear -12 1026 92 10000 3.6 20 23:57 18.03.2021
1309 Clear -10 1026 85 10000 3.6 360 23:29 18.03.2021
1310 Clear -9 1026 86 10000 4.12 10 22:54 18.03.2021
1311 Clear -9 1025 86 10000 3.6 360 22:26 18.03.2021
1312 Clear -9 1025 86 10000 3.6 360 22:26 18.03.2021
1313 Clear -9 1025 86 10000 4.63 20 21:55 18.03.2021
1314 Clear -9 1025 79 10000 5.14 30 21:36 18.03.2021
1315 Clear -7 1024 79 10000 5.14 10 20:43 18.03.2021
1316 Clear -7 1024 79 10000 5.14 10 20:22 18.03.2021
1317 Clear -6 1023 73 10000 5.14 10 19:43 18.03.2021
1318 Clear -6 1023 73 10000 5.14 10 19:23 18.03.2021
1319 Clear -6 1022 73 10000 4.63 360 18:47 18.03.2021
1320 Clear -5 1022 68 10000 5.14 10 17:58 18.03.2021
1321 Snow -5 1021 63 10000 4.63 10 17:27 18.03.2021
1322 Snow -4 1021 58 10000 4.63 10 16:59 18.03.2021
1323 Snow -4 1021 58 10000 7.72 20 16:41 18.03.2021
1324 Snow -4 1021 58 10000 7.72 20 16:22 18.03.2021
1325 Snow -3 1020 50 10000 5.66 10 15:41 18.03.2021
1326 Snow -3 1019 50 10000 8.23 20 15:19 18.03.2021
1327 Snow -3 1019 46 10000 7.2 10 14:49 18.03.2021
1328 Snow -3 1019 46 10000 7.2 10 14:23 18.03.2021
1329 Snow -3 1018 50 10000 7.72 10 13:40 18.03.2021
1330 Snow -4 1017 54 10000 7.72 10 13:21 18.03.2021
1331 Snow -4 1017 54 10000 7.72 360 12:38 18.03.2021
1332 Snow -4 1017 58 10000 6.17 360 12:20 18.03.2021
1333 Snow -5 1016 63 10000 7.2 350 11:45 18.03.2021
1334 Snow -5 1016 68 10000 7.72 340 11:22 18.03.2021
1335 Snow -5 1016 63 10000 6.17 340 10:41 18.03.2021
1336 Snow -5 1016 63 10000 6.17 340 10:23 18.03.2021
1337 Clouds -7 1016 68 10000 5.66 340 09:52 18.03.2021
1338 Clouds -8 1016 73 10000 6.69 330 09:27 18.03.2021
1339 Clouds -10 1015 73 10000 6.69 330 08:45 18.03.2021
1340 Clear -11 1015 79 10000 5.14 320 08:25 18.03.2021
1341 Clear -12 1015 79 10000 5.66 320 07:47 18.03.2021
1342 Clear -13 1015 85 10000 5.14 320 06:49 18.03.2021
1343 Clear -13 1015 85 10000 5.14 320 06:25 18.03.2021
1344 Clear -13 1015 78 10000 4.63 320 05:26 18.03.2021
1345 Clear -11 1016 67 10000 4.63 320 00:48 18.03.2021
1346 Clear -11 1016 67 10000 4.63 330 23:37 17.03.2021
1347 Clear -11 1016 67 10000 4.63 330 22:42 17.03.2021
1348 Clear -11 1016 67 10000 4.63 330 22:23 17.03.2021
1349 Clear -11 1016 67 10000 3.09 330 21:51 17.03.2021
1350 Clear -11 1016 67 10000 3.09 330 21:32 17.03.2021
1351 Clear -11 1017 73 10000 3.6 340 20:54 17.03.2021
1352 Clear -11 1017 73 10000 3.6 330 20:36 17.03.2021
1353 Clear -10 1017 67 10000 3.09 340 20:18 17.03.2021
1354 Clear -9 1017 67 10000 4.12 330 19:40 17.03.2021
1355 Clear -9 1017 67 10000 2.57 340 19:19 17.03.2021
1356 Clear -8 1017 62 10000 2.06 340 18:49 17.03.2021
1357 Clear -8 1017 62 10000 2.06 340 18:31 17.03.2021
1358 Clear -7 1017 58 10000 1.54 10 17:33 17.03.2021
1359 Clear -7 1016 63 10000 2.06 350 16:59 17.03.2021
1360 Clouds -6 1017 63 10000 2.06 320 16:39 17.03.2021
1361 Clear -5 1017 58 10000 1.54 300 16:20 17.03.2021
1362 Clear -6 1017 68 10000 1.03 0 15:45 17.03.2021
1363 Clear -6 1017 68 10000 1.03 0 15:26 17.03.2021
1364 Clear -7 1017 79 10000 2.57 320 14:40 17.03.2021
1365 Snow -7 1017 79 10000 2.06 350 14:19 17.03.2021
1366 Snow -7 1017 79 10000 2.06 350 13:54 17.03.2021
1367 Snow -7 1017 79 10000 1.54 310 13:24 17.03.2021
1368 Snow -7 1017 79 3000 1.54 300 12:43 17.03.2021
1369 Snow -7 1017 79 3000 1.54 300 12:25 17.03.2021
1370 Snow -8 1018 86 2500 1.54 260 11:41 17.03.2021
1371 Snow -9 1018 86 7000 2.06 210 11:21 17.03.2021
1372 Snow -9 1018 86 3000 2.06 220 10:52 17.03.2021
1373 Snow -9 1018 86 3000 2.06 220 10:23 17.03.2021
1374 Snow -8 1018 62 10000 2.06 100 09:46 17.03.2021
1375 Snow -9 1018 67 8000 2.06 80 09:20 17.03.2021
1376 Snow -9 1018 62 10000 2.06 90 08:47 17.03.2021
1377 Snow -10 1018 67 10000 1.54 110 08:27 17.03.2021
1378 Snow -10 1018 73 10000 1.54 120 07:43 17.03.2021
1379 Clear -10 1018 67 10000 2.06 180 06:57 17.03.2021
1380 Clouds -10 1018 73 10000 1.54 120 06:28 17.03.2021
1381 Clouds -10 1018 67 10000 2.57 190 03:32 17.03.2021
1382 Clouds -10 1018 67 10000 2.57 190 03:32 17.03.2021
1383 Clear -12 1018 72 10000 1.54 70 02:37 17.03.2021
1384 Clear -10 1018 67 10000 4.63 50 00:38 17.03.2021
1385 Clear -9 1017 67 10000 3.09 60 23:27 16.03.2021
1386 Clear -8 1017 73 10000 7.2 50 22:45 16.03.2021
1387 Clear -8 1017 73 10000 7.2 50 22:27 16.03.2021
1388 Clear -6 1016 68 10000 5.66 50 21:44 16.03.2021
1389 Clear -6 1016 68 10000 5.66 50 21:26 16.03.2021
1390 Clear -7 1016 73 10000 5.14 30 20:57 16.03.2021
1391 Clouds -6 1016 73 10000 5.66 30 20:20 16.03.2021
1392 Clouds -6 1016 73 10000 3.6 30 19:51 16.03.2021
1393 Clouds -6 1016 73 10000 3.6 30 19:29 16.03.2021
1394 Clouds -3 1015 68 10000 5.66 20 18:57 16.03.2021
1395 Clouds -3 1015 63 10000 4.12 30 18:39 16.03.2021
1396 Clouds -4 1015 74 10000 3.09 10 17:59 16.03.2021
1397 Clouds -4 1015 74 10000 3.09 10 17:59 16.03.2021
1398 Clear -3 1014 68 10000 3.09 10 17:40 16.03.2021
1399 Clouds -3 1014 68 10000 3.6 20 17:21 16.03.2021
1400 Clouds -3 1014 68 10000 5.14 30 16:47 16.03.2021
1401 Clouds -3 1014 68 10000 5.14 30 16:25 16.03.2021
1402 Clear -2 1013 69 10000 4.63 30 15:46 16.03.2021
1403 Clouds -3 1013 74 10000 4.63 30 15:20 16.03.2021
1404 Clouds -3 1013 74 10000 4.63 30 14:57 16.03.2021
1405 Clouds -2 1012 74 10000 6.17 30 14:38 16.03.2021
1406 Clouds -2 1012 74 10000 5.14 10 14:18 16.03.2021
1407 Clouds -2 1012 80 10000 5.66 20 13:44 16.03.2021
1408 Snow -2 1011 86 3000 6.17 20 13:21 16.03.2021
1409 Snow -2 1011 86 5000 5.14 10 12:43 16.03.2021
1410 Snow -2 1011 86 5000 5.14 10 12:23 16.03.2021
1411 Snow -2 1010 93 6000 5.66 20 11:36 16.03.2021
1412 Snow -1 1010 86 9000 3.6 10 10:53 16.03.2021
1413 Snow -1 1009 80 10000 3.09 350 10:22 16.03.2021
1414 Snow -2 1008 86 10000 2.57 360 09:47 16.03.2021
1415 Snow -2 1008 86 10000 3.6 350 09:24 16.03.2021
1416 Snow -2 1009 86 10000 3.6 350 08:57 16.03.2021
1417 Clouds -3 1008 86 10000 2.57 350 08:39 16.03.2021
1418 Snow -3 1007 86 10000 1.54 360 07:57 16.03.2021
1419 Clear -3 1007 86 10000 3.6 350 07:29 16.03.2021
1420 Clear -3 1006 86 10000 4.12 340 06:38 16.03.2021
1421 Clear -3 1006 86 10000 2.57 340 05:37 16.03.2021
1422 Clear -3 1005 93 10000 0.51 0 04:28 16.03.2021
1423 Clear -3 1004 86 10000 0.51 0 02:29 16.03.2021
1424 Clear -2 1004 86 10000 1.54 280 01:23 16.03.2021
1425 Clear -3 1004 93 10000 1.03 50 23:54 15.03.2021
1426 Clear -3 1004 86 10000 0.51 0 23:27 15.03.2021
1427 Clear -2 1003 80 10000 1.54 80 22:49 15.03.2021
1428 Clear -2 1003 80 10000 1.54 80 22:29 15.03.2021
1429 Clear -2 1003 80 10000 1.54 80 22:29 15.03.2021
1430 Clear -2 1003 80 10000 2.06 60 21:52 15.03.2021
1431 Clear -1 1003 74 10000 2.06 60 21:32 15.03.2021
1432 Clouds -1 1003 74 10000 2.06 40 20:56 15.03.2021
1433 Clouds -1 1003 74 10000 2.06 50 20:37 15.03.2021
1434 Clouds -2 1002 80 10000 1.54 50 20:19 15.03.2021
1435 Clouds -2 1002 80 10000 1.54 50 20:19 15.03.2021
1436 Clouds -2 1002 80 10000 1.03 50 19:43 15.03.2021
1437 Clouds -2 1002 80 10000 1.03 50 19:24 15.03.2021
1438 Clouds 0 1002 69 10000 1.54 30 18:47 15.03.2021
1439 Clouds 0 1002 69 10000 1.54 30 18:23 15.03.2021
1440 Clouds -1 1001 80 10000 2.06 20 17:55 15.03.2021
1441 Clouds -1 1001 80 10000 2.06 20 17:28 15.03.2021
1442 Clouds 0 1001 74 10000 1.54 360 16:50 15.03.2021
1443 Clouds 0 1001 74 10000 1.54 360 16:25 15.03.2021
1444 Clouds 1 1001 69 10000 1.54 360 15:44 15.03.2021
1445 Clouds 1 1001 69 10000 1.54 360 15:25 15.03.2021
1446 Clouds 1 1000 69 10000 1.54 330 14:42 15.03.2021
1447 Clouds 1 1000 69 10000 1.54 330 14:21 15.03.2021
1448 Clouds 1 1000 69 10000 1.47 17 13:46 15.03.2021
1449 Clouds 1 999 69 10000 1.54 120 13:24 15.03.2021
1450 Clouds 1 999 69 10000 1.54 90 12:47 15.03.2021
1451 Clouds -1 999 86 10000 1.03 0 12:18 15.03.2021
1452 Clouds -1 999 93 10000 1.54 50 11:48 15.03.2021
1453 Clouds -1 999 93 10000 1.54 50 11:30 15.03.2021
1454 Clouds -3 999 100 10000 2.06 40 10:45 15.03.2021
1455 Clouds -3 999 100 10000 2.06 40 10:27 15.03.2021
1456 Snow -3 998 93 10000 1.03 0 09:49 15.03.2021
1457 Snow -3 998 93 10000 1.03 0 09:30 15.03.2021
1458 Fog -3 998 93 600 1.54 30 08:48 15.03.2021
1459 Fog -3 998 93 600 1.54 30 08:28 15.03.2021
1460 Mist -4 998 100 1400 1.54 10 07:49 15.03.2021
1461 Mist -4 998 100 1400 1.54 10 07:30 15.03.2021
1462 Fog -4 997 93 500 2.06 20 06:36 15.03.2021
1463 Mist -4 997 93 1800 1.03 0 05:24 15.03.2021
1464 Clouds -4 996 93 10000 1.54 80 01:25 15.03.2021
1465 Clouds -4 996 93 10000 0.51 300 23:45 14.03.2021
1466 Clouds -4 996 93 10000 1.07 329 23:19 14.03.2021
1467 Clouds -3 996 86 10000 0.51 180 22:39 14.03.2021
1468 Clouds -3 996 93 10000 0.51 0 22:18 14.03.2021
1469 Clouds -3 995 93 10000 1.03 0 21:41 14.03.2021
1470 Clouds -3 995 93 10000 1.03 0 21:18 14.03.2021
1471 Clouds -3 995 93 10000 1.03 180 20:42 14.03.2021
1472 Clouds -3 995 93 10000 1.03 180 20:24 14.03.2021
1473 Clouds -3 995 86 10000 1.54 210 19:42 14.03.2021
1474 Clouds -3 995 86 10000 1.54 190 19:20 14.03.2021
1475 Clouds -3 995 86 10000 1.54 180 18:41 14.03.2021
1476 Clouds -2 995 80 10000 2.06 190 17:58 14.03.2021
1477 Clouds -2 995 80 10000 1.54 200 17:38 14.03.2021
1478 Clouds -2 995 80 10000 2.06 210 17:19 14.03.2021
1479 Clouds -2 994 80 10000 2.57 200 16:42 14.03.2021
1480 Clouds -2 994 80 10000 2.57 200 16:23 14.03.2021
1481 Clouds -2 994 80 10000 2.57 200 15:48 14.03.2021
1482 Clouds -2 994 80 10000 2.57 200 14:59 14.03.2021
1483 Clouds -2 994 80 10000 2.57 210 14:40 14.03.2021
1484 Clouds -2 994 80 10000 2.57 210 14:20 14.03.2021
1485 Clouds -2 994 80 10000 2.57 210 14:20 14.03.2021
1486 Clouds -2 994 80 10000 2.57 210 13:43 14.03.2021
1487 Clouds -3 994 86 10000 2.06 210 13:24 14.03.2021
1488 Clouds -3 994 86 10000 2.06 210 12:42 14.03.2021
1489 Clouds -3 994 86 10000 2.06 210 12:23 14.03.2021
1490 Clouds -3 993 86 10000 2.57 0 11:41 14.03.2021
1491 Clouds -3 993 86 10000 2.57 0 11:22 14.03.2021
1492 Clouds -4 993 93 10000 1.54 210 10:38 14.03.2021
1493 Clouds -4 993 93 10000 3.09 210 10:20 14.03.2021
1494 Clouds -4 993 93 10000 3.09 210 09:57 14.03.2021
1495 Snow -5 993 93 7000 2.57 210 09:39 14.03.2021
1496 Snow -5 993 93 9000 2.57 210 09:20 14.03.2021
1497 Snow -5 992 93 9000 2.57 210 08:37 14.03.2021
1498 Snow -5 992 93 5000 1.54 210 07:58 14.03.2021
1499 Snow -5 992 93 4000 1.54 200 07:28 14.03.2021
1500 Snow -5 991 93 4500 1.54 170 05:38 14.03.2021
1501 Clouds -5 991 93 10000 2.06 160 01:27 14.03.2021
1502 Clouds -5 991 93 10000 1.54 160 00:20 14.03.2021
1503 Clouds -5 991 93 10000 1.54 160 23:59 13.03.2021
1504 Clouds -5 991 86 10000 2.06 170 23:40 13.03.2021
1505 Clouds -5 991 86 10000 2.06 170 23:19 13.03.2021
1506 Clouds -5 991 86 10000 1.54 150 22:46 13.03.2021
1507 Clouds -5 991 86 10000 1.54 160 22:21 13.03.2021
1508 Clouds -5 991 86 10000 1.03 190 21:35 13.03.2021
1509 Clouds -5 991 86 10000 2.06 200 20:59 13.03.2021
1510 Clouds -5 990 86 10000 2.06 230 20:41 13.03.2021
1511 Clouds -5 990 86 10000 2.06 230 20:41 13.03.2021
1512 Clouds -5 990 86 10000 2.06 230 20:41 13.03.2021
1513 Clouds -5 990 86 10000 2.06 230 20:41 13.03.2021
1514 Clouds -5 990 86 10000 2.06 230 20:23 13.03.2021
1515 Clouds -5 991 86 10000 3.6 200 19:40 13.03.2021
1516 Clouds -5 991 86 10000 3.6 200 19:22 13.03.2021
1517 Clouds -5 990 86 10000 3.6 190 18:42 13.03.2021
1518 Clouds -5 990 86 10000 3.6 180 18:20 13.03.2021
1519 Clouds -5 990 86 10000 2.57 180 17:49 13.03.2021
1520 Clouds -5 990 86 10000 2.57 180 17:49 13.03.2021
1521 Clouds -5 990 86 10000 2.57 180 17:31 13.03.2021
1522 Clouds -5 990 86 10000 3.09 200 16:52 13.03.2021
1523 Clouds -5 989 80 10000 3.6 200 16:34 13.03.2021
1524 Clouds -5 989 80 10000 4.12 190 15:55 13.03.2021
1525 Clouds -4 989 74 10000 3.09 170 14:59 13.03.2021
1526 Clouds -4 989 74 10000 3.09 170 14:40 13.03.2021
1527 Clouds -4 989 74 10000 2.57 170 14:19 13.03.2021
1528 Clouds -4 989 74 10000 2.57 160 13:26 13.03.2021
1529 Clouds -5 989 80 10000 3.6 170 12:48 13.03.2021
1530 Clouds -5 989 80 10000 3.6 170 12:29 13.03.2021
1531 Clouds -5 989 80 10000 4.12 170 11:52 13.03.2021
1532 Clouds -5 989 80 10000 4.12 170 11:31 13.03.2021
1533 Clouds -6 989 86 10000 3.09 170 10:55 13.03.2021
1534 Clouds -6 989 79 10000 2.57 170 10:30 13.03.2021
1535 Clouds -6 989 79 10000 2.06 160 09:56 13.03.2021
1536 Snow -7 989 86 10000 3.6 160 09:24 13.03.2021
1537 Snow -7 988 86 10000 3.09 140 08:44 13.03.2021
1538 Snow -8 988 93 4700 2.57 140 08:20 13.03.2021
1539 Snow -8 988 93 4700 2.57 140 07:55 13.03.2021
1540 Snow -8 988 93 9000 2.57 130 06:54 13.03.2021
1541 Snow -8 988 93 10000 3.09 130 02:56 13.03.2021
1542 Snow -8 988 93 10000 3.09 130 02:56 13.03.2021
1543 Snow -7 988 86 10000 2.57 150 01:20 13.03.2021
1544 Snow -7 988 86 10000 3.09 160 23:59 12.03.2021
1545 Snow -7 988 86 10000 3.09 160 23:32 12.03.2021
1546 Snow -7 988 86 10000 3.6 150 22:46 12.03.2021
1547 Snow -7 988 86 10000 3.6 150 22:28 12.03.2021
1548 Snow -7 988 86 10000 3.09 150 21:46 12.03.2021
1549 Snow -7 988 86 10000 3.09 150 21:27 12.03.2021
1550 Snow -7 988 86 10000 3.09 150 21:27 12.03.2021
1551 Snow -7 988 86 10000 2.57 150 20:56 12.03.2021
1552 Snow -7 988 86 10000 2.57 150 20:36 12.03.2021
1553 Snow -7 988 86 10000 3.09 150 19:59 12.03.2021
1554 Snow -7 988 79 10000 3.6 160 19:40 12.03.2021
1555 Snow -7 988 79 10000 3.6 160 19:22 12.03.2021
1556 Snow -6 988 73 10000 3.09 160 18:36 12.03.2021
1557 Snow -6 988 73 10000 3.09 160 17:58 12.03.2021
1558 Snow -6 988 73 10000 3.09 160 17:38 12.03.2021
1559 Clouds -6 988 73 10000 2.57 160 17:20 12.03.2021
1560 Clouds -6 988 68 10000 2.57 160 16:42 12.03.2021
1561 Clouds -6 988 68 10000 4.12 160 15:52 12.03.2021
1562 Clouds -6 988 68 10000 4.12 160 15:32 12.03.2021
1563 Clouds -6 988 68 10000 4.63 170 14:49 12.03.2021
1564 Clouds -6 988 68 10000 3.6 170 14:21 12.03.2021
1565 Clouds -6 989 63 10000 4.12 180 13:44 12.03.2021
1566 Clouds -6 989 63 10000 4.12 180 13:24 12.03.2021
1567 Clouds -7 989 68 10000 3.6 170 12:58 12.03.2021
1568 Snow -7 989 68 10000 4.63 170 12:38 12.03.2021
1569 Snow -7 989 68 10000 4.63 170 12:38 12.03.2021
1570 Clouds -7 989 68 10000 3.6 160 12:20 12.03.2021
1571 Clouds -7 989 68 10000 4.12 150 11:50 12.03.2021
1572 Clouds -7 989 68 10000 4.12 150 11:22 12.03.2021
1573 Clouds -8 990 67 10000 4.12 160 10:50 12.03.2021
1574 Clouds -8 990 67 10000 4.12 160 10:25 12.03.2021
1575 Clouds -9 990 73 10000 4.12 150 09:52 12.03.2021
1576 Clouds -10 991 79 10000 4.12 150 09:20 12.03.2021
1577 Clouds -10 991 79 10000 4.63 140 08:44 12.03.2021
1578 Clouds -10 991 85 10000 4.63 150 07:56 12.03.2021
1579 Clouds -10 991 85 10000 6.17 160 07:31 12.03.2021
1580 Clouds -9 991 86 10000 6.17 160 06:46 12.03.2021
1581 Clouds -9 991 86 10000 6.17 160 06:26 12.03.2021
1582 Clouds -9 994 86 10000 6.17 170 02:20 12.03.2021
1583 Snow -10 996 85 10000 5.14 180 00:18 12.03.2021
1584 Snow -10 997 85 10000 4.63 180 23:19 11.03.2021
1585 Snow -10 997 79 10000 5.14 180 22:42 11.03.2021
1586 Snow -10 997 79 10000 5.14 180 22:22 11.03.2021
1587 Snow -10 998 85 10000 5.66 180 21:46 11.03.2021
1588 Snow -10 998 85 10000 5.66 180 21:26 11.03.2021
1589 Snow -10 999 85 10000 5.66 180 20:49 11.03.2021
1590 Snow -10 999 85 10000 5.66 180 20:27 11.03.2021
1591 Snow -10 999 85 9000 5.14 180 19:57 11.03.2021
1592 Snow -10 999 85 10000 4.12 200 19:38 11.03.2021
1593 Snow -10 1000 79 10000 5.66 170 18:55 11.03.2021
1594 Snow -10 1000 79 10000 5.66 170 18:35 11.03.2021
1595 Snow -10 1001 79 9000 6.69 160 17:57 11.03.2021
1596 Snow -10 1001 79 10000 5.66 170 17:39 11.03.2021
1597 Snow -10 1002 79 6000 6.69 170 16:42 11.03.2021
1598 Snow -10 1002 79 6000 6.69 170 16:24 11.03.2021
1599 Snow -10 1003 79 6000 6.17 180 15:44 11.03.2021
1600 Snow -10 1004 79 4800 5.66 180 15:21 11.03.2021
1601 Snow -10 1004 79 4800 5.66 180 15:21 11.03.2021
1602 Snow -10 1004 73 8000 5.14 180 14:45 11.03.2021
1603 Snow -10 1005 67 10000 5.14 180 14:18 11.03.2021
1604 Snow -10 1005 67 10000 7.72 200 13:45 11.03.2021
1605 Snow -10 1005 67 10000 7.72 200 13:22 11.03.2021
1606 Clouds -10 1006 67 10000 8.75 200 12:55 11.03.2021
1607 Clouds -10 1006 62 10000 8.23 200 12:30 11.03.2021
1608 Clouds -10 1006 62 10000 8.23 200 12:30 11.03.2021
1609 Clouds -11 1007 67 10000 7.72 190 11:48 11.03.2021
1610 Clouds -11 1007 67 10000 7.72 190 11:30 11.03.2021
1611 Clouds -11 1007 62 10000 7.72 190 10:56 11.03.2021
1612 Clouds -12 1007 67 10000 4.63 180 10:27 11.03.2021
1613 Clouds -14 1009 66 10000 6.69 190 09:52 11.03.2021
1614 Clouds -14 1009 66 10000 6.69 190 09:33 11.03.2021
1615 Clear -15 1010 66 10000 5.14 190 08:50 11.03.2021
1616 Clear -15 1010 66 10000 5.14 190 08:50 11.03.2021
1617 Clear -15 1010 66 10000 5.14 190 08:32 11.03.2021
1618 Snow -17 1010 71 10000 3.6 170 07:48 11.03.2021
1619 Snow -17 1010 66 10000 4.12 170 07:21 11.03.2021
1620 Clouds -17 1011 60 10000 4.63 170 06:42 11.03.2021
1621 Clouds -17 1011 60 10000 4.63 170 06:22 11.03.2021
1622 Clear -16 1014 60 10000 7.72 200 02:31 11.03.2021
1623 -273 0 0 0 0 0 00:30 11.03.2021
1624 Clear -15 1015 56 10000 7.72 200 00:29 11.03.2021
1625 Clear -15 1016 56 10000 6.17 200 23:23 10.03.2021
1626 Clear -15 1017 51 10000 5.14 200 22:42 10.03.2021
1627 Clear -15 1017 47 10000 4.63 190 22:21 10.03.2021
1628 Clear -15 1018 43 10000 4.63 190 21:44 10.03.2021
1629 Clear -15 1018 43 10000 4.63 190 21:44 10.03.2021
1630 Clear -15 1018 43 10000 4.63 190 21:22 10.03.2021
1631 Clear -15 1018 47 10000 5.14 200 20:45 10.03.2021
1632 Clear -15 1018 47 10000 5.14 200 20:27 10.03.2021
1633 Clear -15 1019 51 10000 6.17 200 19:43 10.03.2021
1634 Clear -15 1019 51 10000 6.69 200 19:24 10.03.2021
1635 Clear -15 1019 56 10000 6.69 200 18:44 10.03.2021
1636 Clear -15 1019 56 10000 6.69 200 18:24 10.03.2021
1637 Clear -14 1020 51 10000 8.23 200 17:55 10.03.2021
1638 Clear -13 1020 47 10000 7.72 200 17:36 10.03.2021
1639 Clear -13 1020 47 10000 7.72 200 17:36 10.03.2021
1640 Snow -13 1020 47 10000 6.69 200 17:18 10.03.2021
1641 Snow -12 1020 48 10000 6.69 200 16:41 10.03.2021
1642 Snow -12 1021 52 10000 6.17 220 16:21 10.03.2021
1643 Clear -12 1021 52 10000 5.66 210 15:41 10.03.2021
1644 Clear -12 1021 52 10000 5.66 210 15:22 10.03.2021
1645 Snow -12 1022 56 10000 7.2 220 14:43 10.03.2021
1646 Snow -12 1022 52 10000 7.72 210 14:19 10.03.2021
1647 Clear -12 1022 56 10000 7.72 210 13:50 10.03.2021
1648 Clear -12 1022 56 10000 7.72 210 13:27 10.03.2021
1649 Clear -12 1023 67 10000 6.69 210 12:45 10.03.2021
1650 Clear -13 1023 66 10000 5.66 220 12:19 10.03.2021
1651 Clear -13 1024 66 10000 6.17 220 11:32 10.03.2021
1652 Clear -14 1024 66 10000 5.66 210 10:58 10.03.2021
1653 Clear -15 1024 78 10000 5.14 210 10:37 10.03.2021
1654 Clear -16 1024 85 10000 5.14 220 10:19 10.03.2021
1655 Clear -16 1024 85 10000 5.14 210 09:42 10.03.2021
1656 Clear -17 1024 85 10000 4.63 210 09:21 10.03.2021
1657 Clear -17 1024 85 10000 4.63 200 08:50 10.03.2021
1658 Clear -17 1024 85 10000 4.63 200 08:28 10.03.2021
1659 Clear -18 1024 85 10000 4.63 200 07:58 10.03.2021
1660 Clear -18 1024 85 10000 4.63 210 07:30 10.03.2021
1661 Clear -18 1024 85 10000 4.63 210 07:30 10.03.2021
1662 Clear -18 1024 78 10000 4.63 210 06:56 10.03.2021
1663 Clear -18 1024 78 10000 3.6 220 06:23 10.03.2021
1664 Clear -18 1025 85 10000 2.06 250 02:26 10.03.2021
1665 Clear -17 1025 92 10000 2.06 220 23:49 09.03.2021
1666 Clear -16 1026 92 10000 1.03 260 23:19 09.03.2021
1667 Clear -16 1025 92 10000 2.06 240 22:38 09.03.2021
1668 Clear -17 1025 92 10000 1.54 250 22:18 09.03.2021
1669 Clear -16 1026 92 10000 1.03 240 21:45 09.03.2021
1670 Clear -16 1026 92 10000 1.03 240 21:24 09.03.2021
1671 Clear -15 1028 92 10000 1.54 240 20:58 09.03.2021
1672 Clear -14 1025 92 10000 1.54 220 20:39 09.03.2021
1673 Clear -16 1025 85 10000 1.54 200 20:19 09.03.2021
1674 Clear -16 1025 85 10000 1.03 230 19:45 09.03.2021
1675 Clear -14 1025 85 10000 1.54 260 19:25 09.03.2021
1676 Clear -16 1025 92 10000 1.03 270 18:42 09.03.2021
1677 Clear -16 1025 92 10000 1.03 270 18:23 09.03.2021
1678 Clear -14 1025 85 10000 2.06 300 17:49 09.03.2021
1679 Clear -14 1025 85 10000 2.06 300 17:28 09.03.2021
1680 Clear -14 1025 85 10000 2.06 300 17:28 09.03.2021
1681 Clear -11 1024 79 10000 1.54 260 16:41 09.03.2021
1682 Clear -11 1024 79 10000 1.54 260 16:23 09.03.2021
1683 Snow -10 1027 67 10000 1.54 270 15:57 09.03.2021
1684 Clear -10 1024 67 10000 1.54 280 15:28 09.03.2021
1685 Clear -10 1024 67 10000 1.54 290 14:52 09.03.2021
1686 Clear -10 1024 67 10000 1.54 290 14:52 09.03.2021
1687 Clear -10 1024 67 10000 1.54 290 14:26 09.03.2021
1688 Clear -11 1024 67 10000 2.06 200 13:43 09.03.2021
1689 Clear -12 1024 72 10000 2.57 200 13:21 09.03.2021
1690 Clear -12 1024 72 10000 2.57 200 12:54 09.03.2021
1691 Clear -12 1024 72 10000 2.57 200 12:54 09.03.2021
1692 Clear -12 1024 67 10000 2.06 210 12:36 09.03.2021
1693 Clouds -14 1023 78 10000 2.57 200 11:45 09.03.2021
1694 Clouds -14 1023 78 10000 2.57 200 11:23 09.03.2021
1695 Clouds -14 1023 72 10000 2.57 210 10:59 09.03.2021
1696 Clouds -15 1023 78 10000 3.09 200 10:39 09.03.2021
1697 Clouds -15 1023 78 10000 1.03 0 10:21 09.03.2021
1698 Clouds -16 1022 78 10000 0.51 0 09:46 09.03.2021
1699 Clouds -16 1022 78 10000 0.51 0 09:27 09.03.2021
1700 Clouds -16 1022 78 10000 0.51 30 08:57 09.03.2021
1701 Clouds -16 1022 78 10000 1.03 180 08:32 09.03.2021
1702 Snow -17 1021 78 10000 2.06 150 07:46 09.03.2021
1703 Snow -17 1021 78 10000 2.06 150 07:26 09.03.2021
1704 Snow -17 1021 78 6000 2.06 140 06:55 09.03.2021
1705 Snow -17 1020 78 9000 2.57 110 05:53 09.03.2021
1706 Clouds -15 1018 78 10000 1.54 80 01:32 09.03.2021
1707 Clouds -15 1018 78 10000 1.54 80 01:31 09.03.2021
1708 Clouds -15 1018 78 10000 1.54 80 01:31 09.03.2021
1709 Clouds -15 1018 78 10000 1.54 80 01:31 09.03.2021
1710 Clouds -15 1018 78 10000 1.54 80 01:31 09.03.2021
1711 Snow -15 1017 85 10000 2.06 90 23:56 08.03.2021
1712 Snow -15 1016 85 10000 1.54 70 23:37 08.03.2021
1713 Snow -14 1016 85 10000 2.57 60 23:18 08.03.2021
1714 Snow -15 1016 85 9000 3.09 80 22:40 08.03.2021
1715 Snow -14 1016 85 5000 3.6 80 22:21 08.03.2021
1716 Snow -14 1015 85 10000 3.6 90 21:45 08.03.2021
1717 Snow -14 1015 85 10000 3.6 90 21:26 08.03.2021
1718 Clear -13 1015 85 10000 3.09 80 20:40 08.03.2021
1719 Clear -13 1015 85 10000 2.57 100 20:20 08.03.2021
1720 Clear -12 1015 79 10000 3.09 80 19:40 08.03.2021
1721 Snow -11 1017 79 10000 3.6 70 18:57 08.03.2021
1722 Clouds -10 1014 73 10000 3.09 80 18:37 08.03.2021
1723 Clear -10 1014 79 10000 3.09 70 18:18 08.03.2021
1724 Clear -10 1014 79 10000 2.06 80 17:43 08.03.2021
1725 Clear -10 1014 79 10000 2.57 70 17:22 08.03.2021
1726 Snow -9 1014 73 10000 1.54 110 16:41 08.03.2021
1727 Clear -10 1014 79 10000 1.54 110 16:21 08.03.2021
1728 Clear -9 1014 67 10000 1.54 100 15:38 08.03.2021
1729 Clear -10 1014 79 10000 1.54 50 15:20 08.03.2021
1730 Clouds -7 1014 68 10000 0.51 0 14:21 08.03.2021
1731 Clear -9 1014 73 10000 1.54 200 13:48 08.03.2021
1732 Clear -9 1014 73 10000 1.54 200 13:23 08.03.2021
1733 Clear -9 1014 73 10000 2.57 190 12:56 08.03.2021
1734 Clear -10 1014 73 10000 1.54 180 12:29 08.03.2021
1735 Clear -10 1014 73 10000 2.06 80 11:45 08.03.2021
1736 Clear -10 1014 73 10000 2.06 80 11:22 08.03.2021
1737 Clouds -13 1014 85 10000 1.03 0 10:47 08.03.2021
1738 Clouds -13 1014 85 10000 1.03 0 10:28 08.03.2021
1739 Clouds -15 1014 92 10000 1.54 40 09:50 08.03.2021
1740 Clouds -15 1014 92 10000 1.54 40 09:25 08.03.2021
1741 Snow -15 1014 85 10000 1.03 0 08:50 08.03.2021
1742 Snow -15 1014 85 10000 1.03 0 08:23 08.03.2021
1743 Clear -16 1013 92 10000 1.03 0 07:21 08.03.2021
1744 Clouds -14 1013 92 10000 1.54 340 05:23 08.03.2021
1745 Snow -12 1012 92 10000 3.09 10 02:19 08.03.2021
1746 Snow -10 1011 85 10000 2.06 30 00:42 08.03.2021
1747 Snow -9 1011 86 10000 2.57 20 23:53 07.03.2021
1748 Clouds -10 1010 79 10000 2.06 10 23:21 07.03.2021
1749 Snow -8 1010 73 10000 2.06 20 22:47 07.03.2021
1750 Snow -8 1010 73 10000 2.06 20 22:27 07.03.2021
1751 Clouds -9 1009 79 10000 2.06 350 21:50 07.03.2021
1752 Clouds -9 1009 79 10000 2.06 350 21:32 07.03.2021
1753 Snow -9 1009 73 10000 1.54 340 20:58 07.03.2021
1754 Snow -9 1009 79 10000 1.03 10 20:40 07.03.2021
1755 Clear -9 1009 73 10000 0.51 0 20:18 07.03.2021
1756 Snow -8 1008 73 10000 1.03 10 19:40 07.03.2021
1757 Clear -8 1008 73 10000 1.03 10 19:22 07.03.2021
1758 Snow -8 1008 67 10000 2.57 40 18:51 07.03.2021
1759 Clear -9 1008 73 10000 2.57 20 18:21 07.03.2021
1760 Clear -9 1008 73 10000 2.57 20 17:57 07.03.2021
1761 Clear -9 1007 67 10000 2.57 30 17:37 07.03.2021
1762 Clear -8 1007 67 10000 2.57 30 17:18 07.03.2021
1763 Clear -8 1007 67 10000 2.57 30 17:18 07.03.2021
1764 Clear -7 1007 63 10000 2.06 20 16:42 07.03.2021
1765 Snow -7 1007 63 10000 2.06 10 16:20 07.03.2021
1766 Clear -5 1006 54 10000 3.6 20 15:47 07.03.2021
1767 Clear -5 1006 54 10000 3.6 20 15:29 07.03.2021
1768 Clear -5 1006 54 10000 3.6 10 14:47 07.03.2021
1769 Clear -5 1006 54 10000 3.6 10 14:28 07.03.2021
1770 Snow -5 1005 58 10000 5.66 20 13:44 07.03.2021
1771 Snow -5 1005 58 10000 5.66 20 13:24 07.03.2021
1772 Snow -6 1004 58 10000 4.12 20 12:47 07.03.2021
1773 Snow -6 1004 58 10000 4.12 20 12:29 07.03.2021
1774 Snow -6 1004 58 10000 4.12 20 12:29 07.03.2021
1775 Snow -7 1003 68 10000 6.17 20 11:52 07.03.2021
1776 Snow -7 1002 68 10000 5.66 20 11:23 07.03.2021
1777 Snow -8 1001 73 10000 7.2 30 10:50 07.03.2021
1778 Snow -8 1001 73 10000 7.2 30 10:31 07.03.2021
1779 Snow -8 999 73 10000 7.2 20 09:51 07.03.2021
1780 Snow -8 999 73 10000 7.2 20 09:26 07.03.2021
1781 Snow -8 998 79 10000 7.2 20 08:48 07.03.2021
1782 Snow -8 998 79 10000 7.2 20 08:25 07.03.2021
1783 Snow -8 996 86 4000 8.75 20 07:51 07.03.2021
1784 Snow -8 987 86 9000 8.23 30 02:43 07.03.2021
1785 Snow -8 986 86 10000 8.23 30 01:42 07.03.2021
1786 Snow -7 984 93 10000 6.69 40 23:54 06.03.2021
1787 Snow -6 983 86 10000 6.69 40 23:35 06.03.2021
1788 Snow -7 982 93 10000 5.14 20 22:48 06.03.2021
1789 Snow -7 982 93 10000 5.14 20 22:29 06.03.2021
1790 Snow -7 982 93 10000 5.14 30 21:59 06.03.2021
1791 Snow -7 981 93 6000 5.14 20 21:24 06.03.2021
1792 Snow -7 981 93 5000 4.12 20 20:54 06.03.2021
1793 Snow -7 981 93 5000 4.12 20 20:34 06.03.2021
1794 Snow -7 980 93 10000 2.57 360 19:50 06.03.2021
1795 Snow -7 980 93 10000 2.57 360 19:23 06.03.2021
1796 Snow -6 980 97 409 4.12 73 18:56 06.03.2021
1797 Snow -6 980 97 409 4.12 73 18:56 06.03.2021
1798 Snow -7 980 93 10000 2.06 30 18:38 06.03.2021
1799 Snow -7 980 93 10000 2.57 30 18:18 06.03.2021
1800 Snow -8 980 93 4800 2.06 50 17:44 06.03.2021
1801 Snow -8 980 93 4800 2.06 50 17:24 06.03.2021
1802 Snow -6 981 93 1800 1.54 100 16:52 06.03.2021
1803 Snow -6 981 93 1800 1.54 100 16:29 06.03.2021
1804 Snow -6 981 93 1900 2.57 110 15:54 06.03.2021
1805 Snow -6 982 93 1300 2.57 110 15:32 06.03.2021
1806 Snow -6 982 93 1300 2.57 110 15:32 06.03.2021
1807 Snow -6 983 93 1600 3.09 120 14:54 06.03.2021
1808 Snow -6 983 93 1600 3.09 120 14:30 06.03.2021
1809 Snow -6 983 93 1600 3.09 120 14:30 06.03.2021
1810 Snow -6 984 93 1100 3.09 130 13:42 06.03.2021
1811 Snow -6 984 93 1100 3.09 140 13:21 06.03.2021
1812 Snow -6 985 93 2000 3.6 150 12:44 06.03.2021
1813 Snow -6 986 86 2400 4.12 150 12:20 06.03.2021
1814 Snow -6 986 86 2400 4.12 150 12:20 06.03.2021
1815 Snow -6 986 86 2400 4.12 150 11:56 06.03.2021
1816 Snow -6 986 86 3300 4.12 150 11:22 06.03.2021
1817 Snow -6 988 86 1300 5.66 170 10:49 06.03.2021
1818 Snow -6 988 86 1300 5.66 170 10:24 06.03.2021
1819 Snow -7 989 93 3500 5.66 160 09:49 06.03.2021
1820 Snow -7 990 86 1600 5.14 170 09:21 06.03.2021
1821 Snow -8 991 93 2400 4.63 170 08:51 06.03.2021
1822 Snow -8 992 93 10000 4.63 160 07:59 06.03.2021
1823 Snow -9 993 92 4000 4.12 160 07:41 06.03.2021
1824 Snow -9 993 92 2300 4.12 160 07:20 06.03.2021
1825 Snow -10 996 92 7000 4.12 170 05:38 06.03.2021
1826 Clear -10 1000 85 10000 4.63 190 02:39 06.03.2021
1827 Clear -10 1002 79 10000 4.63 190 01:20 06.03.2021
1828 Clear -10 1003 73 10000 4.63 190 00:39 06.03.2021
1829 Clear -10 1004 73 10000 4.63 210 23:31 05.03.2021
1830 Clear -10 1005 73 10000 4.12 220 22:50 05.03.2021
1831 Clear -10 1005 73 10000 4.12 220 22:25 05.03.2021
1832 Clear -10 1006 73 10000 4.63 220 21:57 05.03.2021
1833 Clear -10 1006 73 10000 3.6 220 21:39 05.03.2021
1834 Clear -10 1007 73 10000 3.6 210 20:59 05.03.2021
1835 Clear -11 1007 79 10000 3.09 230 20:41 05.03.2021
1836 Clear -11 1007 79 10000 3.09 230 20:23 05.03.2021
1837 Clear -10 1008 79 10000 2.57 220 19:43 05.03.2021
1838 Clear -9 1008 73 10000 3.09 240 19:21 05.03.2021
1839 Clear -8 1009 67 10000 3.09 220 18:43 05.03.2021
1840 Clear -8 1009 67 10000 3.09 220 18:25 05.03.2021
1841 Clear -8 1010 67 10000 2.06 240 17:37 05.03.2021
1842 Clear -7 1010 68 10000 1.54 250 17:19 05.03.2021
1843 Clear -7 1010 68 10000 2.57 250 16:41 05.03.2021
1844 Clear -7 1010 68 10000 2.57 250 16:22 05.03.2021
1845 Clear -6 1010 63 10000 3.6 250 15:52 05.03.2021
1846 Clear -6 1010 63 10000 3.6 250 15:23 05.03.2021
1847 Clear -6 1010 63 10000 3.09 250 14:39 05.03.2021
1848 Clear -5 1010 58 10000 3.09 280 14:18 05.03.2021
1849 Clear -6 1010 63 10000 3.09 260 13:22 05.03.2021
1850 Clear -6 1010 63 10000 3.09 290 13:00 05.03.2021
1851 Clear -6 1010 63 10000 3.6 300 12:30 05.03.2021
1852 Clear -7 1010 63 10000 3.6 280 11:37 05.03.2021
1853 Clear -8 1010 67 10000 3.09 290 11:18 05.03.2021
1854 Clear -9 1010 73 10000 2.57 270 10:42 05.03.2021
1855 Clear -9 1010 73 10000 2.57 270 10:23 05.03.2021
1856 Clear -10 1010 79 10000 4.12 330 09:50 05.03.2021
1857 Clear -10 1010 79 10000 4.12 330 09:27 05.03.2021
1858 Clear -12 1010 92 10000 4.63 320 08:46 05.03.2021
1859 Clear -12 1010 92 10000 4.63 320 08:27 05.03.2021
1860 Clear -12 1010 85 10000 4.63 320 07:55 05.03.2021
1861 Clear -13 1009 85 10000 4.63 320 07:28 05.03.2021
1862 Clear -13 1009 85 10000 5.14 340 06:33 05.03.2021
1863 Clear -13 1009 92 10000 5.14 340 05:32 05.03.2021
1864 Clear -11 1007 79 10000 5.66 330 00:49 05.03.2021
1865 Clear -11 1007 79 10000 5.14 340 23:43 04.03.2021
1866 Clear -10 1007 79 10000 5.14 340 22:55 04.03.2021
1867 Clear -10 1006 73 10000 5.66 340 22:26 04.03.2021
1868 Clear -10 1006 73 10000 5.14 330 21:51 04.03.2021
1869 Clear -10 1006 73 10000 5.14 330 21:29 04.03.2021
1870 Clear -9 1006 67 10000 4.63 340 20:42 04.03.2021
1871 Clear -9 1006 67 10000 4.63 340 20:23 04.03.2021
1872 Clear -9 1006 67 10000 4.63 330 19:58 04.03.2021
1873 Clear -9 1005 67 10000 4.12 340 19:39 04.03.2021
1874 Clear -8 1005 62 10000 4.12 330 19:19 04.03.2021
1875 Clear -8 1005 62 10000 3.6 330 18:45 04.03.2021
1876 Clear -8 1005 62 10000 3.6 330 18:23 04.03.2021
1877 Clear -7 1005 63 10000 3.6 320 17:46 04.03.2021
1878 Clear -7 1007 100 10000 3.6 320 17:27 04.03.2021
1879 Clear -7 1007 100 10000 3.6 320 17:27 04.03.2021
1880 Clear -6 1005 58 10000 3.6 320 16:46 04.03.2021
1881 Clear -6 1005 58 10000 3.6 320 16:25 04.03.2021
1882 Clear -5 1005 54 10000 5.66 340 15:50 04.03.2021
1883 Clear -5 1005 54 10000 5.66 340 15:31 04.03.2021
1884 Clear -5 1005 54 10000 5.14 330 14:48 04.03.2021
1885 Clear -5 1007 54 10000 5.14 330 14:26 04.03.2021
1886 Clouds -5 1005 58 10000 5.66 340 13:47 04.03.2021
1887 Clouds -5 1005 58 10000 5.66 340 13:29 04.03.2021
1888 Clear -5 1005 58 10000 5.66 330 12:49 04.03.2021
1889 Clear -5 1005 58 10000 5.66 330 12:31 04.03.2021
1890 Snow -6 1004 63 10000 6.17 330 11:43 04.03.2021
1891 Snow -6 1004 63 10000 6.17 330 11:23 04.03.2021
1892 Clear -7 1004 68 10000 6.17 330 10:47 04.03.2021
1893 Clear -7 1004 68 10000 6.17 330 10:26 04.03.2021
1894 Clear -8 1004 73 10000 5.14 330 09:37 04.03.2021
1895 Clear -9 1004 79 10000 6.17 330 08:59 04.03.2021
1896 Clear -9 1004 79 10000 5.66 330 08:34 04.03.2021
1897 Clear -10 1004 85 10000 4.63 320 07:51 04.03.2021
1898 Clear -10 1004 85 10000 3.6 320 07:19 04.03.2021
1899 Clear -10 1004 85 10000 3.6 310 06:24 04.03.2021
1900 Clear -9 1004 86 10000 2.57 340 02:39 04.03.2021
1901 Clear -9 1004 86 10000 3.09 310 01:24 04.03.2021
1902 Clear -7 1004 73 10000 4.12 330 22:43 03.03.2021
1903 Clear -7 1004 73 10000 4.12 330 22:25 03.03.2021
1904 Clear -6 1003 73 10000 4.12 330 21:43 03.03.2021
1905 Clear -6 1003 73 10000 4.12 330 21:24 03.03.2021
1906 Clouds -6 1003 79 10000 4.63 340 20:56 03.03.2021
1907 Clear -5 1003 74 10000 4.12 340 20:38 03.03.2021
1908 Clear -5 1003 74 10000 4.63 330 19:57 03.03.2021
1909 Clear -4 1003 63 10000 5.14 330 19:39 03.03.2021
1910 Snow -4 1002 68 10000 4.63 340 19:19 03.03.2021
1911 Clouds -4 1002 68 10000 5.14 330 18:45 03.03.2021
1912 Clouds -4 1002 68 10000 5.14 330 18:45 03.03.2021
1913 Clouds -4 1002 74 10000 4.12 340 17:59 03.03.2021
1914 Clouds -4 1001 74 10000 4.63 340 17:39 03.03.2021
1915 Clouds -3 1001 68 10000 5.66 340 17:18 03.03.2021
1916 Snow -2 1001 69 10000 6.17 340 16:39 03.03.2021
1917 Snow -3 1001 80 5000 3.6 340 16:21 03.03.2021
1918 Snow -2 1000 69 10000 5.14 340 15:33 03.03.2021
1919 Clear -1 1000 55 10000 6.17 320 14:52 03.03.2021
1920 Clear -1 1000 55 10000 6.17 320 14:28 03.03.2021
1921 Clear -1 1000 55 10000 5.14 310 13:52 03.03.2021
1922 Clouds -1 1000 55 10000 6.17 320 13:30 03.03.2021
1923 Clouds -1 1000 59 10000 5.66 310 12:44 03.03.2021
1924 Clouds -1 1000 59 10000 5.66 310 12:24 03.03.2021
1925 Clouds -1 999 64 10000 5.14 310 11:46 03.03.2021
1926 Clouds -1 999 64 10000 5.14 310 11:27 03.03.2021
1927 Clouds -1 999 64 10000 4.63 320 10:47 03.03.2021
1928 Clouds -1 999 64 10000 4.63 320 10:25 03.03.2021
1929 Clear -2 1000 80 10000 3.6 300 09:46 03.03.2021
1930 Clouds -4 1000 93 10000 1.03 250 08:59 03.03.2021
1931 Clouds -3 1000 93 10000 1.03 0 08:39 03.03.2021
1932 Snow -3 1001 93 9000 3.6 310 08:20 03.03.2021
1933 Clouds -3 1001 93 10000 2.06 280 07:39 03.03.2021
1934 Snow -3 1002 80 10000 3.09 260 06:47 03.03.2021
1935 Snow -3 1003 80 10000 3.6 260 05:45 03.03.2021
1936 Clouds -2 1004 74 10000 3.09 260 04:50 03.03.2021
1937 Clouds -2 1004 74 10000 3.09 260 04:25 03.03.2021
1938 Clear -2 1008 64 10000 4.63 270 00:44 03.03.2021
1939 Clear -2 1008 64 10000 5.14 280 23:53 02.03.2021
1940 Clear -2 1008 69 10000 4.63 290 22:58 02.03.2021
1941 Clear -2 1009 69 10000 4.63 280 22:40 02.03.2021
1942 Clear -2 1009 69 10000 3.6 280 22:18 02.03.2021
1943 Clear -1 1009 64 10000 4.63 290 21:38 02.03.2021
1944 Clear -1 1009 69 10000 5.14 290 21:18 02.03.2021
1945 Clear 0 1009 64 10000 5.14 290 20:44 02.03.2021
1946 Clear 0 1009 64 10000 6.17 290 20:21 02.03.2021
1947 Clear 0 1009 64 10000 5.66 280 19:49 02.03.2021
1948 Clear 0 1009 64 10000 5.66 280 19:30 02.03.2021
1949 Clear -1 1009 69 10000 4.63 280 18:55 02.03.2021
1950 Clear -1 1009 69 10000 4.12 270 18:36 02.03.2021
1951 Clear -1 1009 69 10000 3.6 270 18:18 02.03.2021
1952 Clear 0 1009 64 10000 3.09 260 17:40 02.03.2021
1953 Clear 0 1009 64 10000 3.09 250 17:20 02.03.2021
1954 Clear 1 1009 60 10000 3.6 260 16:47 02.03.2021
1955 Clear 1 1009 60 10000 4.12 250 15:55 02.03.2021
1956 Clear 1 1010 60 10000 4.63 250 15:27 02.03.2021
1957 Clear 1 1010 60 10000 4.63 250 15:27 02.03.2021
1958 Clear 1 1010 64 10000 5.14 260 14:53 02.03.2021
1959 Clouds 1 1010 60 10000 4.63 270 14:20 02.03.2021
1960 Clouds 1 1010 60 10000 3.09 250 13:47 02.03.2021
1961 Clouds 1 1010 60 10000 3.09 250 13:25 02.03.2021
1962 Clear 0 1010 64 10000 3.6 250 12:47 02.03.2021
1963 Clear 0 1010 64 10000 3.6 250 12:25 02.03.2021
1964 Clear -1 1010 69 10000 4.12 280 11:47 02.03.2021
1965 Clear -1 1010 69 10000 4.12 280 11:23 02.03.2021
1966 Clear -1 1010 64 10000 3.6 280 10:53 02.03.2021
1967 Clear -2 1010 69 10000 3.6 280 10:29 02.03.2021
1968 Clouds -2 1009 69 10000 3.6 290 09:43 02.03.2021
1969 Clouds -2 1009 69 10000 3.6 290 09:24 02.03.2021
1970 Clouds -3 1009 74 10000 2.57 270 08:44 02.03.2021
1971 Clouds -3 1009 74 10000 2.57 270 08:26 02.03.2021
1972 Clouds -3 1008 74 10000 2.06 280 07:43 02.03.2021
1973 Clear -3 1007 68 10000 2.57 290 06:37 02.03.2021
1974 Clear -3 1006 74 10000 2.57 300 05:48 02.03.2021
1975 Clear -3 1006 74 10000 2.57 300 05:30 02.03.2021
1976 Clear -2 1005 80 10000 2.57 310 03:29 02.03.2021
1977 Clouds -1 1003 74 10000 3.6 300 01:42 02.03.2021
1978 Clouds -1 1002 69 10000 3.09 280 01:19 02.03.2021
1979 Clouds -1 1001 69 10000 4.12 290 23:29 01.03.2021
1980 Clouds 0 1001 64 10000 4.12 290 22:43 01.03.2021
1981 Clouds 0 1001 64 10000 4.12 290 22:24 01.03.2021
1982 Clouds 0 1000 64 10000 4.63 290 21:52 01.03.2021
1983 Clear 0 1000 64 10000 3.6 280 21:24 01.03.2021
1984 Clear 1 1000 60 10000 5.14 290 20:55 01.03.2021
1985 Clear 1 999 60 10000 6.17 290 20:37 01.03.2021
1986 Clouds 1 999 60 10000 6.69 280 20:18 01.03.2021
1987 Clear 1 999 60 10000 5.66 280 19:41 01.03.2021
1988 Clear 1 999 60 10000 6.17 270 19:18 01.03.2021
1989 Clear 1 998 60 10000 7.72 270 18:37 01.03.2021
1990 Clear 2 998 55 10000 6.69 270 18:19 01.03.2021
1991 Clear 2 999 55 10000 5.66 260 17:42 01.03.2021
1992 Clear 2 999 55 10000 6.17 270 17:19 01.03.2021
1993 Clear 2 999 55 10000 6.17 270 16:44 01.03.2021
1994 Clear 2 999 55 10000 6.17 270 16:26 01.03.2021
1995 Clear 3 999 52 10000 6.17 280 15:42 01.03.2021
1996 Clear 4 998 48 10000 7.72 280 15:21 01.03.2021
1997 Clear 4 998 48 10000 7.72 280 15:21 01.03.2021
1998 Clear 4 998 48 10000 7.2 280 14:48 01.03.2021
1999 Clear 4 998 48 10000 7.2 280 14:29 01.03.2021
2000 Clouds 4 998 56 10000 7.2 280 13:43 01.03.2021
2001 Clouds 4 998 56 10000 7.2 280 13:24 01.03.2021
2002 Clouds 4 999 60 10000 6.69 270 12:55 01.03.2021
2003 Clouds 4 999 60 10000 6.17 260 12:36 01.03.2021
2004 Clouds 4 999 60 10000 5.14 250 12:18 01.03.2021
2005 Clouds 3 999 65 10000 6.69 260 11:40 01.03.2021
2006 Clouds 3 999 70 10000 5.66 250 10:45 01.03.2021
2007 Clouds 3 1002 70 10000 5.66 250 10:23 01.03.2021
2008 Clear 3 1000 70 10000 6.69 260 09:58 01.03.2021
2009 Clear 2 1000 75 10000 6.69 250 09:40 01.03.2021
2010 Clear 2 1000 75 10000 5.66 250 09:21 01.03.2021
2011 Clear 2 1000 75 10000 6.69 260 08:48 01.03.2021
2012 Clear 1 1001 86 10000 5.14 250 07:50 01.03.2021
2013 Clear 1 1001 86 10000 4.63 240 06:52 01.03.2021
2014 Clear 0 1003 93 10000 6.17 230 03:24 01.03.2021
2015 Clear 2 1004 87 10000 5.66 240 00:44 01.03.2021
2016 Clear 2 1005 87 10000 6.17 240 23:26 28.02.2021
2017 Clear 3 1005 81 10000 6.17 240 22:45 28.02.2021
2018 Clear 3 1005 81 10000 6.17 240 22:22 28.02.2021
2019 Clear 3 1005 81 10000 6.17 240 22:22 28.02.2021
2020 Clear 3 1005 81 10000 6.17 240 21:49 28.02.2021
2021 Clear 3 1005 81 10000 6.17 240 21:27 28.02.2021
2022 Clear 3 1005 87 10000 5.66 240 20:55 28.02.2021
2023 Clear 4 1006 81 10000 5.66 240 20:35 28.02.2021
2024 Clear 3 1006 87 10000 6.69 240 19:47 28.02.2021
2025 Clear 3 1006 87 10000 6.69 240 19:28 28.02.2021
2026 Clear 2 1007 93 10000 3.09 240 18:49 28.02.2021
2027 Clear 2 1007 93 10000 3.09 240 18:28 28.02.2021
2028 Clear 2 1007 93 10000 5.66 230 17:59 28.02.2021
2029 Clear 2 1008 93 10000 6.17 230 17:40 28.02.2021
2030 Clear 2 1008 93 10000 5.14 230 17:21 28.02.2021
2031 Clear 1 1008 100 10000 4.63 230 16:48 28.02.2021
2032 Clear 1 1008 100 10000 4.63 230 16:30 28.02.2021
2033 Clear 1 1008 93 10000 4.12 230 15:52 28.02.2021
2034 Clear 1 1008 93 10000 4.12 210 15:28 28.02.2021
2035 Clear 1 1009 93 10000 4.63 230 14:58 28.02.2021
2036 Clear 1 1009 93 10000 3.6 220 14:39 28.02.2021
2037 Clear 0 1009 100 10000 3.6 230 14:19 28.02.2021
2038 Rain 0 1009 100 10000 3.09 230 13:39 28.02.2021
2039 Clear 0 1009 93 10000 3.6 230 13:19 28.02.2021
2040 Clear 0 1009 93 10000 3.6 230 12:54 28.02.2021
2041 Clear -1 1009 100 10000 3.6 220 12:35 28.02.2021
2042 Clear -2 1009 100 10000 3.6 230 11:58 28.02.2021
2043 Clear -2 1009 100 10000 3.09 230 11:40 28.02.2021
2044 Clear -2 1009 100 10000 4.12 210 11:21 28.02.2021
2045 Clear -3 1009 100 10000 3.09 210 10:43 28.02.2021
2046 Clear -3 1009 100 10000 3.09 210 10:25 28.02.2021
2047 Clear -4 1009 100 10000 2.57 240 09:40 28.02.2021
2048 Clear -4 1009 93 10000 3.09 250 09:20 28.02.2021
2049 Fog -6 1009 100 800 2.06 250 08:45 28.02.2021
2050 Fog -6 1009 100 800 2.06 250 08:25 28.02.2021
2051 Fog -6 1008 93 350 1.54 230 07:46 28.02.2021
2052 Fog -6 1008 93 350 1.54 230 07:25 28.02.2021
2053 Fog -5 1007 100 550 1.54 250 06:24 28.02.2021
2054 Fog -3 1007 100 450 2.57 230 05:21 28.02.2021
2055 Fog -3 1006 100 750 3.09 260 02:29 28.02.2021
2056 Fog -2 1006 93 500 2.06 250 01:35 28.02.2021
2057 Fog -2 1005 93 450 2.57 250 00:42 28.02.2021
2058 Fog -2 1005 100 450 3.09 240 23:58 27.02.2021
2059 Fog -2 1005 100 450 3.09 240 23:39 27.02.2021
2060 Clouds -2 1005 93 650 3.09 230 23:18 27.02.2021
2061 Mist -3 1005 100 2800 3.6 230 22:42 27.02.2021
2062 Mist -3 1005 100 2800 3.6 230 22:42 27.02.2021
2063 Snow -3 1005 100 10000 4.12 220 22:18 27.02.2021
2064 Drizzle -3 1005 100 10000 5.14 220 21:38 27.02.2021
2065 Snow -3 1005 100 6000 5.14 200 21:18 27.02.2021
2066 Snow -3 1006 100 4300 5.14 200 20:46 27.02.2021
2067 Snow -3 1006 100 4300 5.14 200 20:25 27.02.2021
2068 Snow -3 1007 100 2600 5.66 200 19:43 27.02.2021
2069 Snow -3 1007 100 2600 5.66 200 19:24 27.02.2021
2070 Snow -2 1008 80 10000 6.69 220 18:42 27.02.2021
2071 Snow -2 1009 80 10000 4.63 210 18:21 27.02.2021
2072 Clear -2 1009 80 10000 4.63 200 17:45 27.02.2021
2073 Clear -2 1010 80 10000 4.12 200 17:21 27.02.2021
2074 Clear -2 1010 80 10000 4.12 200 16:56 27.02.2021
2075 Clear -2 1011 80 10000 4.12 200 16:36 27.02.2021
2076 Clear -2 1012 80 10000 4.12 220 16:18 27.02.2021
2077 Clear -2 1012 74 10000 3.6 200 15:38 27.02.2021
2078 Clear -1 1013 69 10000 3.6 230 14:50 27.02.2021
2079 Clear -1 1013 69 10000 3.6 230 14:32 27.02.2021
2080 Clear -1 1013 74 10000 4.12 210 13:53 27.02.2021
2081 Clear -2 1014 80 10000 4.63 210 13:27 27.02.2021
2082 Clear -2 1014 74 10000 3.09 220 12:56 27.02.2021
2083 Clear -3 1014 80 10000 2.57 220 12:30 27.02.2021
2084 Clear -3 1014 80 10000 2.06 210 11:57 27.02.2021
2085 Clear -3 1015 74 10000 2.57 200 11:38 27.02.2021
2086 Clear -4 1015 80 10000 2.06 240 11:19 27.02.2021
2087 Clear -5 1015 86 10000 1.54 220 10:42 27.02.2021
2088 Clear -6 1015 86 10000 2.06 260 10:19 27.02.2021
2089 Clear -5 1015 93 10000 2.57 320 09:46 27.02.2021
2090 Clear -5 1015 93 10000 2.57 320 09:25 27.02.2021
2091 Clear -6 1015 93 10000 1.54 260 08:40 27.02.2021
2092 Clear -6 1015 93 10000 2.57 260 08:21 27.02.2021
2093 Clear -6 1015 93 10000 1.54 290 07:37 27.02.2021
2094 Clear -4 1014 86 10000 3.09 330 04:26 27.02.2021
2095 Clouds -1 1011 74 10000 4.63 360 00:41 27.02.2021
2096 Clouds 0 1010 74 10000 4.63 360 23:51 26.02.2021
2097 Clouds 0 1010 74 10000 4.63 360 23:26 26.02.2021
2098 Clouds 0 1009 80 10000 4.12 350 22:44 26.02.2021
2099 Clouds 0 1009 80 10000 4.12 350 22:23 26.02.2021
2100 Clouds 0 1008 80 10000 6.69 340 21:39 26.02.2021
2101 Clouds 0 1007 86 10000 7.72 340 21:18 26.02.2021
2102 Clouds 0 1006 93 10000 6.17 340 20:43 26.02.2021
2103 Clouds 1 1006 86 10000 5.66 330 20:20 26.02.2021
2104 Drizzle 1 1005 86 10000 7.72 340 19:41 26.02.2021
2105 Rain 1 1004 93 10000 7.72 340 19:18 26.02.2021
2106 Rain 1 1003 93 10000 7.2 330 18:41 26.02.2021
2107 Rain 1 1003 93 10000 7.2 330 18:21 26.02.2021
2108 Rain 1 1002 93 9000 7.2 330 17:39 26.02.2021
2109 Rain 1 1001 93 10000 6.69 320 17:21 26.02.2021
2110 Rain 1 1001 93 10000 6.17 320 16:50 26.02.2021
2111 Rain 1 1001 93 10000 6.17 320 16:31 26.02.2021
2112 Rain 1 1000 93 10000 5.66 320 15:56 26.02.2021
2113 Rain 1 1000 93 10000 5.14 310 15:36 26.02.2021
2114 Rain 1 999 93 3400 4.63 310 15:18 26.02.2021
2115 Clouds 1 999 93 10000 3.6 310 14:42 26.02.2021
2116 Clouds 1 999 93 10000 3.6 310 14:24 26.02.2021
2117 Snow 0 998 100 10000 3.6 320 13:39 26.02.2021
2118 Clouds 0 997 100 10000 3.09 310 13:20 26.02.2021
2119 Fog -2 997 100 10000 2.06 290 12:34 26.02.2021
2120 Fog -2 996 93 2000 2.06 250 11:50 26.02.2021
2121 Fog -2 996 93 2000 2.06 250 11:32 26.02.2021
2122 Fog -3 995 100 700 1.54 220 10:45 26.02.2021
2123 Fog -3 995 93 5000 0.51 0 09:50 26.02.2021
2124 Fog -3 995 93 5000 0.51 0 09:30 26.02.2021
2125 Fog -3 994 93 4000 1.54 330 08:53 26.02.2021
2126 Fog -4 993 100 250 0.51 0 08:19 26.02.2021
2127 Fog -4 993 100 250 0.51 0 07:48 26.02.2021
2128 Fog -4 992 100 350 0.51 0 06:36 26.02.2021
2129 Fog -3 992 100 250 1.54 200 05:26 26.02.2021
2130 Fog -2 992 100 250 3.09 220 03:28 26.02.2021
2131 Fog -1 993 100 350 4.63 220 01:29 26.02.2021
2132 Fog 0 993 100 500 4.12 210 23:44 25.02.2021
2133 Fog 0 993 100 500 4.12 210 23:25 25.02.2021
2134 Fog 0 993 100 600 3.09 190 22:47 25.02.2021
2135 Fog 0 993 100 600 3.6 200 21:58 25.02.2021
2136 Fog 0 993 100 500 4.63 200 21:35 25.02.2021
2137 Fog 0 993 100 1100 4.63 210 20:58 25.02.2021
2138 Fog 0 993 100 1600 5.14 220 20:38 25.02.2021
2139 Fog 0 993 100 1600 6.17 210 20:20 25.02.2021
2140 Fog 0 993 100 1300 6.17 220 19:49 25.02.2021
2141 Rain 0 994 100 1100 5.66 210 19:21 25.02.2021
2142 Fog 0 994 100 650 4.63 220 18:48 25.02.2021
2143 Fog 0 994 100 600 5.66 210 18:19 25.02.2021
2144 Fog 0 994 100 600 5.66 210 17:42 25.02.2021
2145 Fog 0 994 100 600 5.66 210 17:23 25.02.2021
2146 Fog 0 995 100 700 5.66 210 16:38 25.02.2021
2147 Clouds 0 995 100 7000 4.63 200 16:20 25.02.2021
2148 Mist 0 995 100 2300 5.14 210 15:29 25.02.2021
2149 Fog 0 995 100 550 5.66 210 14:41 25.02.2021
2150 Mist 0 995 100 1000 5.66 210 14:21 25.02.2021
2151 Mist 0 995 100 5000 6.69 200 13:48 25.02.2021
2152 Mist 0 995 100 5000 6.69 200 13:24 25.02.2021
2153 Mist -1 996 100 1100 5.66 210 12:40 25.02.2021
2154 Fog -1 996 100 800 4.63 210 12:20 25.02.2021
2155 Fog -1 996 100 800 4.63 210 12:20 25.02.2021
2156 Fog -2 996 100 700 4.63 190 11:43 25.02.2021
2157 Fog -2 996 93 600 4.12 190 10:54 25.02.2021
2158 Fog -3 996 93 700 3.6 180 10:36 25.02.2021
2159 Fog -4 996 93 900 3.6 160 09:50 25.02.2021
2160 Fog -4 996 93 900 3.6 160 09:28 25.02.2021
2161 Fog -5 997 93 800 4.12 170 08:46 25.02.2021
2162 Drizzle -6 997 93 600 4.63 170 08:21 25.02.2021
2163 Fog -6 997 93 800 5.14 170 07:42 25.02.2021
2164 Drizzle -7 998 93 1000 4.63 160 07:18 25.02.2021
2165 Drizzle -8 998 100 1700 3.6 150 05:29 25.02.2021
2166 Clouds -8 1000 86 10000 3.09 140 01:50 25.02.2021
2167 Clouds -9 1001 92 10000 3.6 170 00:48 25.02.2021
2168 Snow -9 1001 92 10000 3.6 190 00:20 25.02.2021
2169 Clouds -9 1002 92 10000 4.12 160 23:36 24.02.2021
2170 Clouds -9 1002 92 10000 3.09 160 22:56 24.02.2021
2171 Clouds -9 1002 92 10000 3.6 170 22:30 24.02.2021
2172 Clouds -9 1001 92 10000 4.63 160 21:50 24.02.2021
2173 Clouds -9 1001 92 10000 4.63 160 21:31 24.02.2021
2174 Clouds -9 1002 92 10000 4.12 170 20:50 24.02.2021
2175 Clouds -9 1002 92 10000 4.12 170 20:28 24.02.2021
2176 Clouds -9 1002 92 10000 3.6 170 19:43 24.02.2021
2177 Snow -9 1002 92 10000 4.12 150 19:21 24.02.2021
2178 Snow -9 1002 92 10000 4.12 150 18:53 24.02.2021
2179 Snow -9 1003 92 10000 4.63 150 18:30 24.02.2021
2180 Clouds -9 1003 92 10000 4.63 150 17:40 24.02.2021
2181 Snow -9 1004 92 10000 3.6 140 17:22 24.02.2021
2182 Snow -9 1004 92 10000 3.6 150 16:48 24.02.2021
2183 Snow -9 1004 92 3700 4.12 150 16:21 24.02.2021
2184 Snow -9 1005 86 1900 4.63 150 15:50 24.02.2021
2185 Snow -9 1005 86 1900 4.63 150 15:31 24.02.2021
2186 Snow -10 1006 92 3300 7.2 120 14:47 24.02.2021
2187 Snow -10 1006 92 3300 7.2 120 14:27 24.02.2021
2188 Snow -11 1008 92 1000 6.17 140 13:42 24.02.2021
2189 Snow -11 1008 92 1000 6.17 140 13:23 24.02.2021
2190 Snow -11 1008 92 2000 5.14 130 12:55 24.02.2021
2191 Snow -11 1009 85 1800 4.63 120 12:33 24.02.2021
2192 Snow -11 1010 85 1400 5.66 120 11:52 24.02.2021
2193 Snow -12 1011 92 6000 5.66 140 11:29 24.02.2021
2194 Snow -12 1012 92 1300 5.14 130 10:38 24.02.2021
2195 Snow -12 1012 85 7000 5.66 130 10:19 24.02.2021
2196 Snow -12 1013 85 8000 4.63 130 09:22 24.02.2021
2197 Snow -12 1014 85 9000 5.14 160 08:41 24.02.2021
2198 Snow -12 1014 85 9000 5.14 160 08:22 24.02.2021
2199 Snow -13 1015 92 3000 4.12 140 07:21 24.02.2021
2200 Snow -13 1015 92 3000 4.12 140 06:52 24.02.2021
2201 Clouds -13 1018 92 1900 3.09 140 04:23 24.02.2021
2202 Snow -13 1019 85 6000 2.06 190 00:43 24.02.2021
2203 Snow -13 1020 85 9000 3.09 200 23:32 23.02.2021
2204 Snow -14 1019 92 9000 3.09 190 22:42 23.02.2021
2205 Snow -14 1019 92 10000 2.06 190 22:20 23.02.2021
2206 Snow -14 1019 85 10000 1.54 180 21:46 23.02.2021
2207 Snow -14 1019 85 10000 1.54 180 21:24 23.02.2021
2208 Snow -14 1020 85 9000 4.12 210 20:49 23.02.2021
2209 Snow -14 1020 85 9000 4.12 210 20:30 23.02.2021
2210 Snow -14 1020 85 9000 4.12 210 20:30 23.02.2021
2211 Snow -14 1020 85 10000 3.09 190 19:49 23.02.2021
2212 Snow -14 1020 85 10000 3.09 190 19:29 23.02.2021
2213 Snow -14 1019 85 10000 3.09 180 18:59 23.02.2021
2214 Snow -14 1020 85 10000 3.09 170 18:40 23.02.2021
2215 Snow -14 1019 85 10000 3.09 160 18:20 23.02.2021
2216 Snow -14 1019 85 5000 3.09 160 17:39 23.02.2021
2217 Snow -14 1019 92 3400 3.09 160 16:58 23.02.2021
2218 Snow -14 1020 92 2800 3.09 170 16:39 23.02.2021
2219 Snow -14 1020 85 5000 3.6 180 16:20 23.02.2021
2220 Snow -14 1020 92 1600 3.6 170 15:41 23.02.2021
2221 Snow -14 1020 85 1400 3.6 170 15:21 23.02.2021
2222 Snow -13 1020 78 2100 3.6 170 14:45 23.02.2021
2223 Snow -13 1020 78 2100 3.6 170 14:26 23.02.2021
2224 Snow -13 1020 78 1500 5.14 180 13:47 23.02.2021
2225 Snow -13 1020 78 1500 5.14 180 13:47 23.02.2021
2226 Snow -13 1020 78 1500 5.14 180 13:26 23.02.2021
2227 Snow -13 1020 78 7000 5.14 180 12:52 23.02.2021
2228 Snow -13 1020 78 10000 6.17 180 12:22 23.02.2021
2229 Snow -14 1020 85 2500 5.66 170 11:51 23.02.2021
2230 Snow -14 1020 85 2500 5.66 170 11:23 23.02.2021
2231 Snow -14 1020 85 2500 5.66 170 10:52 23.02.2021
2232 Snow -14 1020 85 2500 5.14 170 10:34 23.02.2021
2233 Snow -14 1021 78 2000 6.17 160 09:45 23.02.2021
2234 Snow -14 1021 78 2000 6.17 160 09:25 23.02.2021
2235 Snow -15 1021 85 1800 6.17 160 08:54 23.02.2021
2236 Snow -15 1022 85 1300 5.14 150 08:25 23.02.2021
2237 Snow -15 1022 78 2000 4.12 150 07:58 23.02.2021
2238 Snow -16 1024 78 2500 4.12 140 05:40 23.02.2021
2239 Snow -16 1025 78 2000 4.12 150 04:58 23.02.2021
2240 Snow -16 1027 78 10000 4.63 150 02:34 23.02.2021
2241 Clouds -17 1029 78 10000 4.12 120 00:20 23.02.2021
2242 Clouds -17 1029 78 10000 4.12 120 23:57 22.02.2021
2243 Snow -17 1029 78 10000 4.63 130 23:21 22.02.2021
2244 Snow -17 1030 78 10000 4.63 130 22:41 22.02.2021
2245 Snow -16 1030 72 10000 5.14 140 22:20 22.02.2021
2246 Snow -16 1030 72 10000 4.12 140 21:45 22.02.2021
2247 Snow -16 1030 72 10000 4.12 140 21:45 22.02.2021
2248 Snow -16 1030 72 10000 4.12 140 21:23 22.02.2021
2249 Clouds -16 1030 78 10000 5.14 150 20:51 22.02.2021
2250 Clouds -16 1030 78 10000 5.14 150 20:28 22.02.2021
2251 Clouds -15 1030 78 10000 4.12 150 19:51 22.02.2021
2252 Clouds -15 1030 78 10000 4.12 150 19:33 22.02.2021
2253 Clouds -15 1030 78 10000 3.6 160 18:56 22.02.2021
2254 Clouds -15 1030 72 10000 4.63 150 18:37 22.02.2021
2255 Clouds -15 1030 72 10000 4.12 150 18:18 22.02.2021
2256 Clouds -15 1030 78 10000 4.12 140 17:25 22.02.2021
2257 Snow -15 1030 78 10000 3.09 150 16:54 22.02.2021
2258 Snow -15 1030 78 10000 3.6 150 16:32 22.02.2021
2259 Snow -15 1030 72 10000 4.12 150 15:46 22.02.2021
2260 Snow -15 1030 72 10000 4.12 150 15:27 22.02.2021
2261 Snow -16 1030 78 10000 3.09 140 14:47 22.02.2021
2262 Snow -16 1030 78 10000 3.09 140 14:47 22.02.2021
2263 Snow -16 1030 78 10000 3.09 140 14:23 22.02.2021
2264 Clouds -16 1030 78 10000 3.6 140 13:46 22.02.2021
2265 Clouds -16 1030 78 10000 3.6 140 13:46 22.02.2021
2266 Clouds -17 1030 85 10000 5.14 120 12:56 22.02.2021
2267 Snow -17 1030 78 10000 6.17 120 12:24 22.02.2021
2268 Snow -17 1030 78 5000 4.63 130 11:57 22.02.2021
2269 Snow -17 1030 78 6000 4.63 130 11:38 22.02.2021
2270 Snow -18 1030 78 5000 4.63 130 11:20 22.02.2021
2271 Snow -18 1029 78 10000 4.63 130 10:41 22.02.2021
2272 Snow -18 1029 78 10000 4.63 130 10:21 22.02.2021
2273 Snow -18 1028 78 10000 6.69 120 09:40 22.02.2021
2274 Snow -18 1028 78 10000 6.69 120 09:22 22.02.2021
2275 Snow -18 1028 78 10000 6.69 120 08:49 22.02.2021
2276 Snow -18 1028 78 10000 5.66 120 08:21 22.02.2021
2277 Snow -18 1028 78 9000 5.66 130 07:50 22.02.2021
2278 Snow -18 1028 78 9000 5.66 130 07:23 22.02.2021
2279 Snow -18 1027 78 10000 5.66 120 06:28 22.02.2021
2280 Snow -18 1026 78 10000 7.72 120 05:21 22.02.2021
2281 Snow -18 1025 78 10000 6.69 120 03:23 22.02.2021
2282 Snow -17 1025 78 5000 5.14 120 01:59 22.02.2021
2283 Snow -17 1023 78 4100 6.17 110 00:44 22.02.2021
2284 Snow -17 1023 78 2300 6.17 120 00:18 22.02.2021
2285 Snow -17 1023 78 2100 6.17 110 23:26 21.02.2021
2286 Snow -18 1022 85 2300 8.75 100 22:36 21.02.2021
2287 Snow -18 1022 85 2600 8.75 100 21:53 21.02.2021
2288 Snow -18 1022 85 2200 9.26 100 21:34 21.02.2021
2289 Snow -18 1022 85 2200 9.26 100 21:34 21.02.2021
2290 Snow -18 1022 85 2300 8.23 100 20:58 21.02.2021
2291 Snow -18 1023 85 2300 7.72 100 20:38 21.02.2021
2292 Snow -18 1023 78 2500 6.69 100 20:18 21.02.2021
2293 Snow -18 1023 78 3100 7.2 100 19:44 21.02.2021
2294 Snow -18 1023 78 3100 7.2 100 19:24 21.02.2021
2295 Snow -17 1022 66 10000 7.72 100 18:30 21.02.2021
2296 Snow -17 1022 66 10000 7.72 100 17:59 21.02.2021
2297 Snow -17 1022 66 10000 8.75 100 17:28 21.02.2021
2298 Snow -17 1022 66 10000 7.72 100 16:53 21.02.2021
2299 Snow -17 1022 66 10000 8.75 100 16:32 21.02.2021
2300 Snow -17 1021 66 10000 8.23 100 15:47 21.02.2021
2301 Clear -17 1022 71 10000 7.72 100 15:19 21.02.2021
2302 Snow -17 1022 71 10000 7.2 100 14:41 21.02.2021
2303 Snow -16 1022 66 10000 8.23 100 14:20 21.02.2021
2304 Snow -16 1022 66 10000 8.75 100 13:43 21.02.2021
2305 Snow -16 1022 66 10000 8.75 100 13:22 21.02.2021
2306 Snow -16 1022 66 10000 8.75 100 12:29 21.02.2021
2307 Clear -16 1022 72 10000 6.69 90 11:43 21.02.2021
2308 Clear -16 1022 66 10000 7.2 100 10:58 21.02.2021
2309 Snow -16 1022 72 10000 6.17 100 10:23 21.02.2021
2310 Snow -17 1022 78 10000 7.72 90 09:53 21.02.2021
2311 Snow -17 1022 78 10000 6.69 90 09:28 21.02.2021
2312 Snow -17 1021 78 6000 6.17 90 08:49 21.02.2021
2313 Snow -17 1021 78 5000 6.69 90 08:19 21.02.2021
2314 Snow -17 1020 85 10000 7.2 0 07:33 21.02.2021
2315 Snow -17 1020 78 10000 7.2 80 06:52 21.02.2021
2316 Snow -16 1017 85 6000 7.2 80 02:49 21.02.2021
2317 Snow -16 1017 85 6000 7.2 80 02:29 21.02.2021
2318 Snow -15 1017 85 3800 6.17 80 00:42 21.02.2021
2319 Snow -15 1017 85 4200 6.17 80 00:18 21.02.2021
2320 Snow -14 1016 85 4500 6.17 80 23:18 20.02.2021
2321 Snow -14 1016 85 3300 6.17 90 22:41 20.02.2021
2322 Snow -14 1016 85 4700 5.66 90 22:21 20.02.2021
2323 Snow -14 1016 85 6000 6.17 90 21:41 20.02.2021
2324 Snow -14 1016 85 4500 5.14 90 21:20 20.02.2021
2325 Snow -14 1016 85 3700 5.66 80 20:42 20.02.2021
2326 Snow -14 1016 85 3400 6.17 100 20:21 20.02.2021
2327 Snow -14 1016 85 4100 7.2 100 19:52 20.02.2021
2328 Snow -14 1016 85 4100 7.2 100 19:23 20.02.2021
2329 Snow -14 1016 85 3800 7.2 100 18:38 20.02.2021
2330 Snow -13 1016 78 4500 6.17 100 18:19 20.02.2021
2331 Snow -13 1016 78 10000 6.69 100 17:37 20.02.2021
2332 Snow -13 1016 78 8000 6.17 100 16:54 20.02.2021
2333 Snow -14 1020 85 5000 6.17 100 16:27 20.02.2021
2334 Snow -14 1020 85 5000 6.17 100 16:27 20.02.2021
2335 Snow -14 1016 85 3900 6.17 100 15:44 20.02.2021
2336 Snow -14 1016 85 2300 6.69 100 15:18 20.02.2021
2337 Snow -14 1016 85 1300 6.17 100 14:43 20.02.2021
2338 Snow -14 1016 85 1300 6.17 100 14:22 20.02.2021
2339 Snow -13 1017 85 3800 6.17 100 13:40 20.02.2021
2340 Snow -13 1017 85 3800 6.17 100 13:22 20.02.2021
2341 Snow -13 1017 78 3900 5.14 100 12:47 20.02.2021
2342 Snow -14 1017 85 3200 5.14 100 11:56 20.02.2021
2343 Snow -14 1017 85 2300 6.17 100 11:38 20.02.2021
2344 Snow -14 1017 78 3600 5.66 100 10:55 20.02.2021
2345 Snow -15 1017 85 3100 6.17 100 10:32 20.02.2021
2346 Snow -15 1017 85 2900 6.17 100 09:48 20.02.2021
2347 Snow -15 1017 78 2300 5.66 100 09:18 20.02.2021
2348 Snow -15 1017 78 1200 5.66 100 08:31 20.02.2021
2349 Snow -15 1017 78 1600 7.2 100 07:50 20.02.2021
2350 Snow -14 1017 78 6000 5.14 100 02:37 20.02.2021
2351 Snow -14 1017 85 6000 5.66 100 02:19 20.02.2021
2352 Snow -14 1017 85 9000 5.66 100 01:20 20.02.2021
2353 Snow -14 1017 85 4700 6.17 100 00:42 20.02.2021
2354 Snow -14 1017 85 5000 6.17 90 23:42 19.02.2021
2355 Snow -14 1018 85 3900 5.66 110 22:48 19.02.2021
2356 Snow -14 1018 85 3900 5.66 110 22:26 19.02.2021
2357 Snow -14 1017 85 4700 5.66 110 21:47 19.02.2021
2358 Snow -14 1017 85 4700 5.66 110 21:26 19.02.2021
2359 Snow -14 1017 85 5000 6.69 110 20:45 19.02.2021
2360 Snow -14 1017 85 5000 6.69 110 20:45 19.02.2021
2361 Snow -14 1017 85 5000 6.69 110 20:27 19.02.2021
2362 Snow -13 1017 78 7000 5.66 110 19:50 19.02.2021
2363 Snow -13 1017 78 10000 5.66 110 19:20 19.02.2021
2364 Snow -13 1017 78 10000 5.66 110 18:53 19.02.2021
2365 Snow -13 1017 78 10000 6.17 110 18:30 19.02.2021
2366 Clear -13 1017 78 10000 5.66 100 17:45 19.02.2021
2367 Snow -13 1017 85 10000 6.17 90 16:46 19.02.2021
2368 Snow -13 1017 85 10000 6.17 90 16:23 19.02.2021
2369 Snow -13 1017 85 10000 6.69 110 15:56 19.02.2021
2370 Snow -12 1018 79 10000 5.66 110 15:30 19.02.2021
2371 Snow -12 1018 79 10000 5.14 110 14:55 19.02.2021
2372 Snow -12 1017 79 10000 5.66 110 14:34 19.02.2021
2373 Snow -12 1017 79 10000 5.66 110 13:56 19.02.2021
2374 Snow -12 1017 79 10000 5.66 110 13:56 19.02.2021
2375 Clear -12 1017 79 10000 5.14 100 13:36 19.02.2021
2376 Snow -13 1017 85 10000 5.66 100 12:55 19.02.2021
2377 Snow -13 1017 85 10000 5.66 100 12:36 19.02.2021
2378 Snow -13 1017 85 10000 5.14 100 12:18 19.02.2021
2379 Snow -13 1018 78 10000 5.66 120 11:35 19.02.2021
2380 Snow -13 1018 85 10000 5.66 110 10:55 19.02.2021
2381 Snow -14 1018 92 10000 5.14 100 10:34 19.02.2021
2382 Snow -14 1018 85 10000 5.66 100 09:58 19.02.2021
2383 Snow -14 1017 85 10000 6.17 100 09:28 19.02.2021
2384 Snow -14 1017 85 10000 6.69 100 08:55 19.02.2021
2385 Snow -14 1017 85 10000 6.69 100 08:28 19.02.2021
2386 Snow -14 1017 85 10000 6.69 100 08:28 19.02.2021
2387 Snow -14 1017 92 10000 6.17 100 07:56 19.02.2021
2388 Snow -14 1017 92 10000 5.14 90 07:36 19.02.2021
2389 Snow -14 1016 92 10000 4.63 90 06:59 19.02.2021
2390 Snow -14 1016 92 10000 5.14 80 06:31 19.02.2021
2391 Snow -14 1016 85 10000 5.66 80 04:42 19.02.2021
2392 Snow -15 1016 92 10000 5.14 80 02:31 19.02.2021
2393 Snow -15 1016 85 10000 4.63 80 00:59 19.02.2021
2394 Snow -15 1016 85 10000 4.63 80 00:26 19.02.2021
2395 Snow -15 1016 85 10000 5.14 70 23:43 18.02.2021
2396 Snow -15 1016 85 10000 5.14 70 23:25 18.02.2021
2397 Snow -16 1016 92 10000 4.12 70 22:36 18.02.2021
2398 Snow -16 1017 92 10000 4.12 70 22:18 18.02.2021
2399 Snow -16 1017 92 10000 3.6 70 21:28 18.02.2021
2400 Snow -16 1017 92 10000 3.6 80 20:58 18.02.2021
2401 Snow -15 1016 85 10000 3.6 100 20:38 18.02.2021
2402 Snow -15 1016 85 10000 3.6 100 20:19 18.02.2021
2403 Snow -15 1016 92 10000 4.12 100 19:43 18.02.2021
2404 Snow -15 1016 92 10000 4.63 100 19:19 18.02.2021
2405 Snow -15 1016 92 10000 4.12 100 18:47 18.02.2021
2406 Snow -15 1016 92 10000 4.12 100 18:26 18.02.2021
2407 Snow -15 1016 85 10000 4.63 90 17:45 18.02.2021
2408 Snow -15 1016 85 10000 4.63 90 17:23 18.02.2021
2409 Snow -15 1016 92 5000 2.06 100 16:45 18.02.2021
2410 Snow -15 1016 92 5000 2.06 100 16:26 18.02.2021
2411 Snow -15 1017 92 3600 3.09 90 15:42 18.02.2021
2412 Snow -15 1017 92 3600 3.09 90 15:22 18.02.2021
2413 Snow -15 1017 85 4600 2.57 90 14:50 18.02.2021
2414 Snow -15 1017 85 4600 2.57 90 14:30 18.02.2021
2415 Snow -16 1016 85 4000 3.09 70 13:49 18.02.2021
2416 Snow -15 1016 85 2000 2.57 80 13:21 18.02.2021
2417 Snow -15 1016 85 2000 2.57 80 12:54 18.02.2021
2418 Snow -15 1017 85 6000 0.51 160 12:28 18.02.2021
2419 Snow -16 1017 92 5000 1.03 0 11:47 18.02.2021
2420 Snow -16 1017 92 5000 1.03 0 11:27 18.02.2021
2421 Snow -17 1017 92 6000 1.54 90 10:52 18.02.2021
2422 Snow -17 1017 92 7000 1.03 0 10:34 18.02.2021
2423 Snow -17 1016 85 6000 1.03 0 09:51 18.02.2021
2424 Snow -17 1016 85 6000 1.03 0 09:27 18.02.2021
2425 Snow -20 1016 84 10000 1.54 70 08:48 18.02.2021
2426 Snow -20 1016 84 10000 1.54 70 08:29 18.02.2021
2427 Clouds -20 1016 84 10000 1.54 230 07:37 18.02.2021
2428 Clear -21 1016 84 10000 3.09 230 06:59 18.02.2021
2429 Clear -20 1016 84 10000 2.06 250 04:48 18.02.2021
2430 Snow -20 1018 84 10000 5.14 230 23:57 17.02.2021
2431 Snow -20 1018 84 10000 5.66 230 23:37 17.02.2021
2432 Snow -20 1018 84 6000 6.17 230 22:56 17.02.2021
2433 Snow -20 1019 84 10000 4.63 220 22:27 17.02.2021
2434 Snow -20 1019 84 10000 5.14 220 21:57 17.02.2021
2435 Snow -19 1019 84 7000 4.63 220 21:23 17.02.2021
2436 Snow -19 1019 84 4200 5.14 220 20:53 17.02.2021
2437 Snow -19 1019 84 6000 5.66 220 20:33 17.02.2021
2438 Snow -19 1020 84 4100 4.63 220 19:52 17.02.2021
2439 Snow -19 1020 84 6000 4.12 220 19:34 17.02.2021
2440 Snow -19 1020 78 10000 4.63 220 18:50 17.02.2021
2441 Snow -19 1020 78 10000 4.63 220 18:31 17.02.2021
2442 Snow -19 1020 84 10000 5.66 230 17:46 17.02.2021
2443 Clouds -19 1021 78 10000 5.14 230 17:21 17.02.2021
2444 Clear -19 1021 78 10000 4.63 220 16:50 17.02.2021
2445 Clear -19 1021 78 10000 4.63 220 16:29 17.02.2021
2446 Clear -18 1021 78 10000 4.63 220 15:45 17.02.2021
2447 Clear -18 1021 78 10000 4.63 220 15:27 17.02.2021
2448 Clear -18 1021 78 10000 4.63 220 15:27 17.02.2021
2449 Clear -18 1022 78 10000 4.12 230 14:51 17.02.2021
2450 Clear -18 1022 78 10000 4.12 230 14:29 17.02.2021
2451 Clear -18 1022 78 10000 3.6 220 13:52 17.02.2021
2452 Clear -18 1023 78 10000 3.09 220 13:33 17.02.2021
2453 Clouds -19 1023 84 10000 4.63 220 12:57 17.02.2021
2454 Clouds -19 1023 84 10000 4.12 210 12:26 17.02.2021
2455 Clouds -20 1024 84 10000 3.6 230 11:47 17.02.2021
2456 Clouds -21 1024 84 10000 3.09 210 11:29 17.02.2021
2457 Fog -21 1024 84 10000 3.6 230 10:50 17.02.2021
2458 Clear -18 1026 88 10000 2.28 205 10:31 17.02.2021
2459 Clouds -21 1023 84 10000 3.09 230 09:58 17.02.2021
2460 Clouds -22 1023 84 10000 3.09 230 09:37 17.02.2021
2461 Clouds -21 1023 84 10000 1.54 190 08:49 17.02.2021
2462 Clouds -21 1023 84 10000 1.54 190 08:23 17.02.2021
2463 Clouds -22 1023 77 10000 1.54 180 07:55 17.02.2021
2464 Snow -20 1023 84 10000 2.06 220 06:37 17.02.2021
2465 Snow -20 1023 84 10000 2.06 220 06:37 17.02.2021
2466 Snow -20 1023 84 10000 2.06 220 06:37 17.02.2021
2467 Clouds -20 1024 77 10000 1.54 110 03:52 17.02.2021
2468 Clear -23 1024 84 10000 0.51 0 02:31 17.02.2021
2469 Clear -18 1024 85 10000 1.54 220 01:35 17.02.2021
2470 Clear -20 1024 77 10000 0.51 0 00:28 17.02.2021
2471 Clear -18 1024 85 10000 1.54 170 23:39 16.02.2021
2472 Clear -17 1024 85 10000 1.03 0 22:47 16.02.2021
2473 Clear -17 1024 85 10000 1.03 0 22:27 16.02.2021
2474 Clear -17 1024 85 10000 2.57 140 21:59 16.02.2021
2475 Clear -17 1024 85 10000 1.03 0 21:39 16.02.2021
2476 Clear -17 1024 85 10000 1.54 90 21:21 16.02.2021
2477 Clear -17 1024 85 10000 1.54 90 20:55 16.02.2021
2478 Clear -16 1024 85 10000 2.57 100 20:24 16.02.2021
2479 Clear -16 1024 92 10000 2.06 90 19:50 16.02.2021
2480 Clear -15 1024 85 10000 2.57 100 19:29 16.02.2021
2481 Snow -15 1024 85 10000 2.06 90 18:53 16.02.2021
2482 Clear -18 1024 85 10000 1.54 90 18:27 16.02.2021
2483 Clouds -15 1024 85 10000 2.06 90 17:58 16.02.2021
2484 Clouds -15 1024 85 10000 2.06 90 17:38 16.02.2021
2485 Clear -18 1024 92 10000 1.03 120 17:20 16.02.2021
2486 Clear -15 1024 85 10000 1.54 110 16:44 16.02.2021
2487 Clear -16 1024 85 10000 1.54 100 16:21 16.02.2021
2488 Clear -15 1024 85 10000 1.03 90 15:42 16.02.2021
2489 Clear -15 1024 85 10000 1.03 90 15:24 16.02.2021
2490 Clear -13 1024 85 10000 2.06 90 14:42 16.02.2021
2491 Clear -13 1024 85 10000 2.06 90 14:24 16.02.2021
2492 Clear -14 1023 92 10000 2.06 70 13:47 16.02.2021
2493 Clear -15 1024 92 10000 2.06 30 13:22 16.02.2021
2494 Clear -15 1024 85 10000 1.54 20 12:43 16.02.2021
2495 Clear -14 1023 85 10000 1.54 50 12:20 16.02.2021
2496 Clear -15 1023 92 10000 2.06 40 11:44 16.02.2021
2497 Clear -14 1023 85 10000 2.06 60 11:22 16.02.2021
2498 Clear -16 1023 92 10000 1.54 40 10:49 16.02.2021
2499 Clear -16 1023 92 10000 1.54 40 10:30 16.02.2021
2500 Clear -15 1023 85 10000 3.6 30 09:55 16.02.2021
2501 Clear -15 1023 85 10000 3.6 30 09:29 16.02.2021
2502 Clear -16 1022 92 10000 3.09 10 08:53 16.02.2021
2503 Clear -16 1022 92 10000 3.6 10 08:32 16.02.2021
2504 Fog -15 1021 85 10000 4.12 30 07:59 16.02.2021
2505 Clear -16 1021 92 10000 4.12 360 06:58 16.02.2021
2506 Clear -13 1019 92 10000 4.12 350 03:21 16.02.2021
2507 Clear -13 1019 85 10000 2.57 10 00:43 16.02.2021
2508 Clear -12 1018 85 10000 3.09 360 23:30 15.02.2021
2509 Clear -11 1018 85 10000 3.09 10 22:52 15.02.2021
2510 Clear -11 1018 85 10000 3.6 20 22:33 15.02.2021
2511 Clear -11 1017 85 10000 4.12 20 21:55 15.02.2021
2512 Clear -10 1017 85 10000 4.63 20 21:36 15.02.2021
2513 Clear -9 1016 86 10000 5.66 20 21:18 15.02.2021
2514 Clear -8 1016 86 10000 5.14 30 20:41 15.02.2021
2515 Clouds -7 1015 86 10000 7.2 40 20:19 15.02.2021
2516 Clouds -6 1014 86 10000 7.2 30 19:42 15.02.2021
2517 Clouds -5 1014 86 10000 6.69 10 19:18 15.02.2021
2518 Snow -4 1013 86 10000 6.69 360 18:42 15.02.2021
2519 Clouds -3 1013 86 10000 5.14 340 18:18 15.02.2021
2520 Clouds -3 1013 86 10000 4.63 350 17:41 15.02.2021
2521 Clouds -3 1013 86 10000 5.14 340 17:21 15.02.2021
2522 Clouds -3 1013 86 10000 5.14 330 16:47 15.02.2021
2523 Clouds -3 1013 86 10000 5.14 330 16:26 15.02.2021
2524 Clear -3 1013 93 10000 5.66 320 15:46 15.02.2021
2525 Clear -2 1013 86 10000 5.66 320 15:21 15.02.2021
2526 Clear -3 1013 93 10000 6.17 330 14:49 15.02.2021
2527 Clear -4 1013 93 10000 4.63 310 14:21 15.02.2021
2528 Clear -5 1014 93 10000 4.12 310 13:50 15.02.2021
2529 Clear -5 1014 93 10000 4.12 310 13:27 15.02.2021
2530 Clear -6 1014 93 10000 3.09 290 12:52 15.02.2021
2531 Clear -8 1014 100 10000 1.54 270 12:33 15.02.2021
2532 Clear -9 1014 92 10000 2.57 260 11:54 15.02.2021
2533 Clear -10 1015 85 10000 1.54 270 11:27 15.02.2021
2534 Clear -11 1015 92 10000 2.06 260 10:56 15.02.2021
2535 Snow -11 1015 85 10000 2.57 250 10:38 15.02.2021
2536 Snow -13 1016 85 6000 2.06 260 10:20 15.02.2021
2537 Snow -14 1016 85 6000 3.09 250 09:51 15.02.2021
2538 Snow -14 1016 85 6000 3.09 250 09:32 15.02.2021
2539 Snow -15 1016 85 7000 3.09 240 08:32 15.02.2021
2540 Snow -16 1017 92 5000 3.09 240 07:27 15.02.2021
2541 Snow -16 1017 85 4000 3.09 230 06:42 15.02.2021
2542 Snow -17 1019 92 10000 3.6 250 04:41 15.02.2021
2543 Clouds -17 1021 92 10000 3.09 230 02:21 15.02.2021
2544 Clear -16 1022 85 10000 2.57 220 00:22 15.02.2021
2545 Clear -17 1023 92 10000 2.57 250 23:29 14.02.2021
2546 Clear -17 1023 92 10000 2.57 230 22:47 14.02.2021
2547 Clear -17 1023 92 10000 2.57 230 22:29 14.02.2021
2548 Clear -17 1023 92 10000 2.06 240 21:55 14.02.2021
2549 Clear -15 1024 85 10000 2.06 260 21:31 14.02.2021
2550 Clear -15 1024 85 10000 2.57 260 20:55 14.02.2021
2551 Clear -16 1024 92 10000 2.57 250 20:31 14.02.2021
2552 Clear -14 1024 85 10000 2.57 270 19:50 14.02.2021
2553 Clear -14 1024 85 10000 2.57 270 19:31 14.02.2021
2554 Clear -15 1025 92 10000 3.09 260 18:43 14.02.2021
2555 Clear -15 1025 92 10000 3.09 260 18:22 14.02.2021
2556 Clear -15 1025 92 10000 2.57 260 17:42 14.02.2021
2557 Clear -14 1025 92 10000 2.57 270 17:19 14.02.2021
2558 Clear -13 1025 85 10000 3.09 270 16:40 14.02.2021
2559 Clear -13 1025 92 10000 2.06 250 16:18 14.02.2021
2560 Clear -12 1025 85 10000 2.06 260 15:44 14.02.2021
2561 Clear -12 1026 79 10000 2.06 300 14:58 14.02.2021
2562 Clear -12 1026 79 10000 3.09 310 14:30 14.02.2021
2563 Clear -12 1026 85 10000 4.12 320 13:56 14.02.2021
2564 Clear -12 1026 85 10000 2.57 310 13:31 14.02.2021
2565 Clear -12 1026 85 10000 2.57 310 12:45 14.02.2021
2566 Clear -12 1026 79 10000 1.03 0 12:21 14.02.2021
2567 Snow -13 1026 92 10000 1.54 0 11:51 14.02.2021
2568 Snow -13 1026 92 10000 1.54 0 11:22 14.02.2021
2569 Snow -13 1026 85 10000 4.63 330 10:45 14.02.2021
2570 Clear -14 1026 85 10000 2.06 350 09:57 14.02.2021
2571 Clear -13 1026 85 10000 5.14 340 09:38 14.02.2021
2572 Clouds -13 1025 92 10000 3.09 340 09:20 14.02.2021
2573 Clouds -12 1025 92 10000 2.06 360 08:39 14.02.2021
2574 Clouds -12 1025 92 10000 2.57 340 07:56 14.02.2021
2575 Clouds -13 1025 92 10000 3.09 350 06:49 14.02.2021
2576 Clouds -13 1024 85 10000 4.12 340 05:41 14.02.2021
2577 Clouds -14 1023 92 10000 5.14 340 03:30 14.02.2021
2578 Clouds -14 1023 85 10000 5.14 340 01:54 14.02.2021
2579 Clear -14 1023 85 10000 5.14 340 00:47 14.02.2021
2580 Clear -13 1023 85 10000 5.14 340 00:18 14.02.2021
2581 Clear -13 1022 85 10000 5.14 340 23:38 13.02.2021
2582 Clear -13 1022 85 10000 5.14 340 23:20 13.02.2021
2583 Clear -13 1022 85 10000 5.14 340 23:20 13.02.2021
2584 Clear -13 1022 85 10000 6.17 330 22:33 13.02.2021
2585 Clear -13 1022 85 10000 5.14 340 21:53 13.02.2021
2586 Clear -13 1022 85 10000 6.17 340 21:35 13.02.2021
2587 Clear -12 1022 85 10000 5.66 330 20:49 13.02.2021
2588 Clear -12 1022 85 10000 5.66 330 20:28 13.02.2021
2589 Clear -12 1022 92 10000 6.17 330 19:49 13.02.2021
2590 Clear -12 1022 92 10000 6.17 330 19:49 13.02.2021
2591 Clear -12 1022 92 10000 6.17 330 19:24 13.02.2021
2592 Clear -11 1021 85 10000 5.66 330 18:50 13.02.2021
2593 Clear -11 1021 85 10000 5.66 330 18:28 13.02.2021
2594 Clear -11 1021 85 10000 5.66 340 17:45 13.02.2021
2595 Clear -11 1021 85 10000 5.66 340 17:25 13.02.2021
2596 Clear -11 1021 92 10000 5.14 340 16:53 13.02.2021
2597 Clear -11 1021 92 10000 4.12 330 16:35 13.02.2021
2598 Clear -10 1020 85 10000 3.09 300 15:45 13.02.2021
2599 Clear -10 1020 85 10000 3.09 300 15:26 13.02.2021
2600 Clear -10 1020 85 10000 3.09 300 15:26 13.02.2021
2601 Clear -9 1020 79 10000 2.57 320 14:41 13.02.2021
2602 Clear -9 1020 86 10000 4.63 330 13:50 13.02.2021
2603 Clear -9 1020 86 10000 4.63 330 13:28 13.02.2021
2604 Clear -9 1020 79 10000 3.09 320 12:53 13.02.2021
2605 Clear -9 1020 79 10000 2.06 320 12:21 13.02.2021
2606 Clear -9 1020 79 10000 2.06 320 11:55 13.02.2021
2607 Clear -9 1020 79 10000 2.57 300 11:22 13.02.2021
2608 Clear -9 1020 79 10000 2.57 310 10:59 13.02.2021
2609 Clear -9 1020 79 10000 2.06 310 10:41 13.02.2021
2610 Clear -10 1020 79 10000 3.09 320 10:21 13.02.2021
2611 Clear -10 1020 79 10000 3.09 330 09:45 13.02.2021
2612 Clear -10 1020 79 10000 3.09 330 09:23 13.02.2021
2613 Clear -10 1020 79 10000 4.12 330 08:46 13.02.2021
2614 Clear -10 1020 79 10000 4.12 330 08:18 13.02.2021
2615 Clear -9 1019 79 10000 3.6 310 06:50 13.02.2021
2616 Clear -9 1019 79 10000 3.6 310 06:22 13.02.2021
2617 Clear -9 1019 79 10000 5.14 320 04:31 13.02.2021
2618 Clear -8 1019 79 10000 3.09 310 02:36 13.02.2021
2619 Clear -7 1018 79 10000 5.66 320 00:54 13.02.2021
2620 Clear -7 1018 79 10000 5.66 320 00:54 13.02.2021
2621 Snow -7 1019 86 10000 5.14 320 23:55 12.02.2021
2622 Snow -7 1019 86 10000 5.66 320 23:34 12.02.2021
2623 Snow -7 1019 93 10000 4.63 310 22:59 12.02.2021
2624 Clear -8 1019 93 10000 3.09 290 22:30 12.02.2021
2625 Snow -8 1019 93 10000 3.09 290 21:54 12.02.2021
2626 Clouds -9 1019 92 10000 3.6 300 21:35 12.02.2021
2627 Clear -9 1018 92 10000 3.09 290 20:59 12.02.2021
2628 Clear -9 1018 86 10000 2.57 290 20:39 12.02.2021
2629 Clear -9 1018 92 10000 2.57 300 20:19 12.02.2021
2630 Snow -10 1018 92 10000 2.57 280 19:48 12.02.2021
2631 Clouds -7 1020 93 10000 3.76 294 19:26 12.02.2021
2632 Clear -12 1018 92 10000 2.57 250 18:30 12.02.2021
2633 Clear -12 1018 92 10000 2.57 240 17:51 12.02.2021
2634 Clear -12 1018 92 10000 2.57 240 17:31 12.02.2021
2635 Clear -12 1018 85 10000 2.57 240 16:41 12.02.2021
2636 Clear -12 1018 85 10000 2.57 240 15:47 12.02.2021
2637 Clear -12 1018 85 10000 3.09 240 15:21 12.02.2021
2638 Clear -12 1018 85 10000 3.09 240 14:53 12.02.2021
2639 Clear -13 1020 92 10000 3.09 230 14:30 12.02.2021
2640 Clear -12 1018 85 10000 3.6 240 13:42 12.02.2021
2641 Clear -12 1018 85 10000 3.6 240 13:23 12.02.2021
2642 Clear -13 1019 92 10000 4.12 240 12:50 12.02.2021
2643 Clear -13 1019 92 10000 4.12 240 12:31 12.02.2021
2644 Clear -13 1019 92 10000 4.63 230 11:46 12.02.2021
2645 Snow -13 1019 85 10000 4.12 230 11:20 12.02.2021
2646 Snow -14 1019 92 10000 3.6 220 10:47 12.02.2021
2647 Snow -14 1019 85 1800 4.63 220 09:53 12.02.2021
2648 Snow -14 1019 85 3000 4.63 220 09:29 12.02.2021
2649 Snow -15 1019 85 3500 4.12 230 08:57 12.02.2021
2650 Snow -16 1020 92 3000 3.6 220 08:39 12.02.2021
2651 Snow -16 1020 85 1400 2.57 170 08:18 12.02.2021
2652 Clouds -16 1020 85 4000 2.57 190 07:50 12.02.2021
2653 Snow -17 1020 92 5000 2.06 190 06:57 12.02.2021
2654 Snow -17 1021 85 10000 2.06 160 05:49 12.02.2021
2655 Snow -17 1021 85 10000 2.06 160 05:23 12.02.2021
2656 Snow -18 1023 85 2400 2.06 170 01:56 12.02.2021
2657 Fog -17 1024 85 600 2.57 200 23:44 11.02.2021
2658 Fog -17 1024 85 600 2.57 200 23:22 11.02.2021
2659 Fog -17 1024 85 650 3.09 210 22:58 11.02.2021
2660 Snow -17 1024 85 5000 2.57 210 22:39 11.02.2021
2661 Snow -17 1024 85 6000 3.09 220 22:21 11.02.2021
2662 Snow -16 1024 85 300 2.06 220 21:39 11.02.2021
2663 Snow -17 1024 92 3800 2.57 230 21:19 11.02.2021
2664 Clouds -16 1024 92 10000 1.54 220 20:46 11.02.2021
2665 Clouds -16 1024 92 10000 1.54 220 20:22 11.02.2021
2666 Clear -16 1025 85 10000 1.54 240 19:49 11.02.2021
2667 Clear -16 1025 85 10000 1.54 240 19:31 11.02.2021
2668 Clear -18 1024 85 10000 1.03 230 18:58 11.02.2021
2669 Clear -17 1024 85 10000 1.54 260 18:29 11.02.2021
2670 Clear -17 1024 85 10000 1.03 260 17:55 11.02.2021
2671 Clear -16 1025 92 10000 1.54 240 17:22 11.02.2021
2672 Snow -16 1025 85 10000 1.54 260 16:59 11.02.2021
2673 Clouds -13 1025 92 10000 1.03 0 16:41 11.02.2021
2674 Clear -13 1025 85 10000 0.51 0 16:21 11.02.2021
2675 Clear -13 1025 92 10000 0.51 0 15:43 11.02.2021
2676 Clear -13 1025 92 10000 0.51 0 15:25 11.02.2021
2677 Clear -12 1024 85 10000 3.09 310 14:47 11.02.2021
2678 Clear -12 1024 85 10000 3.09 310 14:28 11.02.2021
2679 Clear -12 1024 92 10000 1.54 300 13:41 11.02.2021
2680 Clear -13 1024 85 10000 2.06 280 13:19 11.02.2021
2681 Clear -14 1024 85 10000 2.06 270 12:51 11.02.2021
2682 Clear -14 1024 85 10000 2.06 270 12:26 11.02.2021
2683 Clear -14 1024 85 10000 1.03 0 11:46 11.02.2021
2684 Clear -15 1024 85 10000 0.51 40 11:22 11.02.2021
2685 Clear -16 1024 85 10000 1.03 250 10:44 11.02.2021
2686 Clear -16 1024 85 10000 1.03 250 10:25 11.02.2021
2687 Snow -16 1023 85 10000 1.03 0 09:53 11.02.2021
2688 Snow -17 1023 85 10000 1.54 260 09:22 11.02.2021
2689 Clear -16 1023 92 10000 0.51 0 08:51 11.02.2021
2690 Clear -16 1022 85 10000 1.54 240 08:21 11.02.2021
2691 Clear -17 1022 85 10000 2.06 260 06:52 11.02.2021
2692 Clear -17 1022 85 10000 2.06 280 06:33 11.02.2021
2693 Clouds -14 1022 92 10000 3.6 330 04:55 11.02.2021
2694 Clear -16 1022 85 10000 3.6 320 02:28 11.02.2021
2695 Clear -18 1022 85 10000 2.57 310 00:46 11.02.2021
2696 Clear -17 1021 85 10000 5.14 320 00:19 11.02.2021
2697 Clear -18 1021 85 10000 4.12 320 23:39 10.02.2021
2698 Snow -20 1021 84 10000 1.54 270 22:51 10.02.2021
2699 Clouds -15 1024 93 10000 1.28 294 22:27 10.02.2021
2700 Snow -20 1021 92 9000 2.06 260 21:55 10.02.2021
2701 Snow -20 1021 84 7000 1.03 240 21:37 10.02.2021
2702 Snow -20 1021 84 7000 1.03 240 21:37 10.02.2021
2703 Clouds -20 1020 84 10000 1.54 270 21:18 10.02.2021
2704 Clouds -19 1020 84 10000 0.51 0 20:40 10.02.2021
2705 Clouds -19 1020 84 10000 1.03 0 20:20 10.02.2021
2706 Clear -19 1020 84 10000 1.54 280 19:43 10.02.2021
2707 Clear -19 1020 84 10000 1.54 280 19:22 10.02.2021
2708 Clear -19 1020 84 10000 1.54 240 18:40 10.02.2021
2709 Clear -19 1020 84 10000 1.54 260 18:21 10.02.2021
2710 Clear -19 1019 92 10000 0.51 0 17:50 10.02.2021
2711 Clear -19 1019 92 10000 0.51 0 17:22 10.02.2021
2712 Clear -19 1020 84 10000 2.06 260 16:50 10.02.2021
2713 Clear -19 1020 84 10000 2.06 260 16:29 10.02.2021
2714 Clear -17 1019 85 10000 3.09 270 15:45 10.02.2021
2715 Clear -17 1019 85 10000 3.09 270 15:22 10.02.2021
2716 Clear -17 1019 92 10000 2.06 270 14:42 10.02.2021
2717 Clear -16 1019 85 10000 2.06 270 14:19 10.02.2021
2718 Clear -17 1019 85 10000 2.06 270 13:50 10.02.2021
2719 Clear -17 1019 85 10000 2.06 270 13:27 10.02.2021
2720 Clear -15 1019 85 10000 2.57 310 12:46 10.02.2021
2721 Clear -15 1019 85 10000 2.57 310 12:28 10.02.2021
2722 Clear -16 1019 85 10000 4.63 320 11:47 10.02.2021
2723 Clear -16 1019 85 10000 4.63 320 11:28 10.02.2021
2724 Clear -16 1019 85 10000 5.66 330 10:46 10.02.2021
2725 Clear -17 1019 85 10000 4.63 330 10:19 10.02.2021
2726 Clear -17 1019 85 10000 5.14 330 09:43 10.02.2021
2727 Clear -17 1019 85 10000 6.17 330 09:21 10.02.2021
2728 Clear -18 1018 92 10000 6.17 330 08:43 10.02.2021
2729 Clear -17 1018 85 10000 6.17 340 07:59 10.02.2021
2730 Clear -19 1018 84 10000 5.66 330 07:18 10.02.2021
2731 Clear -19 1018 84 10000 5.66 330 07:18 10.02.2021
2732 Clear -18 1018 85 10000 5.14 340 03:45 10.02.2021
2733 Clouds -19 1018 84 10000 2.57 340 00:51 10.02.2021
2734 Clouds -19 1018 84 10000 3.6 350 23:37 09.02.2021
2735 Clouds -19 1018 84 10000 4.12 350 22:56 09.02.2021
2736 Clear -19 1018 84 10000 4.12 340 22:25 09.02.2021
2737 Clear -19 1018 92 10000 1.54 320 21:54 09.02.2021
2738 Clear -18 1018 85 10000 3.6 340 21:35 09.02.2021
2739 Clear -18 1018 85 10000 4.63 340 20:59 09.02.2021
2740 Clear -18 1018 85 10000 4.63 340 20:40 09.02.2021
2741 Clear -18 1018 85 10000 1.03 0 20:20 09.02.2021
2742 Clear -18 1017 85 10000 4.12 340 19:39 09.02.2021
2743 Clear -17 1017 85 10000 3.09 330 19:18 09.02.2021
2744 Snow -17 1017 85 10000 1.54 0 18:41 09.02.2021
2745 Clear -17 1017 85 10000 5.66 340 17:58 09.02.2021
2746 Clear -17 1017 92 10000 2.06 0 17:40 09.02.2021
2747 Clear -17 1017 92 10000 2.06 0 17:22 09.02.2021
2748 Clear -17 1017 85 10000 2.06 0 16:47 09.02.2021
2749 Clear -16 1017 85 10000 4.12 330 16:19 09.02.2021
2750 Clear -17 1017 85 10000 2.06 320 15:50 09.02.2021
2751 Clear -17 1017 85 10000 2.06 320 15:27 09.02.2021
2752 Snow -17 1017 85 10000 2.06 300 14:56 09.02.2021
2753 Snow -17 1018 85 10000 2.57 320 14:28 09.02.2021
2754 Clouds -15 1018 85 10000 1.54 270 13:52 09.02.2021
2755 Clouds -15 1018 85 10000 1.54 260 13:26 09.02.2021
2756 Clouds -17 1018 85 10000 1.03 0 12:54 09.02.2021
2757 Clouds -16 1018 85 10000 0.51 0 12:36 09.02.2021
2758 Clear -17 1018 85 10000 1.54 240 11:58 09.02.2021
2759 Clear -15 1018 85 10000 1.03 270 11:39 09.02.2021
2760 Clear -17 1018 92 10000 3.09 310 11:20 09.02.2021
2761 Clear -17 1018 92 10000 3.09 310 11:20 09.02.2021
2762 Clear -16 1018 92 10000 4.63 330 10:50 09.02.2021
2763 Clear -16 1018 85 10000 2.57 320 10:19 09.02.2021
2764 Clear -16 1018 92 10000 1.03 0 09:43 09.02.2021
2765 Clear -16 1018 92 10000 1.03 0 09:25 09.02.2021
2766 Clear -17 1018 85 10000 1.03 0 08:47 09.02.2021
2767 Clear -17 1018 85 10000 1.03 0 08:26 09.02.2021
2768 Clear -16 1018 85 10000 3.6 330 06:49 09.02.2021
2769 Clear -15 1018 85 10000 5.14 340 04:52 09.02.2021
2770 Snow -15 1018 92 10000 4.63 340 03:38 09.02.2021
2771 Clear -14 1018 85 10000 4.63 340 00:34 09.02.2021
2772 Clear -14 1018 85 10000 4.12 340 23:57 08.02.2021
2773 Clear -14 1018 85 10000 4.12 340 23:57 08.02.2021
2774 Clear -13 1018 85 10000 4.63 340 23:21 08.02.2021
2775 Clear -13 1018 85 10000 4.12 340 22:44 08.02.2021
2776 Clear -13 1018 85 10000 4.12 340 22:25 08.02.2021
2777 Clear -13 1018 92 10000 4.63 330 21:57 08.02.2021
2778 Clear -12 1018 85 10000 4.12 330 21:33 08.02.2021
2779 Clear -12 1018 85 10000 4.12 330 20:59 08.02.2021
2780 Clear -12 1018 85 10000 4.12 340 20:39 08.02.2021
2781 Clouds -12 1018 85 10000 4.12 340 20:21 08.02.2021
2782 Clouds -12 1018 92 10000 3.6 330 19:43 08.02.2021
2783 Clouds -12 1018 92 10000 3.6 330 19:25 08.02.2021
2784 Clear -12 1018 92 10000 4.63 330 18:49 08.02.2021
2785 Clear -12 1018 92 10000 4.63 330 18:23 08.02.2021
2786 Clear -11 1018 85 10000 3.6 330 17:46 08.02.2021
2787 Clear -11 1018 85 10000 3.6 330 17:26 08.02.2021
2788 Clear -10 1018 85 10000 3.6 320 16:44 08.02.2021
2789 Clear -10 1018 85 10000 3.6 320 16:21 08.02.2021
2790 Clear -10 1019 85 10000 3.6 320 15:48 08.02.2021
2791 Clear -10 1019 85 10000 3.09 320 15:20 08.02.2021
2792 Clear -10 1019 85 10000 3.09 320 14:52 08.02.2021
2793 Clear -10 1019 85 10000 3.09 310 14:32 08.02.2021
2794 Clear -10 1019 85 10000 2.57 310 13:57 08.02.2021
2795 Clear -10 1019 85 10000 2.57 300 13:38 08.02.2021
2796 Clear -10 1019 85 10000 2.57 300 13:20 08.02.2021
2797 Clear -10 1019 85 10000 2.57 290 12:37 08.02.2021
2798 Clear -12 1020 85 10000 2.57 290 11:51 08.02.2021
2799 Clear -12 1020 85 10000 2.57 290 11:22 08.02.2021
2800 Clear -12 1020 85 10000 2.57 290 10:45 08.02.2021
2801 Clear -12 1020 85 10000 2.57 290 10:24 08.02.2021
2802 Clear -12 1020 85 10000 2.57 310 09:54 08.02.2021
2803 Clear -12 1020 85 10000 3.6 320 09:36 08.02.2021
2804 Clear -12 1020 85 10000 4.12 330 08:50 08.02.2021
2805 Clear -12 1020 85 10000 5.14 330 08:21 08.02.2021
2806 Clear -12 1020 85 10000 4.63 320 07:35 08.02.2021
2807 Clear -12 1020 85 10000 4.63 330 06:29 08.02.2021
2808 Clear -12 1021 92 10000 4.12 330 02:37 08.02.2021
2809 Clear -12 1021 85 10000 4.63 330 01:48 08.02.2021
2810 Clear -11 1021 85 10000 4.63 330 00:21 08.02.2021
2811 Clear -11 1021 85 10000 4.12 340 23:50 07.02.2021
2812 Clear -11 1021 85 10000 4.12 340 23:50 07.02.2021
2813 Clear -11 1021 85 10000 5.14 330 23:21 07.02.2021
2814 Clear -12 1021 92 10000 5.14 330 22:45 07.02.2021
2815 Clear -12 1021 92 10000 5.14 330 22:27 07.02.2021
2816 Clear -12 1021 92 10000 4.63 330 21:56 07.02.2021
2817 Clear -12 1021 92 10000 4.63 330 21:28 07.02.2021
2818 Clear -12 1021 92 10000 4.12 330 20:59 07.02.2021
2819 Clear -11 1021 85 10000 4.12 330 20:41 07.02.2021
2820 Clear -11 1021 85 10000 4.12 330 20:22 07.02.2021
2821 Clear -11 1021 85 10000 4.12 330 20:22 07.02.2021
2822 Clear -11 1021 92 10000 4.12 340 19:39 07.02.2021
2823 Clear -11 1021 92 10000 4.12 330 19:20 07.02.2021
2824 Clear -10 1021 85 10000 4.12 330 18:40 07.02.2021
2825 Clear -10 1024 85 10000 4.12 330 18:22 07.02.2021
2826 Clear -10 1021 92 10000 3.6 330 17:44 07.02.2021
2827 Clear -10 1021 92 10000 3.6 320 17:21 07.02.2021
2828 Clear -10 1021 85 10000 3.6 320 16:50 07.02.2021
2829 Clear -10 1021 85 10000 3.6 320 16:30 07.02.2021
2830 Clear -10 1021 92 10000 3.6 350 15:59 07.02.2021
2831 Clear -9 1021 86 10000 3.6 320 15:41 07.02.2021
2832 Clear -9 1021 86 10000 4.63 340 15:21 07.02.2021
2833 Clear -9 1021 86 10000 4.63 330 14:40 07.02.2021
2834 Clear -9 1021 86 10000 4.63 330 14:22 07.02.2021
2835 Clear -9 1021 86 10000 4.12 340 13:37 07.02.2021
2836 Clear -9 1021 86 10000 4.12 340 13:19 07.02.2021
2837 Clear -9 1021 86 10000 4.12 330 12:39 07.02.2021
2838 Clear -9 1021 86 10000 4.12 330 12:20 07.02.2021
2839 Clear -9 1021 86 10000 4.12 330 12:20 07.02.2021
2840 Clear -9 1021 86 10000 4.12 330 11:39 07.02.2021
2841 Clear -9 1020 86 10000 4.63 330 11:18 07.02.2021
2842 Clear -9 1020 86 10000 4.63 340 10:29 07.02.2021
2843 Clear -9 1020 86 10000 5.14 330 09:51 07.02.2021
2844 Clear -9 1020 86 10000 5.14 330 09:25 07.02.2021
2845 Clear -9 1020 86 10000 4.63 330 08:50 07.02.2021
2846 Clear -9 1020 86 10000 4.63 330 07:56 07.02.2021
2847 Clear -9 1021 92 10000 5.14 330 06:21 07.02.2021
2848 Clear -8 1021 86 10000 4.63 330 04:34 07.02.2021
2849 Clear -9 1022 92 10000 4.12 330 02:26 07.02.2021
2850 Clear -9 1023 86 10000 5.14 330 00:37 07.02.2021
2851 Clear -10 1023 92 10000 4.12 330 23:51 06.02.2021
2852 Clear -10 1024 85 10000 4.12 330 22:54 06.02.2021
2853 Clear -10 1024 85 10000 4.63 330 21:57 06.02.2021
2854 Clear -11 1024 92 10000 5.14 330 21:36 06.02.2021
2855 Clear -11 1024 85 10000 5.14 340 21:18 06.02.2021
2856 Clear -11 1024 92 10000 5.14 340 20:43 06.02.2021
2857 Clear -10 1024 85 10000 5.14 340 20:21 06.02.2021
2858 Clear -10 1024 85 10000 5.14 340 19:45 06.02.2021
2859 Clear -10 1024 85 10000 5.14 340 19:22 06.02.2021
2860 Clear -10 1024 92 10000 5.14 340 18:43 06.02.2021
2861 Clear -10 1024 92 10000 5.14 340 18:24 06.02.2021
2862 Clear -9 1024 86 10000 5.66 340 17:41 06.02.2021
2863 Clear -9 1025 86 10000 5.66 340 17:21 06.02.2021
2864 Clear -9 1025 86 10000 5.66 330 16:50 06.02.2021
2865 Clear -9 1025 86 10000 5.66 330 16:30 06.02.2021
2866 Clear -9 1025 86 10000 5.14 330 15:52 06.02.2021
2867 Clear -9 1025 86 10000 4.63 330 15:33 06.02.2021
2868 Clouds -9 1028 86 10000 4.63 340 14:57 06.02.2021
2869 Clear -9 1025 86 10000 5.14 340 14:37 06.02.2021
2870 Clear -9 1025 92 10000 4.63 340 14:18 06.02.2021
2871 Clear -9 1025 92 10000 4.12 340 13:43 06.02.2021
2872 Clear -8 1025 86 10000 4.12 330 12:36 06.02.2021
2873 Clear -8 1025 86 10000 4.12 340 12:18 06.02.2021
2874 Clear -8 1025 86 10000 3.6 350 11:40 06.02.2021
2875 Clear -8 1025 86 10000 4.12 350 11:20 06.02.2021
2876 Clear -8 1025 86 10000 4.12 340 10:49 06.02.2021
2877 Clear -8 1025 86 10000 4.12 340 10:25 06.02.2021
2878 Clouds -8 1025 86 10000 3.6 340 09:38 06.02.2021
2879 Clear -9 1025 92 10000 3.09 340 09:19 06.02.2021
2880 Clear -9 1025 92 10000 3.09 340 08:56 06.02.2021
2881 Clouds -9 1024 92 10000 4.12 350 08:29 06.02.2021
2882 Clouds -8 1024 86 10000 3.6 330 06:50 06.02.2021
2883 Clear -8 1024 93 10000 3.6 340 05:39 06.02.2021
2884 Snow -8 1023 86 10000 4.63 330 02:43 06.02.2021
2885 Snow -9 1023 92 4500 4.63 330 00:56 06.02.2021
2886 Snow -9 1024 92 6000 4.63 330 00:37 06.02.2021
2887 Snow -9 1024 86 10000 4.12 340 00:18 06.02.2021
2888 Snow -9 1024 86 10000 4.12 340 23:29 05.02.2021
2889 Clear -10 1024 92 10000 4.63 330 22:49 05.02.2021
2890 Clear -10 1024 92 10000 4.63 330 22:25 05.02.2021
2891 Clear -10 1024 85 10000 4.63 330 21:54 05.02.2021
2892 Clear -10 1024 85 10000 4.63 330 21:35 05.02.2021
2893 Clear -10 1025 85 10000 4.63 330 20:52 05.02.2021
2894 Clear -10 1025 85 10000 5.14 330 19:57 05.02.2021
2895 Clear -10 1025 85 10000 4.63 330 19:25 05.02.2021
2896 Clear -11 1025 92 10000 5.14 330 18:56 05.02.2021
2897 Clear -11 1025 92 10000 5.14 330 18:29 05.02.2021
2898 Clear -11 1025 92 10000 5.14 340 17:56 05.02.2021
2899 Clear -11 1025 92 10000 5.14 330 17:34 05.02.2021
2900 Clear -11 1025 92 10000 5.14 330 16:57 05.02.2021
2901 Clear -11 1025 92 10000 4.63 320 16:38 05.02.2021
2902 Clear -10 1025 85 10000 4.63 330 16:19 05.02.2021
2903 Clear -10 1025 85 10000 4.63 330 15:31 05.02.2021
2904 Clear -10 1025 92 10000 4.12 330 14:59 05.02.2021
2905 Clear -10 1025 92 10000 4.12 330 14:38 05.02.2021
2906 Clear -9 1025 86 10000 4.12 340 14:18 05.02.2021
2907 Clear -9 1025 86 10000 4.12 330 13:42 05.02.2021
2908 Clear -9 1025 86 10000 4.12 340 13:20 05.02.2021
2909 Clear -9 1025 86 10000 4.12 350 12:41 05.02.2021
2910 Clear -9 1025 86 10000 4.12 350 12:41 05.02.2021
2911 Clear -9 1025 86 10000 4.12 360 11:59 05.02.2021
2912 Clear -9 1025 86 10000 4.63 10 11:38 05.02.2021
2913 Clear -9 1025 86 10000 4.12 10 11:19 05.02.2021
2914 Clear -9 1025 86 10000 4.63 10 10:46 05.02.2021
2915 Clear -9 1025 86 10000 4.63 10 10:24 05.02.2021
2916 Clear -10 1024 92 10000 3.6 10 09:42 05.02.2021
2917 Clear -10 1024 92 10000 3.6 10 09:23 05.02.2021
2918 Clear -9 1023 86 10000 4.12 360 08:40 05.02.2021
2919 Clear -10 1022 85 10000 4.63 10 07:41 05.02.2021
2920 Clear -10 1022 85 10000 3.6 10 07:21 05.02.2021
2921 Clear -10 1022 85 10000 3.6 350 06:28 05.02.2021
2922 Clouds -10 1021 92 10000 3.09 360 05:32 05.02.2021
2923 Clear -10 1020 85 10000 4.12 340 02:25 05.02.2021
2924 Clouds -10 1020 85 10000 3.09 340 00:58 05.02.2021
2925 Clouds -11 1020 92 10000 3.6 340 00:36 05.02.2021
2926 Clear -10 1020 85 10000 3.09 350 00:18 05.02.2021
2927 Clear -10 1020 85 10000 3.09 360 23:40 04.02.2021
2928 Clear -10 1020 85 10000 3.09 360 23:22 04.02.2021
2929 Clear -10 1020 92 10000 2.57 360 22:52 04.02.2021
2930 Clear -9 1020 86 10000 2.57 360 22:29 04.02.2021
2931 Clear -9 1020 86 10000 4.12 360 21:43 04.02.2021
2932 Clear -9 1020 86 10000 4.12 360 21:23 04.02.2021
2933 Clear -9 1019 86 10000 3.6 360 20:54 04.02.2021
2934 Clear -9 1019 92 10000 3.6 350 20:34 04.02.2021
2935 Clear -9 1019 92 10000 3.6 350 20:34 04.02.2021
2936 Snow -8 1019 86 10000 3.6 360 19:49 04.02.2021
2937 Snow -8 1019 86 10000 3.6 350 19:21 04.02.2021
2938 Snow -8 1018 86 10000 4.12 340 18:39 04.02.2021
2939 Snow -8 1018 86 10000 4.12 340 18:39 04.02.2021
2940 Snow -9 1018 92 10000 3.6 350 18:20 04.02.2021
2941 Clouds -8 1018 86 10000 3.09 340 17:44 04.02.2021
2942 Snow -8 1018 86 10000 3.09 360 17:21 04.02.2021
2943 Snow -8 1018 93 4300 3.6 360 16:46 04.02.2021
2944 Clear -8 1018 93 10000 4.12 360 16:19 04.02.2021
2945 Snow -8 1017 86 10000 3.6 10 15:40 04.02.2021
2946 Snow -7 1017 79 10000 4.63 20 15:21 04.02.2021
2947 Snow -7 1017 79 10000 5.66 20 14:49 04.02.2021
2948 Clouds -7 1017 79 10000 6.17 30 14:21 04.02.2021
2949 Clouds -7 1017 79 10000 6.17 30 13:56 04.02.2021
2950 Clouds -7 1017 79 10000 6.69 20 13:36 04.02.2021
2951 Clouds -7 1017 79 10000 6.69 20 12:57 04.02.2021
2952 Clouds -7 1016 86 10000 4.63 10 12:20 04.02.2021
2953 Snow -7 1016 86 6000 6.17 20 11:38 04.02.2021
2954 Clouds -7 1016 86 10000 4.12 10 11:20 04.02.2021
2955 Clouds -7 1016 86 10000 4.12 10 10:43 04.02.2021
2956 Snow -8 1015 93 10000 5.66 10 09:48 04.02.2021
2957 Snow -8 1015 93 10000 5.66 10 09:23 04.02.2021
2958 Snow -8 1015 93 10000 5.14 10 08:59 04.02.2021
2959 Clouds -8 1014 93 10000 4.12 10 08:28 04.02.2021
2960 Snow -8 1014 93 8000 4.63 10 07:59 04.02.2021
2961 Snow -8 1014 93 10000 5.14 10 07:35 04.02.2021
2962 Clouds -9 1013 92 10000 4.12 10 06:54 04.02.2021
2963 Clouds -9 1013 92 10000 4.12 10 06:34 04.02.2021
2964 Clear -13 1013 92 10000 5.66 330 02:43 04.02.2021
2965 Clear -13 1013 92 10000 5.66 330 02:24 04.02.2021
2966 Clear -14 1013 85 10000 5.14 340 00:31 04.02.2021
2967 Clouds -15 1013 85 10000 4.12 340 23:39 03.02.2021
2968 Clouds -15 1014 85 10000 3.6 340 22:41 03.02.2021
2969 Clouds -15 1014 85 10000 3.6 340 22:21 03.02.2021
2970 Snow -15 1014 85 10000 3.6 340 21:55 03.02.2021
2971 Snow -15 1014 92 10000 3.6 340 21:25 03.02.2021
2972 Snow -14 1014 85 10000 4.12 350 20:58 03.02.2021
2973 Snow -14 1014 85 10000 3.6 350 20:37 03.02.2021
2974 Snow -14 1014 85 10000 4.12 360 19:57 03.02.2021
2975 Clouds -14 1014 85 10000 4.12 360 19:36 03.02.2021
2976 Clouds -14 1014 85 10000 4.63 350 19:18 03.02.2021
2977 Clouds -15 1014 85 10000 4.63 350 18:39 03.02.2021
2978 Clouds -15 1014 85 10000 4.12 350 18:19 03.02.2021
2979 Clouds -15 1014 85 10000 4.12 350 18:19 03.02.2021
2980 Clouds -15 1014 85 10000 4.12 350 17:48 03.02.2021
2981 Clouds -15 1014 85 10000 4.12 350 17:48 03.02.2021
2982 Clouds -15 1016 85 10000 4.12 350 17:27 03.02.2021
2983 Clouds -14 1014 85 10000 4.63 350 16:48 03.02.2021
2984 Clouds -14 1014 85 10000 4.63 350 16:26 03.02.2021
2985 Snow -14 1014 85 10000 4.63 360 15:41 03.02.2021
2986 Snow -14 1014 85 10000 4.63 360 15:22 03.02.2021
2987 Snow -13 1014 85 10000 4.63 360 14:47 03.02.2021
2988 Snow -13 1014 85 10000 4.63 360 14:24 03.02.2021
2989 Clouds -12 1014 85 10000 4.63 360 13:50 03.02.2021
2990 Clouds -12 1014 85 10000 4.12 360 13:21 03.02.2021
2991 Clouds -12 1014 85 10000 4.12 350 12:46 03.02.2021
2992 Clouds -13 1014 92 10000 3.09 360 12:21 03.02.2021
2993 Clouds -12 1014 85 10000 4.12 350 11:43 03.02.2021
2994 Clouds -12 1014 85 10000 4.12 350 11:24 03.02.2021
2995 Clouds -13 1014 92 10000 4.12 350 10:45 03.02.2021
2996 Snow -12 1014 85 10000 4.63 350 10:21 03.02.2021
2997 Snow -12 1014 92 9000 3.6 350 09:45 03.02.2021
2998 Snow -12 1014 92 9000 3.6 350 09:27 03.02.2021
2999 Snow -11 1014 85 8000 4.63 30 08:49 03.02.2021
3000 Snow -11 1014 85 8000 3.6 360 07:59 03.02.2021
3001 Snow -11 1014 92 10000 3.09 340 07:26 03.02.2021
3002 Snow -10 1013 85 10000 4.12 20 06:38 03.02.2021
3003 Snow -11 1013 92 10000 3.6 10 04:50 03.02.2021
3004 Snow -11 1015 100 10000 3.6 10 04:27 03.02.2021
3005 Snow -11 1013 85 10000 3.09 20 02:42 03.02.2021
3006 Snow -11 1013 92 10000 3.09 360 01:58 03.02.2021
3007 Snow -11 1013 92 10000 3.6 20 00:25 03.02.2021
3008 Snow -10 1013 85 10000 4.12 30 23:44 02.02.2021
3009 Snow -10 1013 85 10000 4.12 30 23:26 02.02.2021
3010 Snow -10 1013 85 10000 4.12 30 23:26 02.02.2021
3011 Snow -10 1012 92 10000 4.63 40 22:51 02.02.2021
3012 Snow -10 1012 92 10000 4.12 40 22:21 02.02.2021
3013 Snow -10 1012 92 10000 3.6 40 21:47 02.02.2021
3014 Snow -10 1012 92 10000 3.6 40 21:27 02.02.2021
3015 Snow -10 1012 85 10000 3.09 50 20:50 02.02.2021
3016 Snow -10 1014 85 10000 3.09 50 20:23 02.02.2021
3017 Snow -10 1011 85 10000 3.6 60 19:58 02.02.2021
3018 Snow -11 1011 92 10000 3.6 40 19:39 02.02.2021
3019 Snow -11 1011 92 10000 3.6 30 19:21 02.02.2021
3020 Snow -11 1011 92 5000 3.09 40 18:41 02.02.2021
3021 Snow -11 1011 92 5000 3.09 40 18:23 02.02.2021
3022 Snow -11 1010 92 2500 3.09 40 17:40 02.02.2021
3023 Snow -11 1010 85 10000 3.09 40 17:21 02.02.2021
3024 Snow -11 1010 85 10000 3.6 30 16:50 02.02.2021
3025 Snow -11 1010 85 10000 3.6 30 16:31 02.02.2021
3026 Snow -12 1013 100 9000 3.6 30 15:57 02.02.2021
3027 Snow -13 1010 85 10000 2.57 10 15:33 02.02.2021
3028 Snow -13 1009 85 4600 2.57 10 14:56 02.02.2021
3029 Snow -13 1009 92 2600 2.57 10 14:37 02.02.2021
3030 Snow -15 1009 85 3500 2.57 20 14:18 02.02.2021
3031 Snow -15 1009 92 7000 2.57 20 13:42 02.02.2021
3032 Snow -15 1009 92 7000 2.57 20 13:22 02.02.2021
3033 Clear -14 1008 85 10000 2.57 340 12:51 02.02.2021
3034 Clear -15 1008 85 10000 3.09 360 11:56 02.02.2021
3035 Clear -14 1008 85 10000 3.09 360 11:38 02.02.2021
3036 Clear -15 1007 92 10000 3.09 350 11:18 02.02.2021
3037 Clear -15 1007 92 10000 3.09 350 10:43 02.02.2021
3038 Clear -15 1007 92 10000 3.09 350 10:25 02.02.2021
3039 Clear -16 1006 85 10000 4.12 350 09:41 02.02.2021
3040 Snow -16 1006 92 10000 3.6 350 09:20 02.02.2021
3041 Snow -15 1006 85 10000 4.12 350 08:36 02.02.2021
3042 Snow -15 1005 85 8000 4.12 340 07:44 02.02.2021
3043 Snow -15 1004 85 8000 3.6 340 06:47 02.02.2021
3044 Snow -15 1004 85 8000 3.6 340 06:29 02.02.2021
3045 Snow -16 1004 92 10000 4.12 340 05:50 02.02.2021
3046 Clouds -17 1002 85 10000 4.12 330 02:53 02.02.2021
3047 Clear -17 1002 85 10000 4.12 330 02:24 02.02.2021
3048 Snow -16 1001 85 4400 3.6 320 00:37 02.02.2021
3049 Clouds -17 1001 85 10000 1.03 0 23:45 01.02.2021
3050 Clear -17 1001 85 10000 0.51 0 22:52 01.02.2021
3051 Clear -17 1000 85 10000 1.03 0 22:34 01.02.2021
3052 Snow -18 1000 85 10000 1.54 260 21:55 01.02.2021
3053 Snow -17 1000 85 10000 1.03 0 21:37 01.02.2021
3054 Clear -17 1000 85 10000 0.51 0 21:18 01.02.2021
3055 Snow -17 1000 85 10000 1.03 0 20:40 01.02.2021
3056 Snow -17 1000 85 10000 1.03 0 20:22 01.02.2021
3057 Snow -16 999 85 10000 2.06 0 19:41 01.02.2021
3058 Snow -16 999 92 1100 2.06 320 19:21 01.02.2021
3059 Snow -16 999 92 1100 2.06 320 19:21 01.02.2021
3060 Snow -16 999 92 10000 2.57 350 18:49 01.02.2021
3061 Snow -16 999 92 10000 2.57 350 18:28 01.02.2021
3062 Clouds -15 998 92 400 3.09 20 17:48 01.02.2021
3063 Clouds -15 998 92 400 3.09 20 17:25 01.02.2021
3064 Snow -14 998 85 10000 3.09 40 16:56 01.02.2021
3065 Snow -14 998 85 10000 3.09 40 16:29 01.02.2021
3066 Snow -14 997 85 7000 3.6 50 15:47 01.02.2021
3067 Snow -16 997 92 10000 4.12 30 15:19 01.02.2021
3068 Snow -16 997 92 10000 4.12 30 14:52 01.02.2021
3069 Clear -16 996 92 10000 4.63 30 14:33 01.02.2021
3070 Clear -15 996 85 10000 4.63 30 13:50 01.02.2021
3071 Clear -15 996 85 10000 4.63 30 13:27 01.02.2021
3072 Clear -16 995 85 10000 3.6 20 12:56 01.02.2021
3073 Clear -15 995 85 10000 3.6 40 12:37 01.02.2021
3074 Clouds -15 995 85 10000 4.12 50 12:19 01.02.2021
3075 Clear -14 994 92 10000 4.63 50 11:39 01.02.2021
3076 Clear -14 994 92 10000 5.66 50 11:18 01.02.2021
3077 Clear -15 994 85 10000 4.63 40 10:42 01.02.2021
3078 Clear -14 993 85 10000 4.63 50 10:19 01.02.2021
3079 Clear -15 993 92 10000 5.66 50 09:43 01.02.2021
3080 Clouds -16 995 85 10000 5.66 40 08:58 01.02.2021
3081 Clear -15 992 85 10000 5.14 50 08:27 01.02.2021
3082 Clouds -15 991 92 10000 4.12 60 07:36 01.02.2021
3083 Snow -17 990 85 10000 4.12 30 05:46 01.02.2021
3084 Snow -17 989 85 10000 4.12 30 02:41 01.02.2021
3085 Snow -14 989 92 10000 3.6 20 00:27 01.02.2021
3086 Snow -13 989 92 10000 3.09 20 23:29 31.01.2021
3087 Snow -12 989 85 10000 3.6 20 22:41 31.01.2021
3088 Snow -12 989 85 10000 3.6 20 22:23 31.01.2021
3089 Snow -12 989 85 10000 4.12 30 21:47 31.01.2021
3090 Snow -12 988 85 6000 3.6 30 21:21 31.01.2021
3091 Snow -12 988 85 4500 3.09 10 20:44 31.01.2021
3092 Snow -12 988 85 3600 3.09 20 20:21 31.01.2021
3093 Snow -12 988 85 10000 2.57 10 19:41 31.01.2021
3094 Snow -12 988 85 10000 2.57 10 19:23 31.01.2021
3095 Snow -12 988 85 8000 3.09 20 18:56 31.01.2021
3096 Snow -12 988 85 10000 4.12 30 18:38 31.01.2021
3097 Snow -12 988 85 10000 4.63 20 18:18 31.01.2021
3098 Snow -12 988 85 10000 4.12 20 17:41 31.01.2021
3099 Snow -12 988 85 10000 3.09 20 17:22 31.01.2021
3100 Snow -12 988 85 10000 2.57 20 16:42 31.01.2021
3101 Snow -12 988 85 9000 2.57 20 16:20 31.01.2021
3102 Snow -12 988 85 7000 3.6 20 15:50 31.01.2021
3103 Snow -12 988 85 7000 3.6 20 15:26 31.01.2021
3104 Snow -12 988 85 10000 3.09 30 14:40 31.01.2021
3105 Snow -12 989 92 10000 3.09 30 14:19 31.01.2021
3106 Snow -12 989 92 6000 4.12 30 13:46 31.01.2021
3107 Snow -12 988 92 9000 3.6 30 13:19 31.01.2021
3108 Snow -12 988 85 10000 3.6 30 12:47 31.01.2021
3109 Snow -11 989 85 10000 3.6 30 12:21 31.01.2021
3110 Snow -11 988 85 2200 4.12 30 11:40 31.01.2021
3111 Snow -11 988 85 5000 3.6 30 11:21 31.01.2021
3112 Snow -11 989 85 4400 3.09 20 10:48 31.01.2021
3113 Snow -11 988 85 5000 3.09 10 10:29 31.01.2021
3114 Snow -11 988 85 7000 3.09 360 09:47 31.01.2021
3115 Snow -12 989 92 6000 3.09 360 08:55 31.01.2021
3116 Snow -12 989 92 10000 2.57 360 08:31 31.01.2021
3117 Snow -12 989 92 7000 3.09 10 06:51 31.01.2021
3118 Snow -11 989 85 5000 3.09 20 04:55 31.01.2021
3119 Snow -11 990 85 10000 3.09 30 00:38 31.01.2021
3120 Snow -11 990 85 10000 3.09 30 00:38 31.01.2021
3121 Snow -11 990 85 10000 3.6 30 00:20 31.01.2021
3122 Snow -11 990 85 10000 3.6 30 23:28 30.01.2021
3123 Snow -11 990 85 10000 3.6 30 22:45 30.01.2021
3124 Snow -11 990 85 10000 3.6 30 22:23 30.01.2021
3125 Snow -11 991 85 10000 3.6 20 21:39 30.01.2021
3126 Snow -11 991 85 10000 3.6 20 21:20 30.01.2021
3127 Snow -12 991 92 10000 3.6 30 20:43 30.01.2021
3128 Snow -12 991 92 10000 3.6 30 20:24 30.01.2021
3129 Snow -11 991 85 10000 4.12 50 19:42 30.01.2021
3130 Snow -11 991 85 10000 4.12 50 19:24 30.01.2021
3131 Snow -11 991 85 7000 3.6 30 18:40 30.01.2021
3132 Snow -11 991 85 7000 3.6 30 18:40 30.01.2021
3133 Snow -11 991 85 8000 4.12 30 18:21 30.01.2021
3134 Snow -11 991 85 8000 4.12 30 17:53 30.01.2021
3135 Snow -11 992 85 8000 4.12 30 17:19 30.01.2021
3136 Snow -11 992 85 7000 4.63 30 16:43 30.01.2021
3137 Snow -11 992 85 7000 4.63 30 16:23 30.01.2021
3138 Snow -11 992 85 4100 5.14 30 15:50 30.01.2021
3139 Snow -11 992 85 4100 5.14 30 15:25 30.01.2021
3140 Snow -11 992 85 2900 6.17 20 14:58 30.01.2021
3141 Snow -11 992 85 6000 5.14 20 14:39 30.01.2021
3142 Snow -11 992 85 3900 5.66 20 14:18 30.01.2021
3143 Snow -11 993 85 2200 5.14 20 13:24 30.01.2021
3144 Snow -11 993 85 8000 5.66 20 12:46 30.01.2021
3145 Snow -11 993 85 8000 5.66 20 12:28 30.01.2021
3146 Snow -11 993 79 9000 4.63 20 11:53 30.01.2021
3147 Snow -12 994 85 10000 4.12 10 11:21 30.01.2021
3148 Snow -12 994 85 10000 3.6 10 10:29 30.01.2021
3149 Snow -12 994 85 7000 3.6 10 09:43 30.01.2021
3150 Snow -12 994 85 7000 3.6 10 09:24 30.01.2021
3151 Snow -13 994 92 3900 4.12 360 08:45 30.01.2021
3152 Snow -13 995 85 10000 4.12 360 07:44 30.01.2021
3153 Snow -13 995 85 10000 3.6 360 06:35 30.01.2021
3154 Snow -15 997 92 10000 4.63 360 03:57 30.01.2021
3155 Snow -15 997 85 10000 4.63 360 03:33 30.01.2021
3156 Clear -15 997 92 10000 4.63 360 02:23 30.01.2021
3157 Snow -14 999 85 10000 4.12 360 00:58 30.01.2021
3158 Snow -14 999 85 10000 4.63 10 00:34 30.01.2021
3159 Clouds -14 999 85 10000 4.12 10 23:54 29.01.2021
3160 Clouds -13 1000 85 10000 5.66 30 23:28 29.01.2021
3161 Snow -14 1000 92 10000 5.14 30 22:47 29.01.2021
3162 Snow -14 1000 92 10000 5.14 30 22:28 29.01.2021
3163 Snow -13 1000 92 10000 5.14 30 21:59 29.01.2021
3164 Snow -13 1001 92 10000 4.63 30 21:27 29.01.2021
3165 Snow -11 1001 85 8000 5.14 50 20:43 29.01.2021
3166 Snow -11 1001 85 8000 5.14 50 20:23 29.01.2021
3167 Snow -11 1001 92 10000 4.63 60 19:40 29.01.2021
3168 Snow -10 1002 85 10000 4.63 60 19:21 29.01.2021
3169 Snow -10 1002 85 10000 4.63 60 18:53 29.01.2021
3170 Snow -9 1002 86 10000 6.69 80 17:50 29.01.2021
3171 Snow -9 1002 86 10000 6.69 80 17:23 29.01.2021
3172 Clouds -9 1002 86 10000 6.17 80 16:53 29.01.2021
3173 Clouds -9 1002 86 10000 6.17 70 16:24 29.01.2021
3174 Clouds -9 1002 92 10000 6.17 80 15:55 29.01.2021
3175 Clouds -9 1002 92 10000 6.17 80 15:37 29.01.2021
3176 Snow -9 1002 92 10000 5.14 80 15:18 29.01.2021
3177 Clouds -8 1002 86 10000 5.14 70 14:23 29.01.2021
3178 Clouds -9 1002 92 10000 4.12 70 13:46 29.01.2021
3179 Clouds -9 1002 92 10000 4.12 70 13:28 29.01.2021
3180 Snow -9 1003 92 10000 4.63 70 12:42 29.01.2021
3181 Clouds -9 1003 92 10000 4.63 70 12:18 29.01.2021
3182 Clouds -9 1003 92 10000 4.12 70 11:41 29.01.2021
3183 Clouds -9 1003 92 10000 4.12 70 11:41 29.01.2021
3184 Clouds -9 1003 86 10000 4.63 60 11:18 29.01.2021
3185 Snow -9 1003 86 10000 4.63 70 10:46 29.01.2021
3186 Snow -9 1003 86 10000 4.63 70 10:22 29.01.2021
3187 Snow -9 1003 86 10000 4.12 70 09:39 29.01.2021
3188 Snow -10 1003 92 10000 3.6 70 08:50 29.01.2021
3189 Snow -10 1003 92 10000 3.6 70 08:26 29.01.2021
3190 Snow -10 1003 92 10000 3.6 70 07:47 29.01.2021
3191 Snow -10 1003 92 10000 3.6 70 07:26 29.01.2021
3192 Snow -10 1003 92 10000 3.6 70 07:26 29.01.2021
3193 Clouds -9 1003 86 10000 3.09 70 06:38 29.01.2021
3194 Snow -10 1003 92 10000 3.09 80 04:42 29.01.2021
3195 Snow -10 1003 92 10000 4.12 90 00:52 29.01.2021
3196 Snow -9 1003 86 10000 4.63 90 00:23 29.01.2021
3197 Snow -10 1003 92 10000 4.63 90 23:55 28.01.2021
3198 Snow -10 1003 92 6000 4.63 90 23:36 28.01.2021
3199 Snow -10 1003 92 10000 4.63 90 23:18 28.01.2021
3200 Snow -10 1003 85 5000 5.14 90 22:41 28.01.2021
3201 Snow -10 1003 85 4100 5.66 90 22:21 28.01.2021
3202 Snow -10 1003 85 5000 6.17 90 21:42 28.01.2021
3203 Snow -10 1003 85 5000 6.17 90 21:23 28.01.2021
3204 Snow -10 1003 85 5000 6.69 80 20:46 28.01.2021
3205 Snow -10 1003 85 3300 6.17 80 20:19 28.01.2021
3206 Snow -10 1003 85 3300 6.17 80 19:52 28.01.2021
3207 Snow -10 1003 85 3100 6.17 80 19:29 28.01.2021
3208 Snow -10 1004 85 4200 5.66 80 18:50 28.01.2021
3209 Snow -10 1004 85 4200 5.66 80 18:31 28.01.2021
3210 Snow -10 1004 85 2200 6.17 80 17:54 28.01.2021
3211 Snow -10 1004 85 2400 5.66 80 17:35 28.01.2021
3212 Snow -10 1004 85 2600 6.69 80 16:59 28.01.2021
3213 Snow -10 1004 85 3200 6.69 70 16:40 28.01.2021
3214 Snow -10 1004 85 3500 6.17 70 16:20 28.01.2021
3215 Snow -10 1004 85 3600 7.2 70 15:32 28.01.2021
3216 Snow -10 1004 85 2400 6.69 70 14:49 28.01.2021
3217 Snow -10 1004 85 2400 6.69 70 14:27 28.01.2021
3218 Snow -10 1004 85 2000 6.69 70 13:59 28.01.2021
3219 Snow -10 1005 85 2000 6.69 80 13:25 28.01.2021
3220 Snow -10 1005 85 2500 6.17 70 12:50 28.01.2021
3221 Snow -10 1005 85 2500 6.17 70 12:32 28.01.2021
3222 Snow -10 1005 85 2000 6.17 80 11:57 28.01.2021
3223 Snow -10 1005 85 2000 6.69 70 11:39 28.01.2021
3224 Snow -10 1005 85 2000 5.66 70 11:18 28.01.2021
3225 Snow -10 1005 85 1500 6.17 80 10:48 28.01.2021
3226 Snow -10 1005 85 1500 6.17 80 10:24 28.01.2021
3227 Snow -10 1005 85 3000 5.14 80 09:39 28.01.2021
3228 Snow -10 1004 92 5000 5.14 80 09:19 28.01.2021
3229 Snow -10 1004 92 3000 4.63 80 08:44 28.01.2021
3230 Snow -9 1004 86 4000 5.14 80 07:50 28.01.2021
3231 Snow -9 1004 86 2000 5.14 70 07:21 28.01.2021
3232 Snow -9 1004 86 2000 5.14 70 06:48 28.01.2021
3233 Snow -9 1004 92 4300 5.14 60 04:31 28.01.2021
3234 Snow -8 1003 86 4900 5.14 50 02:46 28.01.2021
3235 Snow -8 1003 86 6000 6.17 40 00:45 28.01.2021
3236 Snow -9 1003 92 6000 5.14 30 23:26 27.01.2021
3237 Snow -9 1003 92 8000 5.14 30 22:57 27.01.2021
3238 Snow -9 1003 92 7000 5.14 30 22:39 27.01.2021
3239 Snow -9 1003 86 6000 5.14 30 22:18 27.01.2021
3240 Snow -9 1003 86 5000 4.63 30 21:41 27.01.2021
3241 Snow -9 1003 86 5000 4.63 30 21:22 27.01.2021
3242 Snow -9 1003 86 5000 4.63 30 21:22 27.01.2021
3243 Snow -9 1003 86 4200 4.63 20 20:41 27.01.2021
3244 Snow -9 1003 86 5000 4.63 20 19:59 27.01.2021
3245 Snow -10 1003 92 7000 4.12 20 19:41 27.01.2021
3246 Snow -10 1003 92 7000 3.6 10 19:21 27.01.2021
3247 Snow -10 1003 92 6000 4.63 30 18:43 27.01.2021
3248 Snow -10 1003 92 6000 4.63 30 18:23 27.01.2021
3249 Snow -10 1003 92 6000 4.12 20 17:46 27.01.2021
3250 Snow -10 1003 92 6000 4.12 20 17:26 27.01.2021
3251 Snow -9 1003 86 9000 4.63 20 16:48 27.01.2021
3252 Snow -9 1003 86 9000 4.63 20 16:28 27.01.2021
3253 Snow -9 1003 86 10000 6.17 20 15:51 27.01.2021
3254 Snow -9 1003 86 10000 6.17 20 15:32 27.01.2021
3255 Snow -9 1003 92 10000 5.66 30 14:45 27.01.2021
3256 Snow -9 1003 92 10000 6.17 30 14:22 27.01.2021
3257 Clouds -8 1003 86 10000 5.66 20 13:45 27.01.2021
3258 Clouds -8 1003 86 10000 5.66 20 13:45 27.01.2021
3259 Clouds -8 1003 86 10000 4.63 20 12:58 27.01.2021
3260 Clouds -8 1003 93 10000 5.66 30 12:39 27.01.2021
3261 Clouds -8 1003 93 10000 5.14 30 12:18 27.01.2021
3262 Snow -7 1003 86 10000 5.66 20 11:44 27.01.2021
3263 Snow -7 1003 86 10000 6.17 40 11:21 27.01.2021
3264 Snow -7 1003 86 10000 6.69 40 10:39 27.01.2021
3265 Snow -7 1003 93 10000 7.2 40 10:19 27.01.2021
3266 Snow -7 1003 93 10000 4.63 20 09:41 27.01.2021
3267 Snow -6 1003 86 10000 5.66 30 08:57 27.01.2021
3268 Snow -6 1003 93 10000 5.14 30 08:31 27.01.2021
3269 Snow -6 1004 93 8000 6.17 40 07:43 27.01.2021
3270 Snow -6 1004 93 8000 5.14 50 06:58 27.01.2021
3271 Snow -6 1004 93 10000 7.2 40 06:19 27.01.2021
3272 Snow -6 1004 93 10000 5.66 40 05:39 27.01.2021
3273 Clouds -5 1004 93 10000 4.12 40 03:29 27.01.2021
3274 Snow -5 1005 93 10000 4.12 40 02:23 27.01.2021
3275 Clouds -5 1005 93 10000 4.12 40 01:48 27.01.2021
3276 Snow -5 1005 93 10000 4.63 40 00:33 27.01.2021
3277 Clouds -5 1005 100 10000 4.12 50 23:48 26.01.2021
3278 Clouds -5 1005 100 10000 4.12 50 23:26 26.01.2021
3279 Clouds -5 1005 100 10000 3.6 60 22:46 26.01.2021
3280 Snow -5 1005 100 10000 4.12 60 22:22 26.01.2021
3281 Clouds -4 1005 93 10000 4.12 60 21:53 26.01.2021
3282 Clouds -4 1005 93 10000 4.12 60 21:28 26.01.2021
3283 Snow -4 1005 93 10000 3.6 50 20:58 26.01.2021
3284 Snow -4 1005 93 10000 3.09 60 20:38 26.01.2021
3285 Snow -4 1005 93 10000 4.12 60 20:20 26.01.2021
3286 Snow -4 1005 93 10000 3.6 60 19:43 26.01.2021
3287 Snow -4 1005 100 6000 3.6 60 19:20 26.01.2021
3288 Fog -4 1005 100 2000 3.09 70 18:46 26.01.2021
3289 Fog -4 1005 100 2000 3.09 70 18:24 26.01.2021
3290 Fog -4 1005 100 2000 3.09 70 18:24 26.01.2021
3291 Clouds -4 1005 100 1400 3.09 70 17:49 26.01.2021
3292 Clouds -4 1005 100 1400 3.09 70 17:27 26.01.2021
3293 Clouds -4 1004 100 1600 3.6 70 16:55 26.01.2021
3294 Fog -4 1004 100 1200 3.09 80 16:37 26.01.2021
3295 Clouds -4 1004 100 1900 3.09 80 16:18 26.01.2021
3296 Snow -4 1007 100 3400 3.6 80 15:39 26.01.2021
3297 Mist -4 1004 100 3700 3.6 90 15:19 26.01.2021
3298 Snow -3 1004 93 1800 3.09 100 14:35 26.01.2021
3299 Snow -3 1004 93 1800 3.09 100 14:35 26.01.2021
3300 Clouds -3 1004 93 2000 3.09 100 13:59 26.01.2021
3301 Snow -3 1003 93 3000 3.6 100 13:33 26.01.2021
3302 Snow -3 1003 93 4000 4.12 100 12:56 26.01.2021
3303 Snow -4 1003 100 6000 4.12 100 12:37 26.01.2021
3304 Snow -4 1003 100 6000 4.63 100 12:19 26.01.2021
3305 Snow -4 1003 100 10000 3.6 90 11:49 26.01.2021
3306 Snow -4 1002 93 10000 4.63 100 11:18 26.01.2021
3307 Snow -4 1003 93 10000 4.63 100 10:34 26.01.2021
3308 Snow -4 1005 93 10000 4.12 100 09:57 26.01.2021
3309 Snow -4 1002 93 10000 4.63 90 09:36 26.01.2021
3310 Snow -5 1002 100 10000 3.6 100 09:18 26.01.2021
3311 Snow -5 1002 100 10000 4.12 90 08:42 26.01.2021
3312 Snow -5 1001 100 10000 4.63 80 07:54 26.01.2021
3313 Snow -5 1001 100 2000 4.63 80 06:58 26.01.2021
3314 Snow -5 1001 100 4400 5.14 80 05:46 26.01.2021
3315 Snow -5 1001 100 4900 5.66 80 05:25 26.01.2021
3316 Snow -5 1001 100 2000 5.66 70 03:31 26.01.2021
3317 Snow -6 1001 100 10000 5.66 40 00:59 26.01.2021
3318 Clouds -7 1002 93 10000 4.63 30 23:46 25.01.2021
3319 Clouds -7 1002 93 10000 4.63 30 23:26 25.01.2021
3320 Clouds -8 1002 93 10000 4.12 20 22:40 25.01.2021
3321 Clouds -7 1002 93 10000 4.12 20 22:21 25.01.2021
3322 Clouds -8 1002 93 10000 4.63 20 21:40 25.01.2021
3323 Clouds -9 1002 92 10000 4.63 20 20:59 25.01.2021
3324 Clouds -9 1001 92 10000 4.63 20 20:39 25.01.2021
3325 Clouds -9 1001 92 10000 4.12 10 20:19 25.01.2021
3326 Snow -10 1001 92 10000 3.6 360 19:46 25.01.2021
3327 Snow -10 1001 92 10000 3.6 360 19:22 25.01.2021
3328 Clouds -10 1001 92 10000 4.12 360 18:43 25.01.2021
3329 Clouds -10 1001 92 10000 4.12 360 18:24 25.01.2021
3330 Snow -10 1001 85 4400 4.63 10 17:44 25.01.2021
3331 Snow -10 1001 85 4400 4.63 10 17:44 25.01.2021
3332 Snow -9 1001 92 10000 5.14 20 17:24 25.01.2021
3333 Snow -11 1001 85 10000 4.12 360 16:44 25.01.2021
3334 Snow -11 1001 85 10000 4.12 360 16:25 25.01.2021
3335 Clouds -10 1001 92 10000 4.12 360 15:54 25.01.2021
3336 Clouds -10 1001 92 10000 4.12 360 15:54 25.01.2021
3337 Clouds -10 1001 92 10000 4.12 360 15:34 25.01.2021
3338 Clouds -11 1001 92 10000 4.12 360 14:53 25.01.2021
3339 Clouds -13 1001 92 10000 3.6 350 14:21 25.01.2021
3340 Clouds -13 1001 92 10000 3.6 350 13:58 25.01.2021
3341 Clouds -13 1001 92 10000 3.6 350 13:57 25.01.2021
3342 Clouds -12 1001 85 10000 2.57 350 13:36 25.01.2021
3343 Clear -12 1000 92 10000 4.12 350 12:50 25.01.2021
3344 Clear -12 1000 92 10000 4.12 350 12:50 25.01.2021
3345 Clear -12 1000 92 10000 4.12 350 12:27 25.01.2021
3346 Clear -11 1000 85 10000 4.12 350 11:58 25.01.2021
3347 Clear -12 1000 92 10000 3.09 350 11:25 25.01.2021
3348 Clouds -12 1000 92 8000 3.6 40 10:45 25.01.2021
3349 Clouds -12 1000 92 10000 3.09 40 10:21 25.01.2021
3350 Clouds -10 1000 92 10000 2.57 60 09:48 25.01.2021
3351 Clouds -10 1000 92 10000 2.57 60 09:28 25.01.2021
3352 Clouds -10 1000 92 10000 2.57 70 08:33 25.01.2021
3353 Clouds -9 1000 92 10000 3.09 70 07:51 25.01.2021
3354 Clouds -9 1000 92 10000 3.09 70 07:27 25.01.2021
3355 Clouds -10 1000 92 10000 2.57 50 06:25 25.01.2021
3356 Clouds -10 1000 85 10000 1.03 0 02:23 25.01.2021
3357 Clouds -10 999 85 10000 1.03 0 00:37 25.01.2021
3358 Clouds -10 999 85 10000 1.54 340 23:20 24.01.2021
3359 Clouds -11 999 92 10000 1.03 0 22:48 24.01.2021
3360 Clouds -11 999 92 10000 1.03 0 22:28 24.01.2021
3361 Clouds -11 999 92 10000 1.03 0 22:27 24.01.2021
3362 Clouds -11 998 92 10000 1.54 330 21:55 24.01.2021
3363 Clouds -11 998 92 10000 2.06 340 21:27 24.01.2021
3364 Clouds -10 998 85 10000 1.54 20 20:46 24.01.2021
3365 Clouds -10 998 85 10000 1.54 20 20:23 24.01.2021
3366 Clouds -10 998 85 10000 1.54 20 20:23 24.01.2021
3367 Clouds -10 998 85 10000 2.57 20 19:57 24.01.2021
3368 Clouds -10 998 85 10000 1.54 10 19:36 24.01.2021
3369 Clouds -11 998 92 10000 2.06 360 19:18 24.01.2021
3370 Clouds -11 998 92 10000 1.03 0 18:41 24.01.2021
3371 Clouds -11 998 92 10000 1.54 340 18:21 24.01.2021
3372 Clouds -11 998 92 10000 1.54 340 17:57 24.01.2021
3373 Clouds -11 998 92 10000 2.06 360 17:38 24.01.2021
3374 Clouds -11 998 92 10000 2.06 340 17:18 24.01.2021
3375 Snow -11 997 92 10000 2.06 350 16:41 24.01.2021
3376 Snow -11 997 92 10000 2.06 340 16:20 24.01.2021
3377 Snow -11 997 92 10000 1.54 360 15:45 24.01.2021
3378 Snow -11 997 92 10000 1.03 0 15:20 24.01.2021
3379 Snow -11 997 92 9000 1.54 340 14:47 24.01.2021
3380 Snow -11 997 92 9000 1.54 340 14:24 24.01.2021
3381 Snow -11 996 92 10000 2.06 350 13:34 24.01.2021
3382 Snow -11 996 92 10000 1.03 0 12:51 24.01.2021
3383 Snow -11 996 92 10000 1.03 0 12:22 24.01.2021
3384 Snow -11 996 92 2900 1.54 350 11:55 24.01.2021
3385 Snow -11 996 85 6000 1.54 350 11:25 24.01.2021
3386 Snow -11 996 85 10000 1.54 340 10:59 24.01.2021
3387 Snow -12 995 92 10000 1.54 10 10:30 24.01.2021
3388 Snow -12 995 92 1800 2.57 40 09:47 24.01.2021
3389 Snow -12 995 92 1700 2.06 30 09:19 24.01.2021
3390 Snow -12 995 92 3900 1.54 30 08:37 24.01.2021
3391 Snow -13 993 92 10000 4.63 60 03:50 24.01.2021
3392 Snow -13 993 85 2300 5.14 60 02:19 24.01.2021
3393 Snow -13 993 85 4800 6.17 60 00:56 24.01.2021
3394 Snow -13 992 85 2200 7.2 70 00:21 24.01.2021
3395 Snow -13 992 85 3200 6.69 70 23:34 23.01.2021
3396 Snow -13 992 85 6000 6.69 70 22:59 23.01.2021
3397 Snow -13 992 85 1600 7.72 70 22:40 23.01.2021
3398 Snow -13 992 85 4400 8.23 80 21:59 23.01.2021
3399 Snow -13 992 85 3800 8.23 80 21:23 23.01.2021
3400 Snow -13 992 85 10000 8.75 70 20:55 23.01.2021
3401 Snow -13 992 78 9000 8.23 70 20:37 23.01.2021
3402 Snow -13 992 78 8000 7.2 80 20:19 23.01.2021
3403 Snow -13 992 78 6000 7.2 80 19:43 23.01.2021
3404 Snow -13 992 78 10000 7.2 80 19:20 23.01.2021
3405 Snow -14 992 85 10000 7.72 80 18:42 23.01.2021
3406 Snow -14 992 85 2700 7.2 80 18:21 23.01.2021
3407 Snow -14 992 85 2000 7.2 80 17:36 23.01.2021
3408 Snow -14 992 85 2500 8.23 80 17:18 23.01.2021
3409 Snow -14 992 85 3500 8.23 70 16:42 23.01.2021
3410 Snow -14 992 85 3400 8.23 70 15:56 23.01.2021
3411 Snow -14 992 85 4700 7.2 80 15:29 23.01.2021
3412 Snow -14 993 85 10000 7.72 80 14:45 23.01.2021
3413 Snow -14 993 85 10000 7.72 80 14:24 23.01.2021
3414 Snow -14 993 85 10000 7.72 90 13:43 23.01.2021
3415 Snow -14 996 85 10000 7.72 90 13:24 23.01.2021
3416 Snow -14 994 85 6000 7.72 90 12:44 23.01.2021
3417 Snow -14 994 85 6000 7.72 90 12:24 23.01.2021
3418 Snow -14 994 85 10000 6.69 90 11:40 23.01.2021
3419 Snow -14 994 85 10000 6.69 90 10:58 23.01.2021
3420 Snow -14 994 85 10000 6.69 90 10:26 23.01.2021
3421 Snow -14 994 85 10000 7.2 100 09:53 23.01.2021
3422 Snow -14 994 85 10000 7.2 90 09:28 23.01.2021
3423 Snow -13 995 78 10000 6.69 100 08:43 23.01.2021
3424 Snow -12 995 79 9000 6.69 100 07:48 23.01.2021
3425 Snow -12 995 85 7000 6.17 100 06:50 23.01.2021
3426 Snow -12 995 85 10000 8.23 80 02:30 23.01.2021
3427 Snow -12 997 79 10000 8.75 80 00:32 23.01.2021
3428 Snow -13 999 85 10000 8.75 80 23:36 22.01.2021
3429 Snow -13 999 85 10000 8.75 80 22:44 22.01.2021
3430 Snow -13 1000 85 10000 8.23 80 22:20 22.01.2021
3431 Snow -13 1000 85 10000 9.26 80 21:39 22.01.2021
3432 Snow -13 1000 78 10000 7.72 90 21:21 22.01.2021
3433 Snow -13 1000 78 10000 7.72 90 20:46 22.01.2021
3434 Snow -13 1000 78 10000 7.72 90 20:26 22.01.2021
3435 Snow -13 1001 78 10000 7.2 90 19:47 22.01.2021
3436 Snow -13 1001 78 10000 8.23 90 19:19 22.01.2021
3437 Snow -13 1001 78 10000 7.72 90 18:45 22.01.2021
3438 Snow -13 1001 78 10000 7.72 90 18:26 22.01.2021
3439 Snow -13 1001 78 10000 7.2 90 17:48 22.01.2021
3440 Snow -13 1001 78 10000 7.2 90 17:29 22.01.2021
3441 Snow -13 1001 78 10000 9.77 100 16:54 22.01.2021
3442 Snow -13 1001 78 10000 8.75 90 16:30 22.01.2021
3443 Snow -13 1001 78 10000 9.26 100 15:45 22.01.2021
3444 Snow -13 1001 78 10000 8.23 100 15:20 22.01.2021
3445 Snow -13 1001 78 10000 8.75 100 14:32 22.01.2021
3446 Snow -13 1001 85 10000 6.17 90 13:53 22.01.2021
3447 Snow -13 1001 85 10000 6.17 90 13:35 22.01.2021
3448 Snow -13 1001 85 10000 7.2 90 12:55 22.01.2021
3449 Snow -13 1001 85 10000 7.2 90 12:26 22.01.2021
3450 Snow -13 1001 85 6000 7.2 100 11:48 22.01.2021
3451 Snow -13 1001 85 6000 7.2 100 11:30 22.01.2021
3452 Snow -13 1001 85 7000 8.23 100 10:46 22.01.2021
3453 Snow -13 1001 85 7000 8.23 100 10:22 22.01.2021
3454 Snow -12 1001 79 6000 9.26 100 09:39 22.01.2021
3455 Snow -12 1000 79 6000 8.75 100 08:57 22.01.2021
3456 Snow -12 1000 85 4000 7.72 100 08:30 22.01.2021
3457 Snow -12 1000 85 2500 8.23 100 07:40 22.01.2021
3458 Snow -13 1001 85 3500 10.29 90 03:41 22.01.2021
3459 Snow -14 1003 85 7000 9.26 80 00:54 22.01.2021
3460 Clear -14 1005 85 10000 8.75 80 23:56 21.01.2021
3461 Clear -14 1005 85 10000 8.75 70 23:38 21.01.2021
3462 Clear -15 1006 85 10000 8.23 70 22:57 21.01.2021
3463 Clear -15 1006 85 10000 8.23 70 22:38 21.01.2021
3464 Clear -15 1007 85 10000 9.26 70 21:44 21.01.2021
3465 Clear -15 1007 85 10000 9.26 70 21:22 21.01.2021
3466 Clear -15 1007 85 10000 7.72 80 20:55 21.01.2021
3467 Clear -15 1008 85 10000 9.26 80 20:36 21.01.2021
3468 Clear -16 1008 92 10000 8.75 70 20:18 21.01.2021
3469 Clear -16 1009 92 10000 7.2 70 19:44 21.01.2021
3470 Clear -16 1009 92 10000 7.2 70 19:23 21.01.2021
3471 Clear -16 1009 85 10000 6.69 80 18:41 21.01.2021
3472 Clear -16 1009 85 10000 6.69 80 18:21 21.01.2021
3473 Clear -16 1009 85 10000 6.69 80 17:57 21.01.2021
3474 Clear -16 1010 85 10000 6.69 80 17:21 21.01.2021
3475 Clear -16 1010 85 10000 6.69 80 16:54 21.01.2021
3476 Clear -16 1010 85 10000 6.17 80 16:36 21.01.2021
3477 Clear -16 1010 85 10000 6.69 80 16:18 21.01.2021
3478 Clear -16 1010 85 10000 6.69 80 15:39 21.01.2021
3479 Clear -16 1010 85 10000 6.17 80 15:21 21.01.2021
3480 Clear -15 1011 85 10000 6.69 70 14:37 21.01.2021
3481 Clear -15 1011 85 10000 6.17 70 13:52 21.01.2021
3482 Clear -15 1011 85 10000 5.66 70 13:33 21.01.2021
3483 Clear -15 1011 85 10000 5.14 70 12:58 21.01.2021
3484 Clear -15 1011 85 10000 4.63 80 12:39 21.01.2021
3485 Clear -15 1012 85 10000 5.14 70 12:21 21.01.2021
3486 Clear -15 1012 85 10000 5.14 70 11:49 21.01.2021
3487 Clear -15 1012 85 10000 5.14 70 11:27 21.01.2021
3488 Clear -15 1012 85 10000 5.66 60 10:51 21.01.2021
3489 Clear -15 1012 85 10000 5.66 60 10:31 21.01.2021
3490 Clear -16 1012 85 10000 5.66 70 09:44 21.01.2021
3491 Clear -16 1012 85 10000 5.66 70 09:25 21.01.2021
3492 Clear -16 1012 85 10000 5.66 70 08:45 21.01.2021
3493 Clear -16 1012 85 10000 5.66 70 08:24 21.01.2021
3494 Clear -16 1012 85 10000 5.14 70 07:28 21.01.2021
3495 Clear -16 1012 85 10000 5.14 70 06:54 21.01.2021
3496 Clear -16 1012 85 10000 5.66 60 05:21 21.01.2021
3497 Snow -16 1012 85 10000 5.14 70 02:31 21.01.2021
3498 Clouds -17 1013 85 10000 5.66 70 00:51 21.01.2021
3499 Snow -17 1012 85 10000 5.14 70 23:53 20.01.2021
3500 Snow -17 1013 85 10000 4.63 70 23:32 20.01.2021
3501 Snow -17 1012 85 10000 4.63 70 22:58 20.01.2021
3502 Snow -17 1012 85 10000 4.63 60 22:37 20.01.2021
3503 Clear -17 1013 85 10000 4.63 60 21:58 20.01.2021
3504 Clear -17 1013 85 10000 5.14 60 21:40 20.01.2021
3505 Clear -17 1013 85 10000 4.63 70 21:19 20.01.2021
3506 Clouds -16 1013 85 10000 5.14 70 20:41 20.01.2021
3507 Clouds -16 1013 85 10000 4.63 70 20:18 20.01.2021
3508 Clouds -16 1013 85 10000 5.14 60 19:42 20.01.2021
3509 Clouds -16 1013 85 10000 5.14 60 19:23 20.01.2021
3510 Clear -16 1013 85 10000 4.63 70 18:42 20.01.2021
3511 Clear -16 1013 85 10000 5.14 70 17:57 20.01.2021
3512 Clear -16 1013 85 10000 5.14 70 17:39 20.01.2021
3513 Clear -16 1013 85 10000 5.14 70 16:57 20.01.2021
3514 Clear -16 1013 85 10000 5.14 70 16:38 20.01.2021
3515 Snow -16 1013 85 10000 5.66 70 15:52 20.01.2021
3516 Snow -16 1013 92 10000 4.63 70 15:34 20.01.2021
3517 Clear -16 1013 92 10000 4.63 70 14:50 20.01.2021
3518 Clear -16 1013 92 10000 4.63 70 14:23 20.01.2021
3519 Clear -16 1012 92 10000 5.66 70 13:42 20.01.2021
3520 Clear -16 1012 92 10000 5.66 70 13:24 20.01.2021
3521 Clear -16 1013 85 10000 5.14 70 12:39 20.01.2021
3522 Clear -16 1013 85 10000 5.14 70 11:57 20.01.2021
3523 Clear -16 1013 85 10000 6.17 70 11:37 20.01.2021
3524 Clear -16 1013 85 10000 4.63 70 10:56 20.01.2021
3525 Clear -16 1013 85 10000 4.63 80 10:32 20.01.2021
3526 Clear -16 1013 85 10000 4.63 80 10:32 20.01.2021
3527 Clear -16 1013 85 10000 6.17 70 09:54 20.01.2021
3528 Clear -16 1013 85 10000 6.17 70 09:26 20.01.2021
3529 Clear -16 1012 85 10000 6.17 70 08:55 20.01.2021
3530 Clear -16 1012 85 10000 5.14 70 08:29 20.01.2021
3531 Clear -17 1012 85 10000 5.66 70 07:56 20.01.2021
3532 Clear -17 1012 85 10000 5.14 70 07:25 20.01.2021
3533 Clear -17 1012 92 10000 5.14 70 05:51 20.01.2021
3534 Clear -16 1012 85 10000 4.12 70 03:28 20.01.2021
3535 Clear -16 1012 92 10000 5.14 60 01:19 20.01.2021
3536 Clear -16 1011 85 10000 5.14 60 00:45 20.01.2021
3537 Clouds -16 1011 85 10000 5.66 60 23:48 19.01.2021
3538 Clouds -15 1011 85 10000 4.63 60 23:20 19.01.2021
3539 Snow -15 1011 85 10000 4.63 70 22:43 19.01.2021
3540 Snow -15 1011 85 10000 4.63 70 22:22 19.01.2021
3541 Snow -15 1011 85 5000 5.14 70 21:59 19.01.2021
3542 Snow -15 1011 85 5000 5.14 70 21:59 19.01.2021
3543 Snow -15 1011 92 5000 4.63 70 21:41 19.01.2021
3544 Snow -15 1011 92 5000 4.63 70 21:22 19.01.2021
3545 Clouds -14 1011 85 10000 5.14 70 20:43 19.01.2021
3546 Clouds -14 1011 85 10000 5.14 70 20:22 19.01.2021
3547 Clouds -14 1010 85 10000 4.12 70 19:48 19.01.2021
3548 Clouds -14 1010 85 10000 4.12 70 19:27 19.01.2021
3549 Snow -14 1010 92 10000 4.12 50 18:46 19.01.2021
3550 Snow -14 1010 92 10000 4.12 50 18:26 19.01.2021
3551 Clouds -13 1010 85 10000 2.57 30 17:45 19.01.2021
3552 Clouds -13 1010 85 10000 2.57 30 17:25 19.01.2021
3553 Clouds -13 1009 85 10000 3.09 40 16:48 19.01.2021
3554 Clouds -13 1009 85 10000 3.09 40 16:26 19.01.2021
3555 Snow -13 1009 85 10000 2.57 40 15:57 19.01.2021
3556 Snow -13 1009 85 10000 4.12 40 15:37 19.01.2021
3557 Snow -13 1009 85 3200 2.57 40 14:57 19.01.2021
3558 Snow -13 1009 85 10000 3.6 30 14:37 19.01.2021
3559 Fog -13 1009 92 700 2.57 30 14:18 19.01.2021
3560 Clouds -12 1008 85 6000 1.54 40 13:39 19.01.2021
3561 Snow -12 1008 92 1800 4.12 40 13:20 19.01.2021
3562 Fog -12 1008 92 600 2.06 40 12:38 19.01.2021
3563 Mist -12 1008 92 3000 2.06 30 12:19 19.01.2021
3564 Fog -12 1008 92 1000 1.03 0 11:43 19.01.2021
3565 Fog -12 1008 92 1000 1.03 0 11:22 19.01.2021
3566 Snow -12 1008 92 1500 1.54 340 10:50 19.01.2021
3567 Clear -13 1010 94 10000 1.05 37 10:30 19.01.2021
3568 Clouds -12 1008 92 7000 1.54 310 09:52 19.01.2021
3569 Fog -11 1007 92 700 1.03 0 09:21 19.01.2021
3570 Mist -11 1007 85 1500 1.54 320 08:48 19.01.2021
3571 Mist -11 1007 92 2500 1.54 340 07:58 19.01.2021
3572 Mist -11 1009 100 2000 1.54 340 07:22 19.01.2021
3573 Clouds -10 1006 92 2400 3.09 260 04:55 19.01.2021
3574 Clouds -10 1006 92 10000 2.06 260 02:24 19.01.2021
3575 Clouds -10 1006 92 10000 2.57 250 00:47 19.01.2021
3576 Clouds -10 1006 92 10000 2.57 250 23:57 18.01.2021
3577 Clouds -10 1006 92 10000 2.57 260 23:29 18.01.2021
3578 Clouds -10 1006 92 9000 2.57 250 22:46 18.01.2021
3579 Clouds -10 1006 92 9000 2.57 250 22:24 18.01.2021
3580 Clouds -9 1006 86 10000 4.63 230 21:48 18.01.2021
3581 Clouds -9 1006 86 10000 4.63 230 21:24 18.01.2021
3582 Clouds -9 1005 92 10000 5.14 230 20:57 18.01.2021
3583 Clouds -9 1005 92 10000 5.66 220 20:35 18.01.2021
3584 Clouds -8 1005 93 10000 4.63 210 19:54 18.01.2021
3585 Clouds -7 1005 93 10000 3.09 180 19:36 18.01.2021
3586 Clouds -7 1005 93 10000 2.57 190 18:57 18.01.2021
3587 Clouds -7 1005 93 10000 2.06 180 18:38 18.01.2021
3588 Snow -7 1005 93 10000 1.03 190 18:19 18.01.2021
3589 Snow -7 1005 93 10000 0.51 0 17:39 18.01.2021
3590 Clouds -7 1005 93 10000 1.54 200 16:55 18.01.2021
3591 Snow -7 1005 93 5000 1.03 220 16:35 18.01.2021
3592 Fog -7 1006 93 2100 1.03 220 15:58 18.01.2021
3593 Fog -7 1006 93 1000 1.03 210 15:40 18.01.2021
3594 Fog -7 1006 93 900 0.51 220 15:19 18.01.2021
3595 Fog -7 1006 93 1100 1.54 220 14:42 18.01.2021
3596 Fog -7 1006 93 1100 1.54 220 14:24 18.01.2021
3597 Clouds -7 1006 93 1500 1.03 0 13:45 18.01.2021
3598 Clouds -7 1006 93 1500 1.03 0 13:25 18.01.2021
3599 Clouds -9 1006 92 10000 1.54 130 12:49 18.01.2021
3600 Clouds -9 1006 92 10000 1.54 80 12:19 18.01.2021
3601 Clouds -9 1007 92 8000 1.54 80 11:48 18.01.2021
3602 Clouds -9 1007 92 8000 1.54 80 11:27 18.01.2021
3603 Fog -9 1007 92 10000 0.51 180 10:53 18.01.2021
3604 Fog -9 1007 100 10000 0.51 180 10:34 18.01.2021
3605 Mist -10 1007 92 1500 2.06 220 09:43 18.01.2021
3606 Fog -11 1007 92 3000 1.54 160 09:19 18.01.2021
3607 Clouds -11 1007 92 7000 2.06 210 08:43 18.01.2021
3608 Clouds -11 1007 92 10000 2.06 220 07:55 18.01.2021
3609 Clouds -12 1007 92 10000 2.06 240 06:44 18.01.2021
3610 Clouds -13 1007 85 10000 2.06 230 04:54 18.01.2021
3611 Clouds -13 1007 85 10000 3.09 240 04:29 18.01.2021
3612 Clouds -13 1007 92 2200 3.09 230 03:53 18.01.2021
3613 Clouds -13 1008 92 1700 2.06 230 03:30 18.01.2021
3614 Fog -13 1008 92 1100 2.57 210 02:59 18.01.2021
3615 Clouds -12 1008 85 700 3.09 220 02:20 18.01.2021
3616 Clouds -12 1008 92 1000 4.12 220 00:42 18.01.2021
3617 Clouds -12 1008 92 2200 3.09 230 00:20 18.01.2021
3618 Fog -11 1008 85 1300 2.57 230 23:44 17.01.2021
3619 Fog -12 1008 92 1300 2.57 240 23:19 17.01.2021
3620 Fog -12 1009 92 2200 3.09 240 22:25 17.01.2021
3621 Clouds -12 1009 92 10000 3.09 220 21:57 17.01.2021
3622 Clouds -12 1009 92 10000 3.09 240 21:37 17.01.2021
3623 Clouds -11 1009 85 10000 3.09 230 21:19 17.01.2021
3624 Clouds -11 1009 92 10000 2.57 240 20:41 17.01.2021
3625 Clouds -11 1009 92 10000 3.09 240 20:19 17.01.2021
3626 Clouds -11 1009 92 3800 2.06 230 19:41 17.01.2021
3627 Clouds -10 1009 92 10000 3.09 220 18:59 17.01.2021
3628 Clouds -10 1009 92 10000 2.06 220 18:31 17.01.2021
3629 Clouds -9 1009 92 10000 1.03 230 17:56 17.01.2021
3630 Clouds -9 1009 92 10000 1.03 230 17:37 17.01.2021
3631 Clouds -10 1009 92 10000 1.54 250 17:19 17.01.2021
3632 Snow -10 1009 92 10000 2.57 230 16:42 17.01.2021
3633 Mist -10 1009 92 3900 2.57 230 16:19 17.01.2021
3634 Clear -9 1009 92 10000 2.06 250 15:38 17.01.2021
3635 Clear -8 1009 93 10000 2.06 250 15:20 17.01.2021
3636 Clear -8 1009 93 10000 1.54 250 14:44 17.01.2021
3637 Clear -8 1009 93 10000 1.54 250 14:25 17.01.2021
3638 Snow -8 1009 93 10000 1.03 240 13:44 17.01.2021
3639 Snow -8 1009 93 10000 1.03 240 13:26 17.01.2021
3640 Clouds -7 1009 93 10000 1.54 240 12:47 17.01.2021
3641 Clouds -7 1009 93 10000 1.54 240 12:28 17.01.2021
3642 Snow -7 1013 93 10000 2.57 270 11:26 17.01.2021
3643 Snow -7 1010 93 10000 2.57 260 10:57 17.01.2021
3644 Snow -7 1010 93 3100 2.57 260 10:39 17.01.2021
3645 Snow -7 1010 93 2600 2.06 270 10:18 17.01.2021
3646 Clouds -9 1010 100 10000 2.06 260 09:18 17.01.2021
3647 Clouds -8 1010 93 10000 1.54 250 08:42 17.01.2021
3648 Clouds -8 1010 93 10000 1.54 250 08:42 17.01.2021
3649 Clouds -8 1010 93 10000 2.57 250 04:45 17.01.2021
3650 Clouds -8 1010 93 10000 2.57 250 04:27 17.01.2021
3651 Clouds -8 1012 93 10000 2.57 260 01:38 17.01.2021
3652 Clouds -7 1012 93 10000 2.06 250 00:37 17.01.2021
3653 Clear -8 1013 93 10000 3.09 270 00:18 17.01.2021
3654 Clear -7 1013 93 10000 2.57 290 23:46 16.01.2021
3655 Clear -8 1013 100 10000 2.06 290 23:18 16.01.2021
3656 Clear -7 1013 93 10000 1.54 280 22:27 16.01.2021
3657 Clear -6 1013 86 10000 2.06 270 21:58 16.01.2021
3658 Clear -7 1013 100 10000 1.54 270 21:24 16.01.2021
3659 Clear -7 1014 93 10000 2.06 300 20:53 16.01.2021
3660 Clear -7 1014 93 10000 2.06 260 20:29 16.01.2021
3661 Clear -7 1014 93 10000 2.57 290 19:50 16.01.2021
3662 Clear -7 1014 93 10000 2.57 290 19:31 16.01.2021
3663 Clear -7 1014 100 10000 1.54 250 18:47 16.01.2021
3664 Clear -7 1014 100 10000 1.54 250 18:28 16.01.2021
3665 Clear -6 1014 93 10000 2.06 250 17:59 16.01.2021
3666 Clear -6 1015 93 10000 1.03 0 17:39 16.01.2021
3667 Clear -6 1015 93 10000 1.03 0 17:21 16.01.2021
3668 Clear -6 1015 93 10000 2.57 280 16:42 16.01.2021
3669 Clear -6 1015 93 10000 2.57 280 16:19 16.01.2021
3670 Clear -5 1015 93 10000 3.09 280 15:42 16.01.2021
3671 Clear -5 1016 93 10000 4.12 320 14:39 16.01.2021
3672 Snow -4 1016 86 10000 4.63 330 13:54 16.01.2021
3673 Snow -4 1016 86 10000 4.63 330 13:54 16.01.2021
3674 Clear -4 1016 93 10000 3.6 320 13:33 16.01.2021
3675 Clear -4 1016 93 10000 4.63 330 12:49 16.01.2021
3676 Clear -4 1016 93 10000 4.63 330 12:31 16.01.2021
3677 Snow -4 1016 93 10000 3.6 320 11:59 16.01.2021
3678 Snow -4 1016 93 10000 4.12 320 11:40 16.01.2021
3679 Clouds -4 1016 93 10000 4.63 330 11:19 16.01.2021
3680 Clouds -4 1016 93 10000 4.63 330 10:42 16.01.2021
3681 Snow -4 1017 93 10000 4.12 320 09:57 16.01.2021
3682 Clouds -4 1017 93 10000 4.12 330 09:21 16.01.2021
3683 Clouds -4 1017 93 10000 4.12 330 08:20 16.01.2021
3684 Clouds -3 1016 93 10000 4.63 340 06:54 16.01.2021
3685 Clouds -3 1016 93 10000 4.63 330 05:35 16.01.2021
3686 Clouds -3 1016 100 10000 4.12 330 03:44 16.01.2021
3687 Clouds -3 1016 100 10000 4.12 330 02:47 16.01.2021
3688 Clouds -4 1016 100 10000 3.09 320 00:47 16.01.2021
3689 Clouds -4 1016 100 10000 3.09 320 00:23 16.01.2021
3690 Clouds -5 1016 100 10000 3.6 330 23:39 15.01.2021
3691 Snow -5 1016 100 10000 4.12 330 22:41 15.01.2021
3692 Snow -4 1016 93 10000 4.12 330 22:21 15.01.2021
3693 Snow -5 1016 93 2500 5.14 330 21:43 15.01.2021
3694 Clouds -6 1015 93 10000 5.14 320 20:49 15.01.2021
3695 Clouds -6 1015 93 10000 5.14 320 20:24 15.01.2021
3696 Clouds -7 1015 93 10000 4.63 320 19:58 15.01.2021
3697 Snow -8 1015 93 10000 5.14 330 19:39 15.01.2021
3698 Clouds -9 1015 92 10000 4.63 320 19:21 15.01.2021
3699 Clouds -9 1015 92 10000 4.63 330 18:42 15.01.2021
3700 Clouds -11 1015 92 10000 4.63 330 18:18 15.01.2021
3701 Clouds -14 1015 92 10000 4.12 320 17:41 15.01.2021
3702 Clouds -15 1015 92 10000 2.57 310 17:21 15.01.2021
3703 Clouds -14 1015 85 10000 2.06 330 16:46 15.01.2021
3704 Clouds -14 1015 85 10000 2.06 330 16:24 15.01.2021
3705 Clouds -16 1015 85 10000 1.03 0 15:41 15.01.2021
3706 Snow -16 1015 85 10000 1.03 260 15:21 15.01.2021
3707 Snow -17 1015 85 10000 1.54 280 14:44 15.01.2021
3708 Snow -17 1015 85 10000 1.54 280 14:25 15.01.2021
3709 Clouds -17 1016 85 10000 0.51 0 13:42 15.01.2021
3710 Clouds -17 1016 85 10000 0.51 0 13:22 15.01.2021
3711 Snow -18 1016 85 10000 1.03 0 12:51 15.01.2021
3712 Snow -18 1016 85 10000 1.03 0 12:31 15.01.2021
3713 Clouds -18 1016 85 10000 1.03 0 11:46 15.01.2021
3714 Clouds -18 1016 85 10000 1.03 0 11:27 15.01.2021
3715 Snow -19 1016 84 10000 1.03 0 10:54 15.01.2021
3716 Snow -19 1017 84 10000 1.03 220 10:34 15.01.2021
3717 Snow -19 1017 84 10000 1.03 0 09:54 15.01.2021
3718 Snow -19 1017 84 4000 1.03 0 09:34 15.01.2021
3719 Snow -21 1017 84 10000 1.03 0 08:42 15.01.2021
3720 Clouds -21 1017 84 10000 1.54 250 08:19 15.01.2021
3721 Clouds -21 1017 84 10000 1.54 250 07:41 15.01.2021
3722 Clouds -22 1017 84 10000 1.54 250 07:19 15.01.2021
3723 Snow -23 1018 84 10000 1.54 260 04:33 15.01.2021
3724 Snow -25 1019 84 10000 2.57 230 01:39 15.01.2021
3725 Snow -25 1020 77 10000 2.06 240 23:50 14.01.2021
3726 Snow -25 1020 77 10000 2.57 220 23:21 14.01.2021
3727 Snow -26 1020 84 10000 2.57 220 22:42 14.01.2021
3728 Snow -26 1020 84 10000 2.57 220 22:24 14.01.2021
3729 Clouds -26 1021 76 10000 2.57 230 21:44 14.01.2021
3730 Clouds -26 1021 84 10000 2.06 240 21:21 14.01.2021
3731 Clouds -26 1021 84 10000 2.57 250 20:49 14.01.2021
3732 Clouds -26 1021 84 10000 2.57 250 20:25 14.01.2021
3733 Snow -26 1021 76 10000 2.57 230 19:44 14.01.2021
3734 Snow -26 1021 76 10000 2.57 230 19:26 14.01.2021
3735 Snow -26 1022 76 10000 1.54 240 18:55 14.01.2021
3736 Snow -26 1022 76 10000 2.06 220 18:27 14.01.2021
3737 Clouds -25 1022 77 10000 2.06 240 17:46 14.01.2021
3738 Clouds -25 1022 77 10000 2.06 240 17:27 14.01.2021
3739 Clouds -25 1023 77 10000 1.54 230 16:43 14.01.2021
3740 Clouds -25 1023 77 10000 1.54 260 16:18 14.01.2021
3741 Clouds -28 1023 76 10000 1.03 0 15:45 14.01.2021
3742 Clouds -27 1023 83 10000 2.57 200 14:59 14.01.2021
3743 Clear -27 1023 83 10000 2.06 220 14:38 14.01.2021
3744 Clear -26 1024 76 10000 1.54 220 14:19 14.01.2021
3745 Clear -26 1024 76 10000 1.54 220 13:53 14.01.2021
3746 Clear -25 1024 84 10000 1.54 240 13:21 14.01.2021
3747 Clear -25 1024 77 10000 1.03 210 12:48 14.01.2021
3748 Clear -25 1024 84 10000 1.54 200 12:20 14.01.2021
3749 Clear -28 1025 76 10000 1.03 210 11:43 14.01.2021
3750 Clear -28 1025 76 10000 0.51 0 11:21 14.01.2021
3751 Clear -27 1025 76 10000 0.51 0 10:52 14.01.2021
3752 Clear -27 1025 76 10000 0.51 0 10:27 14.01.2021
3753 Clear -27 1025 83 10000 1.03 90 09:48 14.01.2021
3754 Clear -27 1025 83 10000 1.03 90 09:23 14.01.2021
3755 Clear -26 1025 76 10000 1.54 130 08:49 14.01.2021
3756 Clear -26 1025 76 10000 1.54 130 08:27 14.01.2021
3757 Clear -26 1025 76 10000 2.06 90 07:49 14.01.2021
3758 Clear -26 1025 76 10000 2.06 80 06:53 14.01.2021
3759 Clear -27 1025 83 10000 2.57 80 05:50 14.01.2021
3760 Clear -27 1027 76 10000 2.57 60 01:42 14.01.2021
3761 Clear -25 1027 77 10000 3.09 70 23:55 13.01.2021
3762 Clear -25 1027 77 10000 3.09 60 23:23 13.01.2021
3763 Clear -25 1027 84 10000 3.09 80 22:29 13.01.2021
3764 Clear -25 1027 77 10000 3.09 70 21:57 13.01.2021
3765 Clear -25 1027 77 10000 3.6 70 21:39 13.01.2021
3766 Clear -25 1027 84 10000 3.6 70 20:59 13.01.2021
3767 Clear -24 1027 77 10000 4.12 60 20:37 13.01.2021
3768 Clear -24 1027 84 10000 4.63 60 20:18 13.01.2021
3769 Clear -24 1027 84 10000 4.12 70 19:42 13.01.2021
3770 Clear -24 1027 77 10000 4.12 70 19:20 13.01.2021
3771 Clear -24 1027 77 10000 3.6 80 18:41 13.01.2021
3772 Clear -24 1027 77 10000 5.14 80 17:51 13.01.2021
3773 Clear -24 1027 77 10000 5.14 80 17:26 13.01.2021
3774 Clear -24 1028 77 10000 5.66 80 16:58 13.01.2021
3775 Clear -23 1028 77 10000 5.66 80 16:22 13.01.2021
3776 Clear -23 1028 77 10000 5.66 80 16:22 13.01.2021
3777 Clear -23 1027 77 10000 5.66 70 15:59 13.01.2021
3778 Clear -23 1027 77 10000 5.66 70 15:39 13.01.2021
3779 Clear -23 1027 77 10000 5.14 70 14:49 13.01.2021
3780 Clear -23 1027 77 10000 4.12 70 13:58 13.01.2021
3781 Clear -23 1027 77 10000 4.12 70 13:32 13.01.2021
3782 Clear -23 1027 77 10000 5.14 70 12:59 13.01.2021
3783 Clear -23 1027 77 10000 4.63 70 12:39 13.01.2021
3784 Clear -23 1027 77 10000 5.14 70 12:19 13.01.2021
3785 Clear -23 1027 77 10000 4.63 70 11:45 13.01.2021
3786 Clear -23 1027 77 10000 4.63 70 11:22 13.01.2021
3787 Clear -24 1027 84 10000 4.63 70 10:42 13.01.2021
3788 Clear -24 1027 84 10000 4.63 70 10:24 13.01.2021
3789 Clear -23 1027 84 10000 4.63 90 09:37 13.01.2021
3790 Clear -23 1027 77 10000 5.14 80 08:57 13.01.2021
3791 Clear -23 1026 77 10000 5.14 70 08:33 13.01.2021
3792 Clear -24 1026 84 10000 5.14 70 07:51 13.01.2021
3793 Clear -24 1025 84 10000 4.63 70 07:24 13.01.2021
3794 Clear -24 1024 84 10000 6.17 80 04:21 13.01.2021
3795 Clear -23 1023 77 10000 6.69 90 03:49 13.01.2021
3796 Clear -23 1023 77 10000 6.69 90 03:30 13.01.2021
3797 Clear -23 1023 77 10000 7.72 80 02:19 13.01.2021
3798 Clear -23 1022 84 10000 6.17 80 00:29 13.01.2021
3799 Clear -23 1022 84 10000 6.69 80 23:29 12.01.2021
3800 Clear -22 1021 77 10000 7.2 80 22:47 12.01.2021
3801 Clear -22 1021 77 10000 7.2 80 22:25 12.01.2021
3802 Clear -22 1021 77 10000 7.2 70 21:53 12.01.2021
3803 Clear -22 1020 77 10000 7.2 70 21:34 12.01.2021
3804 Clear -22 1020 84 10000 7.2 70 20:53 12.01.2021
3805 Clear -22 1020 84 10000 7.2 70 20:29 12.01.2021
3806 Clear -22 1019 84 10000 7.2 70 19:56 12.01.2021
3807 Clear -21 1019 77 10000 6.69 70 19:37 12.01.2021
3808 Clear -21 1018 84 10000 7.72 70 18:49 12.01.2021
3809 Clear -21 1018 84 10000 7.72 70 18:24 12.01.2021
3810 Clear -21 1018 84 10000 7.72 70 17:48 12.01.2021
3811 Clear -21 1018 84 10000 7.72 70 17:30 12.01.2021
3812 Clear -21 1018 84 10000 8.23 70 16:44 12.01.2021
3813 Clear -21 1018 84 10000 8.23 70 16:24 12.01.2021
3814 Clear -21 1018 84 10000 8.23 70 15:45 12.01.2021
3815 Clear -21 1018 84 10000 8.23 70 15:21 12.01.2021
3816 Clear -20 1017 77 10000 8.23 70 14:44 12.01.2021
3817 Clear -20 1020 77 10000 8.23 70 14:25 12.01.2021
3818 Clear -20 1017 84 10000 8.23 70 13:52 12.01.2021
3819 Clear -19 1017 84 10000 6.69 70 13:18 12.01.2021
3820 Clear -19 1017 84 10000 7.2 70 12:24 12.01.2021
3821 Clear -18 1016 85 10000 7.72 80 11:41 12.01.2021
3822 Clear -18 1016 85 10000 8.23 80 10:55 12.01.2021
3823 Clear -17 1016 85 10000 8.23 80 10:25 12.01.2021
3824 Clouds -17 1016 85 10000 7.72 80 09:58 12.01.2021
3825 Clear -17 1016 85 10000 8.75 80 09:38 12.01.2021
3826 Clear -16 1016 85 10000 9.26 80 09:18 12.01.2021
3827 Clear -16 1016 92 10000 7.72 80 08:26 12.01.2021
3828 Clouds -15 1015 92 10000 7.2 90 07:37 12.01.2021
3829 Snow -15 1015 85 10000 6.17 80 06:50 12.01.2021
3830 Clouds -14 1015 85 10000 7.2 80 05:34 12.01.2021
3831 Snow -13 1015 92 10000 7.72 100 03:28 12.01.2021
3832 Snow -13 1015 92 10000 7.72 100 03:28 12.01.2021
3833 Snow -13 1015 92 10000 6.17 100 02:21 12.01.2021
3834 Snow -13 1015 92 10000 6.17 90 01:31 12.01.2021
3835 Snow -13 1015 85 10000 6.17 90 23:58 11.01.2021
3836 Snow -13 1015 85 10000 6.17 90 23:37 11.01.2021
3837 Snow -13 1015 92 10000 6.17 90 23:18 11.01.2021
3838 Snow -13 1015 92 7000 6.69 90 22:45 11.01.2021
3839 Snow -13 1015 92 7000 6.69 90 22:26 11.01.2021
3840 Snow -12 1015 85 9000 6.17 100 21:43 11.01.2021
3841 Snow -12 1015 85 9000 6.17 100 21:25 11.01.2021
3842 Snow -12 1014 85 10000 5.66 100 20:49 11.01.2021
3843 Snow -12 1014 85 10000 5.66 100 20:29 11.01.2021
3844 Snow -12 1014 85 10000 5.14 100 19:57 11.01.2021
3845 Snow -12 1014 85 5000 6.17 110 19:35 11.01.2021
3846 Snow -12 1014 92 5000 6.17 100 18:46 11.01.2021
3847 Snow -12 1014 92 5000 6.17 100 18:28 11.01.2021
3848 Snow -12 1013 92 5000 6.17 100 17:57 11.01.2021
3849 Snow -12 1013 85 2900 5.66 100 17:38 11.01.2021
3850 Snow -12 1013 85 6000 5.66 100 17:20 11.01.2021
3851 Snow -12 1013 85 10000 5.14 110 16:41 11.01.2021
3852 Snow -12 1013 85 10000 5.14 110 16:22 11.01.2021
3853 Snow -13 1013 92 6000 4.63 100 15:49 11.01.2021
3854 Snow -13 1013 92 6000 4.63 100 15:29 11.01.2021
3855 Snow -13 1013 85 6000 6.17 100 14:40 11.01.2021
3856 Snow -13 1013 85 2000 6.17 100 14:19 11.01.2021
3857 Snow -13 1013 85 6000 6.17 100 13:43 11.01.2021
3858 Snow -13 1013 85 10000 7.2 90 13:19 11.01.2021
3859 Snow -13 1013 92 10000 7.2 90 12:36 11.01.2021
3860 Snow -13 1013 92 10000 5.66 90 11:58 11.01.2021
3861 Snow -12 1014 85 10000 5.14 90 11:36 11.01.2021
3862 Snow -12 1016 92 10000 7.2 100 10:53 11.01.2021
3863 Clouds -12 1013 92 10000 6.17 90 10:27 11.01.2021
3864 Clouds -11 1014 85 10000 5.66 100 09:45 11.01.2021
3865 Snow -11 1016 100 10000 5.66 100 09:23 11.01.2021
3866 Snow -11 1013 92 10000 6.69 110 08:46 11.01.2021
3867 Snow -11 1013 92 10000 6.69 110 08:19 11.01.2021
3868 Snow -11 1013 92 10000 6.17 110 07:30 11.01.2021
3869 Snow -11 1013 92 10000 7.2 110 06:59 11.01.2021
3870 Snow -11 1013 92 10000 6.17 100 06:26 11.01.2021
3871 Snow -13 1012 92 10000 6.17 110 01:46 11.01.2021
3872 Snow -13 1013 85 4900 6.17 110 00:38 11.01.2021
3873 Snow -14 1013 92 10000 5.14 100 23:43 10.01.2021
3874 Snow -14 1013 85 10000 5.14 90 22:49 10.01.2021
3875 Snow -14 1013 85 10000 5.14 90 22:27 10.01.2021
3876 Snow -15 1013 85 10000 5.14 90 21:46 10.01.2021
3877 Snow -15 1013 85 10000 5.14 90 21:22 10.01.2021
3878 Snow -16 1013 85 10000 5.66 80 20:57 10.01.2021
3879 Snow -16 1013 85 10000 6.69 90 20:33 10.01.2021
3880 Clear -15 1013 85 10000 4.63 90 20:00 10.01.2021
3881 Clouds -15 1013 85 10000 5.66 110 19:38 10.01.2021
3882 Snow -15 1014 85 10000 5.66 110 19:20 10.01.2021
3883 Snow -15 1013 85 10000 6.17 110 18:42 10.01.2021
3884 Snow -15 1013 85 10000 7.2 110 18:19 10.01.2021
3885 Snow -16 1013 92 10000 6.17 100 17:22 10.01.2021
3886 Snow -16 1014 85 10000 4.63 90 16:43 10.01.2021
3887 Snow -16 1014 85 10000 4.63 90 16:25 10.01.2021
3888 Snow -17 1014 85 10000 4.63 90 15:26 10.01.2021
3889 Clear -17 1014 85 10000 5.66 90 14:52 10.01.2021
3890 Snow -17 1014 85 10000 5.66 90 14:34 10.01.2021
3891 Snow -17 1014 85 10000 5.66 100 13:55 10.01.2021
3892 Clouds -17 1014 85 10000 6.17 120 13:37 10.01.2021
3893 Clouds -17 1014 85 10000 6.17 120 13:37 10.01.2021
3894 Snow -17 1015 92 7000 5.66 120 13:18 10.01.2021
3895 Snow -16 1015 85 7000 5.66 130 12:50 10.01.2021
3896 Snow -16 1015 85 7000 5.66 130 12:31 10.01.2021
3897 Snow -16 1015 85 10000 3.09 0 11:40 10.01.2021
3898 Snow -15 1015 85 10000 3.6 0 11:19 10.01.2021
3899 Snow -15 1015 85 10000 3.6 0 11:19 10.01.2021
3900 Snow -15 1015 92 10000 2.57 0 10:38 10.01.2021
3901 Snow -14 1015 85 10000 2.57 0 10:20 10.01.2021
3902 Snow -14 1015 85 10000 2.06 0 09:27 10.01.2021
3903 Clouds -14 1015 85 10000 1.54 0 08:22 10.01.2021
3904 Snow -14 1015 85 10000 2.06 0 07:31 10.01.2021
3905 Clear -14 1015 92 10000 2.57 0 06:20 10.01.2021
3906 Clear -14 1015 92 10000 2.57 0 05:37 10.01.2021
3907 Snow -13 1016 85 10000 2.57 0 03:26 10.01.2021
3908 Snow -13 1017 85 6000 2.06 0 01:28 10.01.2021
3909 Snow -13 1018 92 10000 2.06 0 23:51 09.01.2021
3910 Snow -13 1018 92 10000 2.06 0 23:33 09.01.2021
3911 Snow -13 1019 92 10000 2.06 0 22:48 09.01.2021
3912 Snow -12 1019 85 10000 1.54 0 22:19 09.01.2021
3913 Snow -12 1019 85 10000 1.54 0 21:57 09.01.2021
3914 Snow -12 1019 85 10000 1.54 0 21:39 09.01.2021
3915 Snow -12 1019 85 10000 2.06 0 21:19 09.01.2021
3916 Clouds -12 1019 85 10000 1.54 0 20:44 09.01.2021
3917 Clear -12 1019 85 10000 1.54 0 19:45 09.01.2021
3918 Clear -12 1019 85 10000 1.54 0 19:23 09.01.2021
3919 Snow -12 1020 92 10000 2.06 0 18:56 09.01.2021
3920 Snow -12 1020 92 10000 2.06 0 18:34 09.01.2021
3921 Snow -12 1020 92 10000 2.06 0 17:50 09.01.2021
3922 Snow -12 1020 92 10000 2.06 0 17:31 09.01.2021
3923 Snow -12 1020 92 10000 3.09 100 16:36 09.01.2021
3924 Snow -12 1020 92 10000 2.06 0 15:53 09.01.2021
3925 Clouds -12 1021 85 10000 1.54 0 15:33 09.01.2021
3926 Clear -13 1021 92 10000 3.09 110 14:42 09.01.2021
3927 Clear -12 1021 85 10000 2.57 100 14:21 09.01.2021
3928 Snow -12 1021 92 10000 2.57 100 13:50 09.01.2021
3929 Snow -12 1021 92 10000 2.57 100 13:31 09.01.2021
3930 Clear -11 1022 92 10000 1.54 0 12:50 09.01.2021
3931 Clear -11 1022 92 10000 1.54 0 12:25 09.01.2021
3932 Clear -11 1022 92 10000 1.03 0 11:56 09.01.2021
3933 Mist -11 1022 92 4400 1.54 0 11:33 09.01.2021
3934 Mist -11 1022 92 4400 1.54 0 11:33 09.01.2021
3935 Snow -11 1022 85 10000 2.06 100 10:55 09.01.2021
3936 Snow -11 1022 92 10000 1.54 90 10:36 09.01.2021
3937 Snow -11 1022 92 10000 1.03 0 09:53 09.01.2021
3938 Snow -11 1022 92 10000 1.54 90 09:29 09.01.2021
3939 Clear -11 1022 92 10000 2.06 100 08:47 09.01.2021
3940 Snow -11 1024 92 10000 3.09 90 06:58 09.01.2021
3941 Clouds -10 1022 85 10000 2.57 90 06:40 09.01.2021
3942 Clouds -10 1022 85 10000 2.57 90 04:50 09.01.2021
3943 Snow -10 1022 85 10000 2.57 80 03:22 09.01.2021
3944 Snow -10 1023 92 10000 2.57 100 02:31 09.01.2021
3945 Clouds -10 1023 92 10000 2.57 100 01:46 09.01.2021
3946 Snow -10 1023 92 10000 2.57 110 00:36 09.01.2021
3947 Clouds -10 1023 92 10000 2.57 100 23:57 08.01.2021
3948 Snow -10 1023 85 10000 2.06 110 22:58 08.01.2021
3949 Snow -10 1023 92 10000 3.09 100 22:18 08.01.2021
3950 Snow -10 1023 92 10000 2.57 0 21:37 08.01.2021
3951 Snow -10 1022 92 10000 2.06 0 20:46 08.01.2021
3952 Snow -10 1022 92 10000 2.06 0 20:25 08.01.2021
3953 Clouds -10 1022 92 10000 1.54 0 19:44 08.01.2021
3954 Clouds -10 1022 92 10000 1.54 0 19:22 08.01.2021
3955 Snow -9 1022 86 10000 2.57 0 18:35 08.01.2021
3956 Snow -9 1022 86 10000 2.06 0 17:56 08.01.2021
3957 Snow -9 1022 86 10000 2.57 0 17:35 08.01.2021
3958 Snow -9 1022 86 10000 2.57 0 16:56 08.01.2021
3959 Snow -9 1022 86 10000 2.57 0 16:26 08.01.2021
3960 Snow -9 1022 86 10000 2.57 0 16:26 08.01.2021
3961 Snow -9 1022 92 10000 2.06 0 15:40 08.01.2021
3962 Snow -9 1022 92 10000 2.57 100 14:45 08.01.2021
3963 Snow -9 1022 92 10000 2.57 100 14:26 08.01.2021
3964 Snow -9 1022 92 10000 2.06 0 13:23 08.01.2021
3965 Snow -8 1022 86 10000 1.54 110 12:57 08.01.2021
3966 Snow -8 1022 86 9000 1.03 160 12:39 08.01.2021
3967 Snow -8 1022 86 9000 1.03 150 12:19 08.01.2021
3968 Snow -8 1022 86 10000 1.54 160 11:41 08.01.2021
3969 Snow -9 1022 92 10000 1.54 160 11:20 08.01.2021
3970 Snow -9 1022 92 10000 1.54 150 10:46 08.01.2021
3971 Snow -9 1022 92 10000 1.54 150 10:23 08.01.2021
3972 Snow -9 1021 92 10000 2.06 0 09:41 08.01.2021
3973 Snow -9 1021 92 10000 2.57 110 09:20 08.01.2021
3974 Snow -9 1020 92 4500 2.57 120 07:44 08.01.2021
3975 Snow -9 1020 92 4500 2.57 120 07:25 08.01.2021
3976 Snow -9 1020 92 10000 2.57 0 04:18 08.01.2021
3977 Snow -11 1021 92 10000 3.6 70 23:44 07.01.2021
3978 Snow -11 1021 92 10000 3.6 70 23:25 07.01.2021
3979 Snow -11 1021 85 10000 4.12 70 22:36 07.01.2021
3980 Snow -12 1022 92 8000 3.6 80 21:52 07.01.2021
3981 Snow -12 1022 92 8000 3.6 80 21:33 07.01.2021
3982 Snow -12 1022 92 10000 3.6 80 20:56 07.01.2021
3983 Snow -11 1022 85 10000 3.09 90 20:38 07.01.2021
3984 Snow -12 1022 92 10000 2.57 80 19:50 07.01.2021
3985 Snow -12 1022 92 10000 2.57 80 19:30 07.01.2021
3986 Snow -12 1022 85 10000 2.57 70 18:50 07.01.2021
3987 Snow -13 1022 92 10000 3.09 60 18:21 07.01.2021
3988 Snow -13 1022 85 8000 3.09 60 17:36 07.01.2021
3989 Snow -14 1022 92 10000 3.6 60 17:18 07.01.2021
3990 Snow -14 1022 85 6000 3.6 60 16:42 07.01.2021
3991 Snow -14 1022 85 10000 4.12 70 16:18 07.01.2021
3992 Snow -14 1022 92 10000 3.6 70 15:31 07.01.2021
3993 Snow -14 1022 92 10000 3.6 70 15:31 07.01.2021
3994 Snow -15 1023 85 10000 3.6 60 14:34 07.01.2021
3995 Snow -16 1023 92 10000 3.09 60 13:59 07.01.2021
3996 Clouds -16 1023 92 10000 3.09 60 13:31 07.01.2021
3997 Clouds -15 1024 85 10000 1.54 110 12:56 07.01.2021
3998 Clouds -16 1024 84 10000 3.6 70 12:24 07.01.2021
3999 Clouds -16 1024 84 10000 3.6 70 11:43 07.01.2021
4000 Clouds -16 1024 84 10000 3.6 70 11:25 07.01.2021
4001 Clear -15 1025 84 10000 3.1 80 10:38 07.01.2021
4002 Clear -16 1024 91 10000 2.1 70 10:19 07.01.2021
4003 Clear -16 1024 91 10000 2.1 70 09:41 07.01.2021
4004 Clear -14 1025 84 10000 2.6 70 08:51 07.01.2021
4005 Clouds -14 1025 84 10000 2.1 80 08:23 07.01.2021
4006 Snow -14 1025 84 10000 3.1 90 07:43 07.01.2021
4007 Snow -14 1025 84 10000 2.6 90 06:50 07.01.2021
4008 Snow -16 1026 91 10000 2.6 100 02:19 07.01.2021
4009 Clear -15 1027 92 10000 1.5 190 00:22 07.01.2021
4010 Snow -14 1027 84 10000 2.1 170 23:31 06.01.2021
4011 Snow -14 1027 84 3700 1.5 0 22:29 06.01.2021
4012 Snow -14 1028 92 2500 1.5 170 21:41 06.01.2021
4013 Snow -14 1028 92 2500 1.5 170 21:22 06.01.2021
4014 Snow -14 1028 84 10000 1.5 160 20:47 06.01.2021
4015 Snow -13 1028 92 6000 2.1 160 20:22 06.01.2021
4016 Snow -12 1028 85 6000 2.1 160 19:47 06.01.2021
4017 Snow -12 1028 85 6000 2.1 160 19:27 06.01.2021
4018 Snow -12 1028 85 10000 3.1 160 18:46 06.01.2021
4019 Snow -12 1028 92 10000 2.6 160 18:28 06.01.2021
4020 Snow -11 1028 85 10000 2.6 170 17:46 06.01.2021
4021 Snow -11 1028 85 10000 2.6 170 17:27 06.01.2021
4022 Snow -11 1028 92 10000 3.1 170 16:57 06.01.2021
4023 Snow -10 1028 85 10000 1.5 0 16:21 06.01.2021
4024 Snow -10 1028 92 10000 3.1 160 15:59 06.01.2021
4025 Snow -9 1028 85 7000 2.6 160 15:35 06.01.2021
4026 Snow -9 1028 92 3200 2.6 170 14:58 06.01.2021
4027 Snow -9 1028 92 2800 2.6 180 14:30 06.01.2021
4028 Snow -9 1028 92 1700 2.6 170 13:51 06.01.2021
4029 Snow -9 1028 92 1700 2.6 170 13:25 06.01.2021
4030 Snow -9 1028 92 3900 2.1 190 12:54 06.01.2021
4031 Snow -9 1028 92 3900 2.1 190 12:30 06.01.2021
4032 Snow -9 1028 92 3700 2.1 200 11:44 06.01.2021
4033 Snow -9 1028 92 3700 2.1 200 11:21 06.01.2021
4034 Snow -9 1028 92 2700 3.1 190 10:31 06.01.2021
4035 Clouds -9 1028 92 10000 2.6 180 09:52 06.01.2021
4036 Snow -9 1028 92 10000 2.6 180 09:22 06.01.2021
4037 Clouds -9 1028 85 10000 1.5 180 08:42 06.01.2021
4038 Clouds -10 1028 92 10000 1.5 160 08:18 06.01.2021
4039 Clouds -10 1028 92 10000 2.1 0 07:41 06.01.2021
4040 Snow -11 1028 92 1800 3.6 170 05:53 06.01.2021
4041 Snow -11 1029 92 6000 1 180 04:43 06.01.2021
4042 Snow -11 1029 92 1700 2.6 190 02:47 06.01.2021
4043 Snow -11 1029 92 1700 2.6 190 02:26 06.01.2021
4044 Snow -11 1029 92 3200 2.1 100 01:35 06.01.2021
4045 Snow -10 1029 85 1400 2.6 160 23:39 05.01.2021
4046 Snow -10 1030 92 2400 1 0 22:51 05.01.2021
4047 Snow -10 1030 92 2400 1 0 22:32 05.01.2021
4048 Snow -10 1030 92 1800 2.6 180 21:58 05.01.2021
4049 Snow -10 1030 92 10000 3.1 170 21:18 05.01.2021
4050 Snow -10 1030 92 10000 3.1 170 20:29 05.01.2021
4051 Snow -9 1030 92 2600 2.1 0 19:45 05.01.2021
4052 Snow -9 1030 92 2600 2.1 0 19:23 05.01.2021
4053 Snow -10 1030 92 2600 3.1 160 18:46 05.01.2021
4054 Snow -10 1030 92 2600 3.1 160 18:26 05.01.2021
4055 Snow -10 1030 92 2400 2.6 170 17:52 05.01.2021
4056 Snow -10 1030 92 2400 2.6 170 17:31 05.01.2021
4057 Snow -10 1030 92 10000 1.5 0 16:53 05.01.2021
4058 Snow -11 1030 92 2500 2.6 100 16:23 05.01.2021
4059 Snow -11 1030 92 2100 2.6 90 15:52 05.01.2021
4060 Snow -11 1030 85 6000 1.5 0 15:29 05.01.2021
4061 Snow -12 1030 92 3700 2.6 0 14:47 05.01.2021
4062 Clouds -12 1031 92 8000 1.5 120 13:55 05.01.2021
4063 Clouds -12 1031 92 8000 1.5 120 13:35 05.01.2021
4064 Mist -13 1031 92 2000 2.1 100 12:51 05.01.2021
4065 Mist -13 1031 92 2000 2.1 100 12:29 05.01.2021
4066 Mist -13 1031 92 1200 2.6 80 11:49 05.01.2021
4067 Mist -13 1031 84 1200 2.6 100 11:25 05.01.2021
4068 Mist -13 1031 84 1200 2.6 100 11:25 05.01.2021
4069 Mist -14 1032 92 1200 2.6 90 10:44 05.01.2021
4070 Mist -14 1032 84 1100 2.1 110 09:59 05.01.2021
4071 Mist -14 1034 84 1100 2.1 110 09:40 05.01.2021
4072 Fog -15 1031 84 500 2.6 100 08:45 05.01.2021
4073 Mist -15 1031 84 1100 1.5 110 08:18 05.01.2021
4074 Snow -17 1031 91 9000 2.1 100 05:29 05.01.2021
4075 Snow -17 1032 84 900 1 80 02:56 05.01.2021
4076 Fog -17 1032 84 2100 0.5 0 00:23 05.01.2021
4077 Mist -18 1032 84 3600 1 110 23:40 04.01.2021
4078 Fog -17 1032 84 3200 1.5 110 23:21 04.01.2021
4079 Fog -17 1032 84 1300 2.1 100 22:45 04.01.2021
4080 Fog -17 1031 84 1100 1.5 110 21:57 04.01.2021
4081 Fog -17 1031 91 1100 0.5 0 21:39 04.01.2021
4082 Mist -17 1031 84 2400 1.5 110 20:58 04.01.2021
4083 Mist -17 1031 84 2400 1.5 110 20:34 04.01.2021
4084 Fog -17 1031 84 1500 1.5 90 19:59 04.01.2021
4085 Fog -18 1031 91 2100 2.1 80 19:38 04.01.2021
4086 Fog -18 1031 84 1700 2.6 70 19:18 04.01.2021
4087 Fog -18 1031 84 1000 2.1 70 18:40 04.01.2021
4088 Fog -17 1031 84 800 2.6 90 17:47 04.01.2021
4089 Fog -17 1031 84 800 2.6 90 17:28 04.01.2021
4090 Fog -18 1031 84 1100 2.1 100 16:48 04.01.2021
4091 Fog -18 1031 84 1100 2.1 100 16:28 04.01.2021
4092 Mist -17 1031 84 2400 2.6 80 15:52 04.01.2021
4093 Mist -17 1031 84 2400 2.6 80 15:34 04.01.2021
4094 Snow -17 1031 84 600 2.1 90 14:52 04.01.2021
4095 Fog -18 1031 84 1000 1 60 13:55 04.01.2021
4096 Fog -18 1031 84 1000 1 60 13:35 04.01.2021
4097 Fog -17 1031 84 4000 1.5 70 12:50 04.01.2021
4098 Fog -16 1031 84 3000 2.1 70 12:25 04.01.2021
4099 Fog -16 1031 84 1100 1 0 11:32 04.01.2021
4100 Fog -17 1031 91 1000 0.5 0 10:56 04.01.2021
4101 Fog -18 1030 91 1000 0.5 210 10:37 04.01.2021
4102 Fog -18 1030 84 1300 0.5 0 10:18 04.01.2021
4103 Fog -18 1030 84 900 2.1 70 09:23 04.01.2021
4104 Fog -17 1030 84 5000 3.1 70 08:50 04.01.2021
4105 Fog -17 1030 84 10000 1.5 50 08:21 04.01.2021
4106 Fog -16 1030 91 10000 0.5 0 07:45 04.01.2021
4107 Clear -16 1029 84 10000 1 0 05:35 04.01.2021
4108 Clear -15 1029 92 10000 1 0 04:44 04.01.2021
4109 Clear -15 1029 92 10000 0.5 0 01:30 04.01.2021
4110 Clear -14 1028 92 10000 0.5 0 23:55 03.01.2021
4111 Clear -14 1028 92 10000 0.5 0 23:26 03.01.2021
4112 Clear -14 1028 84 10000 1.5 170 22:57 03.01.2021
4113 Snow -14 1028 84 10000 1 0 22:38 03.01.2021
4114 Snow -14 1028 84 10000 1.5 280 22:18 03.01.2021
4115 Snow -15 1027 84 10000 2.1 310 21:34 03.01.2021
4116 Snow -15 1027 92 10000 1 0 20:53 03.01.2021
4117 Snow -15 1027 92 9000 1 0 20:34 03.01.2021
4118 Snow -15 1027 92 2300 1 0 19:58 03.01.2021
4119 Snow -14 1027 84 1600 3.6 330 19:37 03.01.2021
4120 Snow -15 1027 92 2400 2.1 340 19:18 03.01.2021
4121 Snow -15 1027 92 8000 1.5 320 18:41 03.01.2021
4122 Snow -15 1027 92 8000 1.5 320 18:20 03.01.2021
4123 Snow -14 1026 84 2300 1 0 17:48 03.01.2021
4124 Snow -14 1026 84 2300 1 0 17:23 03.01.2021
4125 Clouds -12 1026 85 1500 3.1 10 16:44 03.01.2021
4126 Clouds -12 1026 92 10000 3.1 10 16:20 03.01.2021
4127 Clear -13 1026 92 10000 3.6 350 15:46 03.01.2021
4128 Clear -13 1026 92 10000 3.6 350 15:27 03.01.2021
4129 Clear -12 1026 92 10000 3.6 340 14:55 03.01.2021
4130 Clear -12 1026 92 10000 4.1 340 14:29 03.01.2021
4131 Clouds -12 1025 92 10000 3.6 350 13:41 03.01.2021
4132 Clear -11 1025 92 10000 3.6 350 13:23 03.01.2021
4133 Clear -11 1025 85 10000 3.1 350 12:32 03.01.2021
4134 Clear -11 1025 92 10000 3.6 350 11:42 03.01.2021
4135 Clear -12 1024 92 10000 3.1 350 11:24 03.01.2021
4136 Clouds -11 1024 92 10000 2.6 350 10:34 03.01.2021
4137 Clear -11 1024 85 10000 2.6 20 09:59 03.01.2021
4138 Clouds -11 1024 92 10000 3.1 350 09:34 03.01.2021
4139 Clouds -12 1023 92 10000 2.6 360 08:59 03.01.2021
4140 Clouds -11 1023 92 10000 1.5 350 07:33 03.01.2021
4141 Clouds -10 1022 92 10000 2.6 20 05:53 03.01.2021
4142 Clouds -9 1021 92 10000 2.6 20 02:27 03.01.2021
4143 Clouds -9 1021 92 10000 2.6 10 00:59 03.01.2021
4144 Snow -9 1021 92 10000 3.6 30 23:54 02.01.2021
4145 Clouds -9 1021 92 10000 3.1 10 23:26 02.01.2021
4146 Clouds -9 1020 92 10000 3.6 10 22:50 02.01.2021
4147 Clouds -9 1020 92 10000 3.6 10 22:31 02.01.2021
4148 Clouds -9 1020 92 10000 3.6 20 21:49 02.01.2021
4149 Clouds -9 1020 92 10000 3.6 20 21:30 02.01.2021
4150 Clouds -9 1019 92 10000 3.1 40 20:49 02.01.2021
4151 Clouds -9 1019 92 10000 3.1 40 20:27 02.01.2021
4152 Clouds -9 1019 100 10000 3.1 40 19:49 02.01.2021
4153 Clouds -8 1019 92 10000 2.6 40 19:20 02.01.2021
4154 Clouds -9 1019 92 10000 1.5 40 18:52 02.01.2021
4155 Clouds -9 1019 92 10000 1.5 40 18:33 02.01.2021
4156 Clouds -9 1019 92 10000 1.5 360 17:49 02.01.2021
4157 Clouds -9 1019 92 10000 1.5 360 17:30 02.01.2021
4158 Fog -9 1018 92 1700 1.5 30 16:46 02.01.2021
4159 Fog -9 1018 92 1700 1.5 30 16:22 02.01.2021
4160 Fog -9 1018 92 1300 1.5 20 15:48 02.01.2021
4161 Fog -9 1018 92 1300 1.5 20 15:28 02.01.2021
4162 Clouds -8 1017 92 10000 1 0 14:47 02.01.2021
4163 Clouds -8 1017 92 10000 1 0 14:24 02.01.2021
4164 Snow -8 1017 92 10000 2.1 260 13:44 02.01.2021
4165 Snow -8 1017 100 10000 1 0 12:55 02.01.2021
4166 Snow -8 1017 100 10000 1 0 12:32 02.01.2021
4167 Snow -7 1016 92 10000 1.5 260 11:59 02.01.2021
4168 Snow -7 1016 92 10000 1.5 260 11:26 02.01.2021
4169 Snow -7 1016 92 10000 1.5 240 10:59 02.01.2021
4170 Snow -7 1016 92 10000 2.1 240 10:35 02.01.2021
4171 Snow -7 1015 92 10000 2.1 210 09:59 02.01.2021
4172 Snow -7 1015 92 10000 2.1 210 09:39 02.01.2021
4173 Snow -7 1015 92 10000 1.5 200 09:19 02.01.2021
4174 Snow -7 1014 92 10000 1.5 220 08:41 02.01.2021
4175 Snow -7 1014 92 10000 1.5 230 08:19 02.01.2021
4176 Snow -7 1014 92 10000 1.5 220 07:24 02.01.2021
4177 Snow -7 1014 92 10000 2.1 190 06:57 02.01.2021
4178 Snow -7 1013 92 10000 3.1 160 05:54 02.01.2021
4179 Snow -8 1011 92 10000 3.1 140 01:37 02.01.2021
4180 Snow -7 1011 92 10000 2.1 110 00:38 02.01.2021
4181 Snow -6 1010 92 10000 1 0 23:58 01.01.2021
4182 Snow -6 1010 92 10000 2.1 150 23:23 01.01.2021
4183 Snow -6 1010 92 10000 2.1 150 22:52 01.01.2021
4184 Snow -6 1010 92 10000 1.5 90 22:27 01.01.2021
4185 Snow -7 1009 100 9000 1.5 70 21:59 01.01.2021
4186 Snow -7 1009 92 6000 2.1 40 21:41 01.01.2021
4187 Snow -6 1009 92 6000 2.6 20 21:19 01.01.2021
4188 Snow -6 1009 92 3900 2.6 360 20:44 01.01.2021
4189 Snow -6 1009 92 3900 2.6 350 20:18 01.01.2021
4190 Snow -6 1009 92 3400 2.6 350 19:41 01.01.2021
4191 Snow -6 1009 92 3400 2.6 350 19:21 01.01.2021
4192 Snow -6 1008 92 9000 3.1 10 18:45 01.01.2021
4193 Snow -6 1008 92 8000 3.6 10 18:23 01.01.2021
4194 Snow -6 1008 92 8000 3.6 10 17:46 01.01.2021
4195 Snow -6 1008 92 8000 3.6 10 17:23 01.01.2021
4196 Snow -6 1008 92 6000 3.6 10 16:48 01.01.2021
4197 Snow -6 1008 92 6000 3.6 10 16:25 01.01.2021
4198 Snow -6 1008 92 3600 4.6 10 15:40 01.01.2021
4199 Snow -6 1009 92 8000 4.6 20 14:48 01.01.2021
4200 Snow -6 1009 92 8000 4.6 20 14:27 01.01.2021
4201 Snow -6 1009 92 10000 4.6 30 13:40 01.01.2021
4202 Snow -5 1009 85 10000 5.1 30 12:52 01.01.2021
4203 Snow -6 1009 92 6000 5.1 30 12:27 01.01.2021
4204 Snow -5 1010 85 4700 4.6 30 11:43 01.01.2021
4205 Snow -5 1010 85 2400 4.6 30 11:22 01.01.2021
4206 Snow -5 1010 85 2400 4.6 30 10:56 01.01.2021
4207 Snow -5 1010 85 3200 4.6 30 10:30 01.01.2021
4208 Snow -5 1010 92 4700 5.1 40 09:39 01.01.2021
4209 Snow -5 1010 92 2900 5.7 30 08:49 01.01.2021
4210 Snow -5 1010 92 2900 5.7 30 08:25 01.01.2021
4211 Snow -4 1011 92 10000 6.2 40 04:51 01.01.2021
4212 Snow -3 1011 92 7000 6.7 50 01:58 01.01.2021
4213 Snow -3 1012 92 10000 5.7 60 00:35 01.01.2021
4214 Snow -2 1012 86 10000 5.7 70 23:43 31.12.2020
4215 Snow -3 1012 92 10000 5.7 60 23:21 31.12.2020
4216 Snow -3 1012 92 10000 5.7 60 22:55 31.12.2020
4217 Snow -3 1012 92 10000 4.6 70 22:36 31.12.2020
4218 Snow -3 1012 92 10000 4.6 70 22:36 31.12.2020
4219 Snow -3 1013 92 10000 4.6 80 22:18 31.12.2020
4220 Snow -3 1013 92 10000 4.6 80 21:43 31.12.2020
4221 Clouds -3 1013 92 10000 4.6 80 21:20 31.12.2020
4222 Snow -3 1013 92 10000 5.7 80 20:31 31.12.2020
4223 Snow -3 1013 92 10000 5.7 70 19:52 31.12.2020
4224 Snow -2 1013 86 10000 5.1 70 19:34 31.12.2020
4225 Clouds -2 1013 92 10000 4.6 70 18:58 31.12.2020
4226 Clouds -2 1013 92 10000 5.1 90 18:26 31.12.2020
4227 Clouds -2 1013 92 10000 5.1 90 17:59 31.12.2020
4228 Clouds -1 1013 92 10000 4.1 80 17:40 31.12.2020
4229 Clouds -1 1013 92 10000 4.1 90 17:21 31.12.2020
4230 Clouds -1 1013 92 10000 4.1 90 16:39 31.12.2020
4231 Clouds -1 1013 92 10000 4.1 80 16:20 31.12.2020
4232 Clouds -1 1012 92 10000 4.1 90 15:43 31.12.2020
4233 Snow -1 1012 92 10000 4.1 80 15:20 31.12.2020
4234 Snow -1 1012 92 10000 4.1 80 14:43 31.12.2020
4235 Snow -1 1012 92 10000 4.1 80 14:24 31.12.2020
4236 Clouds -1 1012 92 10000 4.6 100 13:59 31.12.2020
4237 Clouds -1 1012 92 10000 4.6 100 13:37 31.12.2020
4238 Clouds -1 1012 92 10000 5.1 100 13:19 31.12.2020
4239 Clouds -1 1012 92 10000 5.1 100 12:49 31.12.2020
4240 Clouds -1 1012 92 10000 5.1 100 12:31 31.12.2020
4241 Clouds -1 1011 92 10000 4.6 90 11:47 31.12.2020
4242 Clouds -1 1011 92 10000 4.6 90 11:29 31.12.2020
4243 Snow -1 1011 92 1300 5.1 90 10:45 31.12.2020
4244 Snow -1 1011 92 1300 5.1 90 10:27 31.12.2020
4245 Snow -1 1010 92 5000 5.1 90 09:49 31.12.2020
4246 Snow -1 1010 92 6000 5.1 90 09:24 31.12.2020
4247 Snow -1 1009 92 10000 5.1 90 08:49 31.12.2020
4248 Snow -1 1009 92 10000 5.1 90 08:31 31.12.2020
4249 Snow -2 1009 92 10000 5.7 90 07:56 31.12.2020
4250 Snow -3 1008 100 10000 5.7 90 07:25 31.12.2020
4251 Snow -4 1008 92 9000 6.2 70 05:30 31.12.2020
4252 Snow -5 1008 92 6000 6.7 80 03:37 31.12.2020
4253 Snow -6 1007 92 6000 6.7 80 02:37 31.12.2020
4254 Snow -6 1007 92 6000 6.2 70 01:58 31.12.2020
4255 Snow -6 1007 92 6000 6.2 70 01:39 31.12.2020
4256 Snow -7 1007 92 10000 6.2 70 00:59 31.12.2020
4257 Snow -7 1007 92 5000 6.2 70 00:39 31.12.2020
4258 Snow -7 1007 92 10000 6.7 80 23:39 30.12.2020
4259 Snow -7 1007 92 10000 6.2 80 23:18 30.12.2020
4260 Snow -7 1010 85 10000 6.2 70 22:36 30.12.2020
4261 Clouds -7 1007 85 10000 6.2 80 21:54 30.12.2020
4262 Clouds -8 1007 92 10000 5.7 80 21:28 30.12.2020
4263 Clouds -8 1007 92 10000 5.7 80 21:28 30.12.2020
4264 Clouds -8 1007 92 10000 5.7 80 20:54 30.12.2020
4265 Snow -8 1007 92 10000 5.7 80 20:29 30.12.2020
4266 Snow -8 1007 92 10000 5.7 80 20:00 30.12.2020
4267 Snow -8 1007 92 10000 4.6 80 19:37 30.12.2020
4268 Snow -8 1007 85 4600 5.7 90 19:18 30.12.2020
4269 Snow -8 1007 85 5000 5.1 90 18:40 30.12.2020
4270 Snow -8 1007 85 5000 5.1 80 18:21 30.12.2020
4271 Snow -8 1007 85 5000 5.1 80 17:48 30.12.2020
4272 Snow -8 1007 85 10000 5.1 80 17:29 30.12.2020
4273 Snow -8 1007 85 8000 4.6 80 16:44 30.12.2020
4274 Snow -9 1006 92 10000 5.7 80 15:51 30.12.2020
4275 Snow -9 1006 92 10000 5.7 80 15:31 30.12.2020
4276 Snow -8 1006 92 7000 5.1 90 14:58 30.12.2020
4277 Snow -5 1008 97 149 3.79 103 14:40 30.12.2020
4278 Snow -8 1006 92 7000 5.7 90 14:19 30.12.2020
4279 Snow -7 1006 92 10000 4.1 90 13:19 30.12.2020
4280 Snow -7 1006 92 2000 5.7 90 12:26 30.12.2020
4281 Snow -6 1006 92 6000 4.6 90 11:45 30.12.2020
4282 Snow -5 1006 92 8000 4.6 90 11:22 30.12.2020
4283 Snow -5 1006 92 8000 4.6 90 10:58 30.12.2020
4284 Snow -5 1006 100 10000 5.1 90 10:38 30.12.2020
4285 Snow -4 1006 92 10000 5.1 110 10:18 30.12.2020
4286 Snow -4 1006 92 10000 4.6 100 09:42 30.12.2020
4287 Snow -4 1005 92 10000 3.6 100 08:49 30.12.2020
4288 Snow -4 1005 92 10000 5.7 110 07:51 30.12.2020
4289 Snow -3 1005 92 10000 3.6 100 07:24 30.12.2020
4290 Snow -4 1005 100 5000 4.6 80 06:40 30.12.2020
4291 Snow -4 1005 100 10000 4.6 80 05:48 30.12.2020
4292 Snow -4 1006 100 10000 3.6 80 05:29 30.12.2020
4293 Snow -4 1006 92 10000 4.1 80 03:41 30.12.2020
4294 Snow -4 1006 92 10000 4.1 80 03:23 30.12.2020
4295 Snow -4 1007 92 10000 5.1 70 02:32 30.12.2020
4296 Snow -5 1007 100 7000 5.1 70 01:46 30.12.2020
4297 Snow -5 1007 100 7000 5.1 70 01:28 30.12.2020
4298 Snow -4 1007 92 10000 4.1 80 00:41 30.12.2020
4299 Snow -4 1007 92 10000 4.1 80 00:22 30.12.2020
4300 Snow -4 1008 92 10000 5.1 90 23:43 29.12.2020
4301 Snow -4 1008 92 10000 5.1 90 23:24 29.12.2020
4302 Snow -4 1008 92 10000 3.6 100 22:49 29.12.2020
4303 Clouds -4 1008 92 10000 3.6 100 22:31 29.12.2020
4304 Snow -4 1008 92 10000 5.1 120 21:56 29.12.2020
4305 Clouds -4 1008 92 10000 5.1 120 21:36 29.12.2020
4306 Snow -4 1008 92 10000 4.6 110 20:57 29.12.2020
4307 Snow -4 1008 92 10000 4.6 110 20:39 29.12.2020
4308 Snow -4 1009 92 5000 4.1 110 20:20 29.12.2020
4309 Snow -4 1009 92 10000 4.1 120 19:42 29.12.2020
4310 Snow -4 1009 92 10000 4.1 120 19:21 29.12.2020
4311 Clouds -4 1009 92 10000 5.1 120 18:49 29.12.2020
4312 Clouds -4 1009 92 10000 5.1 120 18:28 29.12.2020
4313 Snow -4 1009 100 10000 4.1 100 17:45 29.12.2020
4314 Snow -4 1009 100 10000 3.6 100 17:21 29.12.2020
4315 Snow -4 1009 92 4100 3.6 100 16:52 29.12.2020
4316 Snow -4 1009 92 4100 3.6 100 16:25 29.12.2020
4317 Snow -4 1009 92 10000 4.6 120 15:38 29.12.2020
4318 Snow -4 1010 92 10000 5.1 120 15:19 29.12.2020
4319 Clouds -4 1010 92 10000 5.7 120 14:40 29.12.2020
4320 Clouds -4 1010 92 10000 5.1 120 14:20 29.12.2020
4321 Snow -4 1010 92 10000 5.1 120 13:48 29.12.2020
4322 Snow -4 1010 92 10000 5.1 120 13:23 29.12.2020
4323 Snow -3 1010 92 10000 5.1 120 12:42 29.12.2020
4324 Rain -3 1010 92 10000 5.1 120 12:23 29.12.2020
4325 Snow -3 1010 92 10000 4.6 130 11:56 29.12.2020
4326 Snow -3 1010 92 10000 4.6 130 11:31 29.12.2020
4327 Snow -3 1010 92 10000 5.7 120 10:37 29.12.2020
4328 Clouds -4 1010 100 10000 5.1 110 09:50 29.12.2020
4329 Clouds -4 1010 100 10000 5.1 110 09:28 29.12.2020
4330 Rain -4 1010 100 8000 5.1 100 08:55 29.12.2020
4331 Snow -4 1010 92 10000 5.7 110 08:33 29.12.2020
4332 Clouds -3 1010 92 10000 5.7 100 07:27 29.12.2020
4333 Snow -4 1010 92 10000 5.7 110 06:46 29.12.2020
4334 Clouds -4 1011 92 10000 5.7 120 05:27 29.12.2020
4335 Snow -3 1012 100 6000 4.1 130 00:55 29.12.2020
4336 Clouds -3 1012 100 7000 3.6 130 00:22 29.12.2020
4337 Clouds -3 1012 92 9000 3.1 130 23:36 28.12.2020
4338 Clouds -4 1012 92 10000 3.1 110 22:28 28.12.2020
4339 Clouds -4 1012 85 10000 4.1 120 21:46 28.12.2020
4340 Clouds -4 1012 85 10000 4.1 120 21:28 28.12.2020
4341 Clouds -4 1012 85 10000 4.6 140 20:44 28.12.2020
4342 Clouds -4 1012 85 10000 4.6 140 20:24 28.12.2020
4343 Snow -4 1013 85 10000 4.1 140 19:50 28.12.2020
4344 Clouds -4 1012 85 10000 3.6 140 19:26 28.12.2020
4345 Clouds -4 1012 85 10000 3.6 140 18:59 28.12.2020
4346 Clouds -4 1012 85 10000 4.1 160 18:30 28.12.2020
4347 Clouds -4 1012 85 10000 5.1 150 17:49 28.12.2020
4348 Clouds -4 1012 85 10000 5.1 150 17:31 28.12.2020
4349 Clouds -4 1012 85 10000 3.6 150 16:59 28.12.2020
4350 Clouds -4 1012 85 10000 3.6 140 16:29 28.12.2020
4351 Clouds -4 1012 85 10000 4.1 150 15:54 28.12.2020
4352 Clouds -4 1012 85 10000 4.1 150 15:33 28.12.2020
4353 Clouds -3 1011 86 10000 4.1 160 14:29 28.12.2020
4354 Clouds -3 1011 86 10000 4.6 150 13:39 28.12.2020
4355 Clouds -3 1010 86 10000 4.1 150 13:19 28.12.2020
4356 Clouds -3 1010 86 10000 4.6 140 12:26 28.12.2020
4357 Clouds -3 1010 86 10000 5.7 150 11:49 28.12.2020
4358 Clouds -3 1010 86 10000 5.7 150 11:30 28.12.2020
4359 Clouds -3 1010 86 10000 5.7 140 10:56 28.12.2020
4360 Clouds -3 1010 86 10000 6.7 150 10:29 28.12.2020
4361 Clouds -3 1010 86 10000 6.2 160 09:53 28.12.2020
4362 Clouds -3 1009 92 10000 6.7 150 09:25 28.12.2020
4363 Clouds -3 1009 92 10000 6.7 150 08:58 28.12.2020
4364 Snow -3 1008 92 4500 5.1 130 06:52 28.12.2020
4365 Snow -3 1007 92 5000 5.1 130 04:56 28.12.2020
4366 Snow -3 1007 86 4100 5.1 130 03:26 28.12.2020
4367 Snow -4 1006 92 10000 4.6 130 01:52 28.12.2020
4368 Snow -6 1005 92 6000 6.2 110 23:52 27.12.2020
4369 Snow -6 1005 92 4400 6.7 110 23:20 27.12.2020
4370 Snow -6 1005 85 4700 7.2 110 22:24 27.12.2020
4371 Snow -7 1005 92 10000 7.2 110 21:27 27.12.2020
4372 Snow -7 1005 85 9000 7.2 110 20:56 27.12.2020
4373 Snow -9 1004 92 3500 7.2 100 19:49 27.12.2020
4374 Snow -9 1004 92 3500 7.2 100 19:23 27.12.2020
4375 Snow -9 1004 85 2900 7.2 90 18:49 27.12.2020
4376 Snow -10 1004 92 3000 7.7 90 18:20 27.12.2020
4377 Snow -10 1004 92 3000 7.7 90 17:52 27.12.2020
4378 Snow -10 1004 85 2800 7.2 100 17:34 27.12.2020
4379 Snow -10 1004 85 2800 7.2 100 16:54 27.12.2020
4380 Snow -11 1004 85 3900 7.2 90 16:20 27.12.2020
4381 Snow -11 1005 85 4200 7.2 90 15:21 27.12.2020
4382 Snow -12 1005 85 7000 6.7 90 14:42 27.12.2020
4383 Snow -12 1005 85 7000 6.7 90 14:42 27.12.2020
4384 Snow -12 1005 85 10000 6.2 90 14:22 27.12.2020
4385 Snow -14 1005 92 10000 6.7 80 13:23 27.12.2020
4386 Snow -14 1005 92 10000 6.7 80 12:50 27.12.2020
4387 Snow -14 1005 84 10000 6.7 90 12:22 27.12.2020
4388 Snow -14 1005 84 10000 7.2 90 11:39 27.12.2020
4389 Snow -14 1005 84 9000 7.2 90 10:52 27.12.2020
4390 Snow -14 1006 77 4700 6.7 90 10:26 27.12.2020
4391 Snow -15 1006 84 3500 6.7 90 09:56 27.12.2020
4392 Snow -16 1006 84 4100 6.2 90 08:50 27.12.2020
4393 Snow -16 1006 84 4100 6.2 90 08:26 27.12.2020
4394 Snow -16 1006 84 4300 6.7 80 07:27 27.12.2020
4395 Snow -17 1006 84 4100 6.7 90 05:46 27.12.2020
4396 Snow -17 1006 84 10000 6.7 90 04:32 27.12.2020
4397 Snow -17 1007 84 3400 5.7 80 03:21 27.12.2020
4398 Snow -17 1007 77 2700 5.7 80 01:35 27.12.2020
4399 Snow -18 1007 84 3900 7.2 80 00:24 27.12.2020
4400 Snow -18 1008 84 2400 6.7 80 23:40 26.12.2020
4401 Snow -18 1009 84 10000 6.2 70 23:19 26.12.2020
4402 Snow -18 1009 84 10000 6.2 70 22:36 26.12.2020
4403 Snow -18 1009 84 10000 6.2 70 22:18 26.12.2020
4404 Snow -18 1009 84 10000 6.2 70 21:48 26.12.2020
4405 Snow -18 1009 84 10000 6.2 70 21:22 26.12.2020
4406 Snow -18 1009 84 10000 6.7 70 20:42 26.12.2020
4407 Snow -18 1009 84 10000 6.7 70 20:19 26.12.2020
4408 Clouds -18 1009 84 10000 6.7 70 19:27 26.12.2020
4409 Snow -18 1010 84 10000 6.2 80 18:53 26.12.2020
4410 Snow -18 1010 84 10000 5.7 80 18:29 26.12.2020
4411 Snow -18 1010 84 10000 5.7 70 17:42 26.12.2020
4412 Snow -18 1010 84 10000 5.7 70 17:21 26.12.2020
4413 Snow -18 1010 84 10000 5.1 70 16:37 26.12.2020
4414 Snow -17 1011 77 10000 6.7 80 15:38 26.12.2020
4415 Snow -17 1011 77 10000 6.2 80 15:19 26.12.2020
4416 Snow -17 1011 77 10000 6.2 80 14:29 26.12.2020
4417 Snow -17 1011 84 10000 6.7 80 13:53 26.12.2020
4418 Snow -17 1011 84 10000 7.2 80 13:32 26.12.2020
4419 Snow -17 1012 84 10000 6.2 80 12:49 26.12.2020
4420 Snow -17 1012 84 10000 6.2 80 12:30 26.12.2020
4421 Snow -17 1013 84 9000 6.2 80 11:51 26.12.2020
4422 Snow -17 1013 84 9000 6.7 80 11:22 26.12.2020
4423 Snow -17 1013 84 10000 6.7 80 10:55 26.12.2020
4424 Snow -17 1013 84 10000 6.7 80 10:27 26.12.2020
4425 Snow -17 1013 84 10000 7.2 80 09:51 26.12.2020
4426 Snow -17 1013 84 10000 6.7 80 09:29 26.12.2020
4427 Snow -16 1014 77 10000 6.7 80 08:35 26.12.2020
4428 Snow -16 1013 84 10000 7.7 80 07:53 26.12.2020
4429 Snow -16 1014 84 9000 5.7 70 06:47 26.12.2020
4430 Snow -15 1016 84 10000 5.7 60 03:46 26.12.2020
4431 Snow -14 1017 84 7000 5.7 60 01:44 26.12.2020
4432 Snow -13 1017 84 10000 5.1 60 00:27 26.12.2020
4433 Snow -13 1017 84 10000 5.1 50 23:41 25.12.2020
4434 Snow -13 1017 84 10000 5.1 50 23:23 25.12.2020
4435 Snow -12 1018 85 9000 5.1 70 22:45 25.12.2020
4436 Snow -12 1018 85 10000 4.6 70 21:58 25.12.2020
4437 Snow -12 1018 85 10000 4.6 70 21:58 25.12.2020
4438 Snow -12 1018 85 10000 4.6 70 21:34 25.12.2020
4439 Snow -12 1018 85 10000 4.6 80 20:56 25.12.2020
4440 Snow -11 1018 78 10000 5.1 70 20:37 25.12.2020
4441 Snow -11 1019 85 10000 4.1 70 19:48 25.12.2020
4442 Snow -11 1019 85 10000 4.1 70 19:21 25.12.2020
4443 Snow -10 1019 85 7000 5.1 70 18:39 25.12.2020
4444 Snow -10 1019 92 10000 4.6 60 17:47 25.12.2020
4445 Snow -10 1019 92 10000 4.6 60 17:28 25.12.2020
4446 Snow -10 1019 92 10000 4.6 40 16:33 25.12.2020
4447 Snow -10 1019 85 10000 5.7 50 15:59 25.12.2020
4448 Snow -10 1019 85 10000 6.7 60 15:36 25.12.2020
4449 Snow -10 1019 85 10000 6.7 50 14:54 25.12.2020
4450 Snow -10 1019 85 10000 6.7 60 14:29 25.12.2020
4451 Snow -10 1019 85 10000 6.2 60 13:45 25.12.2020
4452 Snow -10 1019 85 10000 6.2 60 13:26 25.12.2020
4453 Snow -9 1019 85 10000 5.7 50 12:45 25.12.2020
4454 Snow -9 1019 85 10000 6.2 60 11:58 25.12.2020
4455 Snow -9 1019 85 10000 5.7 50 11:40 25.12.2020
4456 Snow -9 1019 85 10000 6.7 50 11:19 25.12.2020
4457 Snow -9 1018 85 10000 6.2 60 10:27 25.12.2020
4458 Snow -9 1018 85 10000 7.2 60 09:37 25.12.2020
4459 Snow -9 1017 92 10000 7.7 60 08:48 25.12.2020
4460 Snow -8 1017 85 10000 6.7 60 07:59 25.12.2020
4461 Clouds -8 1016 85 10000 7.2 60 06:47 25.12.2020
4462 Snow -8 1015 85 10000 5.7 70 03:49 25.12.2020
4463 Snow -7 1014 85 10000 6.7 60 01:41 25.12.2020
4464 Snow -6 1013 85 10000 7.2 50 00:18 25.12.2020
4465 Snow -6 1012 85 10000 6.7 50 23:23 24.12.2020
4466 Snow -6 1012 85 10000 7.2 50 22:50 24.12.2020
4467 Snow -6 1012 92 10000 7.7 50 22:21 24.12.2020
4468 Snow -6 1011 92 10000 7.2 50 21:34 24.12.2020
4469 Clouds -6 1010 92 10000 6.7 50 20:36 24.12.2020
4470 Clouds -5 1008 92 10000 7.7 50 18:51 24.12.2020
4471 Snow -5 1008 92 10000 6.7 50 18:18 24.12.2020
4472 Snow -4 1008 85 10000 6.7 50 17:37 24.12.2020
4473 Snow -4 1007 92 10000 7.2 50 16:45 24.12.2020
4474 Snow -4 1006 92 10000 6.7 60 16:20 24.12.2020
4475 Snow -3 1006 92 3700 7.2 50 15:42 24.12.2020
4476 Snow -3 1006 92 4700 6.7 50 15:19 24.12.2020
4477 Snow -3 1005 92 10000 6.7 50 14:42 24.12.2020
4478 Snow -3 1005 92 10000 6.7 50 14:24 24.12.2020
4479 Snow -3 1005 92 10000 6.7 50 14:24 24.12.2020
4480 Snow -3 1005 92 2100 7.2 60 13:41 24.12.2020
4481 Snow -3 1004 100 10000 7.7 50 13:21 24.12.2020
4482 Snow -2 1004 92 3800 6.7 50 12:41 24.12.2020
4483 Snow -2 1004 92 2100 4.1 50 12:21 24.12.2020
4484 Snow -3 1004 100 10000 4.6 60 11:39 24.12.2020
4485 Snow -3 1004 100 10000 5.7 60 11:20 24.12.2020
4486 Snow -3 1004 100 10000 5.7 60 11:20 24.12.2020
4487 Snow -3 1004 100 10000 5.7 60 10:51 24.12.2020
4488 Snow -3 1004 100 10000 5.7 60 10:32 24.12.2020
4489 Snow -3 1004 100 3600 3.6 70 09:52 24.12.2020
4490 Snow -2 1003 92 10000 4.1 80 09:24 24.12.2020
4491 Snow -2 1002 100 10000 6.2 60 08:18 24.12.2020
4492 Snow -1 1002 92 6000 4.6 60 07:39 24.12.2020
4493 Snow -2 1002 100 2800 4.6 60 06:55 24.12.2020
4494 Snow -2 1002 100 4600 2.6 50 04:24 24.12.2020
4495 Snow -2 1002 100 8000 2.6 90 01:54 24.12.2020
4496 Snow -2 1002 100 8000 2.6 90 01:30 24.12.2020
4497 Snow -1 1002 92 4700 4.1 100 00:56 24.12.2020
4498 Snow -1 1002 100 4000 4.1 100 00:20 24.12.2020
4499 Snow -1 1002 100 4000 4.1 100 23:40 23.12.2020
4500 Snow -1 1002 100 10000 4.1 110 23:22 23.12.2020
4501 Snow -1 1002 100 10000 4.1 110 22:52 23.12.2020
4502 Snow 0 1002 99 4900 2.6 100 22:29 23.12.2020
4503 Snow 0 1002 99 4500 4.6 100 21:49 23.12.2020
4504 Snow 0 1002 98 7000 4.1 90 21:24 23.12.2020
4505 Snow 0 1002 98 7000 4.1 90 20:49 23.12.2020
4506 Snow 0 1002 98 7000 4.1 90 20:49 23.12.2020
4507 Snow 0 1002 98 7000 4.1 90 20:31 23.12.2020
4508 Snow 0 1002 98 5000 4.6 110 19:59 23.12.2020
4509 Snow 0 1002 98 5000 4.6 110 19:38 23.12.2020
4510 Snow 0 1002 97 3400 4.6 80 19:19 23.12.2020
4511 Snow 0 1002 98 3400 4.6 80 18:46 23.12.2020
4512 Snow 0 1002 96 5000 4.6 90 18:21 23.12.2020
4513 Snow 0 1002 96 5000 4.6 90 17:37 23.12.2020
4514 Snow 0 1003 96 6000 4.1 90 17:19 23.12.2020
4515 Snow 0 1003 96 8000 3.1 90 16:42 23.12.2020
4516 Snow 0 1003 96 8000 3.1 90 16:24 23.12.2020
4517 Snow 0 1003 96 9000 4.6 110 15:50 23.12.2020
4518 Snow 0 1003 96 9000 4.6 110 15:27 23.12.2020
4519 Snow 0 1003 96 6000 5.1 120 14:58 23.12.2020
4520 Snow 0 1003 96 10000 5.1 120 14:38 23.12.2020
4521 Snow 0 1003 96 5000 5.1 120 14:20 23.12.2020
4522 Snow 0 1003 96 5000 5.1 120 14:20 23.12.2020
4523 Snow 0 1003 96 5000 5.1 120 13:43 23.12.2020
4524 Snow 0 1004 95 2000 5.1 110 13:19 23.12.2020
4525 Snow 0 1004 95 2000 5.1 110 12:49 23.12.2020
4526 Snow 0 1004 95 4000 4.6 120 12:24 23.12.2020
4527 Snow 0 1004 95 4500 4.6 120 11:46 23.12.2020
4528 Drizzle 1 1004 96 9000 4.6 110 11:19 23.12.2020
4529 Clouds 1 1004 96 10000 4.6 110 10:43 23.12.2020
4530 Clouds 1 1004 96 10000 4.6 110 10:25 23.12.2020
4531 Drizzle 1 1005 96 8000 4.1 110 09:35 23.12.2020
4532 Snow 1 1005 96 10000 4.1 120 08:48 23.12.2020
4533 Clouds 1 1005 100 6000 3.6 130 08:20 23.12.2020
4534 Mist 1 1005 100 2000 3.6 140 07:27 23.12.2020
4535 Fog 1 1005 100 600 4.1 130 06:39 23.12.2020
4536 Fog 1 1005 100 550 3.6 120 05:28 23.12.2020
4537 Fog 1 1005 100 750 3.6 130 04:56 23.12.2020
4538 Mist 1 1006 100 1800 3.6 170 00:34 23.12.2020
4539 Rain 1 1006 100 4400 4.6 170 23:49 22.12.2020
4540 Rain 1 1006 100 10000 4.1 170 23:30 22.12.2020
4541 Snow 1 1006 100 6000 4.1 160 22:44 22.12.2020
4542 Snow 1 1006 100 6000 4.1 160 22:25 22.12.2020
4543 Mist 1 1006 100 3100 4.1 160 21:58 22.12.2020
4544 Mist 1 1006 100 3100 4.1 160 21:38 22.12.2020
4545 Clouds 1 1006 100 10000 4.1 180 21:19 22.12.2020
4546 Clouds 1 1006 100 10000 4.1 180 20:48 22.12.2020
4547 Rain 0 1006 94 10000 3.6 160 20:21 22.12.2020
4548 Rain 0 1005 94 10000 4.1 160 19:44 22.12.2020
4549 Clouds 0 1005 94 10000 3.6 160 19:21 22.12.2020
4550 Clouds 0 1005 94 10000 3.6 160 18:54 22.12.2020
4551 Clouds 1 1006 92 10000 3.1 170 18:30 22.12.2020
4552 Clouds 1 1006 92 10000 3.1 170 17:57 22.12.2020
4553 Clouds 1 1006 91 10000 3.1 170 17:26 22.12.2020
4554 Clouds 0 1006 91 10000 2.6 190 16:56 22.12.2020
4555 Clouds 0 1006 91 10000 2.6 190 16:37 22.12.2020
4556 Clouds 0 1006 93 10000 3.6 210 16:19 22.12.2020
4557 Snow 0 1006 93 10000 5.7 210 15:42 22.12.2020
4558 Snow 0 1006 94 10000 5.7 210 15:21 22.12.2020
4559 Clouds 0 1006 94 4800 3.6 210 14:45 22.12.2020
4560 Clouds 0 1006 96 4800 3.6 210 14:26 22.12.2020
4561 Clouds 0 1005 96 10000 3.1 200 13:48 22.12.2020
4562 Clouds 0 1005 95 10000 3.1 190 13:19 22.12.2020
4563 Clouds 0 1005 96 10000 3.1 190 12:57 22.12.2020
4564 Clouds 0 1005 96 10000 2.6 210 12:38 22.12.2020
4565 Clouds 0 1005 96 10000 3.6 220 12:19 22.12.2020
4566 Clouds 0 1005 96 10000 3.6 220 11:42 22.12.2020
4567 Clouds 0 1005 99 10000 3.6 220 11:22 22.12.2020
4568 Fog 0 1005 99 400 2.6 220 10:55 22.12.2020
4569 Fog 0 1005 99 400 2.6 220 10:27 22.12.2020
4570 Fog 0 1004 99 600 2.6 230 09:58 22.12.2020
4571 Clouds 1 1004 100 10000 4.6 200 09:30 22.12.2020
4572 Mist 1 1004 100 4000 2.6 200 08:57 22.12.2020
4573 Clouds 1 1004 100 6000 3.1 210 08:38 22.12.2020
4574 Clouds 1 1004 100 8000 3.6 210 08:19 22.12.2020
4575 Clouds 1 1003 100 8000 3.1 220 07:27 22.12.2020
4576 Fog 1 1003 100 4600 3.6 220 06:32 22.12.2020
4577 Fog 1 1003 100 600 3.1 220 05:30 22.12.2020
4578 Fog 1 1003 100 550 4.1 220 02:24 22.12.2020
4579 Fog 1 1003 100 300 3.1 210 00:25 22.12.2020
4580 Fog 1 1003 100 400 3.1 220 23:46 21.12.2020
4581 Fog 2 1003 100 750 3.1 200 23:21 21.12.2020
4582 Fog 1 1003 100 600 3.1 210 22:36 21.12.2020
4583 Mist 2 1003 100 3800 3.6 210 22:18 21.12.2020
4584 Mist 1 1003 100 2600 3.1 210 21:46 21.12.2020
4585 Mist 1 1003 100 2600 3.1 210 21:27 21.12.2020
4586 Clouds 2 1003 100 10000 4.1 210 20:43 21.12.2020
4587 Clouds 2 1003 100 10000 5.1 210 20:21 21.12.2020
4588 Clouds 2 1003 100 9000 4.1 210 19:47 21.12.2020
4589 Clouds 2 1003 100 9000 4.1 210 19:22 21.12.2020
4590 Fog 2 1003 100 700 4.6 210 18:57 21.12.2020
4591 Fog 2 1003 100 700 4.6 210 18:39 21.12.2020
4592 Fog 2 1004 100 350 4.6 220 18:20 21.12.2020
4593 Fog 2 1004 100 300 5.1 210 17:42 21.12.2020
4594 Fog 2 1004 100 300 5.7 210 17:22 21.12.2020
4595 Fog 2 1004 100 300 5.7 210 16:41 21.12.2020
4596 Fog 2 1004 100 400 4.6 210 16:19 21.12.2020
4597 Fog 2 1004 100 400 4.6 210 15:41 21.12.2020
4598 Fog 2 1004 100 450 4.6 210 14:58 21.12.2020
4599 Fog 2 1004 100 450 4.6 210 14:23 21.12.2020
4600 Fog 2 1004 100 100 6.7 220 13:54 21.12.2020
4601 Fog 2 1005 100 200 7.2 220 13:35 21.12.2020
4602 Fog 2 1005 100 400 6.2 220 12:59 21.12.2020
4603 Fog 2 1005 100 500 5.1 220 12:39 21.12.2020
4604 Fog 2 1005 100 700 6.2 220 12:19 21.12.2020
4605 Fog 2 1005 100 700 6.2 220 11:43 21.12.2020
4606 Fog 2 1005 100 2500 6.7 210 11:22 21.12.2020
4607 Fog 2 1005 100 2500 6.7 210 10:57 21.12.2020
4608 Clouds 2 1005 100 7000 5.1 220 10:38 21.12.2020
4609 Clouds 2 1005 100 7000 5.7 220 09:55 21.12.2020
4610 Clouds 2 1005 100 10000 5.7 220 09:37 21.12.2020
4611 Clouds 2 1005 100 10000 5.7 210 09:18 21.12.2020
4612 Clouds 2 1005 100 10000 5.1 210 08:21 21.12.2020
4613 Rain 1 1005 100 4600 5.1 220 06:48 21.12.2020
4614 Clouds 1 1005 100 10000 6.7 220 04:59 21.12.2020
4615 Clouds 2 1006 93 10000 6.7 220 03:46 21.12.2020
4616 Clouds 1 1006 100 10000 8.2 230 00:35 21.12.2020
4617 Clouds 2 1005 93 10000 8.2 220 23:39 20.12.2020
4618 Clouds 2 1005 93 10000 7.7 220 23:20 20.12.2020
4619 Clouds 2 1005 93 10000 7.7 220 22:43 20.12.2020
4620 Clouds 1 1005 100 10000 7.7 230 22:22 20.12.2020
4621 Clouds 1 1005 100 10000 7.7 230 21:41 20.12.2020
4622 Clouds 1 1005 100 10000 7.7 230 21:22 20.12.2020
4623 Clouds 1 1005 100 10000 6.7 230 20:54 20.12.2020
4624 Clouds 1 1005 100 10000 6.7 230 20:26 20.12.2020
4625 Clouds 2 1005 93 10000 7.7 230 19:58 20.12.2020
4626 Clouds 2 1004 93 10000 7.2 220 19:38 20.12.2020
4627 Clouds 2 1004 93 10000 7.2 220 19:20 20.12.2020
4628 Clouds 1 1004 100 9000 7.7 220 18:42 20.12.2020
4629 Clouds 1 1004 100 9000 7.7 220 18:23 20.12.2020
4630 Clouds 1 1004 100 10000 8.2 210 17:45 20.12.2020
4631 Clouds 1 1004 100 10000 8.2 210 17:27 20.12.2020
4632 Drizzle 1 1004 100 2500 5.7 210 16:47 20.12.2020
4633 Rain 0 1004 92 5000 5.1 220 16:27 20.12.2020
4634 Rain 0 1004 92 5000 5.1 220 15:50 20.12.2020
4635 Clouds 2 1004 93 10000 8.7 220 15:25 20.12.2020
4636 Clouds 2 1004 93 10000 8.7 220 14:55 20.12.2020
4637 Clouds 2 1004 100 6000 8.7 210 14:33 20.12.2020
4638 Clouds 2 1004 100 9000 8.7 210 13:47 20.12.2020
4639 Clouds 2 1004 100 9000 8.7 210 13:28 20.12.2020
4640 Drizzle 2 1004 100 2200 9.3 200 12:58 20.12.2020
4641 Drizzle 2 1005 100 2900 9.8 200 12:39 20.12.2020
4642 Drizzle 2 1005 100 2700 8.7 200 12:20 20.12.2020
4643 Drizzle 2 1005 100 2700 8.7 200 11:43 20.12.2020
4644 Rain 1 1005 100 1900 7.2 190 11:18 20.12.2020
4645 Rain 0 1005 96 550 5.1 180 10:45 20.12.2020
4646 Rain 0 1005 96 900 4.6 170 10:20 20.12.2020
4647 Clouds 0 1005 96 1400 4.1 150 09:45 20.12.2020
4648 Clouds 0 1005 97 1400 4.1 150 09:27 20.12.2020
4649 Clouds 0 1005 97 1300 3.6 150 08:55 20.12.2020
4650 Clouds 0 1005 97 1500 3.6 140 08:36 20.12.2020
4651 Clouds 0 1006 97 1400 3.1 130 07:24 20.12.2020
4652 Fog -1 1006 100 900 3.6 120 05:44 20.12.2020
4653 Clouds -3 1008 100 2800 4.1 120 01:35 20.12.2020
4654 Clouds -3 1009 92 4200 4.1 110 00:37 20.12.2020
4655 Clouds -4 1009 100 4100 3.6 110 23:20 19.12.2020
4656 Clouds -4 1009 100 4100 3.6 110 22:56 19.12.2020
4657 Clouds -4 1009 100 3200 4.6 110 22:37 19.12.2020
4658 Clouds -4 1009 100 3600 4.6 110 22:19 19.12.2020
4659 Mist -4 1010 92 4700 4.1 120 21:41 19.12.2020
4660 Mist -4 1010 92 4700 4.1 120 21:41 19.12.2020
4661 Mist -4 1010 92 4700 4.1 120 21:23 19.12.2020
4662 Clouds -4 1010 92 4500 4.6 110 20:42 19.12.2020
4663 Snow -5 1010 100 5000 3.6 110 20:19 19.12.2020
4664 Snow -5 1010 100 4400 3.1 100 19:50 19.12.2020
4665 Snow -5 1010 100 4400 3.1 100 19:31 19.12.2020
4666 Clouds -5 1011 100 4000 3.6 110 18:41 19.12.2020
4667 Clouds -5 1011 92 1400 3.6 120 18:20 19.12.2020
4668 Clouds -5 1011 92 1400 3.6 120 17:46 19.12.2020
4669 Clouds -5 1011 92 1400 3.6 120 17:24 19.12.2020
4670 Clouds -6 1012 100 10000 3.1 160 16:45 19.12.2020
4671 Clouds -6 1012 100 10000 3.1 160 16:26 19.12.2020
4672 Clouds -6 1011 100 10000 3.1 110 15:58 19.12.2020
4673 Clouds -5 1012 92 10000 2.6 110 15:39 19.12.2020
4674 Clouds -6 1012 100 7000 3.6 170 14:43 19.12.2020
4675 Clouds -6 1011 100 10000 2.6 100 14:22 19.12.2020
4676 Clouds -6 1011 100 10000 2.6 100 13:41 19.12.2020
4677 Snow -5 1012 92 10000 1.5 140 13:20 19.12.2020
4678 Snow -5 1012 92 10000 2.6 170 12:44 19.12.2020
4679 Snow -5 1012 92 10000 2.6 170 12:26 19.12.2020
4680 Clouds -5 1012 92 2400 2.1 150 11:57 19.12.2020
4681 Clouds -6 1012 100 2300 2.6 160 11:36 19.12.2020
4682 Clouds -6 1012 100 2600 2.6 160 10:43 19.12.2020
4683 Clouds -6 1012 100 2600 2.6 160 10:25 19.12.2020
4684 Snow -6 1012 92 3200 2.1 150 09:53 19.12.2020
4685 Snow -6 1012 92 3200 2.1 150 09:53 19.12.2020
4686 Snow -6 1012 92 10000 2.6 160 09:35 19.12.2020
4687 Snow -6 1012 92 4300 1.5 150 08:36 19.12.2020
4688 Clouds -6 1011 92 10000 3.1 160 07:25 19.12.2020
4689 Clouds -6 1011 92 10000 3.1 160 06:53 19.12.2020
4690 Snow -6 1012 92 10000 3.1 160 06:20 19.12.2020
4691 Snow -6 1012 92 10000 3.6 170 05:18 19.12.2020
4692 Snow -6 1013 92 6000 2.6 170 03:19 19.12.2020
4693 Snow -7 1013 92 8000 3.1 160 00:37 19.12.2020
4694 Snow -7 1013 92 8000 3.1 160 00:18 19.12.2020
4695 Snow -7 1013 92 8000 3.1 160 23:47 18.12.2020
4696 Snow -7 1013 92 8000 3.1 160 23:23 18.12.2020
4697 Snow -7 1013 92 5000 3.1 160 22:46 18.12.2020
4698 Snow -7 1013 92 5000 3.1 160 22:22 18.12.2020
4699 Snow -7 1014 92 5000 3.1 160 21:50 18.12.2020
4700 Snow -7 1014 92 5000 3.1 160 21:31 18.12.2020
4701 Snow -8 1014 92 6000 3.1 150 20:41 18.12.2020
4702 Snow -8 1014 92 4900 2.6 150 20:21 18.12.2020
4703 Snow -8 1014 92 4900 2.6 150 19:44 18.12.2020
4704 Snow -8 1014 92 3200 2.6 140 19:21 18.12.2020
4705 Snow -9 1015 92 10000 2.1 120 18:42 18.12.2020
4706 Snow -9 1015 92 10000 2.1 120 18:24 18.12.2020
4707 Snow -9 1015 92 6000 3.1 120 17:24 18.12.2020
4708 Snow -9 1015 92 6000 3.1 120 16:55 18.12.2020
4709 Snow -9 1015 85 6000 2.6 130 16:37 18.12.2020
4710 Snow -10 1016 92 10000 3.6 120 16:18 18.12.2020
4711 Snow -10 1016 92 10000 3.6 120 15:41 18.12.2020
4712 Snow -10 1016 92 5000 4.1 120 15:23 18.12.2020
4713 Snow -10 1016 92 5000 4.1 120 14:55 18.12.2020
4714 Clouds -11 1017 92 10000 3.6 130 14:21 18.12.2020
4715 Snow -11 1017 92 10000 4.1 120 13:50 18.12.2020
4716 Snow -11 1017 92 10000 4.1 120 13:30 18.12.2020
4717 Clouds -11 1017 92 10000 3.6 130 12:49 18.12.2020
4718 Clouds -11 1018 85 10000 3.6 120 12:21 18.12.2020
4719 Clear -12 1018 92 10000 4.6 110 11:23 18.12.2020
4720 Clear -13 1018 92 10000 4.1 100 10:40 18.12.2020
4721 Clear -13 1018 92 10000 4.6 100 10:20 18.12.2020
4722 Clear -13 1019 84 10000 3.6 90 09:39 18.12.2020
4723 Clear -13 1019 84 10000 3.6 90 09:21 18.12.2020
4724 Clear -14 1019 84 10000 3.1 80 08:54 18.12.2020
4725 Clouds -13 1019 84 10000 3.6 100 08:30 18.12.2020
4726 Clear -14 1019 84 10000 3.6 90 07:39 18.12.2020
4727 Clear -14 1020 84 10000 3.1 80 07:18 18.12.2020
4728 Clear -14 1020 84 10000 3.1 80 06:51 18.12.2020
4729 Snow -15 1021 84 10000 4.1 100 05:42 18.12.2020
4730 Clouds -15 1021 84 10000 4.6 100 04:51 18.12.2020
4731 Clouds -15 1021 84 10000 4.6 100 04:51 18.12.2020
4732 Clear -16 1022 84 10000 4.1 80 01:59 18.12.2020
4733 Clear -16 1022 84 10000 4.1 80 01:40 18.12.2020
4734 Clear -16 1023 84 10000 1.5 80 23:59 17.12.2020
4735 Clear -16 1023 84 10000 1.5 80 23:37 17.12.2020
4736 Clear -16 1023 91 10000 3.6 70 23:18 17.12.2020
4737 Clear -15 1023 92 10000 4.1 70 22:45 17.12.2020
4738 Clear -15 1023 92 10000 4.1 70 22:26 17.12.2020
4739 Clear -14 1023 84 10000 4.1 70 21:43 17.12.2020
4740 Clear -14 1023 84 10000 4.1 70 21:43 17.12.2020
4741 Clear -14 1023 92 10000 4.1 80 21:19 17.12.2020
4742 Clear -14 1023 92 10000 4.1 80 20:41 17.12.2020
4743 Clear -14 1023 92 10000 3.6 80 20:19 17.12.2020
4744 Clear -13 1023 84 10000 4.1 70 19:48 17.12.2020
4745 Clear -13 1023 84 10000 4.1 70 19:24 17.12.2020
4746 Clear -13 1023 84 10000 4.1 70 19:24 17.12.2020
4747 Snow -13 1023 92 8000 3.1 70 18:42 17.12.2020
4748 Snow -13 1023 92 8000 3.1 70 18:42 17.12.2020
4749 Snow -13 1023 92 8000 3.1 70 18:24 17.12.2020
4750 Clear -12 1023 85 10000 3.6 50 17:54 17.12.2020
4751 Clear -12 1023 85 10000 3.6 50 17:33 17.12.2020
4752 Clear -12 1023 85 10000 3.6 40 16:47 17.12.2020
4753 Clear -12 1023 85 10000 3.6 40 16:47 17.12.2020
4754 Clear -12 1023 85 10000 3.6 40 16:28 17.12.2020
4755 Clear -13 1023 92 10000 3.1 20 15:57 17.12.2020
4756 Clear -13 1023 92 10000 3.1 20 15:39 17.12.2020
4757 Clouds -12 1023 92 10000 3.1 10 14:57 17.12.2020
4758 Clouds -12 1023 92 10000 3.1 10 14:37 17.12.2020
4759 Clouds -12 1023 92 10000 3.1 10 14:37 17.12.2020
4760 Clouds -10 1023 85 10000 3.6 360 13:59 17.12.2020
4761 Clouds -10 1023 85 10000 4.1 350 13:39 17.12.2020
4762 Clouds -11 1023 92 10000 3.1 360 12:56 17.12.2020
4763 Clouds -11 1023 92 10000 3.1 360 12:33 17.12.2020
4764 Clouds -10 1022 92 10000 2.6 10 11:47 17.12.2020
4765 Clouds -10 1022 92 10000 2.6 10 11:47 17.12.2020
4766 Clouds -10 1022 92 10000 2.6 10 11:26 17.12.2020
4767 Clouds -10 1022 92 10000 2.6 10 10:57 17.12.2020
4768 Clear -9 1022 92 10000 2.6 10 10:33 17.12.2020
4769 Clear -7 1021 85 10000 3.6 20 09:36 17.12.2020
4770 Clear -7 1020 85 10000 5.1 30 08:39 17.12.2020
4771 Clear -6 1020 85 10000 4.6 30 07:41 17.12.2020
4772 Clear -6 1019 85 10000 4.1 30 07:18 17.12.2020
4773 Clear -6 1019 85 10000 3.6 10 06:44 17.12.2020
4774 Clear -6 1019 85 10000 3.6 10 06:26 17.12.2020
4775 Clouds -4 1015 85 10000 6.2 30 01:41 17.12.2020
4776 Clear -4 1013 85 10000 6.2 30 23:58 16.12.2020
4777 Clear -4 1013 85 10000 6.2 30 23:23 16.12.2020
4778 Clear -4 1013 85 10000 6.2 30 22:58 16.12.2020
4779 Clouds -5 1011 92 10000 6.7 40 22:38 16.12.2020
4780 Clouds -5 1011 92 10000 6.7 40 21:58 16.12.2020
4781 Clouds -5 1011 92 10000 6.7 30 21:38 16.12.2020
4782 Snow -6 1010 92 10000 5.7 30 21:20 16.12.2020
4783 Snow -6 1010 92 10000 5.7 30 20:44 16.12.2020
4784 Clear -6 1009 92 10000 7.2 30 20:19 16.12.2020
4785 Clouds -6 1009 92 10000 7.2 30 19:21 16.12.2020
4786 Clouds -6 1009 92 10000 7.2 30 19:21 16.12.2020
4787 Clouds -6 1009 92 10000 7.2 30 18:57 16.12.2020
4788 Clouds -7 1008 92 10000 6.7 30 18:37 16.12.2020
4789 Snow -7 1008 92 10000 6.7 30 18:19 16.12.2020
4790 Snow -7 1008 92 10000 6.2 30 17:33 16.12.2020
4791 Clouds -7 1007 92 10000 5.1 20 16:42 16.12.2020
4792 Snow -7 1007 92 10000 5.7 20 16:22 16.12.2020
4793 Snow -7 1007 92 10000 5.7 20 15:52 16.12.2020
4794 Snow -7 1007 92 10000 5.7 20 15:32 16.12.2020
4795 Clouds -7 1006 92 10000 5.1 20 14:55 16.12.2020
4796 Clouds -6 1006 92 10000 6.2 20 14:37 16.12.2020
4797 Snow -6 1006 92 10000 5.7 30 14:19 16.12.2020
4798 Snow -6 1006 100 10000 5.7 30 13:37 16.12.2020
4799 Snow -5 1006 92 10000 6.2 30 13:18 16.12.2020
4800 Clouds -5 1006 92 10000 6.2 30 12:42 16.12.2020
4801 Snow -5 1006 92 10000 5.7 40 11:43 16.12.2020
4802 Clouds -5 1005 92 10000 5.1 30 11:23 16.12.2020
4803 Clouds -5 1005 100 10000 4.6 30 10:52 16.12.2020
4804 Snow -5 1005 100 10000 4.6 30 10:27 16.12.2020
4805 Snow -5 1005 100 10000 5.1 40 09:50 16.12.2020
4806 Snow -5 1005 100 10000 5.1 40 09:23 16.12.2020
4807 Snow -4 1004 92 7000 5.1 60 08:22 16.12.2020
4808 Snow -4 1004 92 6000 5.7 60 07:42 16.12.2020
4809 Snow -4 1004 92 2500 5.7 60 07:19 16.12.2020
4810 Snow -4 1005 92 2000 5.7 80 03:35 16.12.2020
4811 Snow -4 1006 92 8000 5.1 80 01:31 16.12.2020
4812 Snow -4 1007 92 2700 5.1 90 23:46 15.12.2020
4813 Snow -4 1007 92 2400 5.1 90 22:56 15.12.2020
4814 Snow -5 1007 100 6000 5.7 90 22:38 15.12.2020
4815 Snow -5 1008 100 10000 5.7 90 22:18 15.12.2020
4816 Snow -5 1008 100 3100 5.1 100 21:40 15.12.2020
4817 Snow -5 1008 100 3100 5.1 100 21:21 15.12.2020
4818 Snow -5 1008 100 6000 4.6 100 20:44 15.12.2020
4819 Snow -5 1008 100 6000 4.6 100 20:26 15.12.2020
4820 Snow -5 1009 92 9000 4.6 100 19:52 15.12.2020
4821 Snow -5 1009 92 4500 4.1 100 19:26 15.12.2020
4822 Snow -5 1009 92 7000 3.1 120 18:39 15.12.2020
4823 Snow -5 1009 92 7000 3.1 120 18:21 15.12.2020
4824 Snow -6 1010 100 10000 4.1 110 17:45 15.12.2020
4825 Clouds -6 1010 100 10000 4.1 110 17:27 15.12.2020
4826 Clouds -6 1010 100 10000 2.6 140 16:46 15.12.2020
4827 Clouds -6 1010 100 10000 2.6 140 16:27 15.12.2020
4828 Clouds -6 1010 100 10000 3.1 160 15:42 15.12.2020
4829 Clouds -6 1011 92 10000 2.6 140 15:24 15.12.2020
4830 Clouds -6 1011 92 10000 2.6 140 14:43 15.12.2020
4831 Clouds -6 1011 92 10000 3.1 150 14:20 15.12.2020
4832 Clouds -6 1011 92 10000 4.1 160 13:51 15.12.2020
4833 Clouds -6 1011 92 10000 4.1 160 13:26 15.12.2020
4834 Clouds -6 1012 100 10000 3.6 160 12:46 15.12.2020
4835 Clouds -6 1012 92 10000 4.1 170 12:20 15.12.2020
4836 Clouds -6 1012 92 10000 4.1 170 11:52 15.12.2020
4837 Clouds -5 1012 92 10000 4.6 170 11:24 15.12.2020
4838 Clouds -5 1012 92 10000 4.1 170 10:49 15.12.2020
4839 Clouds -5 1012 92 10000 4.6 170 10:20 15.12.2020
4840 Clouds -5 1012 92 10000 4.6 170 09:44 15.12.2020
4841 Clouds -5 1012 92 10000 4.6 170 09:26 15.12.2020
4842 Clouds -5 1013 92 10000 4.6 180 08:46 15.12.2020
4843 Clouds -5 1013 92 10000 4.6 180 08:24 15.12.2020
4844 Clouds -5 1013 100 10000 4.6 180 07:47 15.12.2020
4845 Clouds -5 1013 100 10000 4.6 180 07:18 15.12.2020
4846 Clouds -4 1013 92 10000 6.2 190 05:55 15.12.2020
4847 Clouds -5 1015 92 10000 3.1 160 00:54 15.12.2020
4848 Snow -6 1015 100 10000 3.6 160 23:54 14.12.2020
4849 Clouds -6 1016 92 10000 3.6 170 23:21 14.12.2020
4850 Clouds -6 1016 92 10000 3.6 170 22:44 14.12.2020
4851 Clouds -6 1016 92 10000 4.1 170 22:22 14.12.2020
4852 Clouds -6 1016 92 10000 3.1 170 21:41 14.12.2020
4853 Clouds -6 1016 92 10000 2.6 150 21:19 14.12.2020
4854 Clouds -6 1016 92 10000 2.6 150 20:48 14.12.2020
4855 Clouds -6 1016 92 10000 2.6 150 20:27 14.12.2020
4856 Clouds -7 1017 100 10000 3.6 170 19:44 14.12.2020
4857 Clouds -7 1017 100 10000 3.6 170 19:25 14.12.2020
4858 Clouds -7 1017 100 10000 4.6 180 18:44 14.12.2020
4859 Clouds -7 1017 100 10000 4.6 180 18:24 14.12.2020
4860 Snow -6 1017 92 10000 5.7 190 17:45 14.12.2020
4861 Snow -6 1017 92 10000 5.7 190 17:21 14.12.2020
4862 Clouds -5 1017 92 10000 4.1 180 16:49 14.12.2020
4863 Clouds -5 1017 100 3200 3.1 170 16:27 14.12.2020
4864 Clouds -5 1017 100 3200 3.1 170 15:33 14.12.2020
4865 Clouds -5 1018 100 10000 3.1 170 14:52 14.12.2020
4866 Clouds -5 1018 100 6000 2.1 160 14:34 14.12.2020
4867 Mist -5 1018 100 2000 1.5 150 13:58 14.12.2020
4868 Mist -5 1018 92 1000 1.5 100 13:37 14.12.2020
4869 Mist -5 1018 92 2000 1 0 12:58 14.12.2020
4870 Mist -5 1018 92 2000 1 0 12:40 14.12.2020
4871 Snow -5 1019 92 1400 1.5 90 12:20 14.12.2020
4872 Snow -5 1019 92 5000 1 90 11:30 14.12.2020
4873 Snow -6 1018 100 2500 2.6 80 10:29 14.12.2020
4874 Mist -6 1019 100 2000 3.1 80 09:53 14.12.2020
4875 Clouds -6 1018 100 6000 3.1 80 09:25 14.12.2020
4876 Clouds -6 1018 100 10000 3.1 70 08:45 14.12.2020
4877 Clouds -6 1018 100 10000 3.1 70 08:25 14.12.2020
4878 Mist -6 1018 100 5000 3.6 80 07:22 14.12.2020
4879 Clouds -5 1019 92 2300 3.1 70 06:44 14.12.2020
4880 Clouds -5 1019 92 2300 3.1 70 06:44 14.12.2020
4881 Fog -5 1019 92 1900 4.1 60 04:19 14.12.2020
4882 Mist -5 1019 100 4300 2.6 50 02:25 14.12.2020
4883 Fog -5 1019 100 2000 2.1 30 00:51 14.12.2020
4884 Clouds -5 1019 100 3900 1.5 40 00:29 14.12.2020
4885 Clouds -5 1019 100 10000 1.5 30 23:44 13.12.2020
4886 Clouds -5 1019 100 9000 2.1 10 23:18 13.12.2020
4887 Clouds -5 1019 100 6000 2.1 360 22:43 13.12.2020
4888 Clouds -5 1019 100 6000 2.1 350 22:18 13.12.2020
4889 Clouds -5 1019 100 10000 1.5 350 21:42 13.12.2020
4890 Clouds -5 1019 100 10000 1.5 10 20:57 13.12.2020
4891 Clouds -5 1019 100 10000 2.1 350 20:32 13.12.2020
4892 Clouds -5 1019 100 6000 0.5 0 19:49 13.12.2020
4893 Clouds -5 1019 100 6000 0.5 0 19:25 13.12.2020
4894 Fog -5 1019 100 3300 1 30 18:57 13.12.2020
4895 Mist -5 1019 100 1900 1.5 30 18:38 13.12.2020
4896 Mist -5 1019 100 3800 1.5 30 18:18 13.12.2020
4897 Clouds -5 1019 100 7000 2.1 40 17:45 13.12.2020
4898 Clouds -5 1019 100 9000 2.1 20 17:18 13.12.2020
4899 Clouds -5 1019 100 10000 2.1 360 16:50 13.12.2020
4900 Clouds -5 1019 100 10000 2.1 360 16:31 13.12.2020
4901 Clouds -5 1018 100 5000 0.5 0 15:48 13.12.2020
4902 Clouds -5 1018 100 5000 0.5 0 15:27 13.12.2020
4903 Clouds -4 1018 92 10000 2.1 360 14:48 13.12.2020
4904 Clouds -4 1018 92 10000 2.1 360 14:29 13.12.2020
4905 Clouds -4 1018 92 10000 1.5 330 13:56 13.12.2020
4906 Clouds -4 1018 92 10000 1.5 280 13:36 13.12.2020
4907 Clouds -4 1018 100 5000 1 0 12:59 13.12.2020
4908 Clouds -4 1018 100 5000 1 0 12:26 13.12.2020
4909 Mist -3 1018 92 3300 1 0 11:59 13.12.2020
4910 Fog -3 1018 92 700 1.5 250 11:34 13.12.2020
4911 Clouds -3 1018 92 6000 1.5 240 10:46 13.12.2020
4912 Clouds -3 1018 92 6000 1.5 240 10:24 13.12.2020
4913 Clouds -4 1017 100 6000 1.5 200 09:47 13.12.2020
4914 Clouds -4 1017 100 6000 2.1 210 08:53 13.12.2020
4915 Clouds -4 1017 100 9000 2.1 210 08:31 13.12.2020
4916 Clouds -4 1017 100 10000 2.6 200 07:26 13.12.2020
4917 Snow -5 1017 92 7000 2.1 180 03:26 13.12.2020
4918 Snow -5 1017 92 5000 1 0 02:32 13.12.2020
4919 Snow -6 1017 92 4700 1.5 160 01:37 13.12.2020
4920 Snow -6 1017 92 10000 2.1 160 00:45 13.12.2020
4921 Snow -7 1017 100 10000 1.5 130 23:45 12.12.2020
4922 Snow -7 1017 100 10000 1.5 130 23:26 12.12.2020
4923 Snow -7 1017 92 10000 1.5 150 22:36 12.12.2020
4924 Snow -7 1017 92 10000 1.5 140 21:47 12.12.2020
4925 Snow -7 1017 92 10000 1.5 140 21:23 12.12.2020
4926 Snow -7 1017 92 10000 1.5 160 20:46 12.12.2020
4927 Snow -7 1017 92 10000 1.5 160 20:21 12.12.2020
4928 Snow -7 1017 92 10000 1.5 130 19:54 12.12.2020
4929 Snow -7 1017 92 10000 1.5 130 19:34 12.12.2020
4930 Snow -8 1017 100 6000 1.5 160 18:58 12.12.2020
4931 Snow -8 1017 100 6000 1.5 160 18:38 12.12.2020
4932 Snow -8 1017 92 10000 1.5 160 18:20 12.12.2020
4933 Snow -8 1018 92 10000 1.5 150 17:41 12.12.2020
4934 Clouds -8 1018 92 6000 2.1 150 16:45 12.12.2020
4935 Clouds -8 1018 92 6000 2.1 150 16:45 12.12.2020
4936 Clouds -9 1018 100 6000 1.5 130 15:58 12.12.2020
4937 Clouds -9 1018 100 6000 1.5 130 15:58 12.12.2020
4938 Clouds -9 1018 100 6000 1.5 130 15:58 12.12.2020
4939 Clouds -9 1018 100 6000 1.5 130 15:39 12.12.2020
4940 Clouds -9 1018 92 4600 2.1 120 14:54 12.12.2020
4941 Mist -9 1018 92 3400 2.6 100 14:22 12.12.2020
4942 Clouds -9 1018 92 2600 2.1 140 13:44 12.12.2020
4943 Clouds -9 1018 92 2600 2.1 140 13:25 12.12.2020
4944 Snow -9 1018 92 2000 2.6 160 12:37 12.12.2020
4945 Snow -9 1018 92 5000 1 0 11:28 12.12.2020
4946 Snow -9 1018 92 1800 1.5 140 10:46 12.12.2020
4947 Snow -10 1019 92 10000 3.1 180 09:24 12.12.2020
4948 Snow -9 1018 92 10000 3.1 200 08:41 12.12.2020
4949 Clouds -7 1019 92 10000 2.1 120 01:56 12.12.2020
4950 Clouds -6 1019 92 10000 1.5 160 23:31 11.12.2020
4951 Clouds -5 1019 92 9000 2.6 180 20:58 11.12.2020
4952 Clouds -5 1019 100 10000 2.1 180 19:44 11.12.2020
4953 Mist -5 1020 100 2300 2.6 170 16:59 11.12.2020
4954 Fog -5 1020 100 800 2.6 160 14:38 11.12.2020
4955 Fog -5 1020 100 800 2.6 160 14:37 11.12.2020
4956 Fog -5 1020 100 700 3.1 160 13:46 11.12.2020
4957 Mist -4 1020 92 1000 3.1 170 12:28 11.12.2020
4958 Mist -4 1020 92 1600 3.1 160 11:55 11.12.2020
4959 Mist -4 1020 92 1600 3.1 160 11:36 11.12.2020
4960 Clouds -4 1020 100 10000 2.6 170 10:40 11.12.2020
4961 Clouds -4 1020 100 8000 3.1 160 07:42 11.12.2020
4962 Mist -3 1020 100 3600 3.1 180 05:36 11.12.2020
4963 Fog -3 1020 100 1000 4.1 190 04:47 11.12.2020
4964 Clouds -2 1020 100 800 5.1 200 00:48 11.12.2020
4965 Clouds -2 1020 100 1200 5.7 200 23:27 10.12.2020
4966 Snow -2 1020 100 1600 4.6 200 21:37 10.12.2020
4967 Snow -2 1020 100 1200 5.7 200 20:51 10.12.2020
4968 Snow -2 1020 100 1200 5.7 200 20:26 10.12.2020
4969 Snow -1 1020 92 4200 5.7 200 19:29 10.12.2020
4970 Snow -1 1019 92 5000 6.2 200 18:47 10.12.2020
4971 Snow -1 1019 92 10000 7.2 200 17:26 10.12.2020
4972 Clouds -1 1019 100 10000 6.7 210 15:58 10.12.2020
4973 Snow -1 1019 100 10000 7.2 210 15:21 10.12.2020
4974 Clouds -1 1019 100 10000 6.2 200 14:43 10.12.2020
4975 Clouds 0 1019 95 8000 5.7 200 13:26 10.12.2020
4976 Snow 0 1018 95 5000 6.2 210 11:54 10.12.2020
4977 Clouds -1 1018 100 3000 7.2 210 10:54 10.12.2020
4978 Clouds -1 1018 92 5000 6.7 200 08:21 10.12.2020
4979 Clouds -1 1017 92 4000 8.2 200 07:26 10.12.2020
4980 Snow -2 1017 100 8000 7.7 190 05:34 10.12.2020
4981 Snow -3 1018 100 7000 6.7 190 02:31 10.12.2020
4982 Snow -3 1018 100 5000 6.7 190 01:25 10.12.2020
4983 Snow -3 1019 92 9000 5.7 180 23:37 09.12.2020
4984 Snow -4 1019 92 10000 4.1 180 20:37 09.12.2020
4985 Snow -5 1020 100 7000 5.1 180 19:40 09.12.2020
4986 Snow -5 1020 100 8000 4.6 180 18:21 09.12.2020
4987 Clouds -5 1020 92 10000 5.1 180 16:54 09.12.2020
4988 Snow -5 1020 100 10000 6.2 180 16:25 09.12.2020
4989 Snow -5 1020 100 10000 5.1 180 15:38 09.12.2020
4990 Clouds -4 1021 92 10000 5.1 180 14:49 09.12.2020
4991 Clouds -4 1021 92 10000 5.1 180 14:24 09.12.2020
4992 Clouds -4 1021 92 10000 6.7 180 13:19 09.12.2020
4993 Clouds -4 1021 92 10000 6.7 180 12:47 09.12.2020
4994 Clouds -4 1022 92 10000 7.2 190 11:55 09.12.2020
4995 Clouds -4 1022 100 10000 5.7 180 11:27 09.12.2020
4996 Snow -3 1022 100 6000 5.7 180 09:39 09.12.2020
4997 Snow -3 1022 100 2500 5.1 180 08:26 09.12.2020
4998 Snow -3 1022 92 5000 4.6 180 05:57 09.12.2020
4999 Clouds -4 1022 100 7000 6.7 180 04:20 09.12.2020
5000 Clouds -4 1023 100 6000 6.7 190 01:59 09.12.2020
5001 Snow -3 1023 92 10000 5.1 190 23:44 08.12.2020
5002 Snow -3 1023 92 10000 4.1 190 23:18 08.12.2020
5003 Clouds -4 1023 100 10000 3.6 170 21:30 08.12.2020
5004 Snow -4 1023 92 8000 4.1 160 19:40 08.12.2020
5005 Clouds -4 1024 92 5000 3.6 180 18:59 08.12.2020
5006 Clouds -4 1023 92 10000 3.6 160 18:27 08.12.2020
5007 Clouds -4 1023 92 10000 4.1 170 15:54 08.12.2020
5008 Clouds -4 1023 100 10000 5.7 170 14:31 08.12.2020
5009 Clouds -2 1023 92 10000 3.6 170 13:35 08.12.2020
5010 Clouds -2 1023 100 10000 4.1 180 12:29 08.12.2020
5011 Clouds -2 1023 100 6000 4.6 180 11:51 08.12.2020
5012 Mist -1 1023 92 4000 3.6 180 10:49 08.12.2020
5013 Mist -1 1023 92 4000 3.6 180 10:29 08.12.2020
5014 Mist -1 1022 100 3000 4.6 190 08:53 08.12.2020
5015 Clouds -1 1021 100 2500 2.6 180 07:18 08.12.2020
5016 Snow -1 1021 100 3400 4.6 190 03:42 08.12.2020
5017 Clouds 0 1021 96 10000 3.1 170 00:47 08.12.2020
5018 Clouds 0 1021 95 10000 3.1 170 00:22 08.12.2020
5019 Rain 1 1020 100 4300 5.1 190 22:40 07.12.2020
5020 Rain 1 1020 100 5000 4.6 190 21:51 07.12.2020
5021 Rain 1 1020 100 700 4.1 190 19:55 07.12.2020
5022 Fog 1 1020 100 550 3.6 190 18:42 07.12.2020
5023 Rain 1 1020 100 1000 4.1 190 17:26 07.12.2020
5024 Fog 1 1020 100 650 3.6 190 16:54 07.12.2020
5025 Rain 1 1019 100 600 3.1 190 15:30 07.12.2020
5026 Rain 1 1019 100 750 3.6 200 14:48 07.12.2020
5027 Rain 1 1019 100 800 4.1 200 14:18 07.12.2020
5028 Fog 1 1019 100 650 4.1 200 13:21 07.12.2020
5029 Rain 1 1019 100 900 4.1 200 11:44 07.12.2020
5030 Rain 1 1018 100 1000 4.6 200 11:19 07.12.2020
5031 Drizzle 2 1018 100 1400 6.2 200 09:42 07.12.2020
5032 Drizzle 2 1018 100 1000 4.6 200 08:21 07.12.2020
5033 Clouds 2 1016 100 600 4.6 200 06:29 07.12.2020
5034 Clouds 2 1016 100 900 4.1 210 04:48 07.12.2020
5035 Clouds 2 1016 100 10000 6.2 190 01:55 07.12.2020
5036 Rain 1 1016 100 7000 5.1 180 23:50 06.12.2020
5037 Rain 1 1016 100 3400 4.6 170 22:25 06.12.2020
5038 Snow 0 1016 96 1500 4.1 150 20:56 06.12.2020
5039 Snow 0 1016 96 1700 3.6 150 20:34 06.12.2020
5040 Snow 0 1016 96 2600 2.6 160 19:54 06.12.2020
5041 Rain 0 1016 97 800 3.6 150 18:21 06.12.2020
5042 Snow 0 1016 96 1900 2.6 120 16:47 06.12.2020
5043 Snow 0 1016 97 2700 3.1 120 14:58 06.12.2020
5044 Snow 0 1017 97 2900 2.6 140 13:45 06.12.2020
5045 Snow 0 1016 97 2100 2.6 130 12:51 06.12.2020
5046 Snow 0 1016 97 1900 2.6 120 11:58 06.12.2020
5047 Snow 0 1016 97 1800 2.6 130 11:34 06.12.2020
5048 Rain 1 1016 100 600 1.5 100 10:45 06.12.2020
5049 Rain 1 1016 100 550 1.5 90 09:49 06.12.2020
5050 Rain 1 1015 100 1400 2.6 170 08:29 06.12.2020
5051 Rain 1 1014 100 1600 3.1 200 05:51 06.12.2020
5052 Rain 1 1012 100 1100 5.1 190 00:57 06.12.2020
5053 Rain 0 1012 94 2300 5.1 190 00:38 06.12.2020
5054 Rain 0 1012 94 2300 5.1 190 00:20 06.12.2020
5055 Rain 0 1011 96 550 5.1 190 22:41 05.12.2020
5056 Rain 0 1011 96 550 5.1 190 22:19 05.12.2020
5057 Snow 0 1011 96 2200 5.1 200 21:47 05.12.2020
5058 Rain 0 1011 96 650 4.6 200 21:22 05.12.2020
5059 Clouds 0 1010 96 750 4.6 210 19:21 05.12.2020
5060 Fog 0 1010 96 900 4.6 210 18:38 05.12.2020
5061 Clouds -1 1009 100 6000 4.6 190 16:51 05.12.2020
5062 Snow -1 1009 100 10000 3.6 190 16:29 05.12.2020
5063 Clouds -1 1009 92 10000 3.6 180 15:37 05.12.2020
5064 Clouds -2 1010 100 10000 4.1 190 14:24 05.12.2020
5065 Snow -2 1010 92 1700 3.1 160 11:51 05.12.2020
5066 Snow -2 1010 92 3400 3.1 150 10:48 05.12.2020
5067 Snow -2 1010 92 3400 3.1 150 10:22 05.12.2020
5068 Snow -3 1011 100 3500 2.6 140 07:48 05.12.2020
5069 Snow -3 1011 100 2400 3.1 140 06:20 05.12.2020
5070 Snow -2 1013 92 10000 2.6 140 02:45 05.12.2020
5071 Clouds -2 1014 92 6000 4.1 170 23:47 04.12.2020
5072 Snow -2 1014 92 6000 4.1 160 21:53 04.12.2020
5073 Snow -2 1015 92 7000 4.6 160 19:57 04.12.2020
5074 Snow -2 1015 92 10000 3.6 150 18:47 04.12.2020
5075 Snow -3 1015 92 10000 2.1 130 17:54 04.12.2020
5076 Snow -3 1015 92 10000 2.6 150 17:19 04.12.2020
5077 Clouds -3 1015 86 10000 3.1 170 15:34 04.12.2020
5078 Clouds -4 1016 92 10000 2.6 150 13:38 04.12.2020
5079 Clouds -3 1016 79 10000 2.6 130 13:20 04.12.2020
5080 Clouds -4 1016 85 10000 2.6 130 12:41 04.12.2020
5081 Clouds -4 1016 92 10000 4.1 190 10:38 04.12.2020
5082 Clouds -4 1016 85 10000 4.6 180 09:30 04.12.2020
5083 Clouds -3 1016 92 10000 5.7 160 06:40 04.12.2020
5084 Clouds -3 1016 92 10000 3.1 150 04:54 04.12.2020
5085 Clouds -3 1016 86 10000 5.1 180 01:54 04.12.2020
5086 Clouds -2 1016 79 10000 5.7 170 22:51 03.12.2020
5087 Clouds -2 1016 86 10000 7.2 180 21:38 03.12.2020
5088 Clouds -2 1016 86 10000 7.7 190 20:47 03.12.2020
5089 Clouds -2 1016 92 10000 6.7 190 19:25 03.12.2020
5090 Clouds -1 1016 86 10000 6.7 190 18:48 03.12.2020
5091 Clouds -1 1015 86 10000 6.7 190 17:21 03.12.2020
5092 Snow -1 1015 92 10000 5.7 190 16:43 03.12.2020
5093 Snow -1 1015 92 10000 6.7 190 15:33 03.12.2020
5094 Snow -1 1015 92 10000 7.7 190 14:49 03.12.2020
5095 Snow -1 1015 92 10000 6.2 190 13:55 03.12.2020
5096 Snow 0 1015 97 10000 6.7 190 12:54 03.12.2020
5097 Snow 0 1015 97 10000 6.2 190 12:24 03.12.2020
5098 Snow 0 1015 97 10000 7.2 190 10:55 03.12.2020
5099 Snow 0 1014 98 8000 7.2 200 08:49 03.12.2020
5100 Snow 1 1013 95 10000 9.8 200 04:21 03.12.2020
5101 Snow 0 1013 95 5000 9.3 190 02:20 03.12.2020
5102 Snow -1 1014 100 10000 6.7 180 00:32 03.12.2020
5103 Snow -1 1014 100 5000 6.2 180 22:47 02.12.2020
5104 Snow 0 1015 87 3500 7.7 190 21:55 02.12.2020
5105 Clouds 0 1014 87 10000 8.2 190 20:51 02.12.2020
5106 Clouds 0 1015 87 10000 8.2 190 20:33 02.12.2020
5107 Clouds 0 1014 86 10000 9.3 200 19:54 02.12.2020
5108 Clouds -1 1014 100 10000 10.8 200 17:51 02.12.2020
5109 Clouds -1 1014 100 10000 10.8 200 17:32 02.12.2020
5110 Clouds -2 1015 100 9000 9.8 190 16:49 02.12.2020
5111 Mist -2 1015 92 5000 8.2 190 14:33 02.12.2020
5112 Mist -6 1017 92 2500 4.1 160 11:33 02.12.2020
5113 Mist -8 1017 92 1000 3.6 140 10:26 02.12.2020
5114 Clouds -9 1018 92 10000 2.6 170 07:51 02.12.2020
5115 Clear -7 1017 92 10000 2.6 280 23:42 01.12.2020
5116 Clouds -5 1016 92 10000 2.6 330 22:20 01.12.2020
5117 Clouds -4 1013 92 10000 2.6 320 19:45 01.12.2020
5118 Clouds -4 1013 92 10000 2.6 320 18:56 01.12.2020
5119 Clear -3 1011 92 10000 3.1 300 17:26 01.12.2020
5120 Snow -1 1008 92 10000 2.1 280 14:53 01.12.2020
5121 Snow -1 1007 100 2000 3.6 220 12:48 01.12.2020
5122 Snow -1 1006 100 1400 5.1 200 11:41 01.12.2020
5123 Snow -1 1006 100 1500 4.1 190 10:54 01.12.2020
5124 Snow -1 1006 100 1500 4.6 190 10:31 01.12.2020
5125 Snow -1 1006 92 10000 6.2 190 07:47 01.12.2020
5126 Snow -1 1006 92 10000 5.1 190 06:26 01.12.2020
5127 Clouds -2 1008 92 10000 5.1 180 01:36 01.12.2020
5128 Clouds -2 1009 92 10000 4.6 180 00:50 01.12.2020
5129 Clouds -3 1009 100 10000 4.1 170 23:20 30.11.2020
5130 Clouds -3 1010 100 10000 5.1 180 22:42 30.11.2020
5131 Clouds -3 1010 100 10000 5.1 180 22:22 30.11.2020
5132 Clouds -3 1010 92 10000 5.1 180 20:34 30.11.2020
5133 Clouds -3 1011 92 10000 5.1 180 19:41 30.11.2020
5134 Snow -3 1012 92 10000 5.7 180 18:21 30.11.2020
5135 Clouds -3 1012 92 10000 5.7 180 17:46 30.11.2020
5136 Clouds -3 1012 92 10000 6.2 180 16:53 30.11.2020
5137 Clouds -3 1013 92 10000 6.7 180 14:53 30.11.2020
5138 Clouds -3 1014 92 10000 6.7 180 13:55 30.11.2020
5139 Clouds -3 1014 92 10000 5.7 190 13:22 30.11.2020
5140 Clouds -3 1015 100 10000 6.7 180 12:25 30.11.2020
5141 Clouds -3 1015 100 10000 6.7 180 11:46 30.11.2020
5142 Clouds -3 1016 100 10000 5.7 170 10:25 30.11.2020
5143 Clouds -2 1017 92 10000 6.2 180 08:53 30.11.2020
5144 Clouds -2 1020 92 10000 7.2 190 01:28 30.11.2020
5145 Clouds -2 1021 100 10000 7.7 190 23:28 29.11.2020
5146 Clouds -2 1022 100 10000 7.7 190 21:44 29.11.2020
5147 Clouds -2 1022 100 10000 7.7 190 21:44 29.11.2020
5148 Clouds -2 1022 100 10000 7.7 190 21:26 29.11.2020
5149 Clouds -2 1022 100 10000 7.7 190 21:26 29.11.2020
5150 Clouds -2 1023 100 6000 7.7 190 19:19 29.11.2020
5151 Clouds -2 1023 100 8000 6.7 190 17:34 29.11.2020
5152 Clouds -2 1024 100 3200 6.2 190 14:22 29.11.2020
5153 Clouds -3 1025 100 3200 5.7 180 12:45 29.11.2020
5154 Clouds -3 1025 100 3500 5.7 190 11:37 29.11.2020
5155 Clouds -3 1025 100 4600 6.7 190 08:53 29.11.2020
5156 Clouds -3 1025 100 5000 5.7 190 08:34 29.11.2020
5157 Clouds -3 1026 92 7000 5.1 180 02:31 29.11.2020
5158 Clouds -4 1027 92 10000 5.1 170 22:59 28.11.2020
5159 Clouds -5 1027 100 10000 4.1 170 22:26 28.11.2020
5160 Clouds -6 1028 100 10000 4.1 180 19:58 28.11.2020
5161 Clouds -6 1028 100 10000 5.1 180 19:27 28.11.2020
5162 Clouds -6 1028 92 10000 5.1 170 18:56 28.11.2020
5163 Clouds -6 1028 100 10000 4.6 160 18:19 28.11.2020
5164 Clouds -6 1028 92 750 4.6 160 16:56 28.11.2020
5165 Clouds -5 1028 100 3600 3.6 170 14:58 28.11.2020
5166 Clouds -4 1028 100 1100 3.6 180 13:47 28.11.2020
5167 Clouds -4 1028 92 600 3.1 160 11:25 28.11.2020
5168 Fog -5 1027 92 1300 3.1 150 09:25 28.11.2020
5169 Fog -6 1025 92 1700 1 180 03:39 28.11.2020
5170 Fog -7 1025 100 1700 1.5 220 01:52 28.11.2020
5171 Fog -7 1025 100 1700 1.5 220 01:52 28.11.2020
5172 Fog -5 1023 92 1200 2.1 210 23:19 27.11.2020
5173 Clouds -6 1022 100 9000 2.6 190 22:23 27.11.2020
5174 Clouds -6 1021 100 6000 3.1 150 20:39 27.11.2020
5175 Clouds -6 1021 92 10000 2.1 150 19:33 27.11.2020
5176 Clouds -6 1020 92 9000 1.5 140 18:57 27.11.2020
5177 Fog -6 1019 92 1100 2.1 120 15:50 27.11.2020
5178 Fog -7 1018 100 600 2.1 110 14:22 27.11.2020
5179 Fog -6 1017 92 700 2.1 130 12:48 27.11.2020
5180 Fog -6 1017 92 800 2.1 110 12:20 27.11.2020
5181 Fog -7 1017 92 700 3.1 80 10:51 27.11.2020
5182 Mist -7 1016 92 2500 3.1 80 10:28 27.11.2020
5183 Clouds -7 1017 97 10000 1.32 51 07:39 27.11.2020
5184 Clouds -5 1012 96 10000 3.82 11 22:47 26.11.2020
5185 Clouds -5 1011 96 10000 4.1 2 22:22 26.11.2020
5186 Clouds -4 1007 92 10000 4.6 10 21:39 26.11.2020
5187 Clouds -3 1006 86 10000 6.2 10 19:48 26.11.2020
5188 Clouds -3 1005 86 10000 5.7 10 18:34 26.11.2020
5189 Clouds -4 1003 92 10000 5.7 360 16:32 26.11.2020
5190 Clouds -4 1000 85 10000 5.1 360 13:44 26.11.2020
5191 Clouds -5 999 92 10000 4.6 10 12:49 26.11.2020
5192 Clouds -5 999 92 10000 4.6 10 12:29 26.11.2020
5193 Clouds -4 997 85 10000 6.7 10 10:38 26.11.2020
5194 Clouds -4 996 85 10000 7.2 20 09:59 26.11.2020
5195 Clouds -4 996 85 10000 6.7 20 09:31 26.11.2020
5196 Clouds -4 995 92 10000 6.2 30 08:43 26.11.2020
5197 Clouds -4 994 92 10000 6.2 30 07:49 26.11.2020
5198 Snow -4 996 92 2800 5.7 90 00:46 26.11.2020
5199 Snow -5 1001 100 3300 6.2 100 21:36 25.11.2020
5200 Snow -6 1003 92 10000 4.1 100 20:19 25.11.2020
5201 Snow -7 1003 92 10000 4.6 110 18:50 25.11.2020
5202 Snow -8 1006 92 10000 4.6 100 17:24 25.11.2020
5203 Clouds -9 1007 85 10000 5.7 110 15:42 25.11.2020
5204 Clouds -10 1008 92 10000 5.1 110 14:42 25.11.2020
5205 Clouds -10 1008 92 10000 5.7 120 13:44 25.11.2020
5206 Clouds -10 1009 92 10000 4.1 120 12:30 25.11.2020
5207 Clouds -9 1009 92 6000 3.1 100 11:20 25.11.2020
5208 Mist -10 1009 85 5000 3.1 100 09:20 25.11.2020
5209 Mist -10 1009 85 1600 3.6 90 08:49 25.11.2020
5210 Clouds -11 1009 92 1600 2.1 190 05:20 25.11.2020
5211 Fog -12 1009 92 900 1.5 110 03:31 25.11.2020
5212 Mist -12 1009 85 2400 2.1 100 00:48 25.11.2020
5213 Clouds -13 1009 92 2000 1.5 260 23:57 24.11.2020
5214 Fog -13 1008 92 350 1.5 80 23:34 24.11.2020
5215 Fog -11 1008 85 6000 0.5 0 22:18 24.11.2020
5216 Clouds -11 1008 92 3100 0.5 0 21:31 24.11.2020
5217 Fog -10 1007 92 1000 1.5 340 20:45 24.11.2020
5218 Clouds -10 1007 92 10000 1 0 19:21 24.11.2020
5219 Clear -8 1006 92 10000 2.6 350 17:31 24.11.2020
5220 Clear -8 1006 92 10000 1.5 340 16:56 24.11.2020
5221 Clear -8 1006 92 10000 4.1 360 16:36 24.11.2020
5222 Clear -7 1006 92 10000 4.1 350 15:55 24.11.2020
5223 Clear -7 1005 92 10000 5.7 340 15:19 24.11.2020
5224 Clear -7 1005 92 10000 4.1 340 14:43 24.11.2020
5225 Clear -7 1005 100 10000 3.1 340 12:55 24.11.2020
5226 Clear -6 1005 92 10000 2.6 340 12:31 24.11.2020
5227 Clouds -6 1004 92 10000 3.6 350 11:58 24.11.2020
5228 Clouds -4 1004 92 10000 2.6 360 10:49 24.11.2020
5229 Clouds -4 1003 100 10000 2.6 360 10:25 24.11.2020
5230 Clouds -4 1003 100 10000 2.6 360 10:25 24.11.2020
5231 Clouds -3 1003 92 1800 2.1 330 09:35 24.11.2020
5232 Clouds -3 1002 92 8000 4.1 340 08:27 24.11.2020
5233 Clouds -3 1000 92 10000 4.1 340 04:49 24.11.2020
5234 Clouds -3 1000 92 10000 4.1 340 04:49 24.11.2020
5235 Clouds -1 996 92 10000 3.6 350 23:28 23.11.2020
5236 Clouds -2 994 100 10000 3.6 350 21:38 23.11.2020
5237 Clouds -2 994 100 10000 3.6 350 20:56 23.11.2020
5238 Snow -2 993 92 10000 4.1 350 20:28 23.11.2020
5239 Clouds -2 992 92 10000 4.6 350 19:32 23.11.2020
5240 Clouds -1 991 92 6000 5.1 340 17:27 23.11.2020
5241 Clouds -1 990 100 6000 4.6 340 16:37 23.11.2020
5242 Clouds -1 989 100 10000 4.6 330 14:49 23.11.2020
5243 Clouds 0 987 97 10000 4.1 330 13:33 23.11.2020
5244 Clouds 0 987 97 7000 3.6 330 12:38 23.11.2020
5245 Mist 0 986 97 1000 4.1 330 11:48 23.11.2020
5246 Mist 0 986 98 1000 4.1 330 11:21 23.11.2020
5247 Snow 0 985 95 1600 3.6 330 09:32 23.11.2020
5248 Snow 0 984 95 700 2.6 330 08:49 23.11.2020
5249 Fog 0 983 96 700 0.5 350 07:28 23.11.2020
5250 Clouds 0 981 96 10000 4.6 160 00:38 23.11.2020
5251 Clouds 0 981 96 8000 4.1 160 23:36 22.11.2020
5252 Clouds 1 980 100 7000 5.1 160 22:18 22.11.2020
5253 Rain 1 980 100 10000 6.2 160 20:54 22.11.2020
5254 Clouds 1 980 100 10000 5.7 160 19:55 22.11.2020
5255 Clouds 1 981 100 10000 5.7 160 18:53 22.11.2020
5256 Clouds 1 981 100 10000 5.7 170 17:26 22.11.2020
5257 Clouds 2 981 93 10000 6.2 180 15:53 22.11.2020
5258 Clouds 2 981 93 10000 7.7 200 14:39 22.11.2020
5259 Clouds 1 981 96 10000 4.1 190 12:50 22.11.2020
5260 Clouds 0 981 95 10000 5.1 200 11:57 22.11.2020
5261 Clouds 0 981 96 10000 5.1 210 11:20 22.11.2020
5262 Clouds 0 981 96 10000 5.7 210 10:45 22.11.2020
5263 Clouds 0 981 98 10000 3.6 170 09:32 22.11.2020
5264 Clouds -1 983 100 10000 4.1 160 01:49 22.11.2020
5265 Clouds -1 986 100 5000 3.6 160 23:40 21.11.2020
5266 Clouds -1 987 92 9000 5.1 160 22:18 21.11.2020
5267 Clouds -1 988 92 7000 6.2 160 21:30 21.11.2020
5268 Clouds -2 989 100 6000 5.7 150 20:35 21.11.2020
5269 Clouds -2 989 100 4700 6.7 160 19:54 21.11.2020
5270 Clouds -2 990 100 3700 6.7 160 19:33 21.11.2020
5271 Snow -2 992 92 5000 6.2 160 18:27 21.11.2020
5272 Clouds -3 995 92 2200 6.7 150 16:49 21.11.2020
5273 Clouds -3 994 100 3500 6.7 150 16:49 21.11.2020
5274 Clouds -3 995 92 2200 6.7 150 16:26 21.11.2020
5275 Snow -4 999 92 3700 6.2 150 15:22 21.11.2020
5276 Snow -4 1000 92 10000 7.2 150 14:43 21.11.2020
5277 Snow -4 1000 92 10000 7.2 150 14:20 21.11.2020
5278 Rain -4 1001 92 10000 5.7 150 14:20 21.11.2020
5279 Clear -5 1003 85 10000 4.6 140 12:28 21.11.2020
5280 Clear -6 1004 92 10000 5.1 120 11:58 21.11.2020
5281 Clear -8 1007 92 10000 5.1 120 10:40 21.11.2020
5282 Clear -9 1008 92 10000 5.1 140 09:58 21.11.2020
5283 Clear -9 1008 85 10000 4.1 130 08:51 21.11.2020
5284 Clear -7 1011 85 10000 4.1 200 06:34 21.11.2020
5285 Clear -7 1011 92 10000 2.6 210 04:33 21.11.2020
5286 Clear -6 1011 85 10000 2.1 270 00:38 21.11.2020
5287 Clear -6 1011 85 10000 2.6 310 23:25 20.11.2020
5288 Clear -5 1010 79 10000 4.1 340 21:56 20.11.2020
5289 Clear -5 1009 79 10000 2.6 310 21:38 20.11.2020
5290 Clear -5 1009 79 10000 2.6 310 21:38 20.11.2020
5291 Clear -6 1009 79 10000 3.1 310 21:18 20.11.2020
5292 Clear -5 1007 79 10000 3.1 320 19:44 20.11.2020
5293 Clear -5 1006 85 10000 3.1 320 18:32 20.11.2020
5294 Clear -4 1006 79 10000 4.1 320 17:42 20.11.2020
5295 Clear -4 1006 79 10000 4.1 320 17:23 20.11.2020
5296 Clear -3 1004 73 10000 5.1 320 16:37 20.11.2020
5297 Clear -3 1004 79 10000 4.6 310 15:51 20.11.2020
5298 Clouds -2 1001 79 10000 4.6 320 14:30 20.11.2020
5299 Clouds -1 999 80 10000 5.1 330 13:43 20.11.2020
5300 Clouds -1 998 80 10000 4.1 330 12:59 20.11.2020
5301 Clouds -1 998 80 10000 5.1 330 12:28 20.11.2020
5302 Clouds 0 996 91 10000 6.2 330 11:36 20.11.2020
5303 Clouds 0 994 90 10000 5.7 330 10:37 20.11.2020
5304 Snow -2 991 92 9000 4.1 340 08:36 20.11.2020
5305 Clouds -2 990 86 10000 4.1 330 07:58 20.11.2020
5306 Clouds 0 985 90 10000 5.1 350 05:20 20.11.2020
5307 Clouds 0 982 82 10000 4.6 310 03:42 20.11.2020
5308 Clear -5 978 85 10000 3.1 290 22:33 19.11.2020
5309 Clear -5 977 85 10000 3.1 290 21:54 19.11.2020
5310 Clear -4 976 85 10000 4.6 300 20:59 19.11.2020
5311 Clear -3 976 79 10000 5.1 320 20:21 19.11.2020
5312 Clear -3 975 86 10000 6.2 320 19:27 19.11.2020
5313 Clear -3 974 86 10000 5.1 330 18:55 19.11.2020
5314 Snow -4 973 92 5000 6.7 330 17:35 19.11.2020
5315 Snow -3 972 92 2900 7.2 340 16:33 19.11.2020
5316 Snow -3 972 92 3400 6.2 350 15:31 19.11.2020
5317 Snow -3 974 92 800 5.7 360 13:55 19.11.2020
5318 Snow -3 974 92 700 5.7 360 13:36 19.11.2020
5319 Snow -3 975 92 1200 5.1 360 12:54 19.11.2020
5320 Snow -3 975 92 1300 5.7 10 12:33 19.11.2020
5321 Snow -2 977 86 5000 5.7 10 11:41 19.11.2020
5322 Snow -2 977 92 1700 5.1 10 11:22 19.11.2020
5323 Snow -2 977 92 10000 4.6 10 10:31 19.11.2020
5324 Snow -2 978 92 7000 4.6 20 09:48 19.11.2020
5325 Snow -2 978 92 10000 6.7 20 09:27 19.11.2020
5326 Clouds -1 979 92 2000 5.7 10 08:37 19.11.2020
5327 Snow -1 979 100 3000 4.1 10 07:35 19.11.2020
5328 Clouds 1 985 95 10000 1.5 250 01:47 19.11.2020
5329 Rain 1 987 88 10000 2.6 210 00:32 19.11.2020
5330 Clear 1 987 85 10000 3.6 220 23:31 18.11.2020
5331 Clear 1 988 85 10000 5.1 220 22:59 18.11.2020
5332 Clear 1 988 85 10000 5.1 220 22:29 18.11.2020
5333 Clear 1 988 85 10000 5.1 220 22:29 18.11.2020
5334 Clear 1 989 85 10000 5.7 220 21:43 18.11.2020
5335 Clear 1 989 83 10000 5.7 220 21:25 18.11.2020
5336 Clear 1 988 83 10000 6.2 220 20:32 18.11.2020
5337 Clear 1 989 83 10000 5.1 220 19:42 18.11.2020
5338 Clear 1 989 81 10000 5.1 220 19:21 18.11.2020
5339 Clouds 1 989 100 10000 5.7 220 18:40 18.11.2020
5340 Clear 1 989 100 10000 6.2 230 17:44 18.11.2020
5341 Clouds 2 989 93 10000 5.7 230 16:26 18.11.2020
5342 Clouds 2 989 93 10000 6.2 230 15:58 18.11.2020
5343 Clouds 2 988 93 10000 6.7 220 14:41 18.11.2020
5344 Clouds 2 988 93 10000 7.2 220 13:47 18.11.2020
5345 Clouds 2 988 100 10000 7.2 220 13:21 18.11.2020
5346 Clouds 3 989 93 10000 5.7 230 12:42 18.11.2020
5347 Clouds 3 988 100 10000 5.7 220 11:42 18.11.2020
5348 Clouds 3 988 100 10000 5.1 220 10:54 18.11.2020
5349 Clouds 3 988 100 10000 6.2 220 10:27 18.11.2020
5350 Clouds 3 989 100 10000 4.6 190 08:23 18.11.2020
5351 Rain 4 990 93 10000 5.7 180 06:37 18.11.2020
5352 Rain 5 995 93 10000 8.7 190 01:49 18.11.2020
5353 Rain 5 996 93 7000 7.2 180 23:53 17.11.2020
5354 Rain 4 997 100 10000 7.7 180 22:53 17.11.2020
5355 Clouds 4 997 100 8000 7.2 170 22:29 17.11.2020
5356 Clouds 4 997 100 10000 6.7 170 21:52 17.11.2020
5357 Rain 4 998 100 9000 7.2 170 21:31 17.11.2020
5358 Rain 4 998 100 10000 8.7 170 20:50 17.11.2020
5359 Rain 5 999 93 7000 7.2 170 20:27 17.11.2020
5360 Rain 5 999 93 7000 7.2 170 19:56 17.11.2020
5361 Clouds 5 1001 93 6000 7.2 180 18:34 17.11.2020
5362 Clouds 5 1001 93 6000 6.7 180 17:44 17.11.2020
5363 Rain 4 1002 100 8000 6.2 180 16:54 17.11.2020
5364 Rain 4 1002 100 9000 6.2 170 16:20 17.11.2020
5365 Rain 4 1003 100 4300 7.2 170 15:41 17.11.2020
5366 Rain 4 1003 100 6000 6.2 170 15:22 17.11.2020
5367 Rain 4 1003 100 6000 6.2 170 14:54 17.11.2020
5368 Rain 4 1003 93 4000 6.2 170 14:22 17.11.2020
5369 Rain 3 1004 100 10000 7.2 170 13:35 17.11.2020
5370 Drizzle 3 1004 100 5000 7.2 170 12:48 17.11.2020
5371 Clouds 3 1005 100 10000 6.7 170 12:23 17.11.2020
5372 Clouds 3 1006 93 10000 6.7 170 11:41 17.11.2020
5373 Clouds 2 1006 100 10000 6.2 170 10:45 17.11.2020
5374 Clouds 2 1006 100 10000 6.2 170 10:23 17.11.2020
5375 Clouds 2 1007 100 10000 6.7 160 09:48 17.11.2020
5376 Clouds 2 1007 100 10000 5.7 160 09:20 17.11.2020
5377 Rain 2 1007 100 5000 6.7 170 08:21 17.11.2020
5378 Rain 2 1007 100 6000 6.2 160 07:35 17.11.2020
5379 Clouds 2 1009 93 7000 5.1 160 04:32 17.11.2020
5380 Clouds 1 1009 100 6000 5.1 170 03:29 17.11.2020
5381 Clouds 1 1009 100 7000 6.2 160 02:29 17.11.2020
5382 Clouds 1 1010 100 3600 6.7 160 00:57 17.11.2020
5383 Drizzle 1 1011 100 3600 6.7 180 23:57 16.11.2020
5384 Mist 1 1011 100 3900 7.7 170 23:33 16.11.2020
5385 Mist 1 1011 100 4600 7.2 170 22:59 16.11.2020
5386 Clouds 1 1011 100 4100 6.7 170 22:26 16.11.2020
5387 Clouds 1 1011 100 3800 5.7 180 21:56 16.11.2020
5388 Clouds 1 1011 100 4100 6.7 180 21:38 16.11.2020
5389 Clouds 1 1011 100 4100 6.7 180 21:19 16.11.2020
5390 Drizzle 1 1011 100 3900 6.2 180 20:26 16.11.2020
5391 Mist 1 1011 100 4900 6.2 170 19:53 16.11.2020
5392 Clouds 1 1011 100 6000 6.2 170 19:29 16.11.2020
5393 Clouds 1 1011 100 8000 6.2 170 18:51 16.11.2020
5394 Clouds 1 1011 100 7000 6.2 170 18:18 16.11.2020
5395 Clouds 1 1011 100 6000 5.7 170 17:28 16.11.2020
5396 Clouds 1 1011 100 8000 5.7 170 16:57 16.11.2020
5397 Clouds 1 1011 100 6000 6.2 170 16:39 16.11.2020
5398 Clouds 1 1012 100 10000 6.7 170 16:20 16.11.2020
5399 Clouds 1 1011 100 7000 5.7 170 15:43 16.11.2020
5400 Clouds 1 1011 100 7000 5.7 170 15:43 16.11.2020
5401 Clouds 1 1011 100 7000 5.7 170 15:25 16.11.2020
5402 Clouds 1 1011 100 8000 5.7 170 14:47 16.11.2020
5403 Drizzle 1 1012 100 2500 6.2 180 13:40 16.11.2020
5404 Clouds 1 1011 100 10000 7.2 180 12:45 16.11.2020
5405 Clouds 1 1011 100 10000 7.2 180 12:45 16.11.2020
5406 Clouds 1 1011 100 10000 7.2 180 12:45 16.11.2020
5407 Clouds 1 1011 100 10000 7.2 180 12:45 16.11.2020
5408 Clouds 1 1011 100 10000 7.2 180 12:25 16.11.2020
5409 Clouds 2 1012 93 10000 8.2 190 11:38 16.11.2020
5410 Drizzle 1 1012 100 3500 6.7 190 11:20 16.11.2020
5411 Drizzle 1 1012 100 4000 6.7 190 10:42 16.11.2020
5412 Drizzle 1 1012 100 4000 6.7 190 10:24 16.11.2020
5413 Drizzle 2 1011 93 8000 7.2 180 09:43 16.11.2020
5414 Drizzle 2 1011 93 8000 7.2 180 09:22 16.11.2020
5415 Clouds 2 1011 93 10000 7.7 190 08:40 16.11.2020
5416 Clouds 2 1011 93 10000 7.2 190 07:44 16.11.2020
5417 Clouds 2 1011 93 10000 7.2 190 06:50 16.11.2020
5418 Drizzle 2 1011 93 9000 7.2 190 05:57 16.11.2020
5419 Clouds 2 1011 93 10000 7.7 190 04:37 16.11.2020
5420 Clouds 2 1011 100 10000 6.7 180 02:29 16.11.2020
5421 Clouds 3 1011 93 10000 8.2 180 01:41 16.11.2020
5422 Clouds 3 1011 93 8000 7.7 190 23:54 15.11.2020
5423 Clouds 3 1011 100 9000 7.7 180 23:22 15.11.2020
5424 Clouds 4 1011 93 10000 8.7 190 22:48 15.11.2020
5425 Clouds 4 1011 93 10000 8.7 190 22:21 15.11.2020
5426 Clouds 3 1011 100 9000 7.2 180 21:44 15.11.2020
5427 Clouds 3 1011 100 9000 7.2 180 21:24 15.11.2020
5428 Clouds 3 1011 100 3000 6.2 180 20:41 15.11.2020
5429 Drizzle 3 1011 100 3300 6.7 180 20:19 15.11.2020
5430 Drizzle 3 1011 100 3300 6.7 180 19:48 15.11.2020
5431 Clouds 3 1011 100 1800 6.2 180 19:22 15.11.2020
5432 Clouds 3 1011 100 8000 7.2 180 18:57 15.11.2020
5433 Clouds 3 1011 100 5000 7.2 180 18:39 15.11.2020
5434 Clouds 3 1011 100 5000 7.2 180 18:19 15.11.2020
5435 Clouds 3 1011 100 4000 7.2 180 17:44 15.11.2020
5436 Clouds 3 1011 100 4000 7.2 180 17:24 15.11.2020
5437 Drizzle 2 1011 100 4500 5.7 180 16:46 15.11.2020
5438 Drizzle 2 1011 100 4500 5.7 180 16:20 15.11.2020
5439 Drizzle 2 1011 100 7000 5.7 180 15:50 15.11.2020
5440 Clouds 2 1011 100 8000 6.7 180 15:26 15.11.2020
5441 Clouds 2 1011 100 6000 6.2 180 14:57 15.11.2020
5442 Drizzle 2 1011 100 6000 5.7 170 14:30 15.11.2020
5443 Clouds 2 1011 100 9000 5.7 170 13:56 15.11.2020
5444 Clouds 2 1011 100 10000 6.2 170 13:36 15.11.2020
5445 Rain 2 1011 100 10000 6.2 170 12:50 15.11.2020
5446 Clouds 2 1012 100 10000 7.2 180 12:23 15.11.2020
5447 Clouds 2 1012 100 10000 6.7 180 11:46 15.11.2020
5448 Clouds 2 1012 100 10000 6.7 180 11:20 15.11.2020
5449 Clouds 2 1012 100 10000 6.7 180 10:53 15.11.2020
5450 Clouds 3 1012 93 10000 7.2 180 10:32 15.11.2020
5451 Clouds 3 1012 93 10000 7.2 180 09:57 15.11.2020
5452 Clouds 3 1011 93 10000 7.2 180 09:37 15.11.2020
5453 Clouds 2 1011 100 7000 6.7 180 09:18 15.11.2020
5454 Clouds 2 1011 100 6000 6.2 170 08:45 15.11.2020
5455 Clouds 2 1011 100 10000 6.2 170 07:47 15.11.2020
5456 Clouds 2 1012 93 7000 5.1 160 06:49 15.11.2020
5457 Rain 1 1012 100 10000 5.1 170 04:56 15.11.2020
5458 Rain 1 1013 100 10000 5.1 170 02:27 15.11.2020
5459 Rain 1 1014 100 10000 5.7 170 00:37 15.11.2020
5460 Rain 1 1014 100 10000 5.1 170 00:18 15.11.2020
5461 Rain 1 1014 100 10000 5.7 170 23:27 14.11.2020
5462 Clouds 2 1014 93 10000 5.1 180 22:45 14.11.2020
5463 Clouds 2 1014 93 10000 5.1 180 22:26 14.11.2020
5464 Clouds 2 1014 93 10000 4.6 180 21:39 14.11.2020
5465 Clouds 2 1014 93 10000 4.6 180 21:21 14.11.2020
5466 Clouds 2 1014 93 10000 4.6 180 21:21 14.11.2020
5467 Clouds 2 1014 93 10000 5.7 190 20:48 14.11.2020
5468 Clouds 1 1014 100 7000 4.6 180 20:25 14.11.2020
5469 Clouds 1 1014 100 4200 5.1 170 19:39 14.11.2020
5470 Clouds 1 1014 100 6000 4.6 170 19:20 14.11.2020
5471 Clouds 1 1015 100 10000 5.1 180 18:42 14.11.2020
5472 Clouds 1 1015 100 10000 5.1 180 18:22 14.11.2020
5473 Clouds 1 1015 87 10000 6.2 170 17:46 14.11.2020
5474 Clouds 1 1015 87 10000 6.2 170 17:28 14.11.2020
5475 Clouds 1 1015 100 10000 6.2 180 16:52 14.11.2020
5476 Clouds 1 1015 100 10000 5.7 170 16:34 14.11.2020
5477 Clouds 1 1015 100 10000 5.7 180 15:56 14.11.2020
5478 Clouds 1 1015 100 10000 5.7 190 15:33 14.11.2020
5479 Clouds 1 1015 100 10000 5.1 170 14:57 14.11.2020
5480 Clouds 1 1015 100 10000 5.7 160 14:30 14.11.2020
5481 Clouds 1 1015 100 10000 4.1 180 13:55 14.11.2020
5482 Clouds 1 1015 100 10000 4.6 180 13:37 14.11.2020
5483 Clouds 1 1015 100 10000 4.6 180 13:19 14.11.2020
5484 Clouds 1 1015 100 8000 4.6 180 12:39 14.11.2020
5485 Clouds 1 1016 100 9000 4.6 180 12:18 14.11.2020
5486 Rain 1 1016 100 8000 4.6 180 11:39 14.11.2020
5487 Clouds 1 1016 100 8000 4.6 170 11:18 14.11.2020
5488 Clouds 1 1016 100 9000 4.6 170 10:40 14.11.2020
5489 Clouds 1 1016 100 9000 4.6 170 10:22 14.11.2020
5490 Clouds 1 1016 100 8000 4.6 180 09:45 14.11.2020
5491 Clouds 1 1016 100 8000 4.6 180 09:27 14.11.2020
5492 Clouds 1 1016 100 9000 4.6 180 08:42 14.11.2020
5493 Clouds 1 1016 100 9000 4.6 180 08:22 14.11.2020
5494 Clouds 1 1016 100 10000 4.6 190 07:42 14.11.2020
5495 Clouds 1 1016 100 10000 4.6 190 07:42 14.11.2020
5496 Clouds 1 1016 100 10000 4.6 190 06:58 14.11.2020
5497 Clouds 2 1016 93 10000 4.6 190 06:21 14.11.2020
5498 Clouds 2 1016 100 10000 4.6 190 05:18 14.11.2020
5499 Clouds 2 1017 100 2300 4.1 180 03:21 14.11.2020
5500 Clouds 3 1018 93 9000 5.1 190 00:28 14.11.2020
5501 Clouds 3 1018 100 10000 5.7 190 23:38 13.11.2020
5502 Clouds 3 1018 100 10000 6.2 200 22:59 13.11.2020
5503 Clouds 3 1018 100 6000 5.7 200 22:41 13.11.2020
5504 Clouds 3 1018 100 6000 5.7 200 22:21 13.11.2020
5505 Clouds 3 1018 100 10000 6.2 200 21:49 13.11.2020
5506 Drizzle 3 1018 100 6000 5.7 190 21:27 13.11.2020
5507 Clouds 3 1018 100 5000 4.6 190 20:51 13.11.2020
5508 Clouds 3 1018 100 10000 4.6 200 20:32 13.11.2020
5509 Clouds 3 1018 100 10000 5.1 190 19:56 13.11.2020
5510 Drizzle 3 1018 100 3700 5.1 200 19:37 13.11.2020
5511 Drizzle 3 1018 100 3700 5.1 200 19:19 13.11.2020
5512 Clouds 3 1018 100 10000 5.7 200 18:32 13.11.2020
5513 Clouds 3 1018 100 10000 5.1 190 17:47 13.11.2020
5514 Clouds 3 1018 100 10000 5.1 190 17:23 13.11.2020
5515 Clouds 3 1018 100 10000 5.1 210 16:57 13.11.2020
5516 Clouds 3 1018 100 3900 5.1 200 16:39 13.11.2020
5517 Clouds 3 1018 100 3900 5.1 200 16:20 13.11.2020
5518 Clouds 4 1018 93 10000 4.6 190 15:39 13.11.2020
5519 Drizzle 4 1018 93 5000 5.1 210 15:21 13.11.2020
5520 Clouds 4 1018 93 10000 6.2 220 14:38 13.11.2020
5521 Clouds 4 1018 93 10000 6.2 210 14:18 13.11.2020
5522 Clouds 4 1018 93 10000 6.2 210 14:18 13.11.2020
5523 Clouds 4 1018 93 10000 7.2 210 13:32 13.11.2020
5524 Clouds 4 1018 93 10000 7.2 210 12:58 13.11.2020
5525 Clouds 4 1018 93 10000 6.7 210 12:39 13.11.2020
5526 Clouds 4 1018 93 10000 5.7 200 12:20 13.11.2020
5527 Clouds 4 1019 93 10000 6.7 210 11:46 13.11.2020
5528 Clouds 4 1019 93 10000 6.7 210 11:46 13.11.2020
5529 Clouds 3 1019 100 8000 7.2 210 11:21 13.11.2020
5530 Clouds 3 1019 100 8000 7.2 210 10:50 13.11.2020
5531 Drizzle 3 1019 100 6000 6.2 210 10:32 13.11.2020
5532 Clouds 3 1019 100 10000 5.1 210 09:48 13.11.2020
5533 Drizzle 3 1019 100 8000 5.7 220 09:29 13.11.2020
5534 Drizzle 3 1019 100 7000 5.7 220 08:53 13.11.2020
5535 Drizzle 3 1019 100 6000 6.2 220 08:27 13.11.2020
5536 Drizzle 3 1018 100 7000 6.2 220 07:50 13.11.2020
5537 Drizzle 3 1018 100 5000 4.6 210 07:27 13.11.2020
5538 Clouds 3 1018 93 10000 4.1 210 06:55 13.11.2020
5539 Clouds 3 1018 93 10000 4.6 220 06:36 13.11.2020
5540 Clouds 3 1018 100 5000 5.7 220 05:41 13.11.2020
5541 Drizzle 3 1019 100 5000 7.2 210 03:41 13.11.2020
5542 Clouds 3 1019 100 6000 7.2 210 01:42 13.11.2020
5543 Clouds 3 1019 100 6000 7.2 220 00:36 13.11.2020
5544 Clouds 3 1019 100 9000 7.2 220 23:50 12.11.2020
5545 Clouds 3 1019 100 3600 6.7 210 23:21 12.11.2020
5546 Clouds 2 1019 100 2000 6.7 210 22:55 12.11.2020
5547 Clouds 2 1019 100 1900 6.7 200 22:37 12.11.2020
5548 Clouds 2 1019 100 2400 6.7 200 21:58 12.11.2020
5549 Clouds 2 1019 100 5000 6.7 200 21:40 12.11.2020
5550 Clouds 2 1019 100 5000 6.7 200 21:21 12.11.2020
5551 Clouds 2 1019 100 3500 5.7 180 20:41 12.11.2020
5552 Clouds 2 1019 100 3500 5.7 180 20:23 12.11.2020
5553 Clouds 1 1020 100 1600 4.6 170 19:53 12.11.2020
5554 Fog 1 1020 100 1100 4.6 170 19:34 12.11.2020
5555 Fog 1 1020 100 900 4.1 170 18:58 12.11.2020
5556 Fog 1 1020 100 900 4.1 170 18:39 12.11.2020
5557 Mist 1 1020 100 1300 4.1 160 18:19 12.11.2020
5558 Fog 1 1020 100 1800 3.6 160 17:40 12.11.2020
5559 Fog 1 1020 100 1800 3.6 160 17:22 12.11.2020
5560 Fog 1 1021 100 2100 3.6 170 16:44 12.11.2020
5561 Fog 1 1021 100 2100 3.6 170 16:23 12.11.2020
5562 Fog 1 1021 100 1000 3.6 160 15:47 12.11.2020
5563 Fog 1 1021 100 1000 3.6 160 15:47 12.11.2020
5564 Fog 1 1021 100 1000 3.6 160 15:27 12.11.2020
5565 Drizzle 0 1021 95 600 3.6 150 14:47 12.11.2020
5566 Drizzle 0 1021 95 600 3.6 150 14:47 12.11.2020
5567 Drizzle 0 1021 96 600 3.6 150 14:27 12.11.2020
5568 Mist 0 1021 96 1000 3.6 150 13:58 12.11.2020
5569 Mist 0 1022 96 1000 3.1 160 13:39 12.11.2020
5570 Drizzle 1 1022 96 1100 2.6 170 13:19 12.11.2020
5571 Drizzle 1 1022 96 9000 3.1 220 12:44 12.11.2020
5572 Drizzle 1 1022 96 9000 3.1 220 12:24 12.11.2020
5573 Clouds 0 1022 96 10000 4.1 210 11:53 12.11.2020
5574 Clouds 0 1022 96 6000 3.6 180 11:30 12.11.2020
5575 Clouds 0 1022 96 10000 3.6 170 10:49 12.11.2020
5576 Clouds 0 1022 96 7000 3.6 180 10:29 12.11.2020
5577 Mist 0 1022 96 2000 3.1 190 09:50 12.11.2020
5578 Fog 0 1022 96 400 4.1 170 09:25 12.11.2020
5579 Drizzle 0 1022 96 700 3.6 190 08:58 12.11.2020
5580 Drizzle 0 1022 96 700 2.1 170 08:39 12.11.2020
5581 Drizzle 0 1022 96 700 2.6 170 08:20 12.11.2020
5582 Fog 0 1022 96 700 2.6 170 08:20 12.11.2020
5583 Drizzle 0 1022 96 700 2.6 170 07:53 12.11.2020
5584 Drizzle 0 1022 96 700 2.1 160 07:25 12.11.2020
5585 Fog 0 1022 96 700 2.1 170 06:51 12.11.2020
5586 Fog 0 1022 96 900 1.5 170 05:45 12.11.2020
5587 Clouds 0 1023 96 1000 2.1 180 03:43 12.11.2020
5588 Fog 0 1023 96 900 2.1 160 03:18 12.11.2020
5589 Fog 0 1023 97 1000 1.5 150 00:25 12.11.2020
5590 Clouds 0 1023 97 1300 1.5 150 23:40 11.11.2020
5591 Fog 0 1023 97 1100 2.1 170 23:22 11.11.2020
5592 Clouds 0 1023 97 1300 1.5 150 22:43 11.11.2020
5593 Clouds 0 1023 97 1300 1.5 150 22:21 11.11.2020
5594 Fog 0 1023 97 1400 2.1 160 21:56 11.11.2020
5595 Fog 0 1023 97 1800 2.1 160 21:38 11.11.2020
5596 Clouds 0 1023 97 2400 2.6 160 21:18 11.11.2020
5597 Mist 0 1023 97 2500 2.1 160 20:42 11.11.2020
5598 Mist 0 1023 96 2500 2.1 160 20:21 11.11.2020
5599 Clouds 0 1023 96 3600 2.6 160 19:51 11.11.2020
5600 Clouds -1 1023 100 4700 2.6 160 19:32 11.11.2020
5601 Clouds -1 1023 100 4100 2.6 160 18:58 11.11.2020
5602 Clouds -1 1023 100 3800 3.1 160 18:40 11.11.2020
5603 Clouds 0 1023 96 3600 2.6 160 17:46 11.11.2020
5604 Clouds 0 1023 97 3600 2.6 160 17:27 11.11.2020
5605 Clouds 0 1023 97 4200 3.1 170 16:59 11.11.2020
5606 Clouds 0 1023 97 6000 3.1 170 16:37 11.11.2020
5607 Clouds 0 1023 97 3400 3.1 160 16:19 11.11.2020
5608 Clouds 0 1023 97 3500 2.6 160 15:39 11.11.2020
5609 Mist 0 1023 97 2000 2.6 160 15:21 11.11.2020
5610 Mist 0 1023 97 1000 3.1 180 14:43 11.11.2020
5611 Mist 0 1023 96 1000 3.1 180 14:23 11.11.2020
5612 Mist 0 1023 96 1400 2.1 180 13:48 11.11.2020
5613 Mist 0 1023 96 1400 2.1 180 13:24 11.11.2020
5614 Fog -1 1024 100 500 2.6 180 12:21 11.11.2020
5615 Fog -1 1024 100 600 3.1 160 11:51 11.11.2020
5616 Fog -1 1024 100 600 3.1 160 11:33 11.11.2020
5617 Fog -2 1024 100 700 2.6 140 10:46 11.11.2020
5618 Fog -2 1024 100 700 2.6 140 10:28 11.11.2020
5619 Fog -2 1024 100 600 2.1 120 09:59 11.11.2020
5620 Mist -2 1024 92 2000 1.5 100 09:39 11.11.2020
5621 Mist -2 1024 92 2000 1.5 100 09:21 11.11.2020
5622 Fog -3 1024 100 700 1.5 110 08:43 11.11.2020
5623 Fog -3 1024 100 700 1.5 110 08:24 11.11.2020
5624 Clouds -3 1025 92 10000 1.5 160 07:44 11.11.2020
5625 Clouds -3 1025 86 10000 1.5 130 06:32 11.11.2020
5626 Clouds -4 1025 85 10000 2.1 110 05:44 11.11.2020
5627 Clear -4 1027 85 10000 1 0 01:47 11.11.2020
5628 Clear -5 1027 92 10000 1.5 180 00:57 11.11.2020
5629 Clear -5 1027 85 10000 1 200 00:24 11.11.2020
5630 Clear -5 1028 85 10000 1.5 190 23:38 10.11.2020
5631 Clear -5 1028 85 10000 1 0 23:20 10.11.2020
5632 Clear -5 1028 92 10000 1 220 22:45 10.11.2020
5633 Clear -5 1028 92 10000 1 220 22:26 10.11.2020
5634 Clear -5 1028 92 10000 2.1 210 21:41 10.11.2020
5635 Clear -5 1028 92 10000 1.5 220 21:23 10.11.2020
5636 Clear -5 1028 92 10000 1.5 220 20:56 10.11.2020
5637 Clear -6 1028 100 10000 1.5 220 20:38 10.11.2020
5638 Clear -6 1028 92 10000 2.1 210 20:19 10.11.2020
5639 Clear -5 1028 92 10000 1.5 240 19:44 10.11.2020
5640 Clear -5 1028 92 10000 1.5 240 19:24 10.11.2020
5641 Clear -6 1028 92 10000 2.1 250 18:55 10.11.2020
5642 Clear -5 1028 92 10000 1.5 250 18:36 10.11.2020
5643 Clear -6 1028 92 10000 1.5 230 18:18 10.11.2020
5644 Clear -5 1028 85 10000 1 0 17:41 10.11.2020
5645 Clear -6 1028 92 10000 2.1 260 17:22 10.11.2020
5646 Clear -5 1028 85 10000 1.5 260 16:41 10.11.2020
5647 Clear -5 1028 85 10000 1.5 260 16:22 10.11.2020
5648 Clear -4 1028 79 10000 1 0 15:54 10.11.2020
5649 Clear -5 1028 85 10000 2.1 310 15:36 10.11.2020
5650 Clear -3 1028 79 10000 2.6 290 15:18 10.11.2020
5651 Clear -3 1028 73 10000 2.1 290 14:39 10.11.2020
5652 Clear -3 1028 79 10000 2.6 310 14:18 10.11.2020
5653 Clear -3 1028 79 10000 2.6 300 13:38 10.11.2020
5654 Clear -3 1028 73 10000 2.6 300 13:19 10.11.2020
5655 Clear -3 1028 73 10000 2.6 300 12:46 10.11.2020
5656 Clear -3 1028 73 10000 2.6 300 12:25 10.11.2020
5657 Clear -3 1027 73 10000 2.6 290 11:43 10.11.2020
5658 Clear -3 1027 73 10000 2.6 310 11:21 10.11.2020
5659 Clear -3 1027 73 10000 2.6 310 10:57 10.11.2020
5660 Clear -3 1027 73 10000 2.6 300 10:38 10.11.2020
5661 Clear -3 1027 73 10000 2.6 300 10:19 10.11.2020
5662 Clear -4 1026 79 10000 3.1 320 09:43 10.11.2020
5663 Clear -4 1026 79 10000 3.1 320 09:24 10.11.2020
5664 Clear -4 1026 79 10000 3.1 300 08:53 10.11.2020
5665 Clear -4 1026 79 10000 3.6 320 08:27 10.11.2020
5666 Clear -3 1025 73 10000 4.1 330 07:44 10.11.2020
5667 Clear -3 1025 73 10000 4.1 330 07:24 10.11.2020
5668 Clear -4 1024 79 10000 4.1 330 06:40 10.11.2020
5669 Clear -3 1024 73 10000 3.1 320 05:43 10.11.2020
5670 Clear -3 1024 73 10000 3.1 320 04:59 10.11.2020
5671 Clear -2 1023 74 10000 2.6 290 02:29 10.11.2020
5672 Clear -2 1022 68 10000 2.1 270 01:30 10.11.2020
5673 Clear -2 1021 74 10000 2.6 310 23:55 09.11.2020
5674 Clear -1 1021 68 10000 2.6 310 23:33 09.11.2020
5675 Clear -1 1020 68 10000 2.6 300 22:48 09.11.2020
5676 Clear -1 1020 68 10000 2.6 300 22:25 09.11.2020
5677 Clear 0 1020 90 10000 4.6 310 21:54 09.11.2020
5678 Clear 0 1020 90 10000 4.6 310 21:36 09.11.2020
5679 Clear -1 1019 68 10000 4.1 310 21:18 09.11.2020
5680 Clear 0 1019 88 10000 4.1 310 20:37 09.11.2020
5681 Clear 0 1019 88 10000 3.6 300 20:18 09.11.2020
5682 Clear 0 1019 88 10000 4.6 300 19:41 09.11.2020
5683 Clear 0 1019 89 10000 4.6 300 19:21 09.11.2020
5684 Clear 0 1018 88 10000 2.6 290 18:42 09.11.2020
5685 Clear 1 1018 64 10000 3.1 290 18:20 09.11.2020
5686 Clear 1 1018 69 10000 3.6 290 17:52 09.11.2020
5687 Clear 1 1018 69 10000 3.6 290 17:31 09.11.2020
5688 Clear 1 1017 74 10000 4.1 310 16:46 09.11.2020
5689 Clear 1 1017 74 10000 4.1 310 16:28 09.11.2020
5690 Clear 1 1016 74 10000 4.1 310 15:51 09.11.2020
5691 Clear 2 1016 69 10000 4.6 310 15:31 09.11.2020
5692 Clear 3 1015 69 10000 4.6 320 14:59 09.11.2020
5693 Clear 3 1014 64 10000 5.7 320 14:40 09.11.2020
5694 Clear 3 1014 64 10000 6.2 310 14:22 09.11.2020
5695 Clear 3 1013 64 10000 6.2 300 13:43 09.11.2020
5696 Clouds 3 1012 64 10000 5.7 310 13:19 09.11.2020
5697 Clear 3 1012 64 10000 4.6 310 12:47 09.11.2020
5698 Clear 3 1012 64 10000 4.6 310 12:21 09.11.2020
5699 Clear 2 1011 69 10000 4.6 310 11:43 09.11.2020
5700 Clear 2 1011 69 10000 4.6 310 11:25 09.11.2020
5701 Clear 2 1010 74 10000 3.6 300 10:59 09.11.2020
5702 Clear 1 1010 74 10000 3.6 290 10:41 09.11.2020
5703 Clear 1 1010 74 10000 3.6 290 10:22 09.11.2020
5704 Clear 1 1009 74 10000 4.6 280 09:40 09.11.2020
5705 Clear 1 1009 74 10000 4.6 280 09:21 09.11.2020
5706 Clear 1 1008 80 10000 5.1 270 08:29 09.11.2020
5707 Clouds 0 1007 83 10000 3.6 270 07:57 09.11.2020
5708 Clouds 1 1007 80 10000 4.1 270 07:24 09.11.2020
5709 Clear 0 1007 82 10000 5.1 270 06:58 09.11.2020
5710 Clear -2 1006 92 10000 2.6 260 05:38 09.11.2020
5711 Clear -3 1007 92 10000 4.1 230 02:22 09.11.2020
5712 Clear -3 1008 86 10000 3.6 230 01:41 09.11.2020
5713 Clear -3 1008 86 10000 3.6 230 00:56 09.11.2020
5714 Clear -3 1010 86 10000 4.1 220 23:48 08.11.2020
5715 Clear -3 1010 86 10000 4.1 220 23:28 08.11.2020
5716 Clear -3 1011 86 10000 4.1 220 22:43 08.11.2020
5717 Clear -3 1011 86 10000 4.1 220 22:22 08.11.2020
5718 Clear -3 1011 86 10000 3.6 230 21:48 08.11.2020
5719 Clear -4 1012 85 10000 3.1 230 21:24 08.11.2020
5720 Clear -4 1012 85 10000 3.1 230 20:57 08.11.2020
5721 Clear -4 1012 85 10000 3.1 230 20:38 08.11.2020
5722 Clear -3 1012 86 10000 3.1 220 20:20 08.11.2020
5723 Clear -4 1013 92 10000 2.1 210 19:45 08.11.2020
5724 Clear -4 1013 92 10000 2.1 210 19:45 08.11.2020
5725 Clear -4 1013 92 10000 2.1 210 19:23 08.11.2020
5726 Clear -3 1013 86 10000 2.6 220 18:58 08.11.2020
5727 Clear -3 1013 86 10000 1.5 210 18:39 08.11.2020
5728 Clear -3 1013 86 10000 1.5 210 18:20 08.11.2020
5729 Clear -3 1013 79 10000 2.1 230 17:42 08.11.2020
5730 Clear -2 1013 74 10000 2.1 250 17:21 08.11.2020
5731 Clear -2 1013 74 10000 2.1 250 16:59 08.11.2020
5732 Clear -2 1013 74 10000 2.6 270 16:38 08.11.2020
5733 Clear -2 1013 74 10000 2.6 270 16:20 08.11.2020
5734 Clear -1 1013 68 10000 2.1 270 15:46 08.11.2020
5735 Clear -1 1013 68 10000 2.1 290 15:27 08.11.2020
5736 Clear -1 1013 68 10000 3.1 290 14:43 08.11.2020
5737 Clear -1 1013 68 10000 3.1 290 14:24 08.11.2020
5738 Clear 0 1013 90 10000 3.1 290 13:56 08.11.2020
5739 Clear 0 1013 84 10000 2.6 290 13:26 08.11.2020
5740 Clear 0 1012 84 10000 3.1 280 12:55 08.11.2020
5741 Clear 0 1012 84 10000 3.6 300 12:37 08.11.2020
5742 Clear 0 1012 82 10000 3.1 290 12:18 08.11.2020
5743 Clear 0 1012 82 10000 4.1 300 11:42 08.11.2020
5744 Clear 0 1012 81 10000 4.1 300 11:24 08.11.2020
5745 Clear 0 1011 81 10000 5.1 290 10:53 08.11.2020
5746 Clear -1 1011 68 10000 4.6 290 10:21 08.11.2020
5747 Clear -1 1011 68 10000 4.6 290 10:00 08.11.2020
5748 Clear -1 1010 68 10000 4.6 280 09:41 08.11.2020
5749 Clear -1 1010 68 10000 5.1 280 09:18 08.11.2020
5750 Clear -1 1010 68 10000 5.7 290 08:44 08.11.2020
5751 Clear -1 1010 68 10000 5.7 290 08:22 08.11.2020
5752 Clear -1 1009 68 10000 5.7 290 07:53 08.11.2020
5753 Clear -1 1009 68 10000 5.7 290 07:31 08.11.2020
5754 Clear 0 1008 89 10000 5.1 300 06:27 08.11.2020
5755 Clear 0 1008 89 10000 5.7 290 05:54 08.11.2020
5756 Clear -1 1008 68 10000 5.7 280 04:50 08.11.2020
5757 Clear 0 1006 85 10000 4.1 270 01:55 08.11.2020
5758 Clear 0 1006 85 10000 4.6 270 01:19 08.11.2020
5759 Clear 0 1005 85 10000 5.1 270 00:30 08.11.2020
5760 Clear 1 1005 64 10000 5.1 280 23:50 07.11.2020
5761 Clear 1 1004 64 10000 5.7 280 23:30 07.11.2020
5762 Clear 1 1004 64 10000 6.2 280 22:47 07.11.2020
5763 Clear 1 1004 64 10000 6.2 280 22:28 07.11.2020
5764 Clear 1 1003 64 10000 5.7 290 21:56 07.11.2020
5765 Clear 1 1003 64 10000 6.2 290 21:38 07.11.2020
5766 Clear 2 1002 59 10000 6.2 290 21:18 07.11.2020
5767 Clear 2 1002 64 10000 6.2 290 20:44 07.11.2020
5768 Clear 2 1002 64 10000 6.2 290 20:25 07.11.2020
5769 Clear 2 1001 64 10000 6.2 280 19:44 07.11.2020
5770 Clear 2 1001 64 10000 6.2 280 19:26 07.11.2020
5771 Clear 3 1000 64 10000 6.2 280 18:41 07.11.2020
5772 Clear 3 1000 64 10000 5.1 270 18:22 07.11.2020
5773 Clear 3 999 64 10000 4.6 270 17:46 07.11.2020
5774 Clear 3 999 64 10000 4.6 270 17:28 07.11.2020
5775 Clouds 3 999 77 10000 4.1 320 16:46 07.11.2020
5776 Clouds 3 999 73 10000 4.1 320 16:25 07.11.2020
5777 Clouds 6 998 52 10000 7.7 290 15:52 07.11.2020
5778 Clouds 6 998 70 10000 5.7 270 15:26 07.11.2020
5779 Clear 6 997 70 10000 6.2 260 15:00 07.11.2020
5780 Clear 6 997 70 10000 6.2 260 15:00 07.11.2020
5781 Clear 6 997 75 10000 6.2 260 14:41 07.11.2020
5782 Clear 6 997 75 10000 5.7 250 14:20 07.11.2020
5783 Clouds 6 996 81 10000 6.7 250 13:43 07.11.2020
5784 Clouds 6 996 81 10000 6.7 250 13:23 07.11.2020
5785 Clouds 6 996 81 10000 5.7 240 12:40 07.11.2020
5786 Clouds 6 996 81 10000 6.2 240 11:54 07.11.2020
5787 Clouds 6 997 81 10000 6.2 240 11:36 07.11.2020
5788 Clouds 5 997 86 10000 6.2 230 11:18 07.11.2020
5789 Clear 5 997 86 10000 6.2 230 10:42 07.11.2020
5790 Clear 5 997 86 10000 6.2 230 10:23 07.11.2020
5791 Clear 4 998 93 10000 5.7 220 09:48 07.11.2020
5792 Clear 3 998 93 10000 6.7 220 09:23 07.11.2020
5793 Clear 3 998 93 10000 6.7 220 08:47 07.11.2020
5794 Clear 3 999 86 10000 5.7 220 08:29 07.11.2020
5795 Clear 2 999 93 10000 6.2 220 07:48 07.11.2020
5796 Clear 3 1002 91 10000 5.7 230 06:54 07.11.2020
5797 Clear 3 1002 89 10000 6.2 230 05:54 07.11.2020
5798 Clear 3 1003 69 10000 5.1 240 04:22 07.11.2020
5799 Clear 2 1005 80 10000 5.1 230 02:46 07.11.2020
5800 Clear 3 1004 74 10000 4.6 250 01:27 07.11.2020
5801 Clear 2 1004 74 10000 4.1 250 00:37 07.11.2020
5802 Clear 3 1003 74 10000 4.1 250 23:39 06.11.2020
5803 Clear 2 1003 80 10000 3.1 250 23:18 06.11.2020
5804 Clear 3 1002 74 10000 3.1 250 22:40 06.11.2020
5805 Clear 4 1001 69 10000 5.7 260 22:18 06.11.2020
5806 Clear 4 1001 69 10000 5.1 270 21:42 06.11.2020
5807 Clear 4 1000 69 10000 5.7 260 21:20 06.11.2020
5808 Clear 5 1000 65 10000 5.1 270 20:45 06.11.2020
5809 Clear 5 999 78 10000 5.7 270 20:20 06.11.2020
5810 Clear 5 999 78 10000 5.7 270 19:45 06.11.2020
5811 Clear 5 999 76 10000 5.7 270 19:27 06.11.2020
5812 Clear 5 999 75 10000 6.2 260 18:55 06.11.2020
5813 Clear 5 999 75 10000 6.2 260 18:55 06.11.2020
5814 Clear 5 998 75 10000 5.7 270 18:37 06.11.2020
5815 Clear 3 997 75 10000 5.1 230 18:19 06.11.2020
5816 Clear 3 997 86 10000 4.6 250 17:41 06.11.2020
5817 Clear 3 997 86 10000 4.6 250 17:23 06.11.2020
5818 Clear 4 997 80 10000 6.7 250 16:42 06.11.2020
5819 Clear 4 997 80 10000 6.7 250 16:20 06.11.2020
5820 Clear 2 997 75 10000 6.2 230 15:44 06.11.2020
5821 Clear 2 997 71 10000 6.2 230 15:25 06.11.2020
5822 Clear 2 998 80 10000 6.2 220 14:49 06.11.2020
5823 Clouds 2 999 80 10000 5.7 210 14:18 06.11.2020
5824 Clouds 2 999 80 10000 5.7 210 14:18 06.11.2020
5825 Clear 2 1000 80 10000 4.6 210 13:42 06.11.2020
5826 Clear 2 1000 80 10000 4.6 210 13:42 06.11.2020
5827 Clear 2 1000 80 10000 4.6 210 13:19 06.11.2020
5828 Clear 2 1000 80 10000 4.1 220 12:42 06.11.2020
5829 Clear 2 1000 80 10000 4.1 220 12:22 06.11.2020
5830 Clear 1 1001 86 10000 3.6 230 11:38 06.11.2020
5831 Clear 1 1001 80 10000 3.1 220 10:59 06.11.2020
5832 Clear 2 1001 74 10000 2.6 250 10:36 06.11.2020
5833 Rain 2 1002 74 10000 3.1 270 09:58 06.11.2020
5834 Rain 2 1002 74 10000 3.1 270 09:58 06.11.2020
5835 Rain 2 1001 74 10000 4.6 280 09:38 06.11.2020
5836 Rain 2 1001 74 10000 4.6 280 09:20 06.11.2020
5837 Clear 1 1000 80 10000 3.1 270 08:47 06.11.2020
5838 Clear 1 1000 80 10000 3.1 270 08:28 06.11.2020
5839 Clear 2 999 74 10000 4.1 300 07:44 06.11.2020
5840 Clear 2 999 74 10000 4.1 300 07:21 06.11.2020
5841 Clear 2 998 74 10000 5.1 310 06:40 06.11.2020
5842 Clear 2 997 74 10000 4.1 300 05:39 06.11.2020
5843 Clear 3 994 69 10000 6.2 290 02:52 06.11.2020
5844 Clear 3 990 74 10000 6.2 280 00:34 06.11.2020
5845 Clear 3 990 74 10000 7.2 280 23:51 05.11.2020
5846 Clear 3 989 74 10000 7.7 290 23:24 05.11.2020
5847 Clear 3 988 74 10000 6.7 280 22:48 05.11.2020
5848 Clear 3 987 74 10000 6.2 270 22:26 05.11.2020
5849 Clear 3 987 74 10000 6.2 270 21:57 05.11.2020
5850 Clear 3 987 74 10000 5.7 270 21:38 05.11.2020
5851 Clear 3 986 74 10000 5.1 270 21:19 05.11.2020
5852 Clear 3 986 74 10000 6.2 260 20:43 05.11.2020
5853 Clear 3 986 74 10000 6.2 260 20:24 05.11.2020
5854 Clear 3 986 74 10000 6.2 260 20:24 05.11.2020
5855 Clear 3 985 74 10000 5.7 260 19:44 05.11.2020
5856 Clear 3 985 74 10000 5.7 260 19:26 05.11.2020
5857 Clear 3 985 74 10000 5.7 260 19:26 05.11.2020
5858 Clear 3 985 71 10000 6.2 250 18:57 05.11.2020
5859 Clear 3 985 73 10000 6.2 250 18:39 05.11.2020
5860 Clear 4 984 72 10000 5.7 260 18:20 05.11.2020
5861 Clear 4 984 72 10000 5.7 260 17:43 05.11.2020
5862 Clear 4 984 72 10000 5.7 260 17:25 05.11.2020
5863 Clear 4 983 72 10000 6.2 260 16:48 05.11.2020
5864 Clear 4 983 70 10000 5.7 260 16:27 05.11.2020
5865 Clear 3 983 86 10000 5.1 250 15:51 05.11.2020
5866 Clear 2 983 93 10000 4.1 240 15:27 05.11.2020
5867 Clear 3 983 86 10000 5.1 240 14:55 05.11.2020
5868 Clear 3 982 86 10000 5.1 240 14:36 05.11.2020
5869 Clear 3 982 86 10000 5.1 240 14:18 05.11.2020
5870 Clear 3 982 86 10000 6.7 250 13:40 05.11.2020
5871 Clouds 3 981 93 10000 5.7 250 12:56 05.11.2020
5872 Clouds 3 981 93 10000 6.7 250 12:37 05.11.2020
5873 Clouds 3 980 93 10000 6.2 240 11:59 05.11.2020
5874 Clouds 3 980 93 10000 7.2 250 11:41 05.11.2020
5875 Clouds 3 980 93 10000 7.2 240 11:22 05.11.2020
5876 Clouds 3 980 93 10000 6.7 240 10:47 05.11.2020
5877 Clouds 3 980 93 10000 6.7 240 10:26 05.11.2020
5878 Clouds 2 980 100 8000 8.2 220 09:49 05.11.2020
5879 Rain 2 980 100 8000 8.2 220 09:24 05.11.2020
5880 Rain 1 981 100 7000 7.7 210 08:49 05.11.2020
5881 Rain 2 982 93 10000 10.3 210 08:30 05.11.2020
5882 Rain 3 984 93 10000 8.7 200 07:46 05.11.2020
5883 Rain 3 984 93 10000 8.7 200 07:27 05.11.2020
5884 Clouds 3 986 86 10000 6.7 200 06:42 05.11.2020
5885 Rain 2 987 93 10000 6.2 200 05:55 05.11.2020
5886 Clouds 1 994 100 10000 5.7 210 01:42 05.11.2020
5887 Clouds 2 995 93 10000 5.7 210 00:35 05.11.2020
5888 Clouds 2 996 93 10000 5.7 210 23:47 04.11.2020
5889 Clouds 2 996 93 10000 5.7 210 23:27 04.11.2020
5890 Clouds 2 996 93 10000 5.7 210 22:55 04.11.2020
5891 Clouds 2 996 93 10000 5.1 210 22:36 04.11.2020
5892 Clouds 2 996 93 10000 5.1 210 22:36 04.11.2020
5893 Clouds 3 997 93 10000 5.1 220 22:18 04.11.2020
5894 Clouds 3 997 93 10000 5.7 220 21:43 04.11.2020
5895 Clouds 3 997 93 10000 5.7 220 21:24 04.11.2020
5896 Clouds 3 998 93 10000 5.7 220 20:46 04.11.2020
5897 Clouds 3 998 93 10000 5.7 220 20:28 04.11.2020
5898 Clouds 3 998 93 10000 5.7 210 19:50 04.11.2020
5899 Clouds 3 998 93 10000 5.1 220 19:31 04.11.2020
5900 Clouds 4 998 86 10000 5.7 220 18:58 04.11.2020
5901 Clouds 4 999 86 10000 6.2 200 18:39 04.11.2020
5902 Clouds 4 999 86 10000 6.2 200 18:39 04.11.2020
5903 Clouds 4 999 86 10000 7.2 210 18:20 04.11.2020
5904 Clouds 4 999 86 10000 6.2 200 17:45 04.11.2020
5905 Clouds 4 999 86 10000 6.2 200 17:24 04.11.2020
5906 Clouds 5 999 86 10000 7.7 200 16:44 04.11.2020
5907 Clouds 5 999 86 10000 7.7 200 16:24 04.11.2020
5908 Clouds 5 1000 86 10000 6.7 200 15:55 04.11.2020
5909 Clouds 5 1000 93 10000 7.2 200 15:36 04.11.2020
5910 Drizzle 4 1000 100 10000 7.2 200 15:18 04.11.2020
5911 Clouds 4 1001 93 10000 7.2 200 14:41 04.11.2020
5912 Clouds 4 1001 93 10000 7.2 200 14:23 04.11.2020
5913 Clouds 3 1001 100 10000 6.7 190 13:48 04.11.2020
5914 Clouds 3 1002 100 10000 7.2 180 13:21 04.11.2020
5915 Clouds 3 1002 100 10000 7.2 180 12:55 04.11.2020
5916 Clouds 3 1002 100 10000 8.2 190 12:37 04.11.2020
5917 Clouds 4 1002 93 10000 7.2 180 12:18 04.11.2020
5918 Clouds 4 1003 93 10000 6.7 200 11:42 04.11.2020
5919 Clouds 4 1003 93 10000 6.7 200 11:20 04.11.2020
5920 Clouds 4 1003 93 10000 8.7 210 10:47 04.11.2020
5921 Clouds 4 1003 93 10000 9.3 200 10:22 04.11.2020
5922 Clouds 3 1003 100 10000 6.2 200 09:53 04.11.2020
5923 Clouds 2 1003 100 10000 5.1 190 09:25 04.11.2020
5924 Clouds 2 1003 93 10000 4.1 180 08:47 04.11.2020
5925 Clouds 2 1003 93 10000 4.1 180 08:22 04.11.2020
5926 Clouds 1 1003 100 10000 3.6 190 07:55 04.11.2020
5927 Clouds 1 1003 100 10000 4.6 200 07:30 04.11.2020
5928 Clear 1 1003 100 10000 4.1 210 06:55 04.11.2020
5929 Clear 1 1003 100 10000 4.6 220 06:36 04.11.2020
5930 Clouds 0 1002 92 10000 3.6 230 03:55 04.11.2020
5931 Fog 0 1001 90 600 3.6 220 02:24 04.11.2020
5932 Fog 1 1000 100 750 4.6 220 00:43 04.11.2020
5933 Fog 1 1000 100 750 4.6 210 23:44 03.11.2020
5934 Fog 1 1000 100 750 4.6 210 23:23 03.11.2020
5935 Clouds 2 999 100 10000 3.1 220 22:41 03.11.2020
5936 Mist 1 999 100 4100 2.6 210 22:21 03.11.2020
5937 Mist 1 999 100 4100 2.6 210 21:56 03.11.2020
5938 Clouds 2 999 100 10000 4.1 200 21:38 03.11.2020
5939 Clouds 2 999 100 10000 3.6 0 21:20 03.11.2020
5940 Fog 2 998 100 1700 2.6 210 20:44 03.11.2020
5941 Fog 2 998 100 1700 2.6 210 20:23 03.11.2020
5942 Fog 2 997 100 1200 3.1 210 19:43 03.11.2020
5943 Fog 2 997 100 1300 2.6 220 19:22 03.11.2020
5944 Fog 3 997 100 1000 1.5 250 18:45 03.11.2020
5945 Fog 3 996 100 750 3.6 230 18:21 03.11.2020
5946 Fog 3 996 100 750 3.6 230 17:58 03.11.2020
5947 Mist 3 996 100 2200 3.6 220 17:40 03.11.2020
5948 Clouds 3 996 100 10000 3.1 240 17:21 03.11.2020
5949 Clouds 3 995 100 10000 4.1 230 16:44 03.11.2020
5950 Clouds 3 995 100 10000 4.1 230 16:22 03.11.2020
5951 Clouds 4 994 93 10000 3.6 230 15:43 03.11.2020
5952 Clouds 4 994 93 10000 3.6 220 15:24 03.11.2020
5953 Clouds 4 994 93 10000 3.6 220 14:52 03.11.2020
5954 Clouds 4 993 100 10000 4.1 220 14:33 03.11.2020
5955 Clouds 4 992 100 10000 4.1 230 13:46 03.11.2020
5956 Clouds 4 992 100 10000 4.1 230 13:23 03.11.2020
5957 Clouds 4 991 100 10000 4.6 230 12:59 03.11.2020
5958 Clouds 4 991 100 10000 4.6 230 12:37 03.11.2020
5959 Clouds 4 990 100 10000 3.6 230 12:18 03.11.2020
5960 Clouds 4 989 100 10000 4.6 230 11:41 03.11.2020
5961 Clouds 4 989 100 10000 4.6 230 11:20 03.11.2020
5962 Clouds 4 989 100 10000 4.6 230 11:20 03.11.2020
5963 Clouds 4 988 100 10000 4.6 220 10:39 03.11.2020
5964 Clouds 4 988 100 10000 5.1 230 10:21 03.11.2020
5965 Clouds 4 988 100 10000 5.1 230 09:51 03.11.2020
5966 Clouds 4 987 100 10000 4.1 220 09:33 03.11.2020
5967 Clouds 5 987 93 10000 5.7 220 08:56 03.11.2020
5968 Clouds 5 986 100 10000 5.1 220 08:35 03.11.2020
5969 Clouds 5 986 100 10000 5.7 220 07:49 03.11.2020
5970 Clouds 6 985 93 10000 5.1 230 07:22 03.11.2020
5971 Clouds 6 985 93 10000 6.2 220 06:46 03.11.2020
5972 Clouds 6 984 100 10000 5.7 210 05:38 03.11.2020
5973 Clouds 8 983 93 7000 7.7 190 02:20 03.11.2020
5974 Clouds 7 983 100 10000 7.7 200 00:41 03.11.2020
5975 Clouds 7 983 100 10000 8.7 190 23:51 02.11.2020
5976 Clouds 7 983 93 10000 8.7 190 23:33 02.11.2020
5977 Clouds 6 983 100 6000 9.3 180 22:50 02.11.2020
5978 Clouds 6 982 100 6000 8.2 180 22:30 02.11.2020
5979 Clouds 6 982 100 5000 9.8 180 21:59 02.11.2020
5980 Clouds 6 982 93 5000 9.3 170 21:37 02.11.2020
5981 Clouds 5 982 100 5000 9.8 170 21:19 02.11.2020
5982 Clouds 5 983 93 7000 8.2 160 20:39 02.11.2020
5983 Clouds 5 983 93 7000 8.2 160 20:20 02.11.2020
5984 Rain 3 984 100 6000 8.7 150 19:45 02.11.2020
5985 Rain 3 984 100 6000 8.7 150 19:27 02.11.2020
5986 Rain 3 985 93 10000 8.2 160 18:55 02.11.2020
5987 Rain 2 985 100 10000 8.7 150 18:37 02.11.2020
5988 Rain 2 986 93 10000 8.7 140 18:19 02.11.2020
5989 Rain 2 987 93 10000 8.2 140 17:41 02.11.2020
5990 Rain 2 987 93 10000 8.2 140 17:23 02.11.2020
5991 Rain 2 988 93 10000 9.3 140 16:49 02.11.2020
5992 Rain 2 990 93 9000 7.7 130 16:28 02.11.2020
5993 Rain 2 991 93 7000 7.7 150 15:55 02.11.2020
5994 Rain 2 992 93 8000 7.7 150 15:37 02.11.2020
5995 Rain 2 992 93 8000 7.7 150 15:19 02.11.2020
5996 Rain 2 993 100 10000 7.7 150 14:42 02.11.2020
5997 Rain 2 993 100 10000 7.7 150 14:19 02.11.2020
5998 Rain 3 994 93 10000 8.2 150 13:47 02.11.2020
5999 Rain 3 995 100 10000 7.2 150 13:22 02.11.2020
6000 Rain 3 996 100 7000 7.7 140 12:50 02.11.2020
6001 Rain 4 997 93 10000 8.2 150 12:26 02.11.2020
6002 Rain 4 998 100 10000 8.2 160 11:45 02.11.2020
6003 Rain 4 999 100 10000 7.7 160 11:20 02.11.2020
6004 Rain 4 999 100 10000 7.7 160 10:46 02.11.2020
6005 Rain 4 1000 100 10000 8.2 160 10:24 02.11.2020
6006 Rain 4 1000 100 10000 8.7 160 09:55 02.11.2020
6007 Rain 4 1001 100 10000 8.2 160 09:27 02.11.2020
6008 Rain 4 1001 100 10000 7.7 160 08:48 02.11.2020
6009 Clouds 4 1001 100 10000 7.2 160 08:29 02.11.2020
6010 Rain 4 1002 100 10000 6.7 160 07:55 02.11.2020
6011 Rain 4 1002 100 4000 6.7 160 07:32 02.11.2020
6012 Rain 4 1003 100 4300 6.2 170 06:44 02.11.2020
6013 Clouds 4 1004 100 10000 6.7 160 04:56 02.11.2020
6014 Clouds 5 1008 86 10000 6.7 160 01:26 02.11.2020
6015 Clouds 5 1009 86 10000 6.7 160 00:36 02.11.2020
6016 Clouds 5 1009 86 10000 6.7 170 23:55 01.11.2020
6017 Clouds 5 1009 93 10000 6.7 170 23:36 01.11.2020
6018 Clouds 5 1010 93 10000 6.7 170 23:18 01.11.2020
6019 Clouds 5 1010 93 10000 7.2 180 22:38 01.11.2020
6020 Clouds 5 1010 93 10000 6.7 180 22:18 01.11.2020
6021 Clouds 5 1010 93 10000 6.2 180 21:41 01.11.2020
6022 Clouds 5 1010 93 10000 6.2 180 21:23 01.11.2020
6023 Clouds 6 1011 87 10000 7.7 190 20:45 01.11.2020
6024 Clouds 6 1011 87 10000 7.7 190 20:25 01.11.2020
6025 Clouds 6 1011 93 10000 7.7 180 19:46 01.11.2020
6026 Clouds 6 1011 93 10000 7.7 180 19:28 01.11.2020
6027 Clouds 6 1011 93 10000 7.2 190 18:57 01.11.2020
6028 Clouds 6 1011 93 10000 7.7 190 18:37 01.11.2020
6029 Clouds 6 1012 93 10000 8.7 200 18:18 01.11.2020
6030 Clouds 6 1012 100 10000 7.2 200 17:43 01.11.2020
6031 Clouds 6 1012 100 10000 7.2 200 17:25 01.11.2020
6032 Clouds 6 1012 100 10000 8.2 200 16:42 01.11.2020
6033 Clouds 6 1012 100 10000 8.2 200 16:24 01.11.2020
6034 Clouds 6 1012 100 10000 7.7 200 15:55 01.11.2020
6035 Drizzle 5 1012 100 4600 6.2 190 15:37 01.11.2020
6036 Clouds 4 1012 100 1200 4.6 170 15:18 01.11.2020
6037 Clouds 4 1013 100 2300 4.6 180 14:45 01.11.2020
6038 Mist 4 1013 100 4000 5.1 180 14:22 01.11.2020
6039 Mist 4 1013 100 4000 5.1 180 13:49 01.11.2020
6040 Clouds 4 1013 100 10000 4.6 190 13:31 01.11.2020
6041 Fog 3 1013 100 500 4.1 180 12:56 01.11.2020
6042 Fog 3 1014 100 450 4.6 160 12:37 01.11.2020
6043 Clouds 2 1014 100 450 4.1 160 12:18 01.11.2020
6044 Clouds 2 1014 100 350 4.1 150 11:44 01.11.2020
6045 Clouds 2 1014 100 450 3.6 150 11:18 01.11.2020
6046 Clouds 1 1015 100 900 3.6 150 10:41 01.11.2020
6047 Fog 1 1015 100 650 4.1 150 10:22 01.11.2020
6048 Fog 1 1015 100 650 4.1 150 09:47 01.11.2020
6049 Clouds 0 1015 96 900 4.1 140 08:52 01.11.2020
6050 Clouds 0 1015 96 650 4.1 130 08:33 01.11.2020
6051 Clouds 0 1016 96 500 3.1 140 07:45 01.11.2020
6052 Clouds 0 1016 96 650 3.6 140 06:22 01.11.2020
6053 Fog 0 1018 96 900 2.6 140 01:58 01.11.2020
6054 Fog -1 1018 100 1200 4.1 150 00:55 01.11.2020
6055 Clouds -1 1019 100 2400 4.6 170 23:42 31.10.2020
6056 Clouds -1 1019 92 6000 4.1 160 23:19 31.10.2020
6057 Clouds -2 1019 100 6000 4.1 160 22:43 31.10.2020
6058 Clouds -2 1019 100 6000 4.1 160 22:23 31.10.2020
6059 Snow -2 1020 100 10000 3.6 160 21:46 31.10.2020
6060 Snow -2 1020 100 10000 3.6 160 21:21 31.10.2020
6061 Snow -2 1019 92 10000 4.1 160 20:41 31.10.2020
6062 Clouds -3 1020 100 7000 4.1 160 20:19 31.10.2020
6063 Clouds -3 1020 100 8000 4.1 160 19:43 31.10.2020
6064 Snow -3 1020 100 8000 4.1 160 19:24 31.10.2020
6065 Snow -3 1020 92 8000 4.1 160 18:52 31.10.2020
6066 Snow -3 1020 92 8000 4.1 160 18:34 31.10.2020
6067 Snow -3 1020 92 9000 3.6 160 17:43 31.10.2020
6068 Snow -3 1020 92 9000 3.6 160 17:24 31.10.2020
6069 Snow -3 1020 92 10000 3.1 180 16:53 31.10.2020
6070 Rain -3 1020 86 10000 3.1 170 16:33 31.10.2020
6071 Clouds -3 1020 86 10000 3.1 180 15:54 31.10.2020
6072 Clouds -3 1020 86 10000 2.6 180 15:25 31.10.2020
6073 Clear -2 1020 86 10000 4.1 180 14:53 31.10.2020
6074 Clear -2 1020 86 10000 4.1 180 14:31 31.10.2020
6075 Clouds -2 1020 86 10000 3.6 170 13:52 31.10.2020
6076 Clouds -2 1020 86 10000 4.1 150 13:28 31.10.2020
6077 Clouds -2 1020 79 10000 3.6 150 12:55 31.10.2020
6078 Clouds -3 1020 86 10000 3.6 150 12:22 31.10.2020
6079 Clear -3 1021 79 10000 3.1 130 11:41 31.10.2020
6080 Clear -3 1021 79 10000 3.1 130 11:22 31.10.2020
6081 Clear -4 1021 85 10000 3.1 140 10:42 31.10.2020
6082 Clear -5 1021 92 10000 3.1 170 09:57 31.10.2020
6083 Clear -5 1020 92 10000 3.1 160 09:37 31.10.2020
6084 Clear -6 1021 92 10000 3.1 140 09:19 31.10.2020
6085 Clear -6 1020 85 10000 3.1 140 08:26 31.10.2020
6086 Clear -7 1020 92 10000 3.6 150 07:30 31.10.2020
6087 Clear -6 1020 92 10000 3.1 120 06:57 31.10.2020
6088 Clear -6 1020 92 10000 1 0 06:36 31.10.2020
6089 Clear -6 1020 92 10000 1 0 03:48 31.10.2020
6090 Clouds -8 1020 92 10000 1.5 220 02:39 31.10.2020
6091 Clear -5 1019 92 10000 1.5 60 00:52 31.10.2020
6092 Clear -6 1019 92 10000 1 0 23:54 30.10.2020
6093 Clear -6 1019 100 10000 0.5 0 23:30 30.10.2020
6094 Clear -6 1019 100 10000 0.5 0 23:30 30.10.2020
6095 Clear -5 1019 92 10000 0.5 0 22:59 30.10.2020
6096 Clear -5 1019 85 10000 3.1 360 22:38 30.10.2020
6097 Clear -5 1018 92 10000 3.6 350 22:19 30.10.2020
6098 Clear -5 1019 85 10000 3.1 360 22:19 30.10.2020
6099 Clear -5 1018 92 10000 3.6 350 21:47 30.10.2020
6100 Clear -5 1018 92 10000 2.6 340 21:26 30.10.2020
6101 Clear -5 1018 92 10000 3.6 340 20:45 30.10.2020
6102 Clear -5 1018 92 10000 3.6 340 20:26 30.10.2020
6103 Clear -4 1018 85 10000 3.1 330 19:56 30.10.2020
6104 Clear -4 1017 85 10000 3.1 330 19:22 30.10.2020
6105 Clear -4 1017 85 10000 2.6 320 18:59 30.10.2020
6106 Clear -4 1017 85 10000 2.6 320 18:59 30.10.2020
6107 Clear -4 1017 92 10000 3.1 320 18:41 30.10.2020
6108 Clear -4 1017 85 10000 4.1 340 18:22 30.10.2020
6109 Clear -4 1017 85 10000 4.1 340 17:43 30.10.2020
6110 Clear -4 1016 92 10000 3.6 330 17:20 30.10.2020
6111 Clear -4 1016 92 10000 4.1 330 16:50 30.10.2020
6112 Clear -4 1016 92 10000 4.1 330 16:24 30.10.2020
6113 Clear -3 1015 86 10000 3.6 330 15:41 30.10.2020
6114 Clear -3 1015 86 10000 3.6 330 15:21 30.10.2020
6115 Clear -3 1015 86 10000 3.6 330 14:47 30.10.2020
6116 Clear -2 1014 86 10000 4.1 320 14:28 30.10.2020
6117 Clear -2 1014 86 10000 3.1 320 13:57 30.10.2020
6118 Clear -2 1014 86 10000 3.6 330 13:39 30.10.2020
6119 Clear -2 1013 86 10000 3.6 340 13:19 30.10.2020
6120 Clear -2 1013 86 10000 4.1 330 12:40 30.10.2020
6121 Clear -2 1012 86 10000 3.6 340 12:21 30.10.2020
6122 Clear -2 1012 86 10000 4.6 340 11:43 30.10.2020
6123 Clear -2 1012 86 10000 4.6 340 11:20 30.10.2020
6124 Clear -3 1011 86 10000 3.6 340 10:47 30.10.2020
6125 Clear -3 1011 86 10000 3.6 340 10:23 30.10.2020
6126 Clear -3 1011 86 10000 4.1 340 09:46 30.10.2020
6127 Clear -3 1010 86 10000 4.1 340 09:24 30.10.2020
6128 Clear -3 1009 86 10000 4.1 320 08:42 30.10.2020
6129 Clear -3 1009 86 10000 4.1 320 08:23 30.10.2020
6130 Clouds -3 1009 92 10000 4.1 320 07:49 30.10.2020
6131 Clear -3 1008 92 10000 4.1 330 07:31 30.10.2020
6132 Clear -2 1007 86 10000 4.1 330 06:38 30.10.2020
6133 Clear -2 1005 92 10000 3.6 320 04:47 30.10.2020
6134 Clouds -1 1004 100 10000 2.6 300 02:26 30.10.2020
6135 Clouds 0 1002 94 10000 2.6 340 00:39 30.10.2020
6136 Clouds -1 1002 100 3800 3.6 330 23:49 29.10.2020
6137 Fog -1 1001 100 1400 5.1 330 23:30 29.10.2020
6138 Mist -1 1001 100 1400 4.1 320 22:58 29.10.2020
6139 Mist 1 1000 89 4000 4.6 330 22:38 29.10.2020
6140 Mist 1 1000 92 4000 4.6 330 22:20 29.10.2020
6141 Clouds 2 999 100 10000 2.6 300 21:36 29.10.2020
6142 Rain 2 999 100 10000 2.1 290 21:18 29.10.2020
6143 Rain 2 999 100 10000 2.6 310 20:41 29.10.2020
6144 Rain 3 998 93 10000 2.6 300 20:19 29.10.2020
6145 Rain 3 998 100 10000 3.6 290 19:42 29.10.2020
6146 Clouds 3 998 100 10000 3.6 290 19:22 29.10.2020
6147 Clouds 4 998 100 9000 3.1 260 18:49 29.10.2020
6148 Clouds 4 997 100 5000 3.1 250 18:29 29.10.2020
6149 Clouds 4 997 100 10000 3.6 240 17:56 29.10.2020
6150 Clouds 4 997 100 10000 3.6 240 17:37 29.10.2020
6151 Clouds 4 997 100 10000 3.1 240 17:18 29.10.2020
6152 Clouds 4 997 100 10000 3.1 240 17:18 29.10.2020
6153 Rain 4 997 100 10000 3.1 240 16:43 29.10.2020
6154 Rain 5 996 93 10000 3.6 240 16:18 29.10.2020
6155 Rain 5 996 93 10000 4.1 250 15:41 29.10.2020
6156 Clouds 5 996 93 10000 4.1 250 15:22 29.10.2020
6157 Clouds 5 996 100 2900 4.6 250 14:59 29.10.2020
6158 Clouds 5 996 100 2900 4.6 250 14:59 29.10.2020
6159 Clouds 5 996 100 2900 4.6 250 14:59 29.10.2020
6160 Clouds 5 995 100 10000 4.1 230 14:40 29.10.2020
6161 Clouds 5 995 100 8000 4.1 230 14:20 29.10.2020
6162 Clouds 5 995 100 8000 4.6 230 13:45 29.10.2020
6163 Rain 5 995 100 8000 4.6 230 13:26 29.10.2020
6164 Clouds 5 995 100 7000 4.6 220 12:43 29.10.2020
6165 Rain 5 995 100 10000 5.1 220 12:19 29.10.2020
6166 Rain 5 995 100 10000 5.1 220 11:49 29.10.2020
6167 Rain 5 995 100 10000 5.7 220 11:27 29.10.2020
6168 Clouds 5 994 100 10000 5.7 220 10:58 29.10.2020
6169 Clouds 5 994 100 10000 6.2 220 10:36 29.10.2020
6170 Clouds 5 994 100 10000 6.2 220 10:18 29.10.2020
6171 Clouds 5 994 100 10000 6.2 220 09:46 29.10.2020
6172 Clouds 6 994 93 10000 7.2 220 09:20 29.10.2020
6173 Clouds 6 993 93 10000 5.7 220 08:40 29.10.2020
6174 Clouds 6 993 93 10000 5.7 220 08:19 29.10.2020
6175 Clouds 6 993 93 8000 7.7 220 07:48 29.10.2020
6176 Clouds 6 993 100 10000 7.2 220 06:58 29.10.2020
6177 Clouds 6 992 100 9000 6.7 210 06:24 29.10.2020
6178 Clouds 6 992 100 10000 7.7 210 04:47 29.10.2020
6179 Rain 5 995 96 4647 2.41 149 02:18 29.10.2020
6180 Rain 5 996 95 10000 2.48 169 00:31 29.10.2020
6181 Clouds 6 997 93 10000 3.11 189 23:59 28.10.2020
6182 Clouds 6 998 91 10000 4.14 195 23:22 28.10.2020
6183 Clouds 6 997 93 10000 6.2 200 22:56 28.10.2020
6184 Clouds 6 997 93 10000 6.2 200 22:37 28.10.2020
6185 Clouds 6 997 93 10000 6.2 200 22:19 28.10.2020
6186 Clouds 6 997 93 8000 5.7 200 21:43 28.10.2020
6187 Clouds 6 997 93 8000 5.7 200 21:25 28.10.2020
6188 Clouds 6 997 100 10000 5.1 200 20:43 28.10.2020
6189 Clouds 6 997 100 10000 5.1 200 20:23 28.10.2020
6190 Clouds 6 997 100 9000 5.1 200 19:53 28.10.2020
6191 Clouds 5 997 100 10000 4.1 180 19:30 28.10.2020
6192 Rain 5 997 100 5000 3.6 180 18:51 28.10.2020
6193 Clouds 5 997 93 10000 3.6 190 18:22 28.10.2020
6194 Rain 5 997 93 10000 5.1 220 17:58 28.10.2020
6195 Clouds 5 997 93 10000 6.2 200 17:39 28.10.2020
6196 Clouds 6 997 93 10000 5.1 210 17:21 28.10.2020
6197 Clouds 6 997 93 10000 5.1 210 16:44 28.10.2020
6198 Clouds 6 997 93 10000 5.1 210 16:25 28.10.2020
6199 Clouds 6 996 93 10000 5.1 230 15:41 28.10.2020
6200 Clouds 6 996 93 10000 5.1 230 15:19 28.10.2020
6201 Clouds 6 997 95 7030 3.88 216 15:19 28.10.2020
6202 Clouds 6 995 100 10000 4.1 220 14:44 28.10.2020
6203 Clouds 6 995 100 10000 4.1 220 14:26 28.10.2020
6204 Clouds 6 997 94 10000 3.2 213 12:50 28.10.2020
6205 Clouds 6 997 91 10000 3.22 204 12:31 28.10.2020
6206 Clouds 6 997 92 10000 2.78 203 11:59 28.10.2020
6207 Clouds 6 997 92 10000 2.78 203 11:41 28.10.2020
6208 Mist 5 994 100 3000 2.6 210 11:20 28.10.2020
6209 Clouds 5 994 100 10000 3.6 220 10:50 28.10.2020
6210 Clouds 5 994 100 10000 3.6 220 10:32 28.10.2020
6211 Clouds 5 994 100 10000 3.1 220 09:45 28.10.2020
6212 Clouds 5 994 100 10000 3.1 220 09:24 28.10.2020
6213 Clouds 5 994 100 10000 4.1 220 08:51 28.10.2020
6214 Clouds 5 994 100 10000 4.1 210 08:32 28.10.2020
6215 Clouds 5 994 100 10000 3.6 210 07:54 28.10.2020
6216 Clouds 5 994 100 10000 3.6 220 07:31 28.10.2020
6217 Mist 5 994 100 3000 4.1 220 06:57 28.10.2020
6218 Clouds 5 994 100 10000 4.6 220 06:38 28.10.2020
6219 Clouds 5 995 100 10000 3.6 200 05:44 28.10.2020
6220 Clouds 5 995 100 7000 3.6 210 04:50 28.10.2020
6221 Clouds 4 995 100 10000 3.1 220 03:53 28.10.2020
6222 Clouds 4 996 100 10000 3.6 210 01:56 28.10.2020
6223 Clouds 3 996 100 10000 3.6 220 00:33 28.10.2020
6224 Clouds 3 996 100 10000 5.1 220 23:47 27.10.2020
6225 Clouds 3 996 100 10000 4.6 230 23:22 27.10.2020
6226 Clouds 3 995 100 10000 5.7 230 22:45 27.10.2020
6227 Clouds 3 995 100 10000 5.7 230 22:19 27.10.2020
6228 Clouds 3 995 100 10000 7.2 230 21:57 27.10.2020
6229 Clouds 3 994 100 10000 7.7 230 21:38 27.10.2020
6230 Clouds 3 994 100 10000 8.2 220 21:19 27.10.2020
6231 Clouds 3 994 100 10000 8.2 220 20:50 27.10.2020
6232 Clouds 4 993 93 10000 8.7 220 20:24 27.10.2020
6233 Clouds 5 992 93 10000 11.3 210 19:57 27.10.2020
6234 Clouds 6 991 93 10000 9.3 200 19:37 27.10.2020
6235 Clouds 6 991 93 10000 9.3 200 19:18 27.10.2020
6236 Clouds 6 992 100 10000 8.2 190 18:44 27.10.2020
6237 Clouds 6 992 100 10000 8.2 190 18:22 27.10.2020
6238 Clouds 7 992 93 10000 9.8 190 17:57 27.10.2020
6239 Clouds 7 992 100 9000 6.7 160 17:38 27.10.2020
6240 Clouds 6 992 100 9000 5.1 140 17:18 27.10.2020
6241 Clouds 6 993 100 7000 5.1 130 16:42 27.10.2020
6242 Rain 6 993 100 7000 5.1 130 16:23 27.10.2020
6243 Rain 6 994 100 3900 4.6 130 15:42 27.10.2020
6244 Rain 6 995 100 1400 4.6 120 15:24 27.10.2020
6245 Rain 5 996 100 500 4.6 120 14:49 27.10.2020
6246 Rain 5 996 100 500 4.6 120 14:29 27.10.2020
6247 Rain 5 997 100 500 4.6 110 13:58 27.10.2020
6248 Rain 5 997 100 500 3.1 100 13:28 27.10.2020
6249 Rain 4 999 100 250 3.6 80 12:44 27.10.2020
6250 Rain 4 999 100 250 3.6 80 12:25 27.10.2020
6251 Rain 4 999 100 300 4.1 90 11:59 27.10.2020
6252 Rain 4 1000 100 450 3.6 80 11:41 27.10.2020
6253 Fog 4 1000 100 450 3.6 90 11:21 27.10.2020
6254 Rain 4 1001 100 400 2.6 80 10:43 27.10.2020
6255 Rain 4 1001 100 400 2.6 80 10:20 27.10.2020
6256 Rain 4 1001 100 250 2.6 130 09:28 27.10.2020
6257 Rain 4 1001 100 200 2.6 130 08:58 27.10.2020
6258 Fog 4 1001 100 250 2.6 130 08:30 27.10.2020
6259 Fog 4 1001 100 300 2.6 140 07:53 27.10.2020
6260 Fog 4 1002 100 250 3.6 150 07:35 27.10.2020
6261 Fog 4 1002 100 700 4.1 170 06:54 27.10.2020
6262 Fog 4 1002 100 600 3.6 160 06:20 27.10.2020
6263 Clouds 4 1002 100 10000 3.6 190 05:45 27.10.2020
6264 Clouds 4 1002 100 10000 3.6 190 05:24 27.10.2020
6265 Clouds 4 1002 100 10000 4.6 180 03:19 27.10.2020
6266 Clouds 4 1003 100 10000 4.6 210 01:20 27.10.2020
6267 Clouds 4 1002 100 10000 5.7 210 00:38 27.10.2020
6268 Clouds 4 1002 100 800 5.7 210 23:38 26.10.2020
6269 Clouds 4 1002 100 7000 5.7 200 22:58 26.10.2020
6270 Clouds 4 1002 100 4000 5.1 200 22:39 26.10.2020
6271 Clouds 4 1001 100 2200 5.1 200 22:18 26.10.2020
6272 Clouds 4 1001 100 650 5.1 200 21:37 26.10.2020
6273 Clouds 4 1001 100 650 5.1 200 21:18 26.10.2020
6274 Clouds 4 1001 100 550 5.7 200 20:49 26.10.2020
6275 Clouds 4 1000 100 450 5.1 210 20:27 26.10.2020
6276 Clouds 4 1000 100 350 5.1 200 19:49 26.10.2020
6277 Fog 4 1000 100 300 4.6 200 19:29 26.10.2020
6278 Fog 4 1000 100 350 4.1 190 18:59 26.10.2020
6279 Fog 4 1000 100 550 3.1 180 18:39 26.10.2020
6280 Fog 4 1000 100 550 3.1 180 18:20 26.10.2020
6281 Clouds 4 999 100 900 3.6 180 17:44 26.10.2020
6282 Rain 4 999 100 900 3.6 180 17:23 26.10.2020
6283 Clouds 3 999 100 1200 3.6 170 16:45 26.10.2020
6284 Clouds 3 999 100 1600 3.6 170 16:22 26.10.2020
6285 Rain 3 999 100 1600 3.6 170 15:56 26.10.2020
6286 Rain 3 999 100 3200 3.6 150 15:38 26.10.2020
6287 Rain 3 999 100 3200 3.6 150 15:18 26.10.2020
6288 Mist 3 998 100 1000 4.1 160 14:44 26.10.2020
6289 Rain 3 998 100 6000 3.6 160 14:18 26.10.2020
6290 Mist 3 998 100 4000 5.1 160 13:41 26.10.2020
6291 Rain 3 998 100 4000 5.1 160 13:22 26.10.2020
6292 Rain 3 998 100 4000 5.1 150 12:45 26.10.2020
6293 Mist 3 999 100 1400 4.1 150 12:26 26.10.2020
6294 Rain 3 999 100 1400 4.1 150 11:48 26.10.2020
6295 Mist 2 999 100 1000 4.6 150 11:27 26.10.2020
6296 Rain 2 999 100 1000 5.1 150 10:59 26.10.2020
6297 Rain 2 999 100 2000 5.1 140 10:40 26.10.2020
6298 Rain 2 999 100 7000 5.1 150 10:20 26.10.2020
6299 Rain 2 999 100 7000 5.1 160 09:43 26.10.2020
6300 Rain 2 999 100 7000 5.1 160 09:21 26.10.2020
6301 Mist 1 999 100 3000 5.1 150 08:29 26.10.2020
6302 Clouds 1 999 100 6000 4.6 150 07:53 26.10.2020
6303 Clouds 1 1000 100 10000 5.1 150 07:34 26.10.2020
6304 Clouds 1 1000 100 10000 5.7 140 06:37 26.10.2020
6305 Rain 0 1001 94 9000 5.7 130 04:22 26.10.2020
6306 Rain 0 1002 93 9000 6.2 120 03:33 26.10.2020
6307 Snow -1 1004 100 5000 8.2 120 01:38 26.10.2020
6308 Clouds -1 1004 100 5000 7.7 120 00:54 26.10.2020
6309 Clouds -1 1005 100 2300 7.2 120 00:31 26.10.2020
6310 Snow -1 1006 100 2500 5.7 120 23:38 25.10.2020
6311 Snow -2 1006 100 9000 5.7 120 23:19 25.10.2020
6312 Snow -2 1007 100 10000 5.1 120 22:40 25.10.2020
6313 Snow -2 1007 100 10000 5.1 120 22:40 25.10.2020
6314 Snow -2 1007 100 10000 5.1 120 22:20 25.10.2020
6315 Rain -2 1007 100 10000 5.1 120 21:40 25.10.2020
6316 Rain -2 1007 100 10000 5.1 120 21:21 25.10.2020
6317 Rain -2 1008 100 10000 4.6 120 20:46 25.10.2020
6318 Snow -2 1008 100 10000 4.6 120 20:46 25.10.2020
6319 Snow -2 1008 100 10000 4.6 120 20:27 25.10.2020
6320 Clouds -2 1008 100 10000 4.6 120 19:59 25.10.2020
6321 Clouds -2 1008 100 10000 4.6 120 19:41 25.10.2020
6322 Clouds -2 1008 100 10000 4.6 120 19:21 25.10.2020
6323 Fog -2 1008 100 1100 4.1 130 18:41 25.10.2020
6324 Fog -2 1008 100 1100 4.1 130 18:23 25.10.2020
6325 Clouds -2 1007 100 10000 5.1 120 17:58 25.10.2020
6326 Fog -2 1008 100 1100 3.1 130 17:38 25.10.2020
6327 Fog -2 1008 100 1100 3.1 130 17:20 25.10.2020
6328 Fog -1 1008 100 1000 3.1 150 16:47 25.10.2020
6329 Fog -1 1008 100 1000 3.1 150 16:28 25.10.2020
6330 Fog -1 1008 100 900 3.1 130 15:52 25.10.2020
6331 Fog -1 1008 100 600 3.1 130 15:31 25.10.2020
6332 Fog -1 1008 100 400 2.6 140 14:58 25.10.2020
6333 Fog -1 1007 100 550 1.5 150 14:32 25.10.2020
6334 Fog -1 1007 100 400 2.1 200 13:59 25.10.2020
6335 Fog -1 1008 100 250 2.1 220 13:40 25.10.2020
6336 Fog -1 1007 100 250 2.1 210 13:19 25.10.2020
6337 Fog -1 1007 100 450 2.1 200 12:46 25.10.2020
6338 Fog -1 1007 100 450 2.1 200 12:25 25.10.2020
6339 Fog -1 1006 100 250 2.1 210 11:43 25.10.2020
6340 Fog -1 1006 100 250 2.1 210 11:21 25.10.2020
6341 Fog -1 1006 100 350 1.5 190 10:56 25.10.2020
6342 Fog -1 1006 100 250 1.5 240 10:38 25.10.2020
6343 Fog -1 1006 100 250 1.5 240 10:19 25.10.2020
6344 Fog -1 1005 100 300 2.1 240 09:39 25.10.2020
6345 Fog -1 1005 100 300 2.1 240 09:19 25.10.2020
6346 Fog -1 1005 100 300 2.1 240 09:19 25.10.2020
6347 Fog -1 1005 100 300 2.1 240 09:19 25.10.2020
6348 Fog -1 1004 100 350 1.5 240 08:41 25.10.2020
6349 Fog -1 1004 100 350 1.5 240 08:22 25.10.2020
6350 Fog 0 1004 98 400 1.5 230 07:46 25.10.2020
6351 Fog 0 1004 98 400 1 230 07:18 25.10.2020
6352 Fog 0 1003 98 500 1 0 06:30 25.10.2020
6353 Fog 0 1003 98 600 2.1 260 05:22 25.10.2020
6354 Fog 0 1002 98 650 1.5 270 04:51 25.10.2020
6355 Clouds 0 1001 98 10000 2.6 310 02:38 25.10.2020
6356 Clouds 0 1000 98 10000 2.1 300 01:32 25.10.2020
6357 Clouds 0 999 97 10000 2.1 300 00:48 25.10.2020
6358 Clouds 0 999 95 10000 2.1 290 00:19 25.10.2020
6359 Clouds 0 999 95 10000 2.1 290 23:52 24.10.2020
6360 Clouds 0 999 94 10000 2.1 300 23:25 24.10.2020
6361 Clouds 0 998 94 10000 2.6 310 22:43 24.10.2020
6362 Clouds 0 998 93 10000 2.6 310 22:24 24.10.2020
6363 Clouds 0 998 93 10000 2.6 310 21:59 24.10.2020
6364 Clouds 0 998 93 10000 3.1 310 21:39 24.10.2020
6365 Clouds 0 998 97 10000 3.1 310 21:20 24.10.2020
6366 Clouds 0 997 97 10000 2.1 310 20:47 24.10.2020
6367 Clouds 0 997 98 10000 1.5 300 20:22 24.10.2020
6368 Clouds 0 997 98 10000 2.6 310 19:47 24.10.2020
6369 Clouds 1 997 98 10000 3.1 310 19:27 24.10.2020
6370 Clouds 0 996 98 10000 3.1 300 18:56 24.10.2020
6371 Clouds 0 996 98 10000 2.6 300 18:38 24.10.2020
6372 Clouds 1 996 96 10000 3.6 310 18:19 24.10.2020
6373 Clouds 0 996 96 10000 3.1 310 17:37 24.10.2020
6374 Clouds 0 996 91 10000 3.1 310 17:19 24.10.2020
6375 Clouds 0 995 91 10000 2.6 280 16:42 24.10.2020
6376 Clouds 0 995 96 10000 2.6 280 16:19 24.10.2020
6377 Clouds 0 994 96 10000 3.1 280 15:39 24.10.2020
6378 Clouds 0 994 97 10000 3.1 280 15:19 24.10.2020
6379 Clouds 0 994 98 5000 3.1 270 14:46 24.10.2020
6380 Clouds 0 994 96 5000 3.1 270 14:27 24.10.2020
6381 Clouds -1 994 100 2600 2.1 260 13:45 24.10.2020
6382 Clouds -1 994 100 2600 2.1 260 13:22 24.10.2020
6383 Clouds -2 993 100 1900 2.1 240 12:42 24.10.2020
6384 Clouds -2 993 100 1900 2.1 240 12:21 24.10.2020
6385 Clouds -2 993 92 2100 1.5 240 11:51 24.10.2020
6386 Clouds -2 993 92 4100 2.1 230 11:27 24.10.2020
6387 Clouds -3 992 100 10000 1.5 290 10:52 24.10.2020
6388 Clouds -3 992 100 10000 1.5 290 10:33 24.10.2020
6389 Clouds -3 992 100 10000 2.1 300 09:50 24.10.2020
6390 Clouds -3 992 92 10000 2.6 300 09:32 24.10.2020
6391 Clouds -3 991 92 10000 3.1 320 08:58 24.10.2020
6392 Clouds -3 991 92 10000 3.1 310 08:19 24.10.2020
6393 Clouds -3 991 92 10000 3.6 310 07:53 24.10.2020
6394 Clouds -3 991 92 10000 3.6 310 07:53 24.10.2020
6395 Clouds -3 990 92 10000 4.1 320 07:24 24.10.2020
6396 Clouds -3 990 92 3200 3.6 310 06:53 24.10.2020
6397 Clouds -3 990 92 3200 3.6 310 06:53 24.10.2020
6398 Clouds -4 990 100 10000 2.1 260 06:22 24.10.2020
6399 Clouds -5 989 92 10000 2.6 230 02:30 24.10.2020
6400 Snow -5 989 92 4700 3.6 220 01:20 24.10.2020
6401 Snow -5 989 92 10000 3.6 230 00:40 24.10.2020
6402 Snow -5 989 92 10000 3.6 230 00:40 24.10.2020
6403 Snow -5 989 92 10000 3.6 230 00:21 24.10.2020
6404 Clouds -5 989 92 6000 4.1 230 23:47 23.10.2020
6405 Clouds -5 989 92 6000 4.1 230 23:25 23.10.2020
6406 Clouds -5 990 92 10000 3.6 220 22:57 23.10.2020
6407 Clouds -5 990 92 10000 4.1 230 22:37 23.10.2020
6408 Clouds -5 990 92 10000 4.6 230 22:18 23.10.2020
6409 Clouds -5 990 92 10000 4.6 220 21:39 23.10.2020
6410 Clouds -5 990 92 10000 4.6 220 21:21 23.10.2020
6411 Clouds -5 990 100 10000 2.6 230 20:40 23.10.2020
6412 Clouds -5 990 100 10000 2.6 230 20:20 23.10.2020
6413 Clouds -4 990 92 10000 3.6 230 19:48 23.10.2020
6414 Clouds -4 990 92 10000 3.6 230 19:30 23.10.2020
6415 Clouds -4 990 92 10000 3.6 240 18:53 23.10.2020
6416 Clouds -4 990 92 10000 4.1 230 18:30 23.10.2020
6417 Clouds -3 990 92 10000 3.6 240 17:48 23.10.2020
6418 Clouds -3 990 92 10000 3.6 240 17:24 23.10.2020
6419 Clouds -3 990 92 10000 4.1 230 16:56 23.10.2020
6420 Clouds -3 990 92 10000 4.1 230 16:56 23.10.2020
6421 Clouds -3 990 92 10000 4.1 230 16:56 23.10.2020
6422 Clouds -3 990 92 10000 4.1 230 16:56 23.10.2020
6423 Clouds -3 990 92 10000 5.1 230 16:36 23.10.2020
6424 Clouds -3 990 92 10000 4.1 230 15:59 23.10.2020
6425 Clouds -3 990 92 10000 4.1 240 15:41 23.10.2020
6426 Clouds -3 990 92 10000 4.1 240 15:20 23.10.2020
6427 Clouds -3 990 92 10000 4.6 250 14:49 23.10.2020
6428 Clouds -3 990 92 10000 5.1 260 14:30 23.10.2020
6429 Clouds -3 990 100 10000 4.1 250 13:44 23.10.2020
6430 Clouds -3 990 100 10000 4.1 250 13:24 23.10.2020
6431 Clouds -2 990 92 10000 3.6 270 12:51 23.10.2020
6432 Clouds -3 990 100 10000 3.6 270 12:31 23.10.2020
6433 Clouds -2 990 92 10000 3.6 270 11:56 23.10.2020
6434 Clouds -2 990 92 10000 3.6 270 11:56 23.10.2020
6435 Clouds -2 990 92 10000 2.6 280 11:38 23.10.2020
6436 Clouds -2 990 92 10000 3.6 260 11:19 23.10.2020
6437 Rain -2 990 92 10000 2.6 270 10:39 23.10.2020
6438 Rain -2 990 92 10000 2.6 270 10:20 23.10.2020
6439 Clouds -2 989 92 10000 3.6 270 09:43 23.10.2020
6440 Clouds -2 989 92 10000 3.6 270 09:23 23.10.2020
6441 Clouds -2 989 92 10000 3.1 270 08:51 23.10.2020
6442 Clouds -2 989 100 10000 2.1 280 08:26 23.10.2020
6443 Clouds -2 990 100 10000 2.6 300 07:27 23.10.2020
6444 Clouds -2 990 100 10000 2.1 290 06:49 23.10.2020
6445 Clouds -2 990 100 3800 2.6 290 06:20 23.10.2020
6446 Rain -1 991 100 7000 1.5 310 03:44 23.10.2020
6447 Clouds -1 991 100 10000 2.1 330 02:27 23.10.2020
6448 Clouds -1 992 100 3500 2.6 10 00:52 23.10.2020
6449 Clouds -1 992 100 2800 2.6 30 00:32 23.10.2020
6450 Clouds -1 993 100 3700 2.6 30 23:37 22.10.2020
6451 Clouds -1 993 100 3500 2.6 30 23:19 22.10.2020
6452 Clouds -1 993 100 4500 2.6 20 22:45 22.10.2020
6453 Clouds -1 993 100 4500 2.6 20 22:23 22.10.2020
6454 Clouds -1 993 100 10000 3.1 30 21:54 22.10.2020
6455 Clouds -1 993 100 10000 3.6 50 21:32 22.10.2020
6456 Clouds -1 994 100 10000 4.1 50 20:59 22.10.2020
6457 Clouds -1 994 100 10000 4.1 50 20:41 22.10.2020
6458 Clouds -1 994 100 10000 4.1 50 20:23 22.10.2020
6459 Clouds -1 995 100 10000 3.6 60 19:43 22.10.2020
6460 Clouds -1 995 100 10000 3.6 60 19:20 22.10.2020
6461 Clouds -1 995 100 10000 4.6 60 18:44 22.10.2020
6462 Clouds -1 995 100 10000 4.6 60 18:22 22.10.2020
6463 Clouds -1 995 100 10000 4.6 60 17:48 22.10.2020
6464 Clouds -1 996 100 8000 5.1 60 17:26 22.10.2020
6465 Clouds -1 996 100 6000 4.6 60 16:59 22.10.2020
6466 Clouds -1 996 100 4800 4.6 60 16:41 22.10.2020
6467 Clouds -1 996 100 4800 4.6 60 16:23 22.10.2020
6468 Clouds -1 996 100 2500 4.6 70 15:48 22.10.2020
6469 Clouds -1 997 100 1600 5.1 70 15:26 22.10.2020
6470 Clouds -1 997 100 4500 4.6 70 14:50 22.10.2020
6471 Clouds -1 997 92 4500 4.6 70 14:26 22.10.2020
6472 Clouds -1 997 92 4500 4.6 70 14:26 22.10.2020
6473 Clouds -1 997 92 4000 5.1 80 13:49 22.10.2020
6474 Clouds -1 998 92 2500 4.6 70 13:24 22.10.2020
6475 Clouds -1 998 92 6000 4.6 70 12:57 22.10.2020
6476 Clouds -1 998 92 7000 5.1 80 12:27 22.10.2020
6477 Clouds -1 999 92 7000 4.6 80 11:50 22.10.2020
6478 Clouds -1 999 92 3000 5.1 80 11:20 22.10.2020
6479 Snow -2 999 100 5000 5.1 80 10:52 22.10.2020
6480 Snow -2 1000 100 4000 5.1 80 10:30 22.10.2020
6481 Snow -2 1000 100 2000 5.1 80 09:57 22.10.2020
6482 Clouds -2 1000 100 2000 5.1 80 09:38 22.10.2020
6483 Snow -2 1000 100 5000 5.1 90 08:56 22.10.2020
6484 Snow -2 1000 100 2000 5.7 90 08:37 22.10.2020
6485 Clouds -2 1001 100 2500 6.2 90 08:18 22.10.2020
6486 Clouds -2 1001 92 4000 5.7 90 07:42 22.10.2020
6487 Clouds -2 1001 92 6000 6.2 90 06:59 22.10.2020
6488 Snow -2 1002 92 5000 6.2 100 06:36 22.10.2020
6489 Snow -2 1002 92 3900 6.7 100 05:42 22.10.2020
6490 Snow -2 1003 92 3000 6.7 100 05:19 22.10.2020
6491 Snow -3 1006 92 1600 6.2 80 01:53 22.10.2020
6492 Snow -4 1007 100 2400 7.2 70 00:27 22.10.2020
6493 Snow -4 1007 100 2400 5.7 80 23:57 21.10.2020
6494 Snow -4 1008 100 8000 5.7 80 23:33 21.10.2020
6495 Rain -4 1009 100 10000 4.6 80 22:44 21.10.2020
6496 Rain -3 1009 92 10000 4.6 80 22:20 21.10.2020
6497 Rain -3 1009 92 10000 4.6 80 22:20 21.10.2020
6498 Rain -3 1009 92 10000 4.6 80 21:57 21.10.2020
6499 Clouds -4 1009 100 10000 5.1 90 21:38 21.10.2020
6500 Clouds -4 1009 100 10000 5.1 90 21:19 21.10.2020
6501 Clouds -4 1010 100 10000 5.7 90 20:48 21.10.2020
6502 Clouds -4 1010 92 10000 4.6 90 20:19 21.10.2020
6503 Clouds -4 1010 92 10000 4.6 90 19:56 21.10.2020
6504 Clouds -4 1010 92 10000 6.2 100 19:36 21.10.2020
6505 Clouds -4 1011 92 4200 4.6 90 19:18 21.10.2020
6506 Clouds -4 1011 92 6000 5.1 100 18:45 21.10.2020
6507 Clouds -4 1011 92 6000 5.1 100 18:21 21.10.2020
6508 Clouds -4 1012 92 3900 3.6 100 17:42 21.10.2020
6509 Clouds -4 1012 92 3100 3.6 90 17:19 21.10.2020
6510 Clouds -4 1012 92 3100 3.6 90 16:41 21.10.2020
6511 Clouds -4 1012 92 10000 4.1 100 16:21 21.10.2020
6512 Clouds -4 1012 92 2200 4.1 110 15:57 21.10.2020
6513 Clouds -4 1012 92 2200 4.1 110 15:38 21.10.2020
6514 Clouds -4 1013 92 2200 3.6 120 15:19 21.10.2020
6515 Clouds -4 1013 92 8000 3.1 120 14:43 21.10.2020
6516 Clouds -4 1013 92 10000 4.1 110 14:25 21.10.2020
6517 Clouds -4 1013 92 10000 3.6 120 13:42 21.10.2020
6518 Clouds -4 1013 92 10000 3.1 110 13:24 21.10.2020
6519 Clouds -4 1014 92 10000 3.1 100 12:47 21.10.2020
6520 Clouds -5 1014 100 9000 3.6 100 12:24 21.10.2020
6521 Clouds -5 1014 100 10000 2.6 110 11:59 21.10.2020
6522 Clouds -5 1014 100 10000 2.6 110 11:40 21.10.2020
6523 Clouds -5 1014 100 10000 3.1 110 11:19 21.10.2020
6524 Clouds -5 1014 100 10000 3.6 120 10:41 21.10.2020
6525 Clouds -4 1014 92 10000 3.1 110 10:21 21.10.2020
6526 Clouds -5 1014 100 10000 2.6 100 09:51 21.10.2020
6527 Clouds -5 1014 100 2500 1.5 90 09:28 21.10.2020
6528 Clouds -5 1014 100 7000 2.1 100 08:42 21.10.2020
6529 Clouds -5 1014 100 8000 1 110 08:24 21.10.2020
6530 Clouds -5 1014 100 4000 0.5 0 07:57 21.10.2020
6531 Clouds -4 1014 92 10000 1 0 07:29 21.10.2020
6532 Clouds -4 1014 92 10000 1 70 06:48 21.10.2020
6533 Clouds -5 1014 100 10000 1.5 70 06:26 21.10.2020
6534 Clouds -5 1015 100 10000 0.23 190 04:45 21.10.2020
6535 Clouds -5 1015 100 10000 2.6 340 00:50 21.10.2020
6536 Clouds -4 1015 92 10000 2.1 320 23:37 20.10.2020
6537 Clouds -4 1016 92 6000 1 0 22:49 20.10.2020
6538 Clouds -4 1016 92 4300 1 290 22:25 20.10.2020
6539 Clouds -4 1016 92 10000 1 0 21:48 20.10.2020
6540 Clouds -4 1016 92 10000 1 0 21:20 20.10.2020
6541 Clouds -5 1016 100 10000 1 0 20:44 20.10.2020
6542 Clouds -5 1016 100 9000 2.1 20 20:25 20.10.2020
6543 Clouds -4 1016 92 9000 2.6 40 19:57 20.10.2020
6544 Clouds -4 1016 92 9000 2.6 40 19:39 20.10.2020
6545 Clouds -4 1016 92 10000 2.6 20 19:20 20.10.2020
6546 Clouds -4 1016 92 10000 2.1 20 18:45 20.10.2020
6547 Clouds -4 1016 92 10000 1 0 18:26 20.10.2020
6548 Clouds -4 1016 92 4600 2.6 10 17:42 20.10.2020
6549 Clouds -4 1016 100 3400 1.5 360 17:23 20.10.2020
6550 Clouds -4 1016 92 10000 1.5 320 16:47 20.10.2020
6551 Clouds -4 1016 92 10000 1.5 320 16:47 20.10.2020
6552 Clouds -4 1016 92 10000 2.1 310 16:26 20.10.2020
6553 Clouds -4 1016 92 4300 2.6 320 15:50 20.10.2020
6554 Clouds -4 1016 92 3900 1.5 300 15:31 20.10.2020
6555 Clouds -4 1016 92 4700 2.1 320 14:55 20.10.2020
6556 Clouds -4 1016 92 4700 2.1 320 14:37 20.10.2020
6557 Clouds -4 1016 92 6000 2.1 310 14:19 20.10.2020
6558 Clouds -4 1015 92 9000 2.6 320 13:42 20.10.2020
6559 Clouds -4 1015 92 10000 2.6 320 13:21 20.10.2020
6560 Clouds -5 1015 100 10000 2.6 330 12:54 20.10.2020
6561 Clouds -5 1015 100 10000 3.1 320 12:31 20.10.2020
6562 Clouds -5 1015 100 10000 2.6 340 11:49 20.10.2020
6563 Clouds -5 1015 100 10000 2.6 340 11:30 20.10.2020
6564 Mist -5 1015 92 1000 2.1 320 10:58 20.10.2020
6565 Fog -5 1015 92 700 2.6 340 10:28 20.10.2020
6566 Fog -5 1015 100 1800 3.1 330 09:50 20.10.2020
6567 Fog -5 1015 92 1000 2.6 330 09:20 20.10.2020
6568 Clouds -5 1014 100 2500 2.6 330 08:53 20.10.2020
6569 Clouds -5 1014 100 1800 2.6 310 08:27 20.10.2020
6570 Mist -5 1014 100 2500 2.6 340 07:49 20.10.2020
6571 Clouds -4 1014 92 6000 2.6 350 07:24 20.10.2020
6572 Clouds -4 1014 92 10000 2.6 350 06:24 20.10.2020
6573 Clouds -4 1014 100 10000 4.1 350 04:58 20.10.2020
6574 Clouds -3 1013 92 8000 3.6 350 02:33 20.10.2020
6575 Clouds -3 1013 92 3300 4.1 350 01:43 20.10.2020
6576 Clouds -3 1013 100 9000 2.6 360 00:56 20.10.2020
6577 Clouds -3 1013 100 9000 2.6 360 00:37 20.10.2020
6578 Clouds -3 1013 100 10000 2.6 360 00:18 20.10.2020
6579 Clouds -3 1012 100 10000 3.6 340 23:29 19.10.2020
6580 Clouds -2 1012 92 10000 3.6 350 22:59 19.10.2020
6581 Clouds -2 1012 92 10000 3.1 340 22:30 19.10.2020
6582 Clouds -2 1012 92 10000 3.6 350 21:58 19.10.2020
6583 Clouds -2 1012 92 10000 3.6 350 21:39 19.10.2020
6584 Clouds -2 1012 92 10000 3.6 360 21:19 19.10.2020
6585 Clouds -2 1011 92 10000 4.1 350 20:44 19.10.2020
6586 Clouds -2 1011 92 10000 4.1 340 20:26 19.10.2020
6587 Clouds -2 1011 92 10000 4.1 340 19:46 19.10.2020
6588 Clouds -2 1011 92 10000 4.1 340 19:21 19.10.2020
6589 Clouds -2 1011 92 10000 3.6 340 18:51 19.10.2020
6590 Clouds -1 1011 86 10000 3.6 350 18:31 19.10.2020
6591 Clouds -1 1011 86 10000 4.6 360 17:49 19.10.2020
6592 Clouds -1 1011 86 10000 5.1 360 17:29 19.10.2020
6593 Clouds -1 1011 80 10000 4.6 10 16:55 19.10.2020
6594 Clouds -1 1011 86 10000 4.1 360 16:30 19.10.2020
6595 Clouds -1 1011 96 10000 3.73 19 15:59 19.10.2020
6596 Clouds -1 1011 96 10000 3.73 19 15:37 19.10.2020
6597 Clouds 0 1011 95 10000 4.02 25 15:19 19.10.2020
6598 Clouds 0 1011 95 10000 4.02 25 14:43 19.10.2020
6599 Clouds 0 1011 94 10000 4.39 30 14:23 19.10.2020
6600 Clouds 0 1011 94 10000 4.39 30 13:46 19.10.2020
6601 Clouds 0 1010 93 10000 4.77 37 13:28 19.10.2020
6602 Clouds 0 1010 93 10000 4.77 37 12:46 19.10.2020
6603 Clouds 0 1010 94 10000 5.05 41 12:26 19.10.2020
6604 Clouds -2 1007 86 10000 7.7 30 11:51 19.10.2020
6605 Clouds -2 1007 86 10000 7.7 30 11:24 19.10.2020
6606 Clouds -2 1007 86 10000 7.2 30 10:46 19.10.2020
6607 Clouds -2 1007 86 10000 7.2 30 10:28 19.10.2020
6608 Clouds -1 1007 80 10000 7.7 40 09:58 19.10.2020
6609 Clouds -1 1006 80 10000 8.7 40 09:39 19.10.2020
6610 Clouds -1 1006 80 10000 7.2 30 09:18 19.10.2020
6611 Clouds -1 1005 80 10000 8.2 40 08:45 19.10.2020
6612 Clouds -1 1005 80 10000 8.2 40 08:21 19.10.2020
6613 Clouds -1 1005 86 10000 8.2 40 07:21 19.10.2020
6614 Clouds -1 1004 86 10000 8.2 40 06:50 19.10.2020
6615 Clouds -1 1003 92 10000 8.2 40 05:40 19.10.2020
6616 Clouds -1 1002 92 10000 9.3 40 03:46 19.10.2020
6617 Clouds -1 1000 92 10000 8.7 50 01:43 19.10.2020
6618 Snow -1 999 92 8000 8.7 50 00:43 19.10.2020
6619 Snow -1 999 92 5000 9.3 50 23:59 18.10.2020
6620 Snow -1 998 92 5000 10.3 50 23:40 18.10.2020
6621 Snow -1 998 92 5000 10.3 50 23:19 18.10.2020
6622 Snow -1 998 92 4500 10.3 50 22:44 18.10.2020
6623 Snow -1 998 92 6000 10.3 40 22:19 18.10.2020
6624 Snow -1 997 92 5000 10.3 40 21:43 18.10.2020
6625 Snow -1 997 92 5000 10.3 40 21:21 18.10.2020
6626 Snow -1 997 92 3500 11.3 40 20:45 18.10.2020
6627 Snow -1 997 92 3500 11.3 40 20:24 18.10.2020
6628 Snow -2 997 92 2700 11.3 40 19:50 18.10.2020
6629 Snow -2 997 92 3400 10.8 40 19:27 18.10.2020
6630 Snow -2 997 92 2700 11.3 40 18:51 18.10.2020
6631 Snow -1 997 86 3400 12.3 50 18:31 18.10.2020
6632 Snow -1 996 86 5000 11.8 50 17:59 18.10.2020
6633 Snow -2 996 92 4200 11.3 40 17:41 18.10.2020
6634 Snow -2 996 92 4200 11.3 40 17:21 18.10.2020
6635 Snow -2 996 92 10000 11.3 40 16:42 18.10.2020
6636 Snow -2 996 92 10000 11.3 40 16:23 18.10.2020
6637 Clouds -2 996 92 7000 11.8 40 15:43 18.10.2020
6638 Clouds -2 996 92 7000 11.8 40 15:19 18.10.2020
6639 Clouds -2 997 92 10000 10.8 40 14:57 18.10.2020
6640 Clouds -2 997 92 10000 9.3 40 14:31 18.10.2020
6641 Clouds -2 997 92 10000 10.8 40 13:59 18.10.2020
6642 Clouds -2 997 92 4000 9.3 40 13:40 18.10.2020
6643 Clouds -2 997 92 4000 9.3 40 13:22 18.10.2020
6644 Clouds -2 997 92 10000 9.3 50 12:43 18.10.2020
6645 Clouds -2 997 92 10000 9.3 50 12:22 18.10.2020
6646 Clouds -2 997 92 10000 8.7 50 11:42 18.10.2020
6647 Clouds -2 997 92 10000 8.7 50 11:23 18.10.2020
6648 Clouds -2 997 92 3200 9.8 50 10:45 18.10.2020
6649 Clouds -2 997 92 3200 9.8 50 10:21 18.10.2020
6650 Clouds -2 997 92 10000 9.8 50 09:58 18.10.2020
6651 Clouds -2 997 92 2600 8.7 50 09:39 18.10.2020
6652 Clouds -2 997 92 1300 9.3 50 09:19 18.10.2020
6653 Clouds -3 996 100 1200 10.3 50 08:43 18.10.2020
6654 Snow -3 996 100 1200 10.3 50 08:25 18.10.2020
6655 Snow -3 996 100 1200 9.8 50 07:48 18.10.2020
6656 Snow -2 996 92 3700 9.8 50 05:35 18.10.2020
6657 Clouds -1 996 92 2600 9.3 50 03:39 18.10.2020
6658 Snow -1 996 92 3500 10.3 60 02:39 18.10.2020
6659 Snow -1 996 100 5000 9.3 50 01:25 18.10.2020
6660 Snow 0 996 98 3600 9.3 60 00:35 18.10.2020
6661 Snow 0 996 98 3100 7.7 60 23:57 17.10.2020
6662 Snow 0 996 98 3200 8.2 60 23:39 17.10.2020
6663 Clouds 0 996 95 3200 8.2 60 23:20 17.10.2020
6664 Clouds 0 996 95 3600 8.2 60 22:54 17.10.2020
6665 Clouds 0 996 95 6000 7.2 60 22:21 17.10.2020
6666 Clouds 0 996 95 6000 7.2 60 21:59 17.10.2020
6667 Clouds 0 996 95 10000 6.7 70 21:40 17.10.2020
6668 Clouds 0 996 95 7000 6.7 60 21:20 17.10.2020
6669 Clouds 0 996 95 5000 6.7 60 20:43 17.10.2020
6670 Snow 0 996 95 10000 7.2 60 20:19 17.10.2020
6671 Clouds 0 996 95 10000 6.7 70 19:43 17.10.2020
6672 Snow 0 996 95 10000 6.7 70 19:20 17.10.2020
6673 Snow 1 996 95 8000 6.7 70 18:45 17.10.2020
6674 Rain 1 996 95 8000 6.7 70 18:25 17.10.2020
6675 Rain 2 996 100 7000 5.7 60 17:50 17.10.2020
6676 Rain 2 996 100 7000 5.7 60 17:23 17.10.2020
6677 Rain 3 996 100 7000 1.5 0 16:50 17.10.2020
6678 Rain 3 996 100 5000 4.6 60 16:24 17.10.2020
6679 Rain 3 997 100 1700 4.1 60 15:58 17.10.2020
6680 Rain 3 997 100 900 3.6 80 15:40 17.10.2020
6681 Rain 3 997 100 900 3.6 80 15:21 17.10.2020
6682 Rain 3 997 100 1100 2.6 80 14:53 17.10.2020
6683 Rain 3 997 100 1000 2.6 90 14:29 17.10.2020
6684 Rain 3 998 93 2500 3.6 100 13:58 17.10.2020
6685 Rain 2 998 100 3700 3.6 120 13:39 17.10.2020
6686 Clouds 2 999 100 10000 3.6 110 13:20 17.10.2020
6687 Rain 2 999 100 10000 4.1 110 12:41 17.10.2020
6688 Clouds 2 999 100 900 2.6 120 12:20 17.10.2020
6689 Rain